<?xml version="1.0" encoding="utf-8"?>
<gpx xmlns:xsi="http://www.w3.org/2001/XMLSchema-instance" xmlns:xsd="http://www.w3.org/2001/XMLSchema" version="1.1" creator="Shapelink.com" xmlns="http://www.topografix.com/GPX/1/1" xmlns:gpxtpx="http://www.garmin.com/xmlschemas/TrackPointExtension/v1">
  <metadata>
    <name>Löpning 7.73 km, 2019-10-21</name>
    <desc></desc>
    <author><name>Patrik Nyqvist</name></author> 
    <time>1970-01-01T01:00:00Z</time>
  </metadata>
  <trk>
    <name>Löpning 7.73 km, 2019-10-21</name>
    <trkseg>
      <trkpt lat="41.90386833" lon="12.50214333">
        <ele>73.458</ele>
        <time>1970-01-01T01:00:00Z</time>
      </trkpt>
      <trkpt lat="41.90386833" lon="12.50214333">
        <ele>73.458</ele>
        <time>1970-01-01T01:00:00Z</time>
      </trkpt>
      <trkpt lat="41.90388" lon="12.50213333">
        <ele>73.458</ele>
        <time>1970-01-01T01:00:00Z</time>
      </trkpt>
      <trkpt lat="41.90389" lon="12.50212333">
        <ele>73.458</ele>
        <time>1970-01-01T01:00:00Z</time>
      </trkpt>
      <trkpt lat="41.90390333" lon="12.50210667">
        <ele>73.458</ele>
        <time>1970-01-01T01:00:00Z</time>
      </trkpt>
      <trkpt lat="41.90391667" lon="12.50209333">
        <ele>73.458</ele>
        <time>1970-01-01T01:00:00Z</time>
      </trkpt>
      <trkpt lat="41.90392833" lon="12.50208167">
        <ele>73.458</ele>
        <time>1970-01-01T01:00:00Z</time>
      </trkpt>
      <trkpt lat="41.90394" lon="12.50206667">
        <ele>72.391</ele>
        <time>1970-01-01T01:00:00Z</time>
      </trkpt>
      <trkpt lat="41.90395" lon="12.50205667">
        <ele>72.391</ele>
        <time>1970-01-01T01:00:00Z</time>
      </trkpt>
      <trkpt lat="41.90396333" lon="12.50204667">
        <ele>72.391</ele>
        <time>1970-01-01T01:00:00Z</time>
      </trkpt>
      <trkpt lat="41.903975" lon="12.50203333">
        <ele>72.391</ele>
        <time>1970-01-01T01:00:00Z</time>
      </trkpt>
      <trkpt lat="41.903985" lon="12.50202167">
        <ele>72.391</ele>
        <time>1970-01-01T01:00:00Z</time>
      </trkpt>
      <trkpt lat="41.903995" lon="12.50201">
        <ele>72.391</ele>
        <time>1970-01-01T01:00:00Z</time>
      </trkpt>
      <trkpt lat="41.904" lon="12.50199667">
        <ele>73.458</ele>
        <time>1970-01-01T01:00:00Z</time>
      </trkpt>
      <trkpt lat="41.904005" lon="12.50198333">
        <ele>73.458</ele>
        <time>1970-01-01T01:00:00Z</time>
      </trkpt>
      <trkpt lat="41.90401167" lon="12.50196833">
        <ele>73.458</ele>
        <time>1970-01-01T01:00:00Z</time>
      </trkpt>
      <trkpt lat="41.90402333" lon="12.50195333">
        <ele>73.458</ele>
        <time>1970-01-01T01:00:00Z</time>
      </trkpt>
      <trkpt lat="41.90403667" lon="12.50194333">
        <ele>73.458</ele>
        <time>1970-01-01T01:00:00Z</time>
      </trkpt>
      <trkpt lat="41.90405167" lon="12.501935">
        <ele>73.458</ele>
        <time>1970-01-01T01:00:00Z</time>
      </trkpt>
      <trkpt lat="41.90406833" lon="12.50192667">
        <ele>72.391</ele>
        <time>1970-01-01T01:00:00Z</time>
      </trkpt>
      <trkpt lat="41.90408333" lon="12.501915">
        <ele>72.391</ele>
        <time>1970-01-01T01:00:00Z</time>
      </trkpt>
      <trkpt lat="41.904095" lon="12.5019">
        <ele>72.391</ele>
        <time>1970-01-01T01:00:00Z</time>
      </trkpt>
      <trkpt lat="41.90410333" lon="12.50188167">
        <ele>72.391</ele>
        <time>1970-01-01T01:00:00Z</time>
      </trkpt>
      <trkpt lat="41.904105" lon="12.50186167">
        <ele>72.391</ele>
        <time>1970-01-01T01:00:00Z</time>
      </trkpt>
      <trkpt lat="41.90410333" lon="12.50183833">
        <ele>72.391</ele>
        <time>1970-01-01T01:00:00Z</time>
      </trkpt>
      <trkpt lat="41.90409333" lon="12.501815">
        <ele>72.391</ele>
        <time>1970-01-01T01:00:00Z</time>
      </trkpt>
      <trkpt lat="41.90408167" lon="12.50179">
        <ele>72.391</ele>
        <time>1970-01-01T01:00:00Z</time>
      </trkpt>
      <trkpt lat="41.90406833" lon="12.501765">
        <ele>72.391</ele>
        <time>1970-01-01T01:00:00Z</time>
      </trkpt>
      <trkpt lat="41.90405167" lon="12.50173667">
        <ele>72.391</ele>
        <time>1970-01-01T01:00:00Z</time>
      </trkpt>
      <trkpt lat="41.90403667" lon="12.50171167">
        <ele>72.391</ele>
        <time>1970-01-01T01:00:00Z</time>
      </trkpt>
      <trkpt lat="41.90402" lon="12.50168667">
        <ele>72.391</ele>
        <time>1970-01-01T01:00:00Z</time>
      </trkpt>
      <trkpt lat="41.904005" lon="12.50165833">
        <ele>71.324</ele>
        <time>1970-01-01T01:00:00Z</time>
      </trkpt>
      <trkpt lat="41.90399" lon="12.50163333">
        <ele>71.324</ele>
        <time>1970-01-01T01:00:00Z</time>
      </trkpt>
      <trkpt lat="41.903975" lon="12.501605">
        <ele>71.324</ele>
        <time>1970-01-01T01:00:00Z</time>
      </trkpt>
      <trkpt lat="41.90396" lon="12.50158">
        <ele>71.324</ele>
        <time>1970-01-01T01:00:00Z</time>
      </trkpt>
      <trkpt lat="41.90394667" lon="12.501555">
        <ele>71.324</ele>
        <time>1970-01-01T01:00:00Z</time>
      </trkpt>
      <trkpt lat="41.90393333" lon="12.50153">
        <ele>71.324</ele>
        <time>1970-01-01T01:00:00Z</time>
      </trkpt>
      <trkpt lat="41.90392" lon="12.50150333">
        <ele>71.324</ele>
        <time>1970-01-01T01:00:00Z</time>
      </trkpt>
      <trkpt lat="41.903905" lon="12.50148">
        <ele>71.324</ele>
        <time>1970-01-01T01:00:00Z</time>
      </trkpt>
      <trkpt lat="41.90389167" lon="12.50145667">
        <ele>71.324</ele>
        <time>1970-01-01T01:00:00Z</time>
      </trkpt>
      <trkpt lat="41.90387833" lon="12.50143333">
        <ele>71.324</ele>
        <time>1970-01-01T01:00:00Z</time>
      </trkpt>
      <trkpt lat="41.90386167" lon="12.50140667">
        <ele>71.324</ele>
        <time>1970-01-01T01:00:00Z</time>
      </trkpt>
      <trkpt lat="41.90384167" lon="12.50137833">
        <ele>71.324</ele>
        <time>1970-01-01T01:00:00Z</time>
      </trkpt>
      <trkpt lat="41.90381667" lon="12.50134667">
        <ele>71.324</ele>
        <time>1970-01-01T01:00:00Z</time>
      </trkpt>
      <trkpt lat="41.90379333" lon="12.501315">
        <ele>71.324</ele>
        <time>1970-01-01T01:00:00Z</time>
      </trkpt>
      <trkpt lat="41.903765" lon="12.50128167">
        <ele>71.324</ele>
        <time>1970-01-01T01:00:00Z</time>
      </trkpt>
      <trkpt lat="41.90373833" lon="12.50124833">
        <ele>71.324</ele>
        <time>1970-01-01T01:00:00Z</time>
      </trkpt>
      <trkpt lat="41.90371333" lon="12.50121667">
        <ele>71.324</ele>
        <time>1970-01-01T01:00:00Z</time>
      </trkpt>
      <trkpt lat="41.90368833" lon="12.501185">
        <ele>71.324</ele>
        <time>1970-01-01T01:00:00Z</time>
      </trkpt>
      <trkpt lat="41.90366167" lon="12.501155">
        <ele>70.41</ele>
        <time>1970-01-01T01:00:00Z</time>
      </trkpt>
      <trkpt lat="41.90364" lon="12.50113">
        <ele>70.41</ele>
        <time>1970-01-01T01:00:00Z</time>
      </trkpt>
      <trkpt lat="41.90362" lon="12.501105">
        <ele>70.41</ele>
        <time>1970-01-01T01:00:00Z</time>
      </trkpt>
      <trkpt lat="41.90360667" lon="12.50107833">
        <ele>70.41</ele>
        <time>1970-01-01T01:00:00Z</time>
      </trkpt>
      <trkpt lat="41.90359333" lon="12.50105333">
        <ele>70.41</ele>
        <time>1970-01-01T01:00:00Z</time>
      </trkpt>
      <trkpt lat="41.90358167" lon="12.501025">
        <ele>70.41</ele>
        <time>1970-01-01T01:00:00Z</time>
      </trkpt>
      <trkpt lat="41.90357" lon="12.50099667">
        <ele>71.324</ele>
        <time>1970-01-01T01:00:00Z</time>
      </trkpt>
      <trkpt lat="41.90356" lon="12.50096">
        <ele>71.324</ele>
        <time>1970-01-01T01:00:00Z</time>
      </trkpt>
      <trkpt lat="41.90355" lon="12.50092333">
        <ele>70.41</ele>
        <time>1970-01-01T01:00:00Z</time>
      </trkpt>
      <trkpt lat="41.90353667" lon="12.500885">
        <ele>70.41</ele>
        <time>1970-01-01T01:00:00Z</time>
      </trkpt>
      <trkpt lat="41.90352333" lon="12.50085">
        <ele>70.41</ele>
        <time>1970-01-01T01:00:00Z</time>
      </trkpt>
      <trkpt lat="41.90350667" lon="12.50081833">
        <ele>70.41</ele>
        <time>1970-01-01T01:00:00Z</time>
      </trkpt>
      <trkpt lat="41.90349" lon="12.50079167">
        <ele>70.41</ele>
        <time>1970-01-01T01:00:00Z</time>
      </trkpt>
      <trkpt lat="41.90347167" lon="12.500765">
        <ele>70.41</ele>
        <time>1970-01-01T01:00:00Z</time>
      </trkpt>
      <trkpt lat="41.90345333" lon="12.50073667">
        <ele>70.41</ele>
        <time>1970-01-01T01:00:00Z</time>
      </trkpt>
      <trkpt lat="41.90343167" lon="12.50071333">
        <ele>70.41</ele>
        <time>1970-01-01T01:00:00Z</time>
      </trkpt>
      <trkpt lat="41.90341167" lon="12.50068667">
        <ele>70.41</ele>
        <time>1970-01-01T01:00:00Z</time>
      </trkpt>
      <trkpt lat="41.90339167" lon="12.50066">
        <ele>70.41</ele>
        <time>1970-01-01T01:00:00Z</time>
      </trkpt>
      <trkpt lat="41.903375" lon="12.50063167">
        <ele>70.41</ele>
        <time>1970-01-01T01:00:00Z</time>
      </trkpt>
      <trkpt lat="41.90335833" lon="12.50060667">
        <ele>70.41</ele>
        <time>1970-01-01T01:00:00Z</time>
      </trkpt>
      <trkpt lat="41.90334167" lon="12.50057667">
        <ele>70.41</ele>
        <time>1970-01-01T01:00:00Z</time>
      </trkpt>
      <trkpt lat="41.90332833" lon="12.50055">
        <ele>70.41</ele>
        <time>1970-01-01T01:00:00Z</time>
      </trkpt>
      <trkpt lat="41.903315" lon="12.50052167">
        <ele>70.41</ele>
        <time>1970-01-01T01:00:00Z</time>
      </trkpt>
      <trkpt lat="41.90330167" lon="12.500495">
        <ele>70.41</ele>
        <time>1970-01-01T01:00:00Z</time>
      </trkpt>
      <trkpt lat="41.90328833" lon="12.50046667">
        <ele>70.41</ele>
        <time>1970-01-01T01:00:00Z</time>
      </trkpt>
      <trkpt lat="41.903275" lon="12.50043833">
        <ele>70.41</ele>
        <time>1970-01-01T01:00:00Z</time>
      </trkpt>
      <trkpt lat="41.90326333" lon="12.50041167">
        <ele>70.41</ele>
        <time>1970-01-01T01:00:00Z</time>
      </trkpt>
      <trkpt lat="41.90325" lon="12.500385">
        <ele>70.41</ele>
        <time>1970-01-01T01:00:00Z</time>
      </trkpt>
      <trkpt lat="41.90323833" lon="12.50036167">
        <ele>69.343</ele>
        <time>1970-01-01T01:00:00Z</time>
      </trkpt>
      <trkpt lat="41.903225" lon="12.50033667">
        <ele>69.343</ele>
        <time>1970-01-01T01:00:00Z</time>
      </trkpt>
      <trkpt lat="41.90321167" lon="12.50031167">
        <ele>68.428</ele>
        <time>1970-01-01T01:00:00Z</time>
      </trkpt>
      <trkpt lat="41.90320167" lon="12.500285">
        <ele>68.428</ele>
        <time>1970-01-01T01:00:00Z</time>
      </trkpt>
      <trkpt lat="41.90319167" lon="12.50026">
        <ele>68.428</ele>
        <time>1970-01-01T01:00:00Z</time>
      </trkpt>
      <trkpt lat="41.90318" lon="12.50023667">
        <ele>68.428</ele>
        <time>1970-01-01T01:00:00Z</time>
      </trkpt>
      <trkpt lat="41.90317" lon="12.50021">
        <ele>68.428</ele>
        <time>1970-01-01T01:00:00Z</time>
      </trkpt>
      <trkpt lat="41.90315833" lon="12.50018333">
        <ele>68.428</ele>
        <time>1970-01-01T01:00:00Z</time>
      </trkpt>
      <trkpt lat="41.90314833" lon="12.500155">
        <ele>68.428</ele>
        <time>1970-01-01T01:00:00Z</time>
      </trkpt>
      <trkpt lat="41.90313667" lon="12.50012833">
        <ele>68.428</ele>
        <time>1970-01-01T01:00:00Z</time>
      </trkpt>
      <trkpt lat="41.90312667" lon="12.50010333">
        <ele>68.428</ele>
        <time>1970-01-01T01:00:00Z</time>
      </trkpt>
      <trkpt lat="41.903115" lon="12.50008">
        <ele>68.428</ele>
        <time>1970-01-01T01:00:00Z</time>
      </trkpt>
      <trkpt lat="41.90310333" lon="12.500055">
        <ele>68.428</ele>
        <time>1970-01-01T01:00:00Z</time>
      </trkpt>
      <trkpt lat="41.90309167" lon="12.50003333">
        <ele>68.428</ele>
        <time>1970-01-01T01:00:00Z</time>
      </trkpt>
      <trkpt lat="41.90307833" lon="12.500005">
        <ele>66.447</ele>
        <time>1970-01-01T01:00:00Z</time>
      </trkpt>
      <trkpt lat="41.903065" lon="12.49998">
        <ele>65.38</ele>
        <time>1970-01-01T01:00:00Z</time>
      </trkpt>
      <trkpt lat="41.90305" lon="12.49995333">
        <ele>65.38</ele>
        <time>1970-01-01T01:00:00Z</time>
      </trkpt>
      <trkpt lat="41.90303667" lon="12.49992833">
        <ele>65.38</ele>
        <time>1970-01-01T01:00:00Z</time>
      </trkpt>
      <trkpt lat="41.90302167" lon="12.49990333">
        <ele>65.38</ele>
        <time>1970-01-01T01:00:00Z</time>
      </trkpt>
      <trkpt lat="41.90300833" lon="12.49987833">
        <ele>65.38</ele>
        <time>1970-01-01T01:00:00Z</time>
      </trkpt>
      <trkpt lat="41.902995" lon="12.49985333">
        <ele>65.38</ele>
        <time>1970-01-01T01:00:00Z</time>
      </trkpt>
      <trkpt lat="41.90298333" lon="12.49983">
        <ele>64.466</ele>
        <time>1970-01-01T01:00:00Z</time>
      </trkpt>
      <trkpt lat="41.90296833" lon="12.499805">
        <ele>64.466</ele>
        <time>1970-01-01T01:00:00Z</time>
      </trkpt>
      <trkpt lat="41.90295333" lon="12.49977833">
        <ele>64.466</ele>
        <time>1970-01-01T01:00:00Z</time>
      </trkpt>
      <trkpt lat="41.90294167" lon="12.499755">
        <ele>64.466</ele>
        <time>1970-01-01T01:00:00Z</time>
      </trkpt>
      <trkpt lat="41.90293" lon="12.49973167">
        <ele>64.466</ele>
        <time>1970-01-01T01:00:00Z</time>
      </trkpt>
      <trkpt lat="41.90291833" lon="12.49970667">
        <ele>64.466</ele>
        <time>1970-01-01T01:00:00Z</time>
      </trkpt>
      <trkpt lat="41.902905" lon="12.49968167">
        <ele>64.466</ele>
        <time>1970-01-01T01:00:00Z</time>
      </trkpt>
      <trkpt lat="41.90289167" lon="12.49965667">
        <ele>64.466</ele>
        <time>1970-01-01T01:00:00Z</time>
      </trkpt>
      <trkpt lat="41.90287667" lon="12.49963">
        <ele>63.399</ele>
        <time>1970-01-01T01:00:00Z</time>
      </trkpt>
      <trkpt lat="41.90286333" lon="12.499605">
        <ele>63.399</ele>
        <time>1970-01-01T01:00:00Z</time>
      </trkpt>
      <trkpt lat="41.90284833" lon="12.49958">
        <ele>63.399</ele>
        <time>1970-01-01T01:00:00Z</time>
      </trkpt>
      <trkpt lat="41.90283833" lon="12.499555">
        <ele>63.399</ele>
        <time>1970-01-01T01:00:00Z</time>
      </trkpt>
      <trkpt lat="41.90282667" lon="12.49953">
        <ele>63.399</ele>
        <time>1970-01-01T01:00:00Z</time>
      </trkpt>
      <trkpt lat="41.90281667" lon="12.49950833">
        <ele>63.399</ele>
        <time>1970-01-01T01:00:00Z</time>
      </trkpt>
      <trkpt lat="41.902805" lon="12.499485">
        <ele>63.399</ele>
        <time>1970-01-01T01:00:00Z</time>
      </trkpt>
      <trkpt lat="41.90279" lon="12.49946">
        <ele>63.399</ele>
        <time>1970-01-01T01:00:00Z</time>
      </trkpt>
      <trkpt lat="41.90277667" lon="12.499435">
        <ele>63.399</ele>
        <time>1970-01-01T01:00:00Z</time>
      </trkpt>
      <trkpt lat="41.90276167" lon="12.49940833">
        <ele>63.399</ele>
        <time>1970-01-01T01:00:00Z</time>
      </trkpt>
      <trkpt lat="41.90275" lon="12.49938167">
        <ele>63.399</ele>
        <time>1970-01-01T01:00:00Z</time>
      </trkpt>
      <trkpt lat="41.90273833" lon="12.499355">
        <ele>63.399</ele>
        <time>1970-01-01T01:00:00Z</time>
      </trkpt>
      <trkpt lat="41.90272667" lon="12.49933167">
        <ele>62.332</ele>
        <time>1970-01-01T01:00:00Z</time>
      </trkpt>
      <trkpt lat="41.90271333" lon="12.49931">
        <ele>62.332</ele>
        <time>1970-01-01T01:00:00Z</time>
      </trkpt>
      <trkpt lat="41.9027" lon="12.49929">
        <ele>62.332</ele>
        <time>1970-01-01T01:00:00Z</time>
      </trkpt>
      <trkpt lat="41.90268833" lon="12.49927333">
        <ele>62.332</ele>
        <time>1970-01-01T01:00:00Z</time>
      </trkpt>
      <trkpt lat="41.90267833" lon="12.49925667">
        <ele>62.332</ele>
        <time>1970-01-01T01:00:00Z</time>
      </trkpt>
      <trkpt lat="41.90266833" lon="12.49924">
        <ele>62.332</ele>
        <time>1970-01-01T01:00:00Z</time>
      </trkpt>
      <trkpt lat="41.90265833" lon="12.49922">
        <ele>62.332</ele>
        <time>1970-01-01T01:00:00Z</time>
      </trkpt>
      <trkpt lat="41.90264667" lon="12.499195">
        <ele>62.332</ele>
        <time>1970-01-01T01:00:00Z</time>
      </trkpt>
      <trkpt lat="41.90263333" lon="12.49916833">
        <ele>62.332</ele>
        <time>1970-01-01T01:00:00Z</time>
      </trkpt>
      <trkpt lat="41.90261833" lon="12.49914333">
        <ele>62.332</ele>
        <time>1970-01-01T01:00:00Z</time>
      </trkpt>
      <trkpt lat="41.9026" lon="12.49911667">
        <ele>61.418</ele>
        <time>1970-01-01T01:00:00Z</time>
      </trkpt>
      <trkpt lat="41.90258333" lon="12.49909333">
        <ele>61.418</ele>
        <time>1970-01-01T01:00:00Z</time>
      </trkpt>
      <trkpt lat="41.90256667" lon="12.49906667">
        <ele>61.418</ele>
        <time>1970-01-01T01:00:00Z</time>
      </trkpt>
      <trkpt lat="41.90255167" lon="12.49904333">
        <ele>61.418</ele>
        <time>1970-01-01T01:00:00Z</time>
      </trkpt>
      <trkpt lat="41.90253667" lon="12.49901667">
        <ele>61.418</ele>
        <time>1970-01-01T01:00:00Z</time>
      </trkpt>
      <trkpt lat="41.90252167" lon="12.49899">
        <ele>61.418</ele>
        <time>1970-01-01T01:00:00Z</time>
      </trkpt>
      <trkpt lat="41.90250667" lon="12.49896333">
        <ele>61.418</ele>
        <time>1970-01-01T01:00:00Z</time>
      </trkpt>
      <trkpt lat="41.90249" lon="12.49893833">
        <ele>61.418</ele>
        <time>1970-01-01T01:00:00Z</time>
      </trkpt>
      <trkpt lat="41.902475" lon="12.49891167">
        <ele>61.418</ele>
        <time>1970-01-01T01:00:00Z</time>
      </trkpt>
      <trkpt lat="41.90246167" lon="12.49888833">
        <ele>61.418</ele>
        <time>1970-01-01T01:00:00Z</time>
      </trkpt>
      <trkpt lat="41.90244667" lon="12.498865">
        <ele>61.418</ele>
        <time>1970-01-01T01:00:00Z</time>
      </trkpt>
      <trkpt lat="41.90243167" lon="12.49884">
        <ele>61.418</ele>
        <time>1970-01-01T01:00:00Z</time>
      </trkpt>
      <trkpt lat="41.90241667" lon="12.498815">
        <ele>60.351</ele>
        <time>1970-01-01T01:00:00Z</time>
      </trkpt>
      <trkpt lat="41.90240167" lon="12.49879">
        <ele>60.351</ele>
        <time>1970-01-01T01:00:00Z</time>
      </trkpt>
      <trkpt lat="41.90238833" lon="12.498765">
        <ele>60.351</ele>
        <time>1970-01-01T01:00:00Z</time>
      </trkpt>
      <trkpt lat="41.902375" lon="12.49873833">
        <ele>60.351</ele>
        <time>1970-01-01T01:00:00Z</time>
      </trkpt>
      <trkpt lat="41.90236333" lon="12.49871333">
        <ele>60.351</ele>
        <time>1970-01-01T01:00:00Z</time>
      </trkpt>
      <trkpt lat="41.90235167" lon="12.49868667">
        <ele>60.351</ele>
        <time>1970-01-01T01:00:00Z</time>
      </trkpt>
      <trkpt lat="41.90234" lon="12.49866167">
        <ele>60.351</ele>
        <time>1970-01-01T01:00:00Z</time>
      </trkpt>
      <trkpt lat="41.90233" lon="12.49863167">
        <ele>60.351</ele>
        <time>1970-01-01T01:00:00Z</time>
      </trkpt>
      <trkpt lat="41.90232167" lon="12.49860333">
        <ele>60.351</ele>
        <time>1970-01-01T01:00:00Z</time>
      </trkpt>
      <trkpt lat="41.90231167" lon="12.49857167">
        <ele>60.351</ele>
        <time>1970-01-01T01:00:00Z</time>
      </trkpt>
      <trkpt lat="41.90230167" lon="12.498545">
        <ele>59.437</ele>
        <time>1970-01-01T01:00:00Z</time>
      </trkpt>
      <trkpt lat="41.90229167" lon="12.49851667">
        <ele>59.437</ele>
        <time>1970-01-01T01:00:00Z</time>
      </trkpt>
      <trkpt lat="41.90228667" lon="12.49848667">
        <ele>59.437</ele>
        <time>1970-01-01T01:00:00Z</time>
      </trkpt>
      <trkpt lat="41.90228667" lon="12.49845833">
        <ele>59.437</ele>
        <time>1970-01-01T01:00:00Z</time>
      </trkpt>
      <trkpt lat="41.90228833" lon="12.49842833">
        <ele>59.437</ele>
        <time>1970-01-01T01:00:00Z</time>
      </trkpt>
      <trkpt lat="41.90228833" lon="12.4984">
        <ele>59.437</ele>
        <time>1970-01-01T01:00:00Z</time>
      </trkpt>
      <trkpt lat="41.90229167" lon="12.49837167">
        <ele>58.37</ele>
        <time>1970-01-01T01:00:00Z</time>
      </trkpt>
      <trkpt lat="41.902295" lon="12.49835">
        <ele>58.37</ele>
        <time>1970-01-01T01:00:00Z</time>
      </trkpt>
      <trkpt lat="41.902295" lon="12.498325">
        <ele>58.37</ele>
        <time>1970-01-01T01:00:00Z</time>
      </trkpt>
      <trkpt lat="41.90229667" lon="12.49830333">
        <ele>58.37</ele>
        <time>1970-01-01T01:00:00Z</time>
      </trkpt>
      <trkpt lat="41.90230167" lon="12.49827667">
        <ele>58.37</ele>
        <time>1970-01-01T01:00:00Z</time>
      </trkpt>
      <trkpt lat="41.90230833" lon="12.49825167">
        <ele>58.37</ele>
        <time>1970-01-01T01:00:00Z</time>
      </trkpt>
      <trkpt lat="41.902315" lon="12.49822333">
        <ele>58.37</ele>
        <time>1970-01-01T01:00:00Z</time>
      </trkpt>
      <trkpt lat="41.90232167" lon="12.4982">
        <ele>58.37</ele>
        <time>1970-01-01T01:00:00Z</time>
      </trkpt>
      <trkpt lat="41.90232833" lon="12.498175">
        <ele>57.455</ele>
        <time>1970-01-01T01:00:00Z</time>
      </trkpt>
      <trkpt lat="41.90233667" lon="12.49814667">
        <ele>57.455</ele>
        <time>1970-01-01T01:00:00Z</time>
      </trkpt>
      <trkpt lat="41.90234333" lon="12.49811833">
        <ele>57.455</ele>
        <time>1970-01-01T01:00:00Z</time>
      </trkpt>
      <trkpt lat="41.90235167" lon="12.49808667">
        <ele>57.455</ele>
        <time>1970-01-01T01:00:00Z</time>
      </trkpt>
      <trkpt lat="41.90235833" lon="12.49806">
        <ele>57.455</ele>
        <time>1970-01-01T01:00:00Z</time>
      </trkpt>
      <trkpt lat="41.90236667" lon="12.49803">
        <ele>57.455</ele>
        <time>1970-01-01T01:00:00Z</time>
      </trkpt>
      <trkpt lat="41.902375" lon="12.49800333">
        <ele>56.389</ele>
        <time>1970-01-01T01:00:00Z</time>
      </trkpt>
      <trkpt lat="41.90238333" lon="12.49797667">
        <ele>56.389</ele>
        <time>1970-01-01T01:00:00Z</time>
      </trkpt>
      <trkpt lat="41.90239167" lon="12.49795333">
        <ele>56.389</ele>
        <time>1970-01-01T01:00:00Z</time>
      </trkpt>
      <trkpt lat="41.9024" lon="12.49793167">
        <ele>56.389</ele>
        <time>1970-01-01T01:00:00Z</time>
      </trkpt>
      <trkpt lat="41.90240667" lon="12.49790667">
        <ele>56.389</ele>
        <time>1970-01-01T01:00:00Z</time>
      </trkpt>
      <trkpt lat="41.90241" lon="12.497885">
        <ele>56.389</ele>
        <time>1970-01-01T01:00:00Z</time>
      </trkpt>
      <trkpt lat="41.90241167" lon="12.49786167">
        <ele>55.322</ele>
        <time>1970-01-01T01:00:00Z</time>
      </trkpt>
      <trkpt lat="41.90241167" lon="12.49784">
        <ele>55.322</ele>
        <time>1970-01-01T01:00:00Z</time>
      </trkpt>
      <trkpt lat="41.90241167" lon="12.49781667">
        <ele>55.322</ele>
        <time>1970-01-01T01:00:00Z</time>
      </trkpt>
      <trkpt lat="41.90241333" lon="12.49779833">
        <ele>55.322</ele>
        <time>1970-01-01T01:00:00Z</time>
      </trkpt>
      <trkpt lat="41.90242" lon="12.49777833">
        <ele>55.322</ele>
        <time>1970-01-01T01:00:00Z</time>
      </trkpt>
      <trkpt lat="41.90242833" lon="12.49775667">
        <ele>55.322</ele>
        <time>1970-01-01T01:00:00Z</time>
      </trkpt>
      <trkpt lat="41.90244" lon="12.49773167">
        <ele>55.322</ele>
        <time>1970-01-01T01:00:00Z</time>
      </trkpt>
      <trkpt lat="41.90245333" lon="12.49770333">
        <ele>55.322</ele>
        <time>1970-01-01T01:00:00Z</time>
      </trkpt>
      <trkpt lat="41.902465" lon="12.49767">
        <ele>55.322</ele>
        <time>1970-01-01T01:00:00Z</time>
      </trkpt>
      <trkpt lat="41.90247667" lon="12.49764">
        <ele>55.322</ele>
        <time>1970-01-01T01:00:00Z</time>
      </trkpt>
      <trkpt lat="41.90248333" lon="12.49760833">
        <ele>55.322</ele>
        <time>1970-01-01T01:00:00Z</time>
      </trkpt>
      <trkpt lat="41.90249333" lon="12.49757667">
        <ele>55.322</ele>
        <time>1970-01-01T01:00:00Z</time>
      </trkpt>
      <trkpt lat="41.90250333" lon="12.49754667">
        <ele>54.407</ele>
        <time>1970-01-01T01:00:00Z</time>
      </trkpt>
      <trkpt lat="41.90251167" lon="12.49752167">
        <ele>54.407</ele>
        <time>1970-01-01T01:00:00Z</time>
      </trkpt>
      <trkpt lat="41.90251833" lon="12.49749667">
        <ele>54.407</ele>
        <time>1970-01-01T01:00:00Z</time>
      </trkpt>
      <trkpt lat="41.90252833" lon="12.49746833">
        <ele>54.407</ele>
        <time>1970-01-01T01:00:00Z</time>
      </trkpt>
      <trkpt lat="41.90253833" lon="12.49743833">
        <ele>54.407</ele>
        <time>1970-01-01T01:00:00Z</time>
      </trkpt>
      <trkpt lat="41.90255" lon="12.49740833">
        <ele>54.407</ele>
        <time>1970-01-01T01:00:00Z</time>
      </trkpt>
      <trkpt lat="41.90256167" lon="12.49738333">
        <ele>54.407</ele>
        <time>1970-01-01T01:00:00Z</time>
      </trkpt>
      <trkpt lat="41.90257" lon="12.49735333">
        <ele>54.407</ele>
        <time>1970-01-01T01:00:00Z</time>
      </trkpt>
      <trkpt lat="41.90257833" lon="12.497325">
        <ele>54.407</ele>
        <time>1970-01-01T01:00:00Z</time>
      </trkpt>
      <trkpt lat="41.902585" lon="12.49729833">
        <ele>54.407</ele>
        <time>1970-01-01T01:00:00Z</time>
      </trkpt>
      <trkpt lat="41.90259333" lon="12.49727333">
        <ele>53.341</ele>
        <time>1970-01-01T01:00:00Z</time>
      </trkpt>
      <trkpt lat="41.90259833" lon="12.49724667">
        <ele>53.341</ele>
        <time>1970-01-01T01:00:00Z</time>
      </trkpt>
      <trkpt lat="41.90260667" lon="12.49722167">
        <ele>53.341</ele>
        <time>1970-01-01T01:00:00Z</time>
      </trkpt>
      <trkpt lat="41.90261333" lon="12.49719333">
        <ele>53.341</ele>
        <time>1970-01-01T01:00:00Z</time>
      </trkpt>
      <trkpt lat="41.90261833" lon="12.49717">
        <ele>53.341</ele>
        <time>1970-01-01T01:00:00Z</time>
      </trkpt>
      <trkpt lat="41.90261833" lon="12.49714167">
        <ele>53.341</ele>
        <time>1970-01-01T01:00:00Z</time>
      </trkpt>
      <trkpt lat="41.90262333" lon="12.49711833">
        <ele>53.341</ele>
        <time>1970-01-01T01:00:00Z</time>
      </trkpt>
      <trkpt lat="41.90263" lon="12.49709333">
        <ele>53.341</ele>
        <time>1970-01-01T01:00:00Z</time>
      </trkpt>
      <trkpt lat="41.90263833" lon="12.49706667">
        <ele>53.341</ele>
        <time>1970-01-01T01:00:00Z</time>
      </trkpt>
      <trkpt lat="41.902645" lon="12.49704333">
        <ele>53.341</ele>
        <time>1970-01-01T01:00:00Z</time>
      </trkpt>
      <trkpt lat="41.902655" lon="12.497015">
        <ele>53.341</ele>
        <time>1970-01-01T01:00:00Z</time>
      </trkpt>
      <trkpt lat="41.90266333" lon="12.49698333">
        <ele>53.341</ele>
        <time>1970-01-01T01:00:00Z</time>
      </trkpt>
      <trkpt lat="41.90267667" lon="12.496955">
        <ele>53.341</ele>
        <time>1970-01-01T01:00:00Z</time>
      </trkpt>
      <trkpt lat="41.90268833" lon="12.49692667">
        <ele>53.341</ele>
        <time>1970-01-01T01:00:00Z</time>
      </trkpt>
      <trkpt lat="41.90270333" lon="12.49690333">
        <ele>53.341</ele>
        <time>1970-01-01T01:00:00Z</time>
      </trkpt>
      <trkpt lat="41.90271833" lon="12.49688333">
        <ele>53.341</ele>
        <time>1970-01-01T01:00:00Z</time>
      </trkpt>
      <trkpt lat="41.902735" lon="12.49686333">
        <ele>53.341</ele>
        <time>1970-01-01T01:00:00Z</time>
      </trkpt>
      <trkpt lat="41.90275" lon="12.49684333">
        <ele>53.341</ele>
        <time>1970-01-01T01:00:00Z</time>
      </trkpt>
      <trkpt lat="41.902765" lon="12.49682">
        <ele>53.341</ele>
        <time>1970-01-01T01:00:00Z</time>
      </trkpt>
      <trkpt lat="41.90278" lon="12.49679667">
        <ele>53.341</ele>
        <time>1970-01-01T01:00:00Z</time>
      </trkpt>
      <trkpt lat="41.90279667" lon="12.49677333">
        <ele>53.341</ele>
        <time>1970-01-01T01:00:00Z</time>
      </trkpt>
      <trkpt lat="41.90281333" lon="12.49675333">
        <ele>53.341</ele>
        <time>1970-01-01T01:00:00Z</time>
      </trkpt>
      <trkpt lat="41.90282833" lon="12.49673333">
        <ele>53.341</ele>
        <time>1970-01-01T01:00:00Z</time>
      </trkpt>
      <trkpt lat="41.902845" lon="12.49671167">
        <ele>53.341</ele>
        <time>1970-01-01T01:00:00Z</time>
      </trkpt>
      <trkpt lat="41.90286333" lon="12.49669167">
        <ele>53.341</ele>
        <time>1970-01-01T01:00:00Z</time>
      </trkpt>
      <trkpt lat="41.90287833" lon="12.49667333">
        <ele>53.341</ele>
        <time>1970-01-01T01:00:00Z</time>
      </trkpt>
      <trkpt lat="41.90289667" lon="12.49665667">
        <ele>53.341</ele>
        <time>1970-01-01T01:00:00Z</time>
      </trkpt>
      <trkpt lat="41.90291667" lon="12.49663833">
        <ele>53.341</ele>
        <time>1970-01-01T01:00:00Z</time>
      </trkpt>
      <trkpt lat="41.90293667" lon="12.49662">
        <ele>53.341</ele>
        <time>1970-01-01T01:00:00Z</time>
      </trkpt>
      <trkpt lat="41.90295667" lon="12.49660333">
        <ele>53.341</ele>
        <time>1970-01-01T01:00:00Z</time>
      </trkpt>
      <trkpt lat="41.902975" lon="12.49658667">
        <ele>53.341</ele>
        <time>1970-01-01T01:00:00Z</time>
      </trkpt>
      <trkpt lat="41.902995" lon="12.49657167">
        <ele>53.341</ele>
        <time>1970-01-01T01:00:00Z</time>
      </trkpt>
      <trkpt lat="41.90301333" lon="12.49655833">
        <ele>53.341</ele>
        <time>1970-01-01T01:00:00Z</time>
      </trkpt>
      <trkpt lat="41.903035" lon="12.49654333">
        <ele>53.341</ele>
        <time>1970-01-01T01:00:00Z</time>
      </trkpt>
      <trkpt lat="41.90305167" lon="12.49653167">
        <ele>53.341</ele>
        <time>1970-01-01T01:00:00Z</time>
      </trkpt>
      <trkpt lat="41.90307167" lon="12.49651833">
        <ele>53.341</ele>
        <time>1970-01-01T01:00:00Z</time>
      </trkpt>
      <trkpt lat="41.90309167" lon="12.496505">
        <ele>53.341</ele>
        <time>1970-01-01T01:00:00Z</time>
      </trkpt>
      <trkpt lat="41.90311" lon="12.49649333">
        <ele>53.341</ele>
        <time>1970-01-01T01:00:00Z</time>
      </trkpt>
      <trkpt lat="41.90313" lon="12.496485">
        <ele>53.341</ele>
        <time>1970-01-01T01:00:00Z</time>
      </trkpt>
      <trkpt lat="41.90314833" lon="12.496475">
        <ele>53.341</ele>
        <time>1970-01-01T01:00:00Z</time>
      </trkpt>
      <trkpt lat="41.903165" lon="12.496465">
        <ele>53.341</ele>
        <time>1970-01-01T01:00:00Z</time>
      </trkpt>
      <trkpt lat="41.90318" lon="12.49645">
        <ele>53.341</ele>
        <time>1970-01-01T01:00:00Z</time>
      </trkpt>
      <trkpt lat="41.90319667" lon="12.49643833">
        <ele>52.426</ele>
        <time>1970-01-01T01:00:00Z</time>
      </trkpt>
      <trkpt lat="41.903215" lon="12.49642833">
        <ele>52.426</ele>
        <time>1970-01-01T01:00:00Z</time>
      </trkpt>
      <trkpt lat="41.903235" lon="12.49641667">
        <ele>52.426</ele>
        <time>1970-01-01T01:00:00Z</time>
      </trkpt>
      <trkpt lat="41.903255" lon="12.49640333">
        <ele>52.426</ele>
        <time>1970-01-01T01:00:00Z</time>
      </trkpt>
      <trkpt lat="41.90327167" lon="12.49638667">
        <ele>52.426</ele>
        <time>1970-01-01T01:00:00Z</time>
      </trkpt>
      <trkpt lat="41.903285" lon="12.49637167">
        <ele>52.426</ele>
        <time>1970-01-01T01:00:00Z</time>
      </trkpt>
      <trkpt lat="41.903295" lon="12.49636167">
        <ele>52.426</ele>
        <time>1970-01-01T01:00:00Z</time>
      </trkpt>
      <trkpt lat="41.9033" lon="12.49635333">
        <ele>52.426</ele>
        <time>1970-01-01T01:00:00Z</time>
      </trkpt>
      <trkpt lat="41.90330333" lon="12.49634833">
        <ele>52.426</ele>
        <time>1970-01-01T01:00:00Z</time>
      </trkpt>
      <trkpt lat="41.90330667" lon="12.496345">
        <ele>52.426</ele>
        <time>1970-01-01T01:00:00Z</time>
      </trkpt>
      <trkpt lat="41.90330833" lon="12.49634167">
        <ele>52.426</ele>
        <time>1970-01-01T01:00:00Z</time>
      </trkpt>
      <trkpt lat="41.90330333" lon="12.49633333">
        <ele>52.426</ele>
        <time>1970-01-01T01:00:00Z</time>
      </trkpt>
      <trkpt lat="41.90329667" lon="12.49631833">
        <ele>52.426</ele>
        <time>1970-01-01T01:00:00Z</time>
      </trkpt>
      <trkpt lat="41.90328667" lon="12.49629333">
        <ele>52.426</ele>
        <time>1970-01-01T01:00:00Z</time>
      </trkpt>
      <trkpt lat="41.90327667" lon="12.49626333">
        <ele>52.426</ele>
        <time>1970-01-01T01:00:00Z</time>
      </trkpt>
      <trkpt lat="41.90327" lon="12.49623">
        <ele>52.426</ele>
        <time>1970-01-01T01:00:00Z</time>
      </trkpt>
      <trkpt lat="41.90326333" lon="12.49619667">
        <ele>52.426</ele>
        <time>1970-01-01T01:00:00Z</time>
      </trkpt>
      <trkpt lat="41.903255" lon="12.496165">
        <ele>52.426</ele>
        <time>1970-01-01T01:00:00Z</time>
      </trkpt>
      <trkpt lat="41.90325167" lon="12.496135">
        <ele>52.426</ele>
        <time>1970-01-01T01:00:00Z</time>
      </trkpt>
      <trkpt lat="41.90325167" lon="12.49610333">
        <ele>52.426</ele>
        <time>1970-01-01T01:00:00Z</time>
      </trkpt>
      <trkpt lat="41.90325167" lon="12.49607167">
        <ele>53.341</ele>
        <time>1970-01-01T01:00:00Z</time>
      </trkpt>
      <trkpt lat="41.90325167" lon="12.49604">
        <ele>53.341</ele>
        <time>1970-01-01T01:00:00Z</time>
      </trkpt>
      <trkpt lat="41.90325167" lon="12.49601333">
        <ele>53.341</ele>
        <time>1970-01-01T01:00:00Z</time>
      </trkpt>
      <trkpt lat="41.90324833" lon="12.49598667">
        <ele>53.341</ele>
        <time>1970-01-01T01:00:00Z</time>
      </trkpt>
      <trkpt lat="41.90324" lon="12.49595667">
        <ele>53.341</ele>
        <time>1970-01-01T01:00:00Z</time>
      </trkpt>
      <trkpt lat="41.90323167" lon="12.49592833">
        <ele>53.341</ele>
        <time>1970-01-01T01:00:00Z</time>
      </trkpt>
      <trkpt lat="41.90322333" lon="12.49589833">
        <ele>53.341</ele>
        <time>1970-01-01T01:00:00Z</time>
      </trkpt>
      <trkpt lat="41.90321333" lon="12.49587">
        <ele>53.341</ele>
        <time>1970-01-01T01:00:00Z</time>
      </trkpt>
      <trkpt lat="41.90320333" lon="12.49584333">
        <ele>53.341</ele>
        <time>1970-01-01T01:00:00Z</time>
      </trkpt>
      <trkpt lat="41.90319167" lon="12.49582">
        <ele>53.341</ele>
        <time>1970-01-01T01:00:00Z</time>
      </trkpt>
      <trkpt lat="41.90318" lon="12.495795">
        <ele>53.341</ele>
        <time>1970-01-01T01:00:00Z</time>
      </trkpt>
      <trkpt lat="41.90316667" lon="12.495775">
        <ele>53.341</ele>
        <time>1970-01-01T01:00:00Z</time>
      </trkpt>
      <trkpt lat="41.90315167" lon="12.49575167">
        <ele>53.341</ele>
        <time>1970-01-01T01:00:00Z</time>
      </trkpt>
      <trkpt lat="41.90313833" lon="12.49573">
        <ele>53.341</ele>
        <time>1970-01-01T01:00:00Z</time>
      </trkpt>
      <trkpt lat="41.90312667" lon="12.49571">
        <ele>53.341</ele>
        <time>1970-01-01T01:00:00Z</time>
      </trkpt>
      <trkpt lat="41.90312" lon="12.49568833">
        <ele>53.341</ele>
        <time>1970-01-01T01:00:00Z</time>
      </trkpt>
      <trkpt lat="41.90311667" lon="12.49566667">
        <ele>53.341</ele>
        <time>1970-01-01T01:00:00Z</time>
      </trkpt>
      <trkpt lat="41.90312" lon="12.495645">
        <ele>53.341</ele>
        <time>1970-01-01T01:00:00Z</time>
      </trkpt>
      <trkpt lat="41.90312667" lon="12.49562333">
        <ele>53.341</ele>
        <time>1970-01-01T01:00:00Z</time>
      </trkpt>
      <trkpt lat="41.90313333" lon="12.49560333">
        <ele>53.341</ele>
        <time>1970-01-01T01:00:00Z</time>
      </trkpt>
      <trkpt lat="41.90314333" lon="12.49558667">
        <ele>53.341</ele>
        <time>1970-01-01T01:00:00Z</time>
      </trkpt>
      <trkpt lat="41.90315167" lon="12.49557167">
        <ele>52.426</ele>
        <time>1970-01-01T01:00:00Z</time>
      </trkpt>
      <trkpt lat="41.90316167" lon="12.495555">
        <ele>52.426</ele>
        <time>1970-01-01T01:00:00Z</time>
      </trkpt>
      <trkpt lat="41.90317333" lon="12.49554">
        <ele>52.426</ele>
        <time>1970-01-01T01:00:00Z</time>
      </trkpt>
      <trkpt lat="41.90318833" lon="12.49552667">
        <ele>52.426</ele>
        <time>1970-01-01T01:00:00Z</time>
      </trkpt>
      <trkpt lat="41.90320667" lon="12.49551167">
        <ele>52.426</ele>
        <time>1970-01-01T01:00:00Z</time>
      </trkpt>
      <trkpt lat="41.90322333" lon="12.49549667">
        <ele>52.426</ele>
        <time>1970-01-01T01:00:00Z</time>
      </trkpt>
      <trkpt lat="41.90323833" lon="12.49548333">
        <ele>52.426</ele>
        <time>1970-01-01T01:00:00Z</time>
      </trkpt>
      <trkpt lat="41.90325667" lon="12.49546833">
        <ele>52.426</ele>
        <time>1970-01-01T01:00:00Z</time>
      </trkpt>
      <trkpt lat="41.90328" lon="12.495455">
        <ele>52.426</ele>
        <time>1970-01-01T01:00:00Z</time>
      </trkpt>
      <trkpt lat="41.90330333" lon="12.49544">
        <ele>52.426</ele>
        <time>1970-01-01T01:00:00Z</time>
      </trkpt>
      <trkpt lat="41.90333" lon="12.495425">
        <ele>52.426</ele>
        <time>1970-01-01T01:00:00Z</time>
      </trkpt>
      <trkpt lat="41.90335667" lon="12.49541333">
        <ele>52.426</ele>
        <time>1970-01-01T01:00:00Z</time>
      </trkpt>
      <trkpt lat="41.90338333" lon="12.4954">
        <ele>52.426</ele>
        <time>1970-01-01T01:00:00Z</time>
      </trkpt>
      <trkpt lat="41.90341167" lon="12.49538833">
        <ele>52.426</ele>
        <time>1970-01-01T01:00:00Z</time>
      </trkpt>
      <trkpt lat="41.90344333" lon="12.49538">
        <ele>52.426</ele>
        <time>1970-01-01T01:00:00Z</time>
      </trkpt>
      <trkpt lat="41.90347833" lon="12.49537">
        <ele>52.426</ele>
        <time>1970-01-01T01:00:00Z</time>
      </trkpt>
      <trkpt lat="41.90351167" lon="12.49535833">
        <ele>52.426</ele>
        <time>1970-01-01T01:00:00Z</time>
      </trkpt>
      <trkpt lat="41.903545" lon="12.49534667">
        <ele>52.426</ele>
        <time>1970-01-01T01:00:00Z</time>
      </trkpt>
      <trkpt lat="41.90357667" lon="12.49533667">
        <ele>52.426</ele>
        <time>1970-01-01T01:00:00Z</time>
      </trkpt>
      <trkpt lat="41.90360667" lon="12.49532667">
        <ele>52.426</ele>
        <time>1970-01-01T01:00:00Z</time>
      </trkpt>
      <trkpt lat="41.90363667" lon="12.49531833">
        <ele>52.426</ele>
        <time>1970-01-01T01:00:00Z</time>
      </trkpt>
      <trkpt lat="41.90366667" lon="12.49530833">
        <ele>52.426</ele>
        <time>1970-01-01T01:00:00Z</time>
      </trkpt>
      <trkpt lat="41.903695" lon="12.49529667">
        <ele>53.341</ele>
        <time>1970-01-01T01:00:00Z</time>
      </trkpt>
      <trkpt lat="41.90372333" lon="12.495285">
        <ele>53.341</ele>
        <time>1970-01-01T01:00:00Z</time>
      </trkpt>
      <trkpt lat="41.90375" lon="12.49527333">
        <ele>53.341</ele>
        <time>1970-01-01T01:00:00Z</time>
      </trkpt>
      <trkpt lat="41.903775" lon="12.49526">
        <ele>53.341</ele>
        <time>1970-01-01T01:00:00Z</time>
      </trkpt>
      <trkpt lat="41.903795" lon="12.49524833">
        <ele>53.341</ele>
        <time>1970-01-01T01:00:00Z</time>
      </trkpt>
      <trkpt lat="41.90381167" lon="12.49523667">
        <ele>53.341</ele>
        <time>1970-01-01T01:00:00Z</time>
      </trkpt>
      <trkpt lat="41.90382833" lon="12.49522333">
        <ele>53.341</ele>
        <time>1970-01-01T01:00:00Z</time>
      </trkpt>
      <trkpt lat="41.903845" lon="12.49520667">
        <ele>53.341</ele>
        <time>1970-01-01T01:00:00Z</time>
      </trkpt>
      <trkpt lat="41.90386167" lon="12.49519">
        <ele>53.341</ele>
        <time>1970-01-01T01:00:00Z</time>
      </trkpt>
      <trkpt lat="41.90387667" lon="12.49516833">
        <ele>53.341</ele>
        <time>1970-01-01T01:00:00Z</time>
      </trkpt>
      <trkpt lat="41.90389167" lon="12.49514667">
        <ele>53.341</ele>
        <time>1970-01-01T01:00:00Z</time>
      </trkpt>
      <trkpt lat="41.90390667" lon="12.49512333">
        <ele>53.341</ele>
        <time>1970-01-01T01:00:00Z</time>
      </trkpt>
      <trkpt lat="41.903925" lon="12.49510333">
        <ele>53.341</ele>
        <time>1970-01-01T01:00:00Z</time>
      </trkpt>
      <trkpt lat="41.90394333" lon="12.49508">
        <ele>53.341</ele>
        <time>1970-01-01T01:00:00Z</time>
      </trkpt>
      <trkpt lat="41.90396" lon="12.49506">
        <ele>53.341</ele>
        <time>1970-01-01T01:00:00Z</time>
      </trkpt>
      <trkpt lat="41.90397833" lon="12.49504167">
        <ele>53.341</ele>
        <time>1970-01-01T01:00:00Z</time>
      </trkpt>
      <trkpt lat="41.90399333" lon="12.49502333">
        <ele>54.407</ele>
        <time>1970-01-01T01:00:00Z</time>
      </trkpt>
      <trkpt lat="41.90400833" lon="12.49500167">
        <ele>54.407</ele>
        <time>1970-01-01T01:00:00Z</time>
      </trkpt>
      <trkpt lat="41.90402" lon="12.49497667">
        <ele>54.407</ele>
        <time>1970-01-01T01:00:00Z</time>
      </trkpt>
      <trkpt lat="41.90403167" lon="12.49495333">
        <ele>54.407</ele>
        <time>1970-01-01T01:00:00Z</time>
      </trkpt>
      <trkpt lat="41.904045" lon="12.49493">
        <ele>54.407</ele>
        <time>1970-01-01T01:00:00Z</time>
      </trkpt>
      <trkpt lat="41.90405833" lon="12.49491">
        <ele>54.407</ele>
        <time>1970-01-01T01:00:00Z</time>
      </trkpt>
      <trkpt lat="41.90407167" lon="12.49489167">
        <ele>54.407</ele>
        <time>1970-01-01T01:00:00Z</time>
      </trkpt>
      <trkpt lat="41.90408333" lon="12.49487333">
        <ele>54.407</ele>
        <time>1970-01-01T01:00:00Z</time>
      </trkpt>
      <trkpt lat="41.904095" lon="12.49485667">
        <ele>54.407</ele>
        <time>1970-01-01T01:00:00Z</time>
      </trkpt>
      <trkpt lat="41.90410667" lon="12.49484167">
        <ele>54.407</ele>
        <time>1970-01-01T01:00:00Z</time>
      </trkpt>
      <trkpt lat="41.90411833" lon="12.49482333">
        <ele>54.407</ele>
        <time>1970-01-01T01:00:00Z</time>
      </trkpt>
      <trkpt lat="41.90413167" lon="12.494805">
        <ele>54.407</ele>
        <time>1970-01-01T01:00:00Z</time>
      </trkpt>
      <trkpt lat="41.904145" lon="12.49478667">
        <ele>54.407</ele>
        <time>1970-01-01T01:00:00Z</time>
      </trkpt>
      <trkpt lat="41.90415667" lon="12.49476833">
        <ele>54.407</ele>
        <time>1970-01-01T01:00:00Z</time>
      </trkpt>
      <trkpt lat="41.90417" lon="12.49475">
        <ele>54.407</ele>
        <time>1970-01-01T01:00:00Z</time>
      </trkpt>
      <trkpt lat="41.90418167" lon="12.49473667">
        <ele>54.407</ele>
        <time>1970-01-01T01:00:00Z</time>
      </trkpt>
      <trkpt lat="41.90419333" lon="12.49472">
        <ele>54.407</ele>
        <time>1970-01-01T01:00:00Z</time>
      </trkpt>
      <trkpt lat="41.904205" lon="12.49470667">
        <ele>54.407</ele>
        <time>1970-01-01T01:00:00Z</time>
      </trkpt>
      <trkpt lat="41.90421833" lon="12.49469333">
        <ele>54.407</ele>
        <time>1970-01-01T01:00:00Z</time>
      </trkpt>
      <trkpt lat="41.90423167" lon="12.49468167">
        <ele>54.407</ele>
        <time>1970-01-01T01:00:00Z</time>
      </trkpt>
      <trkpt lat="41.90424333" lon="12.494665">
        <ele>54.407</ele>
        <time>1970-01-01T01:00:00Z</time>
      </trkpt>
      <trkpt lat="41.90425333" lon="12.494645">
        <ele>54.407</ele>
        <time>1970-01-01T01:00:00Z</time>
      </trkpt>
      <trkpt lat="41.90426" lon="12.49461667">
        <ele>54.407</ele>
        <time>1970-01-01T01:00:00Z</time>
      </trkpt>
      <trkpt lat="41.90426333" lon="12.494585">
        <ele>54.407</ele>
        <time>1970-01-01T01:00:00Z</time>
      </trkpt>
      <trkpt lat="41.90426667" lon="12.49454833">
        <ele>54.407</ele>
        <time>1970-01-01T01:00:00Z</time>
      </trkpt>
      <trkpt lat="41.90427" lon="12.49451">
        <ele>54.407</ele>
        <time>1970-01-01T01:00:00Z</time>
      </trkpt>
      <trkpt lat="41.90427167" lon="12.494475">
        <ele>54.407</ele>
        <time>1970-01-01T01:00:00Z</time>
      </trkpt>
      <trkpt lat="41.904275" lon="12.49444167">
        <ele>54.407</ele>
        <time>1970-01-01T01:00:00Z</time>
      </trkpt>
      <trkpt lat="41.90427833" lon="12.49441">
        <ele>55.322</ele>
        <time>1970-01-01T01:00:00Z</time>
      </trkpt>
      <trkpt lat="41.904285" lon="12.49438167">
        <ele>55.322</ele>
        <time>1970-01-01T01:00:00Z</time>
      </trkpt>
      <trkpt lat="41.904295" lon="12.49435333">
        <ele>55.322</ele>
        <time>1970-01-01T01:00:00Z</time>
      </trkpt>
      <trkpt lat="41.90430667" lon="12.49432167">
        <ele>55.322</ele>
        <time>1970-01-01T01:00:00Z</time>
      </trkpt>
      <trkpt lat="41.90432" lon="12.49429">
        <ele>55.322</ele>
        <time>1970-01-01T01:00:00Z</time>
      </trkpt>
      <trkpt lat="41.90433167" lon="12.49426167">
        <ele>55.322</ele>
        <time>1970-01-01T01:00:00Z</time>
      </trkpt>
      <trkpt lat="41.90434167" lon="12.494235">
        <ele>55.322</ele>
        <time>1970-01-01T01:00:00Z</time>
      </trkpt>
      <trkpt lat="41.90435" lon="12.49420833">
        <ele>55.322</ele>
        <time>1970-01-01T01:00:00Z</time>
      </trkpt>
      <trkpt lat="41.90435833" lon="12.49418">
        <ele>55.322</ele>
        <time>1970-01-01T01:00:00Z</time>
      </trkpt>
      <trkpt lat="41.90436333" lon="12.49415">
        <ele>55.322</ele>
        <time>1970-01-01T01:00:00Z</time>
      </trkpt>
      <trkpt lat="41.90437" lon="12.49412">
        <ele>55.322</ele>
        <time>1970-01-01T01:00:00Z</time>
      </trkpt>
      <trkpt lat="41.90437667" lon="12.49409">
        <ele>55.322</ele>
        <time>1970-01-01T01:00:00Z</time>
      </trkpt>
      <trkpt lat="41.90438333" lon="12.49406167">
        <ele>54.407</ele>
        <time>1970-01-01T01:00:00Z</time>
      </trkpt>
      <trkpt lat="41.90439333" lon="12.49403667">
        <ele>54.407</ele>
        <time>1970-01-01T01:00:00Z</time>
      </trkpt>
      <trkpt lat="41.90440333" lon="12.49401667">
        <ele>54.407</ele>
        <time>1970-01-01T01:00:00Z</time>
      </trkpt>
      <trkpt lat="41.90441333" lon="12.49399833">
        <ele>54.407</ele>
        <time>1970-01-01T01:00:00Z</time>
      </trkpt>
      <trkpt lat="41.90442333" lon="12.49397833">
        <ele>54.407</ele>
        <time>1970-01-01T01:00:00Z</time>
      </trkpt>
      <trkpt lat="41.90443167" lon="12.49396167">
        <ele>54.407</ele>
        <time>1970-01-01T01:00:00Z</time>
      </trkpt>
      <trkpt lat="41.90444" lon="12.493945">
        <ele>54.407</ele>
        <time>1970-01-01T01:00:00Z</time>
      </trkpt>
      <trkpt lat="41.90445" lon="12.49392833">
        <ele>54.407</ele>
        <time>1970-01-01T01:00:00Z</time>
      </trkpt>
      <trkpt lat="41.90446" lon="12.49391333">
        <ele>54.407</ele>
        <time>1970-01-01T01:00:00Z</time>
      </trkpt>
      <trkpt lat="41.90447" lon="12.49389667">
        <ele>54.407</ele>
        <time>1970-01-01T01:00:00Z</time>
      </trkpt>
      <trkpt lat="41.90448167" lon="12.49387833">
        <ele>54.407</ele>
        <time>1970-01-01T01:00:00Z</time>
      </trkpt>
      <trkpt lat="41.904495" lon="12.49386">
        <ele>54.407</ele>
        <time>1970-01-01T01:00:00Z</time>
      </trkpt>
      <trkpt lat="41.90451" lon="12.49384167">
        <ele>54.407</ele>
        <time>1970-01-01T01:00:00Z</time>
      </trkpt>
      <trkpt lat="41.90452667" lon="12.493825">
        <ele>54.407</ele>
        <time>1970-01-01T01:00:00Z</time>
      </trkpt>
      <trkpt lat="41.90454167" lon="12.49380667">
        <ele>53.341</ele>
        <time>1970-01-01T01:00:00Z</time>
      </trkpt>
      <trkpt lat="41.90455667" lon="12.49378667">
        <ele>53.341</ele>
        <time>1970-01-01T01:00:00Z</time>
      </trkpt>
      <trkpt lat="41.90457333" lon="12.49376">
        <ele>53.341</ele>
        <time>1970-01-01T01:00:00Z</time>
      </trkpt>
      <trkpt lat="41.90458833" lon="12.49373667">
        <ele>53.341</ele>
        <time>1970-01-01T01:00:00Z</time>
      </trkpt>
      <trkpt lat="41.90460333" lon="12.49371">
        <ele>52.426</ele>
        <time>1970-01-01T01:00:00Z</time>
      </trkpt>
      <trkpt lat="41.90462333" lon="12.493685">
        <ele>52.426</ele>
        <time>1970-01-01T01:00:00Z</time>
      </trkpt>
      <trkpt lat="41.904645" lon="12.493655">
        <ele>52.426</ele>
        <time>1970-01-01T01:00:00Z</time>
      </trkpt>
      <trkpt lat="41.90466667" lon="12.49362833">
        <ele>52.426</ele>
        <time>1970-01-01T01:00:00Z</time>
      </trkpt>
      <trkpt lat="41.90469" lon="12.49360333">
        <ele>51.359</ele>
        <time>1970-01-01T01:00:00Z</time>
      </trkpt>
      <trkpt lat="41.90471333" lon="12.493585">
        <ele>51.359</ele>
        <time>1970-01-01T01:00:00Z</time>
      </trkpt>
      <trkpt lat="41.904735" lon="12.493565">
        <ele>50.445</ele>
        <time>1970-01-01T01:00:00Z</time>
      </trkpt>
      <trkpt lat="41.904755" lon="12.49354333">
        <ele>50.445</ele>
        <time>1970-01-01T01:00:00Z</time>
      </trkpt>
      <trkpt lat="41.90477833" lon="12.49352333">
        <ele>50.445</ele>
        <time>1970-01-01T01:00:00Z</time>
      </trkpt>
      <trkpt lat="41.90480333" lon="12.49350167">
        <ele>50.445</ele>
        <time>1970-01-01T01:00:00Z</time>
      </trkpt>
      <trkpt lat="41.90482833" lon="12.49348167">
        <ele>50.445</ele>
        <time>1970-01-01T01:00:00Z</time>
      </trkpt>
      <trkpt lat="41.904855" lon="12.49346167">
        <ele>50.445</ele>
        <time>1970-01-01T01:00:00Z</time>
      </trkpt>
      <trkpt lat="41.90488167" lon="12.49344333">
        <ele>50.445</ele>
        <time>1970-01-01T01:00:00Z</time>
      </trkpt>
      <trkpt lat="41.90490833" lon="12.493425">
        <ele>50.445</ele>
        <time>1970-01-01T01:00:00Z</time>
      </trkpt>
      <trkpt lat="41.90493667" lon="12.49340667">
        <ele>49.378</ele>
        <time>1970-01-01T01:00:00Z</time>
      </trkpt>
      <trkpt lat="41.904965" lon="12.49338833">
        <ele>49.378</ele>
        <time>1970-01-01T01:00:00Z</time>
      </trkpt>
      <trkpt lat="41.90499" lon="12.49337167">
        <ele>49.378</ele>
        <time>1970-01-01T01:00:00Z</time>
      </trkpt>
      <trkpt lat="41.90501833" lon="12.493355">
        <ele>49.378</ele>
        <time>1970-01-01T01:00:00Z</time>
      </trkpt>
      <trkpt lat="41.90504833" lon="12.49334">
        <ele>49.378</ele>
        <time>1970-01-01T01:00:00Z</time>
      </trkpt>
      <trkpt lat="41.905075" lon="12.493325">
        <ele>49.378</ele>
        <time>1970-01-01T01:00:00Z</time>
      </trkpt>
      <trkpt lat="41.90509833" lon="12.49330667">
        <ele>49.378</ele>
        <time>1970-01-01T01:00:00Z</time>
      </trkpt>
      <trkpt lat="41.90511833" lon="12.49328667">
        <ele>49.378</ele>
        <time>1970-01-01T01:00:00Z</time>
      </trkpt>
      <trkpt lat="41.905135" lon="12.49326667">
        <ele>49.378</ele>
        <time>1970-01-01T01:00:00Z</time>
      </trkpt>
      <trkpt lat="41.90514333" lon="12.49324333">
        <ele>49.378</ele>
        <time>1970-01-01T01:00:00Z</time>
      </trkpt>
      <trkpt lat="41.90514667" lon="12.49322">
        <ele>48.464</ele>
        <time>1970-01-01T01:00:00Z</time>
      </trkpt>
      <trkpt lat="41.90514833" lon="12.49319333">
        <ele>48.464</ele>
        <time>1970-01-01T01:00:00Z</time>
      </trkpt>
      <trkpt lat="41.90514833" lon="12.493165">
        <ele>48.464</ele>
        <time>1970-01-01T01:00:00Z</time>
      </trkpt>
      <trkpt lat="41.90514833" lon="12.49314">
        <ele>48.464</ele>
        <time>1970-01-01T01:00:00Z</time>
      </trkpt>
      <trkpt lat="41.905145" lon="12.49311167">
        <ele>48.464</ele>
        <time>1970-01-01T01:00:00Z</time>
      </trkpt>
      <trkpt lat="41.90514" lon="12.493085">
        <ele>48.464</ele>
        <time>1970-01-01T01:00:00Z</time>
      </trkpt>
      <trkpt lat="41.90513333" lon="12.49305833">
        <ele>47.397</ele>
        <time>1970-01-01T01:00:00Z</time>
      </trkpt>
      <trkpt lat="41.90512667" lon="12.49303667">
        <ele>47.397</ele>
        <time>1970-01-01T01:00:00Z</time>
      </trkpt>
      <trkpt lat="41.90511833" lon="12.49301167">
        <ele>47.397</ele>
        <time>1970-01-01T01:00:00Z</time>
      </trkpt>
      <trkpt lat="41.90511" lon="12.49298667">
        <ele>47.397</ele>
        <time>1970-01-01T01:00:00Z</time>
      </trkpt>
      <trkpt lat="41.90510167" lon="12.49296">
        <ele>47.397</ele>
        <time>1970-01-01T01:00:00Z</time>
      </trkpt>
      <trkpt lat="41.90509333" lon="12.49293">
        <ele>47.397</ele>
        <time>1970-01-01T01:00:00Z</time>
      </trkpt>
      <trkpt lat="41.90508333" lon="12.49290167">
        <ele>46.33</ele>
        <time>1970-01-01T01:00:00Z</time>
      </trkpt>
      <trkpt lat="41.905075" lon="12.49287333">
        <ele>46.33</ele>
        <time>1970-01-01T01:00:00Z</time>
      </trkpt>
      <trkpt lat="41.90507" lon="12.492845">
        <ele>46.33</ele>
        <time>1970-01-01T01:00:00Z</time>
      </trkpt>
      <trkpt lat="41.905065" lon="12.49282">
        <ele>46.33</ele>
        <time>1970-01-01T01:00:00Z</time>
      </trkpt>
      <trkpt lat="41.90505833" lon="12.49279333">
        <ele>46.33</ele>
        <time>1970-01-01T01:00:00Z</time>
      </trkpt>
      <trkpt lat="41.90505" lon="12.49276833">
        <ele>46.33</ele>
        <time>1970-01-01T01:00:00Z</time>
      </trkpt>
      <trkpt lat="41.90504333" lon="12.49274167">
        <ele>46.33</ele>
        <time>1970-01-01T01:00:00Z</time>
      </trkpt>
      <trkpt lat="41.905035" lon="12.49271667">
        <ele>46.33</ele>
        <time>1970-01-01T01:00:00Z</time>
      </trkpt>
      <trkpt lat="41.90503" lon="12.49269167">
        <ele>45.416</ele>
        <time>1970-01-01T01:00:00Z</time>
      </trkpt>
      <trkpt lat="41.90502333" lon="12.49266833">
        <ele>45.416</ele>
        <time>1970-01-01T01:00:00Z</time>
      </trkpt>
      <trkpt lat="41.90501833" lon="12.492645">
        <ele>45.416</ele>
        <time>1970-01-01T01:00:00Z</time>
      </trkpt>
      <trkpt lat="41.90501167" lon="12.49262333">
        <ele>45.416</ele>
        <time>1970-01-01T01:00:00Z</time>
      </trkpt>
      <trkpt lat="41.90500667" lon="12.49259833">
        <ele>44.349</ele>
        <time>1970-01-01T01:00:00Z</time>
      </trkpt>
      <trkpt lat="41.905" lon="12.49257333">
        <ele>44.349</ele>
        <time>1970-01-01T01:00:00Z</time>
      </trkpt>
      <trkpt lat="41.90499333" lon="12.49255167">
        <ele>44.349</ele>
        <time>1970-01-01T01:00:00Z</time>
      </trkpt>
      <trkpt lat="41.90499" lon="12.49253167">
        <ele>44.349</ele>
        <time>1970-01-01T01:00:00Z</time>
      </trkpt>
      <trkpt lat="41.90498333" lon="12.49251333">
        <ele>44.349</ele>
        <time>1970-01-01T01:00:00Z</time>
      </trkpt>
      <trkpt lat="41.90497833" lon="12.492495">
        <ele>44.349</ele>
        <time>1970-01-01T01:00:00Z</time>
      </trkpt>
      <trkpt lat="41.904975" lon="12.49247667">
        <ele>44.349</ele>
        <time>1970-01-01T01:00:00Z</time>
      </trkpt>
      <trkpt lat="41.90497167" lon="12.49245333">
        <ele>44.349</ele>
        <time>1970-01-01T01:00:00Z</time>
      </trkpt>
      <trkpt lat="41.90496833" lon="12.49243167">
        <ele>44.349</ele>
        <time>1970-01-01T01:00:00Z</time>
      </trkpt>
      <trkpt lat="41.90496" lon="12.49241">
        <ele>44.349</ele>
        <time>1970-01-01T01:00:00Z</time>
      </trkpt>
      <trkpt lat="41.90495167" lon="12.49238833">
        <ele>44.349</ele>
        <time>1970-01-01T01:00:00Z</time>
      </trkpt>
      <trkpt lat="41.904945" lon="12.49236333">
        <ele>44.349</ele>
        <time>1970-01-01T01:00:00Z</time>
      </trkpt>
      <trkpt lat="41.90494" lon="12.49233667">
        <ele>43.435</ele>
        <time>1970-01-01T01:00:00Z</time>
      </trkpt>
      <trkpt lat="41.904935" lon="12.492305">
        <ele>43.435</ele>
        <time>1970-01-01T01:00:00Z</time>
      </trkpt>
      <trkpt lat="41.90492667" lon="12.49227667">
        <ele>43.435</ele>
        <time>1970-01-01T01:00:00Z</time>
      </trkpt>
      <trkpt lat="41.90492" lon="12.49225">
        <ele>43.435</ele>
        <time>1970-01-01T01:00:00Z</time>
      </trkpt>
      <trkpt lat="41.90491167" lon="12.492225">
        <ele>43.435</ele>
        <time>1970-01-01T01:00:00Z</time>
      </trkpt>
      <trkpt lat="41.90490333" lon="12.49219833">
        <ele>43.435</ele>
        <time>1970-01-01T01:00:00Z</time>
      </trkpt>
      <trkpt lat="41.90489167" lon="12.49217333">
        <ele>43.435</ele>
        <time>1970-01-01T01:00:00Z</time>
      </trkpt>
      <trkpt lat="41.90488" lon="12.49214667">
        <ele>43.435</ele>
        <time>1970-01-01T01:00:00Z</time>
      </trkpt>
      <trkpt lat="41.90486667" lon="12.492115">
        <ele>42.368</ele>
        <time>1970-01-01T01:00:00Z</time>
      </trkpt>
      <trkpt lat="41.90485333" lon="12.49208333">
        <ele>42.368</ele>
        <time>1970-01-01T01:00:00Z</time>
      </trkpt>
      <trkpt lat="41.90483667" lon="12.49205">
        <ele>42.368</ele>
        <time>1970-01-01T01:00:00Z</time>
      </trkpt>
      <trkpt lat="41.90481667" lon="12.49201667">
        <ele>42.368</ele>
        <time>1970-01-01T01:00:00Z</time>
      </trkpt>
      <trkpt lat="41.90479833" lon="12.491985">
        <ele>42.368</ele>
        <time>1970-01-01T01:00:00Z</time>
      </trkpt>
      <trkpt lat="41.90478" lon="12.49195167">
        <ele>42.368</ele>
        <time>1970-01-01T01:00:00Z</time>
      </trkpt>
      <trkpt lat="41.904765" lon="12.49191833">
        <ele>42.368</ele>
        <time>1970-01-01T01:00:00Z</time>
      </trkpt>
      <trkpt lat="41.90475333" lon="12.491885">
        <ele>42.368</ele>
        <time>1970-01-01T01:00:00Z</time>
      </trkpt>
      <trkpt lat="41.90473833" lon="12.49185167">
        <ele>42.368</ele>
        <time>1970-01-01T01:00:00Z</time>
      </trkpt>
      <trkpt lat="41.90472667" lon="12.49181833">
        <ele>42.368</ele>
        <time>1970-01-01T01:00:00Z</time>
      </trkpt>
      <trkpt lat="41.904715" lon="12.49179">
        <ele>41.453</ele>
        <time>1970-01-01T01:00:00Z</time>
      </trkpt>
      <trkpt lat="41.904705" lon="12.491765">
        <ele>41.453</ele>
        <time>1970-01-01T01:00:00Z</time>
      </trkpt>
      <trkpt lat="41.904695" lon="12.49174">
        <ele>41.453</ele>
        <time>1970-01-01T01:00:00Z</time>
      </trkpt>
      <trkpt lat="41.90468333" lon="12.491715">
        <ele>41.453</ele>
        <time>1970-01-01T01:00:00Z</time>
      </trkpt>
      <trkpt lat="41.90467167" lon="12.49168833">
        <ele>40.386</ele>
        <time>1970-01-01T01:00:00Z</time>
      </trkpt>
      <trkpt lat="41.90466" lon="12.491665">
        <ele>40.386</ele>
        <time>1970-01-01T01:00:00Z</time>
      </trkpt>
      <trkpt lat="41.90464833" lon="12.49164167">
        <ele>40.386</ele>
        <time>1970-01-01T01:00:00Z</time>
      </trkpt>
      <trkpt lat="41.90463667" lon="12.491615">
        <ele>40.386</ele>
        <time>1970-01-01T01:00:00Z</time>
      </trkpt>
      <trkpt lat="41.904625" lon="12.49159">
        <ele>40.386</ele>
        <time>1970-01-01T01:00:00Z</time>
      </trkpt>
      <trkpt lat="41.904615" lon="12.491565">
        <ele>40.386</ele>
        <time>1970-01-01T01:00:00Z</time>
      </trkpt>
      <trkpt lat="41.90460667" lon="12.49154">
        <ele>40.386</ele>
        <time>1970-01-01T01:00:00Z</time>
      </trkpt>
      <trkpt lat="41.90459833" lon="12.49151333">
        <ele>40.386</ele>
        <time>1970-01-01T01:00:00Z</time>
      </trkpt>
      <trkpt lat="41.90459" lon="12.49148667">
        <ele>40.386</ele>
        <time>1970-01-01T01:00:00Z</time>
      </trkpt>
      <trkpt lat="41.90458333" lon="12.49145833">
        <ele>40.386</ele>
        <time>1970-01-01T01:00:00Z</time>
      </trkpt>
      <trkpt lat="41.904575" lon="12.49143">
        <ele>39.32</ele>
        <time>1970-01-01T01:00:00Z</time>
      </trkpt>
      <trkpt lat="41.90456667" lon="12.49140333">
        <ele>39.32</ele>
        <time>1970-01-01T01:00:00Z</time>
      </trkpt>
      <trkpt lat="41.90455833" lon="12.49137333">
        <ele>39.32</ele>
        <time>1970-01-01T01:00:00Z</time>
      </trkpt>
      <trkpt lat="41.90455167" lon="12.49134333">
        <ele>39.32</ele>
        <time>1970-01-01T01:00:00Z</time>
      </trkpt>
      <trkpt lat="41.90454667" lon="12.49131333">
        <ele>39.32</ele>
        <time>1970-01-01T01:00:00Z</time>
      </trkpt>
      <trkpt lat="41.90454167" lon="12.49128333">
        <ele>39.32</ele>
        <time>1970-01-01T01:00:00Z</time>
      </trkpt>
      <trkpt lat="41.90453333" lon="12.491255">
        <ele>39.32</ele>
        <time>1970-01-01T01:00:00Z</time>
      </trkpt>
      <trkpt lat="41.904525" lon="12.49122833">
        <ele>39.32</ele>
        <time>1970-01-01T01:00:00Z</time>
      </trkpt>
      <trkpt lat="41.90451833" lon="12.49120333">
        <ele>39.32</ele>
        <time>1970-01-01T01:00:00Z</time>
      </trkpt>
      <trkpt lat="41.90450833" lon="12.49118167">
        <ele>39.32</ele>
        <time>1970-01-01T01:00:00Z</time>
      </trkpt>
      <trkpt lat="41.90449833" lon="12.49115833">
        <ele>38.405</ele>
        <time>1970-01-01T01:00:00Z</time>
      </trkpt>
      <trkpt lat="41.90449" lon="12.491135">
        <ele>38.405</ele>
        <time>1970-01-01T01:00:00Z</time>
      </trkpt>
      <trkpt lat="41.90448" lon="12.49110667">
        <ele>38.405</ele>
        <time>1970-01-01T01:00:00Z</time>
      </trkpt>
      <trkpt lat="41.90447333" lon="12.49107833">
        <ele>38.405</ele>
        <time>1970-01-01T01:00:00Z</time>
      </trkpt>
      <trkpt lat="41.90446667" lon="12.49105167">
        <ele>37.338</ele>
        <time>1970-01-01T01:00:00Z</time>
      </trkpt>
      <trkpt lat="41.90445833" lon="12.491025">
        <ele>37.338</ele>
        <time>1970-01-01T01:00:00Z</time>
      </trkpt>
      <trkpt lat="41.90445" lon="12.49100167">
        <ele>37.338</ele>
        <time>1970-01-01T01:00:00Z</time>
      </trkpt>
      <trkpt lat="41.90444167" lon="12.49097833">
        <ele>37.338</ele>
        <time>1970-01-01T01:00:00Z</time>
      </trkpt>
      <trkpt lat="41.90443167" lon="12.49095167">
        <ele>37.338</ele>
        <time>1970-01-01T01:00:00Z</time>
      </trkpt>
      <trkpt lat="41.90441833" lon="12.490925">
        <ele>37.338</ele>
        <time>1970-01-01T01:00:00Z</time>
      </trkpt>
      <trkpt lat="41.90440333" lon="12.49089667">
        <ele>36.424</ele>
        <time>1970-01-01T01:00:00Z</time>
      </trkpt>
      <trkpt lat="41.90437667" lon="12.49086833">
        <ele>36.424</ele>
        <time>1970-01-01T01:00:00Z</time>
      </trkpt>
      <trkpt lat="41.90435" lon="12.490845">
        <ele>36.424</ele>
        <time>1970-01-01T01:00:00Z</time>
      </trkpt>
      <trkpt lat="41.90432333" lon="12.49081833">
        <ele>36.424</ele>
        <time>1970-01-01T01:00:00Z</time>
      </trkpt>
      <trkpt lat="41.90430167" lon="12.49079167">
        <ele>36.424</ele>
        <time>1970-01-01T01:00:00Z</time>
      </trkpt>
      <trkpt lat="41.90428167" lon="12.490765">
        <ele>36.424</ele>
        <time>1970-01-01T01:00:00Z</time>
      </trkpt>
      <trkpt lat="41.90426" lon="12.49073667">
        <ele>35.357</ele>
        <time>1970-01-01T01:00:00Z</time>
      </trkpt>
      <trkpt lat="41.90424167" lon="12.49070667">
        <ele>35.357</ele>
        <time>1970-01-01T01:00:00Z</time>
      </trkpt>
      <trkpt lat="41.90422667" lon="12.49067833">
        <ele>35.357</ele>
        <time>1970-01-01T01:00:00Z</time>
      </trkpt>
      <trkpt lat="41.904215" lon="12.49065">
        <ele>35.357</ele>
        <time>1970-01-01T01:00:00Z</time>
      </trkpt>
      <trkpt lat="41.90420167" lon="12.49062167">
        <ele>34.443</ele>
        <time>1970-01-01T01:00:00Z</time>
      </trkpt>
      <trkpt lat="41.90419167" lon="12.49059167">
        <ele>34.443</ele>
        <time>1970-01-01T01:00:00Z</time>
      </trkpt>
      <trkpt lat="41.90417833" lon="12.49056">
        <ele>34.443</ele>
        <time>1970-01-01T01:00:00Z</time>
      </trkpt>
      <trkpt lat="41.90416333" lon="12.49052667">
        <ele>34.443</ele>
        <time>1970-01-01T01:00:00Z</time>
      </trkpt>
      <trkpt lat="41.90415" lon="12.49049333">
        <ele>33.376</ele>
        <time>1970-01-01T01:00:00Z</time>
      </trkpt>
      <trkpt lat="41.90413667" lon="12.49046167">
        <ele>33.376</ele>
        <time>1970-01-01T01:00:00Z</time>
      </trkpt>
      <trkpt lat="41.90412167" lon="12.49042667">
        <ele>33.376</ele>
        <time>1970-01-01T01:00:00Z</time>
      </trkpt>
      <trkpt lat="41.90411" lon="12.49038667">
        <ele>33.376</ele>
        <time>1970-01-01T01:00:00Z</time>
      </trkpt>
      <trkpt lat="41.90409667" lon="12.49034667">
        <ele>33.376</ele>
        <time>1970-01-01T01:00:00Z</time>
      </trkpt>
      <trkpt lat="41.90408333" lon="12.49031">
        <ele>33.376</ele>
        <time>1970-01-01T01:00:00Z</time>
      </trkpt>
      <trkpt lat="41.90407" lon="12.490275">
        <ele>32.462</ele>
        <time>1970-01-01T01:00:00Z</time>
      </trkpt>
      <trkpt lat="41.90405833" lon="12.49023667">
        <ele>32.462</ele>
        <time>1970-01-01T01:00:00Z</time>
      </trkpt>
      <trkpt lat="41.90404667" lon="12.4902">
        <ele>31.395</ele>
        <time>1970-01-01T01:00:00Z</time>
      </trkpt>
      <trkpt lat="41.904035" lon="12.490165">
        <ele>31.395</ele>
        <time>1970-01-01T01:00:00Z</time>
      </trkpt>
      <trkpt lat="41.90402333" lon="12.49013">
        <ele>31.395</ele>
        <time>1970-01-01T01:00:00Z</time>
      </trkpt>
      <trkpt lat="41.90401167" lon="12.49009167">
        <ele>31.395</ele>
        <time>1970-01-01T01:00:00Z</time>
      </trkpt>
      <trkpt lat="41.904" lon="12.490055">
        <ele>31.395</ele>
        <time>1970-01-01T01:00:00Z</time>
      </trkpt>
      <trkpt lat="41.90398833" lon="12.49001667">
        <ele>31.395</ele>
        <time>1970-01-01T01:00:00Z</time>
      </trkpt>
      <trkpt lat="41.90398" lon="12.48998333">
        <ele>31.395</ele>
        <time>1970-01-01T01:00:00Z</time>
      </trkpt>
      <trkpt lat="41.90397333" lon="12.48995">
        <ele>31.395</ele>
        <time>1970-01-01T01:00:00Z</time>
      </trkpt>
      <trkpt lat="41.903965" lon="12.489915">
        <ele>31.395</ele>
        <time>1970-01-01T01:00:00Z</time>
      </trkpt>
      <trkpt lat="41.90395833" lon="12.48988333">
        <ele>31.395</ele>
        <time>1970-01-01T01:00:00Z</time>
      </trkpt>
      <trkpt lat="41.90394833" lon="12.48985167">
        <ele>31.395</ele>
        <time>1970-01-01T01:00:00Z</time>
      </trkpt>
      <trkpt lat="41.90394167" lon="12.48982333">
        <ele>31.395</ele>
        <time>1970-01-01T01:00:00Z</time>
      </trkpt>
      <trkpt lat="41.90393167" lon="12.48979667">
        <ele>30.328</ele>
        <time>1970-01-01T01:00:00Z</time>
      </trkpt>
      <trkpt lat="41.90392167" lon="12.489765">
        <ele>30.328</ele>
        <time>1970-01-01T01:00:00Z</time>
      </trkpt>
      <trkpt lat="41.90391333" lon="12.489735">
        <ele>29.414</ele>
        <time>1970-01-01T01:00:00Z</time>
      </trkpt>
      <trkpt lat="41.90390667" lon="12.4897">
        <ele>29.414</ele>
        <time>1970-01-01T01:00:00Z</time>
      </trkpt>
      <trkpt lat="41.90389833" lon="12.48966667">
        <ele>29.414</ele>
        <time>1970-01-01T01:00:00Z</time>
      </trkpt>
      <trkpt lat="41.90389167" lon="12.48963167">
        <ele>29.414</ele>
        <time>1970-01-01T01:00:00Z</time>
      </trkpt>
      <trkpt lat="41.90388333" lon="12.4896">
        <ele>29.414</ele>
        <time>1970-01-01T01:00:00Z</time>
      </trkpt>
      <trkpt lat="41.90387667" lon="12.48956833">
        <ele>29.414</ele>
        <time>1970-01-01T01:00:00Z</time>
      </trkpt>
      <trkpt lat="41.90386667" lon="12.48954">
        <ele>29.414</ele>
        <time>1970-01-01T01:00:00Z</time>
      </trkpt>
      <trkpt lat="41.90385667" lon="12.48951333">
        <ele>29.414</ele>
        <time>1970-01-01T01:00:00Z</time>
      </trkpt>
      <trkpt lat="41.90384667" lon="12.48948833">
        <ele>28.347</ele>
        <time>1970-01-01T01:00:00Z</time>
      </trkpt>
      <trkpt lat="41.90383667" lon="12.489465">
        <ele>28.347</ele>
        <time>1970-01-01T01:00:00Z</time>
      </trkpt>
      <trkpt lat="41.90382833" lon="12.48944167">
        <ele>28.347</ele>
        <time>1970-01-01T01:00:00Z</time>
      </trkpt>
      <trkpt lat="41.90382167" lon="12.48941667">
        <ele>28.347</ele>
        <time>1970-01-01T01:00:00Z</time>
      </trkpt>
      <trkpt lat="41.903815" lon="12.48939167">
        <ele>27.432</ele>
        <time>1970-01-01T01:00:00Z</time>
      </trkpt>
      <trkpt lat="41.90380833" lon="12.489365">
        <ele>27.432</ele>
        <time>1970-01-01T01:00:00Z</time>
      </trkpt>
      <trkpt lat="41.90380333" lon="12.48933667">
        <ele>27.432</ele>
        <time>1970-01-01T01:00:00Z</time>
      </trkpt>
      <trkpt lat="41.90379833" lon="12.489305">
        <ele>27.432</ele>
        <time>1970-01-01T01:00:00Z</time>
      </trkpt>
      <trkpt lat="41.90379167" lon="12.48927167">
        <ele>26.366</ele>
        <time>1970-01-01T01:00:00Z</time>
      </trkpt>
      <trkpt lat="41.90378667" lon="12.48923667">
        <ele>26.366</ele>
        <time>1970-01-01T01:00:00Z</time>
      </trkpt>
      <trkpt lat="41.90377833" lon="12.489205">
        <ele>26.366</ele>
        <time>1970-01-01T01:00:00Z</time>
      </trkpt>
      <trkpt lat="41.90377167" lon="12.48917333">
        <ele>26.366</ele>
        <time>1970-01-01T01:00:00Z</time>
      </trkpt>
      <trkpt lat="41.903765" lon="12.48914333">
        <ele>25.451</ele>
        <time>1970-01-01T01:00:00Z</time>
      </trkpt>
      <trkpt lat="41.90375833" lon="12.48911333">
        <ele>25.451</ele>
        <time>1970-01-01T01:00:00Z</time>
      </trkpt>
      <trkpt lat="41.903755" lon="12.48907833">
        <ele>25.451</ele>
        <time>1970-01-01T01:00:00Z</time>
      </trkpt>
      <trkpt lat="41.90375167" lon="12.48904">
        <ele>25.451</ele>
        <time>1970-01-01T01:00:00Z</time>
      </trkpt>
      <trkpt lat="41.90375" lon="12.489005">
        <ele>25.451</ele>
        <time>1970-01-01T01:00:00Z</time>
      </trkpt>
      <trkpt lat="41.90374833" lon="12.48897">
        <ele>25.451</ele>
        <time>1970-01-01T01:00:00Z</time>
      </trkpt>
      <trkpt lat="41.90374667" lon="12.48893667">
        <ele>25.451</ele>
        <time>1970-01-01T01:00:00Z</time>
      </trkpt>
      <trkpt lat="41.90374667" lon="12.4889">
        <ele>25.451</ele>
        <time>1970-01-01T01:00:00Z</time>
      </trkpt>
      <trkpt lat="41.903745" lon="12.48886667">
        <ele>24.384</ele>
        <time>1970-01-01T01:00:00Z</time>
      </trkpt>
      <trkpt lat="41.90374167" lon="12.48883333">
        <ele>24.384</ele>
        <time>1970-01-01T01:00:00Z</time>
      </trkpt>
      <trkpt lat="41.90374" lon="12.48880167">
        <ele>24.384</ele>
        <time>1970-01-01T01:00:00Z</time>
      </trkpt>
      <trkpt lat="41.90373833" lon="12.48877">
        <ele>24.384</ele>
        <time>1970-01-01T01:00:00Z</time>
      </trkpt>
      <trkpt lat="41.90373833" lon="12.48873667">
        <ele>24.384</ele>
        <time>1970-01-01T01:00:00Z</time>
      </trkpt>
      <trkpt lat="41.90373667" lon="12.488705">
        <ele>24.384</ele>
        <time>1970-01-01T01:00:00Z</time>
      </trkpt>
      <trkpt lat="41.903735" lon="12.48867333">
        <ele>23.47</ele>
        <time>1970-01-01T01:00:00Z</time>
      </trkpt>
      <trkpt lat="41.90373333" lon="12.48864333">
        <ele>23.47</ele>
        <time>1970-01-01T01:00:00Z</time>
      </trkpt>
      <trkpt lat="41.90373333" lon="12.48861167">
        <ele>23.47</ele>
        <time>1970-01-01T01:00:00Z</time>
      </trkpt>
      <trkpt lat="41.90373167" lon="12.48858167">
        <ele>23.47</ele>
        <time>1970-01-01T01:00:00Z</time>
      </trkpt>
      <trkpt lat="41.90372833" lon="12.48855333">
        <ele>23.47</ele>
        <time>1970-01-01T01:00:00Z</time>
      </trkpt>
      <trkpt lat="41.90372333" lon="12.48852667">
        <ele>23.47</ele>
        <time>1970-01-01T01:00:00Z</time>
      </trkpt>
      <trkpt lat="41.90371833" lon="12.4885">
        <ele>23.47</ele>
        <time>1970-01-01T01:00:00Z</time>
      </trkpt>
      <trkpt lat="41.90371333" lon="12.48847667">
        <ele>23.47</ele>
        <time>1970-01-01T01:00:00Z</time>
      </trkpt>
      <trkpt lat="41.90371167" lon="12.48845167">
        <ele>23.47</ele>
        <time>1970-01-01T01:00:00Z</time>
      </trkpt>
      <trkpt lat="41.90371167" lon="12.48842667">
        <ele>23.47</ele>
        <time>1970-01-01T01:00:00Z</time>
      </trkpt>
      <trkpt lat="41.903715" lon="12.4884">
        <ele>23.47</ele>
        <time>1970-01-01T01:00:00Z</time>
      </trkpt>
      <trkpt lat="41.90372167" lon="12.48837667">
        <ele>23.47</ele>
        <time>1970-01-01T01:00:00Z</time>
      </trkpt>
      <trkpt lat="41.90373" lon="12.488355">
        <ele>23.47</ele>
        <time>1970-01-01T01:00:00Z</time>
      </trkpt>
      <trkpt lat="41.90373667" lon="12.48833">
        <ele>23.47</ele>
        <time>1970-01-01T01:00:00Z</time>
      </trkpt>
      <trkpt lat="41.90373667" lon="12.48830333">
        <ele>23.47</ele>
        <time>1970-01-01T01:00:00Z</time>
      </trkpt>
      <trkpt lat="41.90373333" lon="12.48827833">
        <ele>23.47</ele>
        <time>1970-01-01T01:00:00Z</time>
      </trkpt>
      <trkpt lat="41.90372667" lon="12.48824833">
        <ele>22.403</ele>
        <time>1970-01-01T01:00:00Z</time>
      </trkpt>
      <trkpt lat="41.90372" lon="12.48822">
        <ele>22.403</ele>
        <time>1970-01-01T01:00:00Z</time>
      </trkpt>
      <trkpt lat="41.90371167" lon="12.48819333">
        <ele>22.403</ele>
        <time>1970-01-01T01:00:00Z</time>
      </trkpt>
      <trkpt lat="41.90370167" lon="12.48816833">
        <ele>22.403</ele>
        <time>1970-01-01T01:00:00Z</time>
      </trkpt>
      <trkpt lat="41.90369" lon="12.48814333">
        <ele>22.403</ele>
        <time>1970-01-01T01:00:00Z</time>
      </trkpt>
      <trkpt lat="41.90367667" lon="12.48811833">
        <ele>22.403</ele>
        <time>1970-01-01T01:00:00Z</time>
      </trkpt>
      <trkpt lat="41.90366167" lon="12.48809333">
        <ele>22.403</ele>
        <time>1970-01-01T01:00:00Z</time>
      </trkpt>
      <trkpt lat="41.90364667" lon="12.48806667">
        <ele>22.403</ele>
        <time>1970-01-01T01:00:00Z</time>
      </trkpt>
      <trkpt lat="41.90363167" lon="12.48804167">
        <ele>21.336</ele>
        <time>1970-01-01T01:00:00Z</time>
      </trkpt>
      <trkpt lat="41.90361833" lon="12.48801667">
        <ele>21.336</ele>
        <time>1970-01-01T01:00:00Z</time>
      </trkpt>
      <trkpt lat="41.90360833" lon="12.487995">
        <ele>21.336</ele>
        <time>1970-01-01T01:00:00Z</time>
      </trkpt>
      <trkpt lat="41.90359833" lon="12.48797333">
        <ele>21.336</ele>
        <time>1970-01-01T01:00:00Z</time>
      </trkpt>
      <trkpt lat="41.90358667" lon="12.48795">
        <ele>21.336</ele>
        <time>1970-01-01T01:00:00Z</time>
      </trkpt>
      <trkpt lat="41.903575" lon="12.48793">
        <ele>21.336</ele>
        <time>1970-01-01T01:00:00Z</time>
      </trkpt>
      <trkpt lat="41.90356333" lon="12.48790833">
        <ele>20.422</ele>
        <time>1970-01-01T01:00:00Z</time>
      </trkpt>
      <trkpt lat="41.90355" lon="12.487885">
        <ele>20.422</ele>
        <time>1970-01-01T01:00:00Z</time>
      </trkpt>
      <trkpt lat="41.90353667" lon="12.48786667">
        <ele>20.422</ele>
        <time>1970-01-01T01:00:00Z</time>
      </trkpt>
      <trkpt lat="41.90351833" lon="12.48785">
        <ele>20.422</ele>
        <time>1970-01-01T01:00:00Z</time>
      </trkpt>
      <trkpt lat="41.90350333" lon="12.48783167">
        <ele>19.355</ele>
        <time>1970-01-01T01:00:00Z</time>
      </trkpt>
      <trkpt lat="41.90349167" lon="12.48781167">
        <ele>19.355</ele>
        <time>1970-01-01T01:00:00Z</time>
      </trkpt>
      <trkpt lat="41.90347833" lon="12.48779167">
        <ele>19.355</ele>
        <time>1970-01-01T01:00:00Z</time>
      </trkpt>
      <trkpt lat="41.90346667" lon="12.48777">
        <ele>19.355</ele>
        <time>1970-01-01T01:00:00Z</time>
      </trkpt>
      <trkpt lat="41.90345667" lon="12.48774833">
        <ele>19.355</ele>
        <time>1970-01-01T01:00:00Z</time>
      </trkpt>
      <trkpt lat="41.90344667" lon="12.48772333">
        <ele>19.355</ele>
        <time>1970-01-01T01:00:00Z</time>
      </trkpt>
      <trkpt lat="41.90343667" lon="12.4877">
        <ele>19.355</ele>
        <time>1970-01-01T01:00:00Z</time>
      </trkpt>
      <trkpt lat="41.90342667" lon="12.48767333">
        <ele>19.355</ele>
        <time>1970-01-01T01:00:00Z</time>
      </trkpt>
      <trkpt lat="41.90341667" lon="12.48764667">
        <ele>19.355</ele>
        <time>1970-01-01T01:00:00Z</time>
      </trkpt>
      <trkpt lat="41.90340833" lon="12.48761833">
        <ele>19.355</ele>
        <time>1970-01-01T01:00:00Z</time>
      </trkpt>
      <trkpt lat="41.9034" lon="12.48759333">
        <ele>18.441</ele>
        <time>1970-01-01T01:00:00Z</time>
      </trkpt>
      <trkpt lat="41.90339" lon="12.487565">
        <ele>18.441</ele>
        <time>1970-01-01T01:00:00Z</time>
      </trkpt>
      <trkpt lat="41.90338167" lon="12.48754">
        <ele>18.441</ele>
        <time>1970-01-01T01:00:00Z</time>
      </trkpt>
      <trkpt lat="41.90337167" lon="12.48751167">
        <ele>18.441</ele>
        <time>1970-01-01T01:00:00Z</time>
      </trkpt>
      <trkpt lat="41.90336167" lon="12.48748333">
        <ele>18.441</ele>
        <time>1970-01-01T01:00:00Z</time>
      </trkpt>
      <trkpt lat="41.90335167" lon="12.48745333">
        <ele>18.441</ele>
        <time>1970-01-01T01:00:00Z</time>
      </trkpt>
      <trkpt lat="41.90334333" lon="12.48742667">
        <ele>17.374</ele>
        <time>1970-01-01T01:00:00Z</time>
      </trkpt>
      <trkpt lat="41.90333333" lon="12.4874">
        <ele>17.374</ele>
        <time>1970-01-01T01:00:00Z</time>
      </trkpt>
      <trkpt lat="41.90332333" lon="12.48737667">
        <ele>17.374</ele>
        <time>1970-01-01T01:00:00Z</time>
      </trkpt>
      <trkpt lat="41.903315" lon="12.48735167">
        <ele>17.374</ele>
        <time>1970-01-01T01:00:00Z</time>
      </trkpt>
      <trkpt lat="41.903305" lon="12.487325">
        <ele>16.459</ele>
        <time>1970-01-01T01:00:00Z</time>
      </trkpt>
      <trkpt lat="41.90329333" lon="12.4873">
        <ele>16.459</ele>
        <time>1970-01-01T01:00:00Z</time>
      </trkpt>
      <trkpt lat="41.903285" lon="12.48727167">
        <ele>16.459</ele>
        <time>1970-01-01T01:00:00Z</time>
      </trkpt>
      <trkpt lat="41.903275" lon="12.487245">
        <ele>16.459</ele>
        <time>1970-01-01T01:00:00Z</time>
      </trkpt>
      <trkpt lat="41.90326667" lon="12.48721667">
        <ele>16.459</ele>
        <time>1970-01-01T01:00:00Z</time>
      </trkpt>
      <trkpt lat="41.90325833" lon="12.48719167">
        <ele>16.459</ele>
        <time>1970-01-01T01:00:00Z</time>
      </trkpt>
      <trkpt lat="41.90325" lon="12.48716833">
        <ele>15.393</ele>
        <time>1970-01-01T01:00:00Z</time>
      </trkpt>
      <trkpt lat="41.90324167" lon="12.48714167">
        <ele>15.393</ele>
        <time>1970-01-01T01:00:00Z</time>
      </trkpt>
      <trkpt lat="41.903235" lon="12.48711833">
        <ele>15.393</ele>
        <time>1970-01-01T01:00:00Z</time>
      </trkpt>
      <trkpt lat="41.90322833" lon="12.48709333">
        <ele>15.393</ele>
        <time>1970-01-01T01:00:00Z</time>
      </trkpt>
      <trkpt lat="41.90322" lon="12.48706833">
        <ele>15.393</ele>
        <time>1970-01-01T01:00:00Z</time>
      </trkpt>
      <trkpt lat="41.90321" lon="12.48704">
        <ele>15.393</ele>
        <time>1970-01-01T01:00:00Z</time>
      </trkpt>
      <trkpt lat="41.9032" lon="12.48701167">
        <ele>14.326</ele>
        <time>1970-01-01T01:00:00Z</time>
      </trkpt>
      <trkpt lat="41.90319333" lon="12.48698333">
        <ele>14.326</ele>
        <time>1970-01-01T01:00:00Z</time>
      </trkpt>
      <trkpt lat="41.90318833" lon="12.486955">
        <ele>14.326</ele>
        <time>1970-01-01T01:00:00Z</time>
      </trkpt>
      <trkpt lat="41.90318167" lon="12.48692667">
        <ele>14.326</ele>
        <time>1970-01-01T01:00:00Z</time>
      </trkpt>
      <trkpt lat="41.903175" lon="12.4869">
        <ele>14.326</ele>
        <time>1970-01-01T01:00:00Z</time>
      </trkpt>
      <trkpt lat="41.90316667" lon="12.48687333">
        <ele>14.326</ele>
        <time>1970-01-01T01:00:00Z</time>
      </trkpt>
      <trkpt lat="41.90315667" lon="12.48684667">
        <ele>13.411</ele>
        <time>1970-01-01T01:00:00Z</time>
      </trkpt>
      <trkpt lat="41.90314833" lon="12.48682167">
        <ele>13.411</ele>
        <time>1970-01-01T01:00:00Z</time>
      </trkpt>
      <trkpt lat="41.90313833" lon="12.486795">
        <ele>13.411</ele>
        <time>1970-01-01T01:00:00Z</time>
      </trkpt>
      <trkpt lat="41.90313167" lon="12.48677167">
        <ele>13.411</ele>
        <time>1970-01-01T01:00:00Z</time>
      </trkpt>
      <trkpt lat="41.90312333" lon="12.48675">
        <ele>13.411</ele>
        <time>1970-01-01T01:00:00Z</time>
      </trkpt>
      <trkpt lat="41.90311333" lon="12.486725">
        <ele>13.411</ele>
        <time>1970-01-01T01:00:00Z</time>
      </trkpt>
      <trkpt lat="41.90310667" lon="12.48669833">
        <ele>13.411</ele>
        <time>1970-01-01T01:00:00Z</time>
      </trkpt>
      <trkpt lat="41.90309833" lon="12.48667">
        <ele>13.411</ele>
        <time>1970-01-01T01:00:00Z</time>
      </trkpt>
      <trkpt lat="41.90309" lon="12.48664167">
        <ele>13.411</ele>
        <time>1970-01-01T01:00:00Z</time>
      </trkpt>
      <trkpt lat="41.90308" lon="12.48661167">
        <ele>13.411</ele>
        <time>1970-01-01T01:00:00Z</time>
      </trkpt>
      <trkpt lat="41.90307333" lon="12.486585">
        <ele>13.411</ele>
        <time>1970-01-01T01:00:00Z</time>
      </trkpt>
      <trkpt lat="41.903065" lon="12.48655667">
        <ele>13.411</ele>
        <time>1970-01-01T01:00:00Z</time>
      </trkpt>
      <trkpt lat="41.903055" lon="12.48652833">
        <ele>12.345</ele>
        <time>1970-01-01T01:00:00Z</time>
      </trkpt>
      <trkpt lat="41.90304667" lon="12.4865">
        <ele>12.345</ele>
        <time>1970-01-01T01:00:00Z</time>
      </trkpt>
      <trkpt lat="41.90303833" lon="12.48647167">
        <ele>12.345</ele>
        <time>1970-01-01T01:00:00Z</time>
      </trkpt>
      <trkpt lat="41.90302833" lon="12.48644167">
        <ele>12.345</ele>
        <time>1970-01-01T01:00:00Z</time>
      </trkpt>
      <trkpt lat="41.90302" lon="12.486415">
        <ele>12.345</ele>
        <time>1970-01-01T01:00:00Z</time>
      </trkpt>
      <trkpt lat="41.90301167" lon="12.48638833">
        <ele>12.345</ele>
        <time>1970-01-01T01:00:00Z</time>
      </trkpt>
      <trkpt lat="41.903005" lon="12.48636">
        <ele>12.345</ele>
        <time>1970-01-01T01:00:00Z</time>
      </trkpt>
      <trkpt lat="41.90299667" lon="12.48633333">
        <ele>12.345</ele>
        <time>1970-01-01T01:00:00Z</time>
      </trkpt>
      <trkpt lat="41.90299" lon="12.486305">
        <ele>11.43</ele>
        <time>1970-01-01T01:00:00Z</time>
      </trkpt>
      <trkpt lat="41.90298167" lon="12.48628">
        <ele>11.43</ele>
        <time>1970-01-01T01:00:00Z</time>
      </trkpt>
      <trkpt lat="41.90297333" lon="12.48625667">
        <ele>11.43</ele>
        <time>1970-01-01T01:00:00Z</time>
      </trkpt>
      <trkpt lat="41.90296333" lon="12.486235">
        <ele>11.43</ele>
        <time>1970-01-01T01:00:00Z</time>
      </trkpt>
      <trkpt lat="41.90295333" lon="12.48620833">
        <ele>10.363</ele>
        <time>1970-01-01T01:00:00Z</time>
      </trkpt>
      <trkpt lat="41.90294333" lon="12.48618333">
        <ele>10.363</ele>
        <time>1970-01-01T01:00:00Z</time>
      </trkpt>
      <trkpt lat="41.90293833" lon="12.486155">
        <ele>10.363</ele>
        <time>1970-01-01T01:00:00Z</time>
      </trkpt>
      <trkpt lat="41.90293167" lon="12.48612833">
        <ele>10.363</ele>
        <time>1970-01-01T01:00:00Z</time>
      </trkpt>
      <trkpt lat="41.90292667" lon="12.48610167">
        <ele>10.363</ele>
        <time>1970-01-01T01:00:00Z</time>
      </trkpt>
      <trkpt lat="41.90292" lon="12.48607333">
        <ele>10.363</ele>
        <time>1970-01-01T01:00:00Z</time>
      </trkpt>
      <trkpt lat="41.90291167" lon="12.48604667">
        <ele>10.363</ele>
        <time>1970-01-01T01:00:00Z</time>
      </trkpt>
      <trkpt lat="41.90290333" lon="12.48602">
        <ele>10.363</ele>
        <time>1970-01-01T01:00:00Z</time>
      </trkpt>
      <trkpt lat="41.902895" lon="12.485995">
        <ele>9.449</ele>
        <time>1970-01-01T01:00:00Z</time>
      </trkpt>
      <trkpt lat="41.90288667" lon="12.48597">
        <ele>9.449</ele>
        <time>1970-01-01T01:00:00Z</time>
      </trkpt>
      <trkpt lat="41.90287667" lon="12.485945">
        <ele>9.449</ele>
        <time>1970-01-01T01:00:00Z</time>
      </trkpt>
      <trkpt lat="41.90286667" lon="12.48591833">
        <ele>9.449</ele>
        <time>1970-01-01T01:00:00Z</time>
      </trkpt>
      <trkpt lat="41.90285333" lon="12.48589333">
        <ele>8.382</ele>
        <time>1970-01-01T01:00:00Z</time>
      </trkpt>
      <trkpt lat="41.90283833" lon="12.48586667">
        <ele>8.382</ele>
        <time>1970-01-01T01:00:00Z</time>
      </trkpt>
      <trkpt lat="41.90282667" lon="12.48584167">
        <ele>8.382</ele>
        <time>1970-01-01T01:00:00Z</time>
      </trkpt>
      <trkpt lat="41.90281667" lon="12.48581333">
        <ele>8.382</ele>
        <time>1970-01-01T01:00:00Z</time>
      </trkpt>
      <trkpt lat="41.90281" lon="12.485785">
        <ele>8.382</ele>
        <time>1970-01-01T01:00:00Z</time>
      </trkpt>
      <trkpt lat="41.90280833" lon="12.48575667">
        <ele>8.382</ele>
        <time>1970-01-01T01:00:00Z</time>
      </trkpt>
      <trkpt lat="41.90281167" lon="12.48572333">
        <ele>8.382</ele>
        <time>1970-01-01T01:00:00Z</time>
      </trkpt>
      <trkpt lat="41.90282167" lon="12.48568833">
        <ele>8.382</ele>
        <time>1970-01-01T01:00:00Z</time>
      </trkpt>
      <trkpt lat="41.90283667" lon="12.48565833">
        <ele>8.382</ele>
        <time>1970-01-01T01:00:00Z</time>
      </trkpt>
      <trkpt lat="41.90285667" lon="12.48562833">
        <ele>8.382</ele>
        <time>1970-01-01T01:00:00Z</time>
      </trkpt>
      <trkpt lat="41.90287667" lon="12.485605">
        <ele>8.382</ele>
        <time>1970-01-01T01:00:00Z</time>
      </trkpt>
      <trkpt lat="41.902895" lon="12.48558667">
        <ele>8.382</ele>
        <time>1970-01-01T01:00:00Z</time>
      </trkpt>
      <trkpt lat="41.90291" lon="12.48556833">
        <ele>9.449</ele>
        <time>1970-01-01T01:00:00Z</time>
      </trkpt>
      <trkpt lat="41.90292" lon="12.48555">
        <ele>9.449</ele>
        <time>1970-01-01T01:00:00Z</time>
      </trkpt>
      <trkpt lat="41.90292833" lon="12.48553167">
        <ele>9.449</ele>
        <time>1970-01-01T01:00:00Z</time>
      </trkpt>
      <trkpt lat="41.902935" lon="12.48551333">
        <ele>9.449</ele>
        <time>1970-01-01T01:00:00Z</time>
      </trkpt>
      <trkpt lat="41.90294167" lon="12.48549833">
        <ele>9.449</ele>
        <time>1970-01-01T01:00:00Z</time>
      </trkpt>
      <trkpt lat="41.90294333" lon="12.485485">
        <ele>9.449</ele>
        <time>1970-01-01T01:00:00Z</time>
      </trkpt>
      <trkpt lat="41.90294333" lon="12.48547167">
        <ele>9.449</ele>
        <time>1970-01-01T01:00:00Z</time>
      </trkpt>
      <trkpt lat="41.902945" lon="12.48546">
        <ele>9.449</ele>
        <time>1970-01-01T01:00:00Z</time>
      </trkpt>
      <trkpt lat="41.90294833" lon="12.48544833">
        <ele>9.449</ele>
        <time>1970-01-01T01:00:00Z</time>
      </trkpt>
      <trkpt lat="41.90295833" lon="12.48543667">
        <ele>9.449</ele>
        <time>1970-01-01T01:00:00Z</time>
      </trkpt>
      <trkpt lat="41.90297167" lon="12.485425">
        <ele>9.449</ele>
        <time>1970-01-01T01:00:00Z</time>
      </trkpt>
      <trkpt lat="41.90299" lon="12.48541">
        <ele>9.449</ele>
        <time>1970-01-01T01:00:00Z</time>
      </trkpt>
      <trkpt lat="41.90301333" lon="12.48538833">
        <ele>9.449</ele>
        <time>1970-01-01T01:00:00Z</time>
      </trkpt>
      <trkpt lat="41.90303833" lon="12.48536833">
        <ele>9.449</ele>
        <time>1970-01-01T01:00:00Z</time>
      </trkpt>
      <trkpt lat="41.90306" lon="12.485345">
        <ele>9.449</ele>
        <time>1970-01-01T01:00:00Z</time>
      </trkpt>
      <trkpt lat="41.90308333" lon="12.48532167">
        <ele>9.449</ele>
        <time>1970-01-01T01:00:00Z</time>
      </trkpt>
      <trkpt lat="41.903105" lon="12.4853">
        <ele>9.449</ele>
        <time>1970-01-01T01:00:00Z</time>
      </trkpt>
      <trkpt lat="41.903125" lon="12.48527667">
        <ele>9.449</ele>
        <time>1970-01-01T01:00:00Z</time>
      </trkpt>
      <trkpt lat="41.903145" lon="12.48525333">
        <ele>10.363</ele>
        <time>1970-01-01T01:00:00Z</time>
      </trkpt>
      <trkpt lat="41.90316333" lon="12.48523">
        <ele>10.363</ele>
        <time>1970-01-01T01:00:00Z</time>
      </trkpt>
      <trkpt lat="41.90318167" lon="12.48521">
        <ele>10.363</ele>
        <time>1970-01-01T01:00:00Z</time>
      </trkpt>
      <trkpt lat="41.90320167" lon="12.48519167">
        <ele>10.363</ele>
        <time>1970-01-01T01:00:00Z</time>
      </trkpt>
      <trkpt lat="41.90322" lon="12.485175">
        <ele>11.43</ele>
        <time>1970-01-01T01:00:00Z</time>
      </trkpt>
      <trkpt lat="41.90324" lon="12.48515833">
        <ele>11.43</ele>
        <time>1970-01-01T01:00:00Z</time>
      </trkpt>
      <trkpt lat="41.90325833" lon="12.48514333">
        <ele>11.43</ele>
        <time>1970-01-01T01:00:00Z</time>
      </trkpt>
      <trkpt lat="41.90327167" lon="12.48513">
        <ele>11.43</ele>
        <time>1970-01-01T01:00:00Z</time>
      </trkpt>
      <trkpt lat="41.903285" lon="12.485115">
        <ele>11.43</ele>
        <time>1970-01-01T01:00:00Z</time>
      </trkpt>
      <trkpt lat="41.90329667" lon="12.48510167">
        <ele>11.43</ele>
        <time>1970-01-01T01:00:00Z</time>
      </trkpt>
      <trkpt lat="41.90331" lon="12.48508667">
        <ele>11.43</ele>
        <time>1970-01-01T01:00:00Z</time>
      </trkpt>
      <trkpt lat="41.90332667" lon="12.48506833">
        <ele>11.43</ele>
        <time>1970-01-01T01:00:00Z</time>
      </trkpt>
      <trkpt lat="41.90334667" lon="12.48505">
        <ele>12.345</ele>
        <time>1970-01-01T01:00:00Z</time>
      </trkpt>
      <trkpt lat="41.90336833" lon="12.48503167">
        <ele>12.345</ele>
        <time>1970-01-01T01:00:00Z</time>
      </trkpt>
      <trkpt lat="41.90339" lon="12.485015">
        <ele>12.345</ele>
        <time>1970-01-01T01:00:00Z</time>
      </trkpt>
      <trkpt lat="41.90341" lon="12.48499833">
        <ele>12.345</ele>
        <time>1970-01-01T01:00:00Z</time>
      </trkpt>
      <trkpt lat="41.90343333" lon="12.48498167">
        <ele>11.43</ele>
        <time>1970-01-01T01:00:00Z</time>
      </trkpt>
      <trkpt lat="41.90345333" lon="12.48496833">
        <ele>11.43</ele>
        <time>1970-01-01T01:00:00Z</time>
      </trkpt>
      <trkpt lat="41.90347667" lon="12.48495167">
        <ele>11.43</ele>
        <time>1970-01-01T01:00:00Z</time>
      </trkpt>
      <trkpt lat="41.90349833" lon="12.48493667">
        <ele>11.43</ele>
        <time>1970-01-01T01:00:00Z</time>
      </trkpt>
      <trkpt lat="41.90352" lon="12.48492333">
        <ele>11.43</ele>
        <time>1970-01-01T01:00:00Z</time>
      </trkpt>
      <trkpt lat="41.90354" lon="12.48490667">
        <ele>11.43</ele>
        <time>1970-01-01T01:00:00Z</time>
      </trkpt>
      <trkpt lat="41.90355833" lon="12.48488833">
        <ele>11.43</ele>
        <time>1970-01-01T01:00:00Z</time>
      </trkpt>
      <trkpt lat="41.90357667" lon="12.48487">
        <ele>11.43</ele>
        <time>1970-01-01T01:00:00Z</time>
      </trkpt>
      <trkpt lat="41.90359167" lon="12.48484667">
        <ele>11.43</ele>
        <time>1970-01-01T01:00:00Z</time>
      </trkpt>
      <trkpt lat="41.90360833" lon="12.48482333">
        <ele>11.43</ele>
        <time>1970-01-01T01:00:00Z</time>
      </trkpt>
      <trkpt lat="41.903625" lon="12.484805">
        <ele>11.43</ele>
        <time>1970-01-01T01:00:00Z</time>
      </trkpt>
      <trkpt lat="41.90364333" lon="12.484785">
        <ele>11.43</ele>
        <time>1970-01-01T01:00:00Z</time>
      </trkpt>
      <trkpt lat="41.90366" lon="12.48476833">
        <ele>11.43</ele>
        <time>1970-01-01T01:00:00Z</time>
      </trkpt>
      <trkpt lat="41.90367833" lon="12.48474833">
        <ele>11.43</ele>
        <time>1970-01-01T01:00:00Z</time>
      </trkpt>
      <trkpt lat="41.90369667" lon="12.48473">
        <ele>11.43</ele>
        <time>1970-01-01T01:00:00Z</time>
      </trkpt>
      <trkpt lat="41.90371333" lon="12.48471167">
        <ele>11.43</ele>
        <time>1970-01-01T01:00:00Z</time>
      </trkpt>
      <trkpt lat="41.90373167" lon="12.48469833">
        <ele>11.43</ele>
        <time>1970-01-01T01:00:00Z</time>
      </trkpt>
      <trkpt lat="41.90375" lon="12.484685">
        <ele>11.43</ele>
        <time>1970-01-01T01:00:00Z</time>
      </trkpt>
      <trkpt lat="41.90376667" lon="12.48467333">
        <ele>11.43</ele>
        <time>1970-01-01T01:00:00Z</time>
      </trkpt>
      <trkpt lat="41.90378333" lon="12.48466">
        <ele>11.43</ele>
        <time>1970-01-01T01:00:00Z</time>
      </trkpt>
      <trkpt lat="41.9038" lon="12.484645">
        <ele>11.43</ele>
        <time>1970-01-01T01:00:00Z</time>
      </trkpt>
      <trkpt lat="41.903815" lon="12.48463333">
        <ele>11.43</ele>
        <time>1970-01-01T01:00:00Z</time>
      </trkpt>
      <trkpt lat="41.90383" lon="12.48462333">
        <ele>11.43</ele>
        <time>1970-01-01T01:00:00Z</time>
      </trkpt>
      <trkpt lat="41.903845" lon="12.48461167">
        <ele>11.43</ele>
        <time>1970-01-01T01:00:00Z</time>
      </trkpt>
      <trkpt lat="41.90386" lon="12.48459333">
        <ele>11.43</ele>
        <time>1970-01-01T01:00:00Z</time>
      </trkpt>
      <trkpt lat="41.90386833" lon="12.484575">
        <ele>11.43</ele>
        <time>1970-01-01T01:00:00Z</time>
      </trkpt>
      <trkpt lat="41.90387667" lon="12.484555">
        <ele>11.43</ele>
        <time>1970-01-01T01:00:00Z</time>
      </trkpt>
      <trkpt lat="41.903885" lon="12.48453333">
        <ele>11.43</ele>
        <time>1970-01-01T01:00:00Z</time>
      </trkpt>
      <trkpt lat="41.90389167" lon="12.484505">
        <ele>11.43</ele>
        <time>1970-01-01T01:00:00Z</time>
      </trkpt>
      <trkpt lat="41.90390167" lon="12.48447667">
        <ele>11.43</ele>
        <time>1970-01-01T01:00:00Z</time>
      </trkpt>
      <trkpt lat="41.90391333" lon="12.484445">
        <ele>11.43</ele>
        <time>1970-01-01T01:00:00Z</time>
      </trkpt>
      <trkpt lat="41.903925" lon="12.48441833">
        <ele>11.43</ele>
        <time>1970-01-01T01:00:00Z</time>
      </trkpt>
      <trkpt lat="41.90394" lon="12.48439667">
        <ele>10.363</ele>
        <time>1970-01-01T01:00:00Z</time>
      </trkpt>
      <trkpt lat="41.90395667" lon="12.48437167">
        <ele>10.363</ele>
        <time>1970-01-01T01:00:00Z</time>
      </trkpt>
      <trkpt lat="41.90397167" lon="12.48434833">
        <ele>10.363</ele>
        <time>1970-01-01T01:00:00Z</time>
      </trkpt>
      <trkpt lat="41.90398667" lon="12.484325">
        <ele>10.363</ele>
        <time>1970-01-01T01:00:00Z</time>
      </trkpt>
      <trkpt lat="41.90400333" lon="12.48430333">
        <ele>10.363</ele>
        <time>1970-01-01T01:00:00Z</time>
      </trkpt>
      <trkpt lat="41.90402" lon="12.48428">
        <ele>10.363</ele>
        <time>1970-01-01T01:00:00Z</time>
      </trkpt>
      <trkpt lat="41.90403667" lon="12.48425833">
        <ele>10.363</ele>
        <time>1970-01-01T01:00:00Z</time>
      </trkpt>
      <trkpt lat="41.90405667" lon="12.48423833">
        <ele>10.363</ele>
        <time>1970-01-01T01:00:00Z</time>
      </trkpt>
      <trkpt lat="41.90407667" lon="12.48422167">
        <ele>9.449</ele>
        <time>1970-01-01T01:00:00Z</time>
      </trkpt>
      <trkpt lat="41.904095" lon="12.48420333">
        <ele>9.449</ele>
        <time>1970-01-01T01:00:00Z</time>
      </trkpt>
      <trkpt lat="41.90411167" lon="12.48418667">
        <ele>9.449</ele>
        <time>1970-01-01T01:00:00Z</time>
      </trkpt>
      <trkpt lat="41.90412833" lon="12.48416833">
        <ele>9.449</ele>
        <time>1970-01-01T01:00:00Z</time>
      </trkpt>
      <trkpt lat="41.904145" lon="12.48414833">
        <ele>9.449</ele>
        <time>1970-01-01T01:00:00Z</time>
      </trkpt>
      <trkpt lat="41.90416167" lon="12.48413167">
        <ele>9.449</ele>
        <time>1970-01-01T01:00:00Z</time>
      </trkpt>
      <trkpt lat="41.90417667" lon="12.48411167">
        <ele>9.449</ele>
        <time>1970-01-01T01:00:00Z</time>
      </trkpt>
      <trkpt lat="41.90419167" lon="12.48409333">
        <ele>9.449</ele>
        <time>1970-01-01T01:00:00Z</time>
      </trkpt>
      <trkpt lat="41.90420667" lon="12.48407833">
        <ele>8.382</ele>
        <time>1970-01-01T01:00:00Z</time>
      </trkpt>
      <trkpt lat="41.90422" lon="12.48405833">
        <ele>8.382</ele>
        <time>1970-01-01T01:00:00Z</time>
      </trkpt>
      <trkpt lat="41.904235" lon="12.48403833">
        <ele>8.382</ele>
        <time>1970-01-01T01:00:00Z</time>
      </trkpt>
      <trkpt lat="41.90425" lon="12.48402">
        <ele>8.382</ele>
        <time>1970-01-01T01:00:00Z</time>
      </trkpt>
      <trkpt lat="41.904265" lon="12.48400167">
        <ele>8.382</ele>
        <time>1970-01-01T01:00:00Z</time>
      </trkpt>
      <trkpt lat="41.90428" lon="12.483985">
        <ele>8.382</ele>
        <time>1970-01-01T01:00:00Z</time>
      </trkpt>
      <trkpt lat="41.90429333" lon="12.48396667">
        <ele>8.382</ele>
        <time>1970-01-01T01:00:00Z</time>
      </trkpt>
      <trkpt lat="41.904305" lon="12.48395">
        <ele>8.382</ele>
        <time>1970-01-01T01:00:00Z</time>
      </trkpt>
      <trkpt lat="41.90431667" lon="12.48393333">
        <ele>8.382</ele>
        <time>1970-01-01T01:00:00Z</time>
      </trkpt>
      <trkpt lat="41.90433" lon="12.48391667">
        <ele>8.382</ele>
        <time>1970-01-01T01:00:00Z</time>
      </trkpt>
      <trkpt lat="41.904345" lon="12.48389833">
        <ele>7.468</ele>
        <time>1970-01-01T01:00:00Z</time>
      </trkpt>
      <trkpt lat="41.90436" lon="12.48388333">
        <ele>7.468</ele>
        <time>1970-01-01T01:00:00Z</time>
      </trkpt>
      <trkpt lat="41.904375" lon="12.48386667">
        <ele>7.468</ele>
        <time>1970-01-01T01:00:00Z</time>
      </trkpt>
      <trkpt lat="41.90439" lon="12.48385">
        <ele>7.468</ele>
        <time>1970-01-01T01:00:00Z</time>
      </trkpt>
      <trkpt lat="41.90440667" lon="12.48383333">
        <ele>7.468</ele>
        <time>1970-01-01T01:00:00Z</time>
      </trkpt>
      <trkpt lat="41.90442167" lon="12.48381667">
        <ele>7.468</ele>
        <time>1970-01-01T01:00:00Z</time>
      </trkpt>
      <trkpt lat="41.90443667" lon="12.4838">
        <ele>7.468</ele>
        <time>1970-01-01T01:00:00Z</time>
      </trkpt>
      <trkpt lat="41.904455" lon="12.48378333">
        <ele>7.468</ele>
        <time>1970-01-01T01:00:00Z</time>
      </trkpt>
      <trkpt lat="41.90447167" lon="12.48376667">
        <ele>7.468</ele>
        <time>1970-01-01T01:00:00Z</time>
      </trkpt>
      <trkpt lat="41.90448667" lon="12.48375167">
        <ele>7.468</ele>
        <time>1970-01-01T01:00:00Z</time>
      </trkpt>
      <trkpt lat="41.90450167" lon="12.483735">
        <ele>7.468</ele>
        <time>1970-01-01T01:00:00Z</time>
      </trkpt>
      <trkpt lat="41.90451667" lon="12.48371667">
        <ele>7.468</ele>
        <time>1970-01-01T01:00:00Z</time>
      </trkpt>
      <trkpt lat="41.90453" lon="12.48369833">
        <ele>7.468</ele>
        <time>1970-01-01T01:00:00Z</time>
      </trkpt>
      <trkpt lat="41.904545" lon="12.48368167">
        <ele>7.468</ele>
        <time>1970-01-01T01:00:00Z</time>
      </trkpt>
      <trkpt lat="41.90456" lon="12.48366333">
        <ele>7.468</ele>
        <time>1970-01-01T01:00:00Z</time>
      </trkpt>
      <trkpt lat="41.90457333" lon="12.48364167">
        <ele>7.468</ele>
        <time>1970-01-01T01:00:00Z</time>
      </trkpt>
      <trkpt lat="41.904585" lon="12.48362167">
        <ele>6.401</ele>
        <time>1970-01-01T01:00:00Z</time>
      </trkpt>
      <trkpt lat="41.90459667" lon="12.48360167">
        <ele>6.401</ele>
        <time>1970-01-01T01:00:00Z</time>
      </trkpt>
      <trkpt lat="41.90461" lon="12.483585">
        <ele>6.401</ele>
        <time>1970-01-01T01:00:00Z</time>
      </trkpt>
      <trkpt lat="41.90462333" lon="12.483565">
        <ele>6.401</ele>
        <time>1970-01-01T01:00:00Z</time>
      </trkpt>
      <trkpt lat="41.904635" lon="12.483545">
        <ele>6.401</ele>
        <time>1970-01-01T01:00:00Z</time>
      </trkpt>
      <trkpt lat="41.90464667" lon="12.483525">
        <ele>6.401</ele>
        <time>1970-01-01T01:00:00Z</time>
      </trkpt>
      <trkpt lat="41.90466" lon="12.48350333">
        <ele>6.401</ele>
        <time>1970-01-01T01:00:00Z</time>
      </trkpt>
      <trkpt lat="41.90467667" lon="12.48348333">
        <ele>6.401</ele>
        <time>1970-01-01T01:00:00Z</time>
      </trkpt>
      <trkpt lat="41.904695" lon="12.48346667">
        <ele>6.401</ele>
        <time>1970-01-01T01:00:00Z</time>
      </trkpt>
      <trkpt lat="41.90471333" lon="12.48345167">
        <ele>6.401</ele>
        <time>1970-01-01T01:00:00Z</time>
      </trkpt>
      <trkpt lat="41.90473" lon="12.483435">
        <ele>6.401</ele>
        <time>1970-01-01T01:00:00Z</time>
      </trkpt>
      <trkpt lat="41.90474667" lon="12.483415">
        <ele>6.401</ele>
        <time>1970-01-01T01:00:00Z</time>
      </trkpt>
      <trkpt lat="41.90476167" lon="12.48339167">
        <ele>6.401</ele>
        <time>1970-01-01T01:00:00Z</time>
      </trkpt>
      <trkpt lat="41.90477333" lon="12.48336667">
        <ele>6.401</ele>
        <time>1970-01-01T01:00:00Z</time>
      </trkpt>
      <trkpt lat="41.904785" lon="12.48334">
        <ele>6.401</ele>
        <time>1970-01-01T01:00:00Z</time>
      </trkpt>
      <trkpt lat="41.90479833" lon="12.48331667">
        <ele>6.401</ele>
        <time>1970-01-01T01:00:00Z</time>
      </trkpt>
      <trkpt lat="41.90481" lon="12.48329">
        <ele>6.401</ele>
        <time>1970-01-01T01:00:00Z</time>
      </trkpt>
      <trkpt lat="41.904825" lon="12.48326833">
        <ele>6.401</ele>
        <time>1970-01-01T01:00:00Z</time>
      </trkpt>
      <trkpt lat="41.90484" lon="12.48324167">
        <ele>6.401</ele>
        <time>1970-01-01T01:00:00Z</time>
      </trkpt>
      <trkpt lat="41.904855" lon="12.48322">
        <ele>6.401</ele>
        <time>1970-01-01T01:00:00Z</time>
      </trkpt>
      <trkpt lat="41.90487333" lon="12.4832">
        <ele>6.401</ele>
        <time>1970-01-01T01:00:00Z</time>
      </trkpt>
      <trkpt lat="41.90489" lon="12.48318">
        <ele>6.401</ele>
        <time>1970-01-01T01:00:00Z</time>
      </trkpt>
      <trkpt lat="41.90490667" lon="12.483165">
        <ele>6.401</ele>
        <time>1970-01-01T01:00:00Z</time>
      </trkpt>
      <trkpt lat="41.90492333" lon="12.48315">
        <ele>6.401</ele>
        <time>1970-01-01T01:00:00Z</time>
      </trkpt>
      <trkpt lat="41.90494167" lon="12.483135">
        <ele>6.401</ele>
        <time>1970-01-01T01:00:00Z</time>
      </trkpt>
      <trkpt lat="41.90496333" lon="12.48311833">
        <ele>6.401</ele>
        <time>1970-01-01T01:00:00Z</time>
      </trkpt>
      <trkpt lat="41.90498" lon="12.48310167">
        <ele>5.334</ele>
        <time>1970-01-01T01:00:00Z</time>
      </trkpt>
      <trkpt lat="41.90499833" lon="12.48308333">
        <ele>5.334</ele>
        <time>1970-01-01T01:00:00Z</time>
      </trkpt>
      <trkpt lat="41.905015" lon="12.48306333">
        <ele>5.334</ele>
        <time>1970-01-01T01:00:00Z</time>
      </trkpt>
      <trkpt lat="41.90503" lon="12.48304167">
        <ele>5.334</ele>
        <time>1970-01-01T01:00:00Z</time>
      </trkpt>
      <trkpt lat="41.905045" lon="12.48302333">
        <ele>5.334</ele>
        <time>1970-01-01T01:00:00Z</time>
      </trkpt>
      <trkpt lat="41.90506" lon="12.48300333">
        <ele>5.334</ele>
        <time>1970-01-01T01:00:00Z</time>
      </trkpt>
      <trkpt lat="41.905075" lon="12.48298333">
        <ele>5.334</ele>
        <time>1970-01-01T01:00:00Z</time>
      </trkpt>
      <trkpt lat="41.90509333" lon="12.482965">
        <ele>5.334</ele>
        <time>1970-01-01T01:00:00Z</time>
      </trkpt>
      <trkpt lat="41.90511333" lon="12.48295">
        <ele>5.334</ele>
        <time>1970-01-01T01:00:00Z</time>
      </trkpt>
      <trkpt lat="41.90513333" lon="12.48293667">
        <ele>5.334</ele>
        <time>1970-01-01T01:00:00Z</time>
      </trkpt>
      <trkpt lat="41.905155" lon="12.48292167">
        <ele>5.334</ele>
        <time>1970-01-01T01:00:00Z</time>
      </trkpt>
      <trkpt lat="41.90517333" lon="12.48290833">
        <ele>5.334</ele>
        <time>1970-01-01T01:00:00Z</time>
      </trkpt>
      <trkpt lat="41.90519333" lon="12.48289333">
        <ele>5.334</ele>
        <time>1970-01-01T01:00:00Z</time>
      </trkpt>
      <trkpt lat="41.90521167" lon="12.48287833">
        <ele>5.334</ele>
        <time>1970-01-01T01:00:00Z</time>
      </trkpt>
      <trkpt lat="41.90523" lon="12.48286167">
        <ele>5.334</ele>
        <time>1970-01-01T01:00:00Z</time>
      </trkpt>
      <trkpt lat="41.90524667" lon="12.48284333">
        <ele>5.334</ele>
        <time>1970-01-01T01:00:00Z</time>
      </trkpt>
      <trkpt lat="41.905265" lon="12.48282167">
        <ele>5.334</ele>
        <time>1970-01-01T01:00:00Z</time>
      </trkpt>
      <trkpt lat="41.90528" lon="12.48279833">
        <ele>5.334</ele>
        <time>1970-01-01T01:00:00Z</time>
      </trkpt>
      <trkpt lat="41.905295" lon="12.482775">
        <ele>5.334</ele>
        <time>1970-01-01T01:00:00Z</time>
      </trkpt>
      <trkpt lat="41.90530833" lon="12.48275167">
        <ele>5.334</ele>
        <time>1970-01-01T01:00:00Z</time>
      </trkpt>
      <trkpt lat="41.90532333" lon="12.48272833">
        <ele>5.334</ele>
        <time>1970-01-01T01:00:00Z</time>
      </trkpt>
      <trkpt lat="41.90533667" lon="12.48270667">
        <ele>5.334</ele>
        <time>1970-01-01T01:00:00Z</time>
      </trkpt>
      <trkpt lat="41.90535167" lon="12.48268667">
        <ele>5.334</ele>
        <time>1970-01-01T01:00:00Z</time>
      </trkpt>
      <trkpt lat="41.90536833" lon="12.48266333">
        <ele>5.334</ele>
        <time>1970-01-01T01:00:00Z</time>
      </trkpt>
      <trkpt lat="41.905385" lon="12.48264">
        <ele>4.42</ele>
        <time>1970-01-01T01:00:00Z</time>
      </trkpt>
      <trkpt lat="41.90540167" lon="12.48261833">
        <ele>4.42</ele>
        <time>1970-01-01T01:00:00Z</time>
      </trkpt>
      <trkpt lat="41.90541667" lon="12.48259667">
        <ele>3.353</ele>
        <time>1970-01-01T01:00:00Z</time>
      </trkpt>
      <trkpt lat="41.90543" lon="12.48257333">
        <ele>3.353</ele>
        <time>1970-01-01T01:00:00Z</time>
      </trkpt>
      <trkpt lat="41.905445" lon="12.48254833">
        <ele>3.353</ele>
        <time>1970-01-01T01:00:00Z</time>
      </trkpt>
      <trkpt lat="41.90545833" lon="12.48252667">
        <ele>3.353</ele>
        <time>1970-01-01T01:00:00Z</time>
      </trkpt>
      <trkpt lat="41.905475" lon="12.48250333">
        <ele>3.353</ele>
        <time>1970-01-01T01:00:00Z</time>
      </trkpt>
      <trkpt lat="41.90549167" lon="12.48248333">
        <ele>3.353</ele>
        <time>1970-01-01T01:00:00Z</time>
      </trkpt>
      <trkpt lat="41.90550833" lon="12.48246333">
        <ele>3.353</ele>
        <time>1970-01-01T01:00:00Z</time>
      </trkpt>
      <trkpt lat="41.90552667" lon="12.482445">
        <ele>3.353</ele>
        <time>1970-01-01T01:00:00Z</time>
      </trkpt>
      <trkpt lat="41.905545" lon="12.48242833">
        <ele>3.353</ele>
        <time>1970-01-01T01:00:00Z</time>
      </trkpt>
      <trkpt lat="41.90556" lon="12.48240833">
        <ele>3.353</ele>
        <time>1970-01-01T01:00:00Z</time>
      </trkpt>
      <trkpt lat="41.90557667" lon="12.48239">
        <ele>3.353</ele>
        <time>1970-01-01T01:00:00Z</time>
      </trkpt>
      <trkpt lat="41.905595" lon="12.48237">
        <ele>3.353</ele>
        <time>1970-01-01T01:00:00Z</time>
      </trkpt>
      <trkpt lat="41.90561167" lon="12.48235333">
        <ele>3.353</ele>
        <time>1970-01-01T01:00:00Z</time>
      </trkpt>
      <trkpt lat="41.90562833" lon="12.482335">
        <ele>3.353</ele>
        <time>1970-01-01T01:00:00Z</time>
      </trkpt>
      <trkpt lat="41.905645" lon="12.48231833">
        <ele>3.353</ele>
        <time>1970-01-01T01:00:00Z</time>
      </trkpt>
      <trkpt lat="41.90566167" lon="12.48230167">
        <ele>3.353</ele>
        <time>1970-01-01T01:00:00Z</time>
      </trkpt>
      <trkpt lat="41.90567833" lon="12.48228333">
        <ele>2.438</ele>
        <time>1970-01-01T01:00:00Z</time>
      </trkpt>
      <trkpt lat="41.90569667" lon="12.48226333">
        <ele>2.438</ele>
        <time>1970-01-01T01:00:00Z</time>
      </trkpt>
      <trkpt lat="41.905715" lon="12.48224167">
        <ele>2.438</ele>
        <time>1970-01-01T01:00:00Z</time>
      </trkpt>
      <trkpt lat="41.90573333" lon="12.48222333">
        <ele>2.438</ele>
        <time>1970-01-01T01:00:00Z</time>
      </trkpt>
      <trkpt lat="41.90575167" lon="12.48220333">
        <ele>1.372</ele>
        <time>1970-01-01T01:00:00Z</time>
      </trkpt>
      <trkpt lat="41.90576833" lon="12.482185">
        <ele>1.372</ele>
        <time>1970-01-01T01:00:00Z</time>
      </trkpt>
      <trkpt lat="41.905785" lon="12.48216333">
        <ele>1.372</ele>
        <time>1970-01-01T01:00:00Z</time>
      </trkpt>
      <trkpt lat="41.90580333" lon="12.48214167">
        <ele>1.372</ele>
        <time>1970-01-01T01:00:00Z</time>
      </trkpt>
      <trkpt lat="41.90582167" lon="12.48212333">
        <ele>1.372</ele>
        <time>1970-01-01T01:00:00Z</time>
      </trkpt>
      <trkpt lat="41.90584167" lon="12.48210333">
        <ele>1.372</ele>
        <time>1970-01-01T01:00:00Z</time>
      </trkpt>
      <trkpt lat="41.90586167" lon="12.482085">
        <ele>1.372</ele>
        <time>1970-01-01T01:00:00Z</time>
      </trkpt>
      <trkpt lat="41.90588167" lon="12.48207">
        <ele>1.372</ele>
        <time>1970-01-01T01:00:00Z</time>
      </trkpt>
      <trkpt lat="41.90589833" lon="12.48205167">
        <ele>1.372</ele>
        <time>1970-01-01T01:00:00Z</time>
      </trkpt>
      <trkpt lat="41.905915" lon="12.48203667">
        <ele>1.372</ele>
        <time>1970-01-01T01:00:00Z</time>
      </trkpt>
      <trkpt lat="41.90592833" lon="12.48202">
        <ele>1.372</ele>
        <time>1970-01-01T01:00:00Z</time>
      </trkpt>
      <trkpt lat="41.905945" lon="12.482005">
        <ele>1.372</ele>
        <time>1970-01-01T01:00:00Z</time>
      </trkpt>
      <trkpt lat="41.90596167" lon="12.48199167">
        <ele>1.372</ele>
        <time>1970-01-01T01:00:00Z</time>
      </trkpt>
      <trkpt lat="41.90598" lon="12.48198">
        <ele>1.372</ele>
        <time>1970-01-01T01:00:00Z</time>
      </trkpt>
      <trkpt lat="41.90599667" lon="12.481965">
        <ele>1.372</ele>
        <time>1970-01-01T01:00:00Z</time>
      </trkpt>
      <trkpt lat="41.906015" lon="12.48194833">
        <ele>1.372</ele>
        <time>1970-01-01T01:00:00Z</time>
      </trkpt>
      <trkpt lat="41.90603167" lon="12.48193">
        <ele>1.372</ele>
        <time>1970-01-01T01:00:00Z</time>
      </trkpt>
      <trkpt lat="41.90605167" lon="12.48191167">
        <ele>1.372</ele>
        <time>1970-01-01T01:00:00Z</time>
      </trkpt>
      <trkpt lat="41.90607167" lon="12.48189333">
        <ele>0.457</ele>
        <time>1970-01-01T01:00:00Z</time>
      </trkpt>
      <trkpt lat="41.90609" lon="12.481875">
        <ele>0.457</ele>
        <time>1970-01-01T01:00:00Z</time>
      </trkpt>
      <trkpt lat="41.90610833" lon="12.48185667">
        <ele>0.457</ele>
        <time>1970-01-01T01:00:00Z</time>
      </trkpt>
      <trkpt lat="41.906125" lon="12.48183833">
        <ele>0.457</ele>
        <time>1970-01-01T01:00:00Z</time>
      </trkpt>
      <trkpt lat="41.90614" lon="12.48181833">
        <ele>0.457</ele>
        <time>1970-01-01T01:00:00Z</time>
      </trkpt>
      <trkpt lat="41.90615" lon="12.48179333">
        <ele>0.457</ele>
        <time>1970-01-01T01:00:00Z</time>
      </trkpt>
      <trkpt lat="41.90616167" lon="12.48176833">
        <ele>0.457</ele>
        <time>1970-01-01T01:00:00Z</time>
      </trkpt>
      <trkpt lat="41.90617333" lon="12.481745">
        <ele>0.457</ele>
        <time>1970-01-01T01:00:00Z</time>
      </trkpt>
      <trkpt lat="41.90618667" lon="12.48171833">
        <ele>0.457</ele>
        <time>1970-01-01T01:00:00Z</time>
      </trkpt>
      <trkpt lat="41.90619833" lon="12.48169167">
        <ele>0.457</ele>
        <time>1970-01-01T01:00:00Z</time>
      </trkpt>
      <trkpt lat="41.90621" lon="12.48166833">
        <ele>0.457</ele>
        <time>1970-01-01T01:00:00Z</time>
      </trkpt>
      <trkpt lat="41.90622167" lon="12.481645">
        <ele>0.457</ele>
        <time>1970-01-01T01:00:00Z</time>
      </trkpt>
      <trkpt lat="41.90623333" lon="12.48162333">
        <ele>0.457</ele>
        <time>1970-01-01T01:00:00Z</time>
      </trkpt>
      <trkpt lat="41.906245" lon="12.4816">
        <ele>0.457</ele>
        <time>1970-01-01T01:00:00Z</time>
      </trkpt>
      <trkpt lat="41.90625667" lon="12.48158167">
        <ele>0.457</ele>
        <time>1970-01-01T01:00:00Z</time>
      </trkpt>
      <trkpt lat="41.90627167" lon="12.48156">
        <ele>0.457</ele>
        <time>1970-01-01T01:00:00Z</time>
      </trkpt>
      <trkpt lat="41.906285" lon="12.48153833">
        <ele>0.457</ele>
        <time>1970-01-01T01:00:00Z</time>
      </trkpt>
      <trkpt lat="41.90629833" lon="12.48151667">
        <ele>0.457</ele>
        <time>1970-01-01T01:00:00Z</time>
      </trkpt>
      <trkpt lat="41.90631333" lon="12.481495">
        <ele>0.457</ele>
        <time>1970-01-01T01:00:00Z</time>
      </trkpt>
      <trkpt lat="41.90633" lon="12.48147333">
        <ele>0.457</ele>
        <time>1970-01-01T01:00:00Z</time>
      </trkpt>
      <trkpt lat="41.90634667" lon="12.481455">
        <ele>0.457</ele>
        <time>1970-01-01T01:00:00Z</time>
      </trkpt>
      <trkpt lat="41.90636333" lon="12.48143667">
        <ele>0.457</ele>
        <time>1970-01-01T01:00:00Z</time>
      </trkpt>
      <trkpt lat="41.90638" lon="12.48142167">
        <ele>0.457</ele>
        <time>1970-01-01T01:00:00Z</time>
      </trkpt>
      <trkpt lat="41.90639667" lon="12.481405">
        <ele>0.457</ele>
        <time>1970-01-01T01:00:00Z</time>
      </trkpt>
      <trkpt lat="41.906415" lon="12.48138833">
        <ele>0.457</ele>
        <time>1970-01-01T01:00:00Z</time>
      </trkpt>
      <trkpt lat="41.90643167" lon="12.48137167">
        <ele>0.457</ele>
        <time>1970-01-01T01:00:00Z</time>
      </trkpt>
      <trkpt lat="41.90645167" lon="12.48135333">
        <ele>0.457</ele>
        <time>1970-01-01T01:00:00Z</time>
      </trkpt>
      <trkpt lat="41.90647" lon="12.48133667">
        <ele>0.457</ele>
        <time>1970-01-01T01:00:00Z</time>
      </trkpt>
      <trkpt lat="41.90648833" lon="12.48131833">
        <ele>0.457</ele>
        <time>1970-01-01T01:00:00Z</time>
      </trkpt>
      <trkpt lat="41.906505" lon="12.4813">
        <ele>0.457</ele>
        <time>1970-01-01T01:00:00Z</time>
      </trkpt>
      <trkpt lat="41.90652167" lon="12.48128333">
        <ele>0.457</ele>
        <time>1970-01-01T01:00:00Z</time>
      </trkpt>
      <trkpt lat="41.90653667" lon="12.48126833">
        <ele>0.457</ele>
        <time>1970-01-01T01:00:00Z</time>
      </trkpt>
      <trkpt lat="41.90655" lon="12.481255">
        <ele>0.457</ele>
        <time>1970-01-01T01:00:00Z</time>
      </trkpt>
      <trkpt lat="41.906565" lon="12.48124">
        <ele>0.457</ele>
        <time>1970-01-01T01:00:00Z</time>
      </trkpt>
      <trkpt lat="41.90657833" lon="12.48122333">
        <ele>0.457</ele>
        <time>1970-01-01T01:00:00Z</time>
      </trkpt>
      <trkpt lat="41.90659167" lon="12.48120667">
        <ele>0.457</ele>
        <time>1970-01-01T01:00:00Z</time>
      </trkpt>
      <trkpt lat="41.906605" lon="12.48118667">
        <ele>0.457</ele>
        <time>1970-01-01T01:00:00Z</time>
      </trkpt>
      <trkpt lat="41.90661833" lon="12.481165">
        <ele>0.457</ele>
        <time>1970-01-01T01:00:00Z</time>
      </trkpt>
      <trkpt lat="41.90663167" lon="12.481145">
        <ele>0.457</ele>
        <time>1970-01-01T01:00:00Z</time>
      </trkpt>
      <trkpt lat="41.90664833" lon="12.48112833">
        <ele>0.457</ele>
        <time>1970-01-01T01:00:00Z</time>
      </trkpt>
      <trkpt lat="41.906665" lon="12.48111333">
        <ele>0.457</ele>
        <time>1970-01-01T01:00:00Z</time>
      </trkpt>
      <trkpt lat="41.90668167" lon="12.48109833">
        <ele>0.457</ele>
        <time>1970-01-01T01:00:00Z</time>
      </trkpt>
      <trkpt lat="41.90670333" lon="12.48108667">
        <ele>0.457</ele>
        <time>1970-01-01T01:00:00Z</time>
      </trkpt>
      <trkpt lat="41.90672333" lon="12.481075">
        <ele>0.457</ele>
        <time>1970-01-01T01:00:00Z</time>
      </trkpt>
      <trkpt lat="41.906745" lon="12.48106333">
        <ele>0.457</ele>
        <time>1970-01-01T01:00:00Z</time>
      </trkpt>
      <trkpt lat="41.90676667" lon="12.48105">
        <ele>0.457</ele>
        <time>1970-01-01T01:00:00Z</time>
      </trkpt>
      <trkpt lat="41.90678667" lon="12.48103667">
        <ele>0</ele>
        <time>1970-01-01T01:00:00Z</time>
      </trkpt>
      <trkpt lat="41.906805" lon="12.48102333">
        <ele>0</ele>
        <time>1970-01-01T01:00:00Z</time>
      </trkpt>
      <trkpt lat="41.90682" lon="12.48101">
        <ele>0</ele>
        <time>1970-01-01T01:00:00Z</time>
      </trkpt>
      <trkpt lat="41.906835" lon="12.48099667">
        <ele>0</ele>
        <time>1970-01-01T01:00:00Z</time>
      </trkpt>
      <trkpt lat="41.90685167" lon="12.48098333">
        <ele>0</ele>
        <time>1970-01-01T01:00:00Z</time>
      </trkpt>
      <trkpt lat="41.90687" lon="12.48096833">
        <ele>0</ele>
        <time>1970-01-01T01:00:00Z</time>
      </trkpt>
      <trkpt lat="41.90688833" lon="12.48095">
        <ele>0</ele>
        <time>1970-01-01T01:00:00Z</time>
      </trkpt>
      <trkpt lat="41.906905" lon="12.48092833">
        <ele>0</ele>
        <time>1970-01-01T01:00:00Z</time>
      </trkpt>
      <trkpt lat="41.90692167" lon="12.48090833">
        <ele>0.457</ele>
        <time>1970-01-01T01:00:00Z</time>
      </trkpt>
      <trkpt lat="41.90694" lon="12.48089">
        <ele>0.457</ele>
        <time>1970-01-01T01:00:00Z</time>
      </trkpt>
      <trkpt lat="41.90696" lon="12.48087">
        <ele>0.457</ele>
        <time>1970-01-01T01:00:00Z</time>
      </trkpt>
      <trkpt lat="41.90697833" lon="12.48085167">
        <ele>0.457</ele>
        <time>1970-01-01T01:00:00Z</time>
      </trkpt>
      <trkpt lat="41.90699833" lon="12.48083667">
        <ele>0.457</ele>
        <time>1970-01-01T01:00:00Z</time>
      </trkpt>
      <trkpt lat="41.90701667" lon="12.48081833">
        <ele>0.457</ele>
        <time>1970-01-01T01:00:00Z</time>
      </trkpt>
      <trkpt lat="41.90703667" lon="12.48080167">
        <ele>0</ele>
        <time>1970-01-01T01:00:00Z</time>
      </trkpt>
      <trkpt lat="41.90705333" lon="12.48078167">
        <ele>0</ele>
        <time>1970-01-01T01:00:00Z</time>
      </trkpt>
      <trkpt lat="41.90707" lon="12.48076333">
        <ele>0</ele>
        <time>1970-01-01T01:00:00Z</time>
      </trkpt>
      <trkpt lat="41.90708667" lon="12.480745">
        <ele>0</ele>
        <time>1970-01-01T01:00:00Z</time>
      </trkpt>
      <trkpt lat="41.90710667" lon="12.48072833">
        <ele>0</ele>
        <time>1970-01-01T01:00:00Z</time>
      </trkpt>
      <trkpt lat="41.907125" lon="12.480715">
        <ele>0</ele>
        <time>1970-01-01T01:00:00Z</time>
      </trkpt>
      <trkpt lat="41.90714333" lon="12.4807">
        <ele>0</ele>
        <time>1970-01-01T01:00:00Z</time>
      </trkpt>
      <trkpt lat="41.90716" lon="12.48068167">
        <ele>0</ele>
        <time>1970-01-01T01:00:00Z</time>
      </trkpt>
      <trkpt lat="41.90717667" lon="12.480665">
        <ele>0</ele>
        <time>1970-01-01T01:00:00Z</time>
      </trkpt>
      <trkpt lat="41.90719167" lon="12.48065167">
        <ele>0</ele>
        <time>1970-01-01T01:00:00Z</time>
      </trkpt>
      <trkpt lat="41.90720667" lon="12.48063833">
        <ele>0</ele>
        <time>1970-01-01T01:00:00Z</time>
      </trkpt>
      <trkpt lat="41.90721833" lon="12.48062333">
        <ele>0</ele>
        <time>1970-01-01T01:00:00Z</time>
      </trkpt>
      <trkpt lat="41.90723167" lon="12.480605">
        <ele>0</ele>
        <time>1970-01-01T01:00:00Z</time>
      </trkpt>
      <trkpt lat="41.90724667" lon="12.48059">
        <ele>0</ele>
        <time>1970-01-01T01:00:00Z</time>
      </trkpt>
      <trkpt lat="41.90726167" lon="12.480575">
        <ele>0</ele>
        <time>1970-01-01T01:00:00Z</time>
      </trkpt>
      <trkpt lat="41.90727667" lon="12.48055833">
        <ele>0</ele>
        <time>1970-01-01T01:00:00Z</time>
      </trkpt>
      <trkpt lat="41.90729333" lon="12.48054167">
        <ele>0</ele>
        <time>1970-01-01T01:00:00Z</time>
      </trkpt>
      <trkpt lat="41.90730833" lon="12.480525">
        <ele>0</ele>
        <time>1970-01-01T01:00:00Z</time>
      </trkpt>
      <trkpt lat="41.907325" lon="12.48050667">
        <ele>0</ele>
        <time>1970-01-01T01:00:00Z</time>
      </trkpt>
      <trkpt lat="41.90734167" lon="12.48049167">
        <ele>0</ele>
        <time>1970-01-01T01:00:00Z</time>
      </trkpt>
      <trkpt lat="41.90736" lon="12.48047833">
        <ele>0</ele>
        <time>1970-01-01T01:00:00Z</time>
      </trkpt>
      <trkpt lat="41.90738" lon="12.48046333">
        <ele>0</ele>
        <time>1970-01-01T01:00:00Z</time>
      </trkpt>
      <trkpt lat="41.90740167" lon="12.48044833">
        <ele>0</ele>
        <time>1970-01-01T01:00:00Z</time>
      </trkpt>
      <trkpt lat="41.90742" lon="12.48043167">
        <ele>0</ele>
        <time>1970-01-01T01:00:00Z</time>
      </trkpt>
      <trkpt lat="41.90743667" lon="12.480415">
        <ele>0</ele>
        <time>1970-01-01T01:00:00Z</time>
      </trkpt>
      <trkpt lat="41.90745167" lon="12.48039667">
        <ele>0</ele>
        <time>1970-01-01T01:00:00Z</time>
      </trkpt>
      <trkpt lat="41.90746667" lon="12.48037667">
        <ele>0</ele>
        <time>1970-01-01T01:00:00Z</time>
      </trkpt>
      <trkpt lat="41.90748333" lon="12.48036167">
        <ele>0</ele>
        <time>1970-01-01T01:00:00Z</time>
      </trkpt>
      <trkpt lat="41.9075" lon="12.480345">
        <ele>0</ele>
        <time>1970-01-01T01:00:00Z</time>
      </trkpt>
      <trkpt lat="41.90751667" lon="12.48032833">
        <ele>0</ele>
        <time>1970-01-01T01:00:00Z</time>
      </trkpt>
      <trkpt lat="41.90752833" lon="12.48030833">
        <ele>0</ele>
        <time>1970-01-01T01:00:00Z</time>
      </trkpt>
      <trkpt lat="41.90753833" lon="12.48028667">
        <ele>0</ele>
        <time>1970-01-01T01:00:00Z</time>
      </trkpt>
      <trkpt lat="41.90755" lon="12.480265">
        <ele>0</ele>
        <time>1970-01-01T01:00:00Z</time>
      </trkpt>
      <trkpt lat="41.90756667" lon="12.48024333">
        <ele>0</ele>
        <time>1970-01-01T01:00:00Z</time>
      </trkpt>
      <trkpt lat="41.90758167" lon="12.48022167">
        <ele>0</ele>
        <time>1970-01-01T01:00:00Z</time>
      </trkpt>
      <trkpt lat="41.90759667" lon="12.48020167">
        <ele>0</ele>
        <time>1970-01-01T01:00:00Z</time>
      </trkpt>
      <trkpt lat="41.907615" lon="12.48018333">
        <ele>0</ele>
        <time>1970-01-01T01:00:00Z</time>
      </trkpt>
      <trkpt lat="41.90763167" lon="12.480165">
        <ele>0</ele>
        <time>1970-01-01T01:00:00Z</time>
      </trkpt>
      <trkpt lat="41.90764667" lon="12.480145">
        <ele>0</ele>
        <time>1970-01-01T01:00:00Z</time>
      </trkpt>
      <trkpt lat="41.90766333" lon="12.48012333">
        <ele>0</ele>
        <time>1970-01-01T01:00:00Z</time>
      </trkpt>
      <trkpt lat="41.90767667" lon="12.48010333">
        <ele>0</ele>
        <time>1970-01-01T01:00:00Z</time>
      </trkpt>
      <trkpt lat="41.90768833" lon="12.48008167">
        <ele>0</ele>
        <time>1970-01-01T01:00:00Z</time>
      </trkpt>
      <trkpt lat="41.9077" lon="12.48005833">
        <ele>0</ele>
        <time>1970-01-01T01:00:00Z</time>
      </trkpt>
      <trkpt lat="41.90771" lon="12.48003667">
        <ele>0</ele>
        <time>1970-01-01T01:00:00Z</time>
      </trkpt>
      <trkpt lat="41.90772" lon="12.48001333">
        <ele>0</ele>
        <time>1970-01-01T01:00:00Z</time>
      </trkpt>
      <trkpt lat="41.90773" lon="12.47999">
        <ele>0</ele>
        <time>1970-01-01T01:00:00Z</time>
      </trkpt>
      <trkpt lat="41.90774167" lon="12.47997167">
        <ele>0</ele>
        <time>1970-01-01T01:00:00Z</time>
      </trkpt>
      <trkpt lat="41.90775333" lon="12.47995">
        <ele>0</ele>
        <time>1970-01-01T01:00:00Z</time>
      </trkpt>
      <trkpt lat="41.90776667" lon="12.47992667">
        <ele>0</ele>
        <time>1970-01-01T01:00:00Z</time>
      </trkpt>
      <trkpt lat="41.90778167" lon="12.47990333">
        <ele>0</ele>
        <time>1970-01-01T01:00:00Z</time>
      </trkpt>
      <trkpt lat="41.90779833" lon="12.47988">
        <ele>0</ele>
        <time>1970-01-01T01:00:00Z</time>
      </trkpt>
      <trkpt lat="41.90781333" lon="12.47985333">
        <ele>0</ele>
        <time>1970-01-01T01:00:00Z</time>
      </trkpt>
      <trkpt lat="41.90782833" lon="12.47983167">
        <ele>0</ele>
        <time>1970-01-01T01:00:00Z</time>
      </trkpt>
      <trkpt lat="41.90784333" lon="12.47981">
        <ele>0</ele>
        <time>1970-01-01T01:00:00Z</time>
      </trkpt>
      <trkpt lat="41.90785833" lon="12.47978833">
        <ele>0</ele>
        <time>1970-01-01T01:00:00Z</time>
      </trkpt>
      <trkpt lat="41.90787167" lon="12.479765">
        <ele>0</ele>
        <time>1970-01-01T01:00:00Z</time>
      </trkpt>
      <trkpt lat="41.907885" lon="12.47974167">
        <ele>0</ele>
        <time>1970-01-01T01:00:00Z</time>
      </trkpt>
      <trkpt lat="41.90789667" lon="12.47972">
        <ele>0</ele>
        <time>1970-01-01T01:00:00Z</time>
      </trkpt>
      <trkpt lat="41.90791" lon="12.47969667">
        <ele>0</ele>
        <time>1970-01-01T01:00:00Z</time>
      </trkpt>
      <trkpt lat="41.90792167" lon="12.479675">
        <ele>0</ele>
        <time>1970-01-01T01:00:00Z</time>
      </trkpt>
      <trkpt lat="41.907935" lon="12.47965333">
        <ele>0</ele>
        <time>1970-01-01T01:00:00Z</time>
      </trkpt>
      <trkpt lat="41.907945" lon="12.47963">
        <ele>0</ele>
        <time>1970-01-01T01:00:00Z</time>
      </trkpt>
      <trkpt lat="41.90795667" lon="12.47961">
        <ele>0</ele>
        <time>1970-01-01T01:00:00Z</time>
      </trkpt>
      <trkpt lat="41.90797" lon="12.47958833">
        <ele>0</ele>
        <time>1970-01-01T01:00:00Z</time>
      </trkpt>
      <trkpt lat="41.90798167" lon="12.47956833">
        <ele>0</ele>
        <time>1970-01-01T01:00:00Z</time>
      </trkpt>
      <trkpt lat="41.90799667" lon="12.479545">
        <ele>0</ele>
        <time>1970-01-01T01:00:00Z</time>
      </trkpt>
      <trkpt lat="41.90801167" lon="12.47952333">
        <ele>0.457</ele>
        <time>1970-01-01T01:00:00Z</time>
      </trkpt>
      <trkpt lat="41.908025" lon="12.47950167">
        <ele>0.457</ele>
        <time>1970-01-01T01:00:00Z</time>
      </trkpt>
      <trkpt lat="41.90804" lon="12.47948167">
        <ele>0.457</ele>
        <time>1970-01-01T01:00:00Z</time>
      </trkpt>
      <trkpt lat="41.908055" lon="12.47946">
        <ele>0.457</ele>
        <time>1970-01-01T01:00:00Z</time>
      </trkpt>
      <trkpt lat="41.90807" lon="12.479445">
        <ele>0.457</ele>
        <time>1970-01-01T01:00:00Z</time>
      </trkpt>
      <trkpt lat="41.90808667" lon="12.47942833">
        <ele>0.457</ele>
        <time>1970-01-01T01:00:00Z</time>
      </trkpt>
      <trkpt lat="41.90810333" lon="12.47941167">
        <ele>0.457</ele>
        <time>1970-01-01T01:00:00Z</time>
      </trkpt>
      <trkpt lat="41.90812" lon="12.47939167">
        <ele>0.457</ele>
        <time>1970-01-01T01:00:00Z</time>
      </trkpt>
      <trkpt lat="41.90813667" lon="12.47937333">
        <ele>0.457</ele>
        <time>1970-01-01T01:00:00Z</time>
      </trkpt>
      <trkpt lat="41.90815" lon="12.47935667">
        <ele>0.457</ele>
        <time>1970-01-01T01:00:00Z</time>
      </trkpt>
      <trkpt lat="41.908165" lon="12.47933667">
        <ele>0.457</ele>
        <time>1970-01-01T01:00:00Z</time>
      </trkpt>
      <trkpt lat="41.90818" lon="12.47932167">
        <ele>0.457</ele>
        <time>1970-01-01T01:00:00Z</time>
      </trkpt>
      <trkpt lat="41.908195" lon="12.47930333">
        <ele>0.457</ele>
        <time>1970-01-01T01:00:00Z</time>
      </trkpt>
      <trkpt lat="41.90821" lon="12.47928667">
        <ele>0.457</ele>
        <time>1970-01-01T01:00:00Z</time>
      </trkpt>
      <trkpt lat="41.908225" lon="12.47927">
        <ele>1.372</ele>
        <time>1970-01-01T01:00:00Z</time>
      </trkpt>
      <trkpt lat="41.90824333" lon="12.479255">
        <ele>1.372</ele>
        <time>1970-01-01T01:00:00Z</time>
      </trkpt>
      <trkpt lat="41.90826333" lon="12.47923833">
        <ele>1.372</ele>
        <time>1970-01-01T01:00:00Z</time>
      </trkpt>
      <trkpt lat="41.90828167" lon="12.47922333">
        <ele>1.372</ele>
        <time>1970-01-01T01:00:00Z</time>
      </trkpt>
      <trkpt lat="41.90829833" lon="12.47921">
        <ele>1.372</ele>
        <time>1970-01-01T01:00:00Z</time>
      </trkpt>
      <trkpt lat="41.908315" lon="12.47919333">
        <ele>1.372</ele>
        <time>1970-01-01T01:00:00Z</time>
      </trkpt>
      <trkpt lat="41.90833167" lon="12.479175">
        <ele>1.372</ele>
        <time>1970-01-01T01:00:00Z</time>
      </trkpt>
      <trkpt lat="41.90834833" lon="12.47916">
        <ele>1.372</ele>
        <time>1970-01-01T01:00:00Z</time>
      </trkpt>
      <trkpt lat="41.90836833" lon="12.47914333">
        <ele>1.372</ele>
        <time>1970-01-01T01:00:00Z</time>
      </trkpt>
      <trkpt lat="41.908385" lon="12.47913">
        <ele>1.372</ele>
        <time>1970-01-01T01:00:00Z</time>
      </trkpt>
      <trkpt lat="41.908405" lon="12.47912">
        <ele>1.372</ele>
        <time>1970-01-01T01:00:00Z</time>
      </trkpt>
      <trkpt lat="41.908425" lon="12.47911167">
        <ele>1.372</ele>
        <time>1970-01-01T01:00:00Z</time>
      </trkpt>
      <trkpt lat="41.90844333" lon="12.4791">
        <ele>1.372</ele>
        <time>1970-01-01T01:00:00Z</time>
      </trkpt>
      <trkpt lat="41.90846167" lon="12.47908333">
        <ele>1.372</ele>
        <time>1970-01-01T01:00:00Z</time>
      </trkpt>
      <trkpt lat="41.90848167" lon="12.47906667">
        <ele>1.372</ele>
        <time>1970-01-01T01:00:00Z</time>
      </trkpt>
      <trkpt lat="41.908495" lon="12.47904833">
        <ele>1.372</ele>
        <time>1970-01-01T01:00:00Z</time>
      </trkpt>
      <trkpt lat="41.90850833" lon="12.479025">
        <ele>1.372</ele>
        <time>1970-01-01T01:00:00Z</time>
      </trkpt>
      <trkpt lat="41.90852167" lon="12.47899833">
        <ele>1.372</ele>
        <time>1970-01-01T01:00:00Z</time>
      </trkpt>
      <trkpt lat="41.90853833" lon="12.478975">
        <ele>1.372</ele>
        <time>1970-01-01T01:00:00Z</time>
      </trkpt>
      <trkpt lat="41.908555" lon="12.47895">
        <ele>1.372</ele>
        <time>1970-01-01T01:00:00Z</time>
      </trkpt>
      <trkpt lat="41.90856833" lon="12.478925">
        <ele>1.372</ele>
        <time>1970-01-01T01:00:00Z</time>
      </trkpt>
      <trkpt lat="41.90858167" lon="12.4789">
        <ele>1.372</ele>
        <time>1970-01-01T01:00:00Z</time>
      </trkpt>
      <trkpt lat="41.908595" lon="12.47887667">
        <ele>1.372</ele>
        <time>1970-01-01T01:00:00Z</time>
      </trkpt>
      <trkpt lat="41.90860833" lon="12.47885167">
        <ele>1.372</ele>
        <time>1970-01-01T01:00:00Z</time>
      </trkpt>
      <trkpt lat="41.90862167" lon="12.47883">
        <ele>1.372</ele>
        <time>1970-01-01T01:00:00Z</time>
      </trkpt>
      <trkpt lat="41.908635" lon="12.47881167">
        <ele>1.372</ele>
        <time>1970-01-01T01:00:00Z</time>
      </trkpt>
      <trkpt lat="41.90865" lon="12.47879667">
        <ele>1.372</ele>
        <time>1970-01-01T01:00:00Z</time>
      </trkpt>
      <trkpt lat="41.908665" lon="12.47878167">
        <ele>1.372</ele>
        <time>1970-01-01T01:00:00Z</time>
      </trkpt>
      <trkpt lat="41.90868" lon="12.47876667">
        <ele>1.372</ele>
        <time>1970-01-01T01:00:00Z</time>
      </trkpt>
      <trkpt lat="41.90869333" lon="12.47875">
        <ele>1.372</ele>
        <time>1970-01-01T01:00:00Z</time>
      </trkpt>
      <trkpt lat="41.90871" lon="12.47873">
        <ele>1.372</ele>
        <time>1970-01-01T01:00:00Z</time>
      </trkpt>
      <trkpt lat="41.908725" lon="12.47871333">
        <ele>1.372</ele>
        <time>1970-01-01T01:00:00Z</time>
      </trkpt>
      <trkpt lat="41.90874167" lon="12.47869667">
        <ele>1.372</ele>
        <time>1970-01-01T01:00:00Z</time>
      </trkpt>
      <trkpt lat="41.908755" lon="12.47867833">
        <ele>1.372</ele>
        <time>1970-01-01T01:00:00Z</time>
      </trkpt>
      <trkpt lat="41.90877" lon="12.47865833">
        <ele>1.372</ele>
        <time>1970-01-01T01:00:00Z</time>
      </trkpt>
      <trkpt lat="41.90878667" lon="12.47863667">
        <ele>1.372</ele>
        <time>1970-01-01T01:00:00Z</time>
      </trkpt>
      <trkpt lat="41.90880333" lon="12.47861667">
        <ele>1.372</ele>
        <time>1970-01-01T01:00:00Z</time>
      </trkpt>
      <trkpt lat="41.90882" lon="12.4786">
        <ele>1.372</ele>
        <time>1970-01-01T01:00:00Z</time>
      </trkpt>
      <trkpt lat="41.90883833" lon="12.47858333">
        <ele>1.372</ele>
        <time>1970-01-01T01:00:00Z</time>
      </trkpt>
      <trkpt lat="41.908855" lon="12.47856833">
        <ele>1.372</ele>
        <time>1970-01-01T01:00:00Z</time>
      </trkpt>
      <trkpt lat="41.90887167" lon="12.47855">
        <ele>1.372</ele>
        <time>1970-01-01T01:00:00Z</time>
      </trkpt>
      <trkpt lat="41.90888667" lon="12.47853167">
        <ele>1.372</ele>
        <time>1970-01-01T01:00:00Z</time>
      </trkpt>
      <trkpt lat="41.9089" lon="12.47851167">
        <ele>1.372</ele>
        <time>1970-01-01T01:00:00Z</time>
      </trkpt>
      <trkpt lat="41.90891333" lon="12.47849167">
        <ele>1.372</ele>
        <time>1970-01-01T01:00:00Z</time>
      </trkpt>
      <trkpt lat="41.908925" lon="12.47847">
        <ele>1.372</ele>
        <time>1970-01-01T01:00:00Z</time>
      </trkpt>
      <trkpt lat="41.90894" lon="12.47845333">
        <ele>1.372</ele>
        <time>1970-01-01T01:00:00Z</time>
      </trkpt>
      <trkpt lat="41.908955" lon="12.47843833">
        <ele>1.372</ele>
        <time>1970-01-01T01:00:00Z</time>
      </trkpt>
      <trkpt lat="41.90897" lon="12.47842">
        <ele>1.372</ele>
        <time>1970-01-01T01:00:00Z</time>
      </trkpt>
      <trkpt lat="41.90898667" lon="12.4784">
        <ele>1.372</ele>
        <time>1970-01-01T01:00:00Z</time>
      </trkpt>
      <trkpt lat="41.90900333" lon="12.47838333">
        <ele>1.372</ele>
        <time>1970-01-01T01:00:00Z</time>
      </trkpt>
      <trkpt lat="41.90902167" lon="12.47836667">
        <ele>0.457</ele>
        <time>1970-01-01T01:00:00Z</time>
      </trkpt>
      <trkpt lat="41.90904167" lon="12.47835167">
        <ele>0.457</ele>
        <time>1970-01-01T01:00:00Z</time>
      </trkpt>
      <trkpt lat="41.90906333" lon="12.47833667">
        <ele>0.457</ele>
        <time>1970-01-01T01:00:00Z</time>
      </trkpt>
      <trkpt lat="41.90908167" lon="12.47832667">
        <ele>0.457</ele>
        <time>1970-01-01T01:00:00Z</time>
      </trkpt>
      <trkpt lat="41.90910333" lon="12.47831333">
        <ele>0.457</ele>
        <time>1970-01-01T01:00:00Z</time>
      </trkpt>
      <trkpt lat="41.909125" lon="12.478305">
        <ele>0.457</ele>
        <time>1970-01-01T01:00:00Z</time>
      </trkpt>
      <trkpt lat="41.90914333" lon="12.47829333">
        <ele>0.457</ele>
        <time>1970-01-01T01:00:00Z</time>
      </trkpt>
      <trkpt lat="41.90916333" lon="12.47828333">
        <ele>0.457</ele>
        <time>1970-01-01T01:00:00Z</time>
      </trkpt>
      <trkpt lat="41.90918167" lon="12.478265">
        <ele>0.457</ele>
        <time>1970-01-01T01:00:00Z</time>
      </trkpt>
      <trkpt lat="41.909195" lon="12.47824833">
        <ele>0.457</ele>
        <time>1970-01-01T01:00:00Z</time>
      </trkpt>
      <trkpt lat="41.909205" lon="12.47822833">
        <ele>0.457</ele>
        <time>1970-01-01T01:00:00Z</time>
      </trkpt>
      <trkpt lat="41.90921667" lon="12.47821">
        <ele>0.457</ele>
        <time>1970-01-01T01:00:00Z</time>
      </trkpt>
      <trkpt lat="41.90922667" lon="12.47819167">
        <ele>0.457</ele>
        <time>1970-01-01T01:00:00Z</time>
      </trkpt>
      <trkpt lat="41.90924" lon="12.47817333">
        <ele>0.457</ele>
        <time>1970-01-01T01:00:00Z</time>
      </trkpt>
      <trkpt lat="41.90925333" lon="12.47815">
        <ele>0.457</ele>
        <time>1970-01-01T01:00:00Z</time>
      </trkpt>
      <trkpt lat="41.90926833" lon="12.47812667">
        <ele>0.457</ele>
        <time>1970-01-01T01:00:00Z</time>
      </trkpt>
      <trkpt lat="41.90928167" lon="12.47810167">
        <ele>0.457</ele>
        <time>1970-01-01T01:00:00Z</time>
      </trkpt>
      <trkpt lat="41.909295" lon="12.47807667">
        <ele>0.457</ele>
        <time>1970-01-01T01:00:00Z</time>
      </trkpt>
      <trkpt lat="41.90930833" lon="12.478055">
        <ele>0</ele>
        <time>1970-01-01T01:00:00Z</time>
      </trkpt>
      <trkpt lat="41.90932167" lon="12.47803333">
        <ele>0</ele>
        <time>1970-01-01T01:00:00Z</time>
      </trkpt>
      <trkpt lat="41.909335" lon="12.47801167">
        <ele>0</ele>
        <time>1970-01-01T01:00:00Z</time>
      </trkpt>
      <trkpt lat="41.90935" lon="12.47799">
        <ele>0</ele>
        <time>1970-01-01T01:00:00Z</time>
      </trkpt>
      <trkpt lat="41.90936167" lon="12.47797">
        <ele>0</ele>
        <time>1970-01-01T01:00:00Z</time>
      </trkpt>
      <trkpt lat="41.90937333" lon="12.47795">
        <ele>0</ele>
        <time>1970-01-01T01:00:00Z</time>
      </trkpt>
      <trkpt lat="41.90938833" lon="12.47793">
        <ele>0</ele>
        <time>1970-01-01T01:00:00Z</time>
      </trkpt>
      <trkpt lat="41.909405" lon="12.47791333">
        <ele>0</ele>
        <time>1970-01-01T01:00:00Z</time>
      </trkpt>
      <trkpt lat="41.90942333" lon="12.47789833">
        <ele>0</ele>
        <time>1970-01-01T01:00:00Z</time>
      </trkpt>
      <trkpt lat="41.90943833" lon="12.477885">
        <ele>0</ele>
        <time>1970-01-01T01:00:00Z</time>
      </trkpt>
      <trkpt lat="41.90945333" lon="12.47787">
        <ele>0</ele>
        <time>1970-01-01T01:00:00Z</time>
      </trkpt>
      <trkpt lat="41.90947" lon="12.47785167">
        <ele>0</ele>
        <time>1970-01-01T01:00:00Z</time>
      </trkpt>
      <trkpt lat="41.909485" lon="12.47783333">
        <ele>0</ele>
        <time>1970-01-01T01:00:00Z</time>
      </trkpt>
      <trkpt lat="41.90950167" lon="12.47781667">
        <ele>0</ele>
        <time>1970-01-01T01:00:00Z</time>
      </trkpt>
      <trkpt lat="41.909515" lon="12.47779667">
        <ele>0</ele>
        <time>1970-01-01T01:00:00Z</time>
      </trkpt>
      <trkpt lat="41.90953" lon="12.47777333">
        <ele>0</ele>
        <time>1970-01-01T01:00:00Z</time>
      </trkpt>
      <trkpt lat="41.909545" lon="12.477755">
        <ele>0</ele>
        <time>1970-01-01T01:00:00Z</time>
      </trkpt>
      <trkpt lat="41.90956" lon="12.47773333">
        <ele>0</ele>
        <time>1970-01-01T01:00:00Z</time>
      </trkpt>
      <trkpt lat="41.90957167" lon="12.47771333">
        <ele>0</ele>
        <time>1970-01-01T01:00:00Z</time>
      </trkpt>
      <trkpt lat="41.90958333" lon="12.47769333">
        <ele>0</ele>
        <time>1970-01-01T01:00:00Z</time>
      </trkpt>
      <trkpt lat="41.90959667" lon="12.477675">
        <ele>0</ele>
        <time>1970-01-01T01:00:00Z</time>
      </trkpt>
      <trkpt lat="41.90960833" lon="12.47765667">
        <ele>0</ele>
        <time>1970-01-01T01:00:00Z</time>
      </trkpt>
      <trkpt lat="41.90961833" lon="12.47764">
        <ele>0</ele>
        <time>1970-01-01T01:00:00Z</time>
      </trkpt>
      <trkpt lat="41.90963" lon="12.477625">
        <ele>0</ele>
        <time>1970-01-01T01:00:00Z</time>
      </trkpt>
      <trkpt lat="41.90964333" lon="12.47761">
        <ele>0</ele>
        <time>1970-01-01T01:00:00Z</time>
      </trkpt>
      <trkpt lat="41.90965667" lon="12.47759667">
        <ele>0</ele>
        <time>1970-01-01T01:00:00Z</time>
      </trkpt>
      <trkpt lat="41.90967167" lon="12.47758333">
        <ele>0</ele>
        <time>1970-01-01T01:00:00Z</time>
      </trkpt>
      <trkpt lat="41.90968833" lon="12.47756667">
        <ele>0</ele>
        <time>1970-01-01T01:00:00Z</time>
      </trkpt>
      <trkpt lat="41.90970667" lon="12.47754833">
        <ele>0</ele>
        <time>1970-01-01T01:00:00Z</time>
      </trkpt>
      <trkpt lat="41.90972667" lon="12.47752667">
        <ele>0</ele>
        <time>1970-01-01T01:00:00Z</time>
      </trkpt>
      <trkpt lat="41.90974833" lon="12.47750667">
        <ele>0</ele>
        <time>1970-01-01T01:00:00Z</time>
      </trkpt>
      <trkpt lat="41.90976833" lon="12.47748667">
        <ele>0</ele>
        <time>1970-01-01T01:00:00Z</time>
      </trkpt>
      <trkpt lat="41.90978667" lon="12.477465">
        <ele>0</ele>
        <time>1970-01-01T01:00:00Z</time>
      </trkpt>
      <trkpt lat="41.90980167" lon="12.47744333">
        <ele>0</ele>
        <time>1970-01-01T01:00:00Z</time>
      </trkpt>
      <trkpt lat="41.90981833" lon="12.47742167">
        <ele>0</ele>
        <time>1970-01-01T01:00:00Z</time>
      </trkpt>
      <trkpt lat="41.90983333" lon="12.47740167">
        <ele>0</ele>
        <time>1970-01-01T01:00:00Z</time>
      </trkpt>
      <trkpt lat="41.90984667" lon="12.47738">
        <ele>0.457</ele>
        <time>1970-01-01T01:00:00Z</time>
      </trkpt>
      <trkpt lat="41.90986" lon="12.47735667">
        <ele>0.457</ele>
        <time>1970-01-01T01:00:00Z</time>
      </trkpt>
      <trkpt lat="41.909875" lon="12.47733833">
        <ele>0.457</ele>
        <time>1970-01-01T01:00:00Z</time>
      </trkpt>
      <trkpt lat="41.90989167" lon="12.477315">
        <ele>0.457</ele>
        <time>1970-01-01T01:00:00Z</time>
      </trkpt>
      <trkpt lat="41.90990833" lon="12.47729667">
        <ele>0.457</ele>
        <time>1970-01-01T01:00:00Z</time>
      </trkpt>
      <trkpt lat="41.90992333" lon="12.477275">
        <ele>0.457</ele>
        <time>1970-01-01T01:00:00Z</time>
      </trkpt>
      <trkpt lat="41.90993667" lon="12.477255">
        <ele>0.457</ele>
        <time>1970-01-01T01:00:00Z</time>
      </trkpt>
      <trkpt lat="41.90995167" lon="12.47723667">
        <ele>0.457</ele>
        <time>1970-01-01T01:00:00Z</time>
      </trkpt>
      <trkpt lat="41.90996667" lon="12.47722167">
        <ele>0.457</ele>
        <time>1970-01-01T01:00:00Z</time>
      </trkpt>
      <trkpt lat="41.90998" lon="12.477205">
        <ele>0.457</ele>
        <time>1970-01-01T01:00:00Z</time>
      </trkpt>
      <trkpt lat="41.909995" lon="12.47718667">
        <ele>0.457</ele>
        <time>1970-01-01T01:00:00Z</time>
      </trkpt>
      <trkpt lat="41.91000833" lon="12.47717">
        <ele>0.457</ele>
        <time>1970-01-01T01:00:00Z</time>
      </trkpt>
      <trkpt lat="41.91002333" lon="12.47715167">
        <ele>0.457</ele>
        <time>1970-01-01T01:00:00Z</time>
      </trkpt>
      <trkpt lat="41.910035" lon="12.47713667">
        <ele>0.457</ele>
        <time>1970-01-01T01:00:00Z</time>
      </trkpt>
      <trkpt lat="41.910045" lon="12.477115">
        <ele>0.457</ele>
        <time>1970-01-01T01:00:00Z</time>
      </trkpt>
      <trkpt lat="41.910055" lon="12.47709667">
        <ele>0.457</ele>
        <time>1970-01-01T01:00:00Z</time>
      </trkpt>
      <trkpt lat="41.91006167" lon="12.47707667">
        <ele>0.457</ele>
        <time>1970-01-01T01:00:00Z</time>
      </trkpt>
      <trkpt lat="41.91006833" lon="12.477055">
        <ele>0.457</ele>
        <time>1970-01-01T01:00:00Z</time>
      </trkpt>
      <trkpt lat="41.910075" lon="12.47703">
        <ele>0.457</ele>
        <time>1970-01-01T01:00:00Z</time>
      </trkpt>
      <trkpt lat="41.91008333" lon="12.477005">
        <ele>0.457</ele>
        <time>1970-01-01T01:00:00Z</time>
      </trkpt>
      <trkpt lat="41.91009167" lon="12.47698167">
        <ele>0.457</ele>
        <time>1970-01-01T01:00:00Z</time>
      </trkpt>
      <trkpt lat="41.9101" lon="12.47695667">
        <ele>0.457</ele>
        <time>1970-01-01T01:00:00Z</time>
      </trkpt>
      <trkpt lat="41.91010667" lon="12.47693">
        <ele>0.457</ele>
        <time>1970-01-01T01:00:00Z</time>
      </trkpt>
      <trkpt lat="41.910115" lon="12.47690833">
        <ele>0.457</ele>
        <time>1970-01-01T01:00:00Z</time>
      </trkpt>
      <trkpt lat="41.91012167" lon="12.47688667">
        <ele>0.457</ele>
        <time>1970-01-01T01:00:00Z</time>
      </trkpt>
      <trkpt lat="41.91012833" lon="12.47686333">
        <ele>0.457</ele>
        <time>1970-01-01T01:00:00Z</time>
      </trkpt>
      <trkpt lat="41.91013333" lon="12.47684">
        <ele>0.457</ele>
        <time>1970-01-01T01:00:00Z</time>
      </trkpt>
      <trkpt lat="41.91014167" lon="12.47682">
        <ele>0.457</ele>
        <time>1970-01-01T01:00:00Z</time>
      </trkpt>
      <trkpt lat="41.910155" lon="12.4768">
        <ele>0.457</ele>
        <time>1970-01-01T01:00:00Z</time>
      </trkpt>
      <trkpt lat="41.91016833" lon="12.47678333">
        <ele>0.457</ele>
        <time>1970-01-01T01:00:00Z</time>
      </trkpt>
      <trkpt lat="41.91017833" lon="12.47677167">
        <ele>0.457</ele>
        <time>1970-01-01T01:00:00Z</time>
      </trkpt>
      <trkpt lat="41.91018833" lon="12.47676167">
        <ele>0.457</ele>
        <time>1970-01-01T01:00:00Z</time>
      </trkpt>
      <trkpt lat="41.910495" lon="12.47655667">
        <ele>5.334</ele>
        <time>1970-01-01T01:00:00Z</time>
      </trkpt>
      <trkpt lat="41.91051167" lon="12.47655667">
        <ele>5.334</ele>
        <time>1970-01-01T01:00:00Z</time>
      </trkpt>
      <trkpt lat="41.91053333" lon="12.47655333">
        <ele>5.334</ele>
        <time>1970-01-01T01:00:00Z</time>
      </trkpt>
      <trkpt lat="41.91055667" lon="12.47654833">
        <ele>5.334</ele>
        <time>1970-01-01T01:00:00Z</time>
      </trkpt>
      <trkpt lat="41.91058" lon="12.47654">
        <ele>5.334</ele>
        <time>1970-01-01T01:00:00Z</time>
      </trkpt>
      <trkpt lat="41.91060333" lon="12.47653333">
        <ele>5.334</ele>
        <time>1970-01-01T01:00:00Z</time>
      </trkpt>
      <trkpt lat="41.91062833" lon="12.47652333">
        <ele>5.334</ele>
        <time>1970-01-01T01:00:00Z</time>
      </trkpt>
      <trkpt lat="41.91065333" lon="12.476515">
        <ele>5.334</ele>
        <time>1970-01-01T01:00:00Z</time>
      </trkpt>
      <trkpt lat="41.91067667" lon="12.47650667">
        <ele>5.334</ele>
        <time>1970-01-01T01:00:00Z</time>
      </trkpt>
      <trkpt lat="41.91070167" lon="12.47649833">
        <ele>5.334</ele>
        <time>1970-01-01T01:00:00Z</time>
      </trkpt>
      <trkpt lat="41.91072333" lon="12.47648833">
        <ele>5.334</ele>
        <time>1970-01-01T01:00:00Z</time>
      </trkpt>
      <trkpt lat="41.910745" lon="12.47647667">
        <ele>5.334</ele>
        <time>1970-01-01T01:00:00Z</time>
      </trkpt>
      <trkpt lat="41.910765" lon="12.476465">
        <ele>5.334</ele>
        <time>1970-01-01T01:00:00Z</time>
      </trkpt>
      <trkpt lat="41.91078667" lon="12.47645333">
        <ele>5.334</ele>
        <time>1970-01-01T01:00:00Z</time>
      </trkpt>
      <trkpt lat="41.91081" lon="12.47644167">
        <ele>5.334</ele>
        <time>1970-01-01T01:00:00Z</time>
      </trkpt>
      <trkpt lat="41.91083167" lon="12.47643167">
        <ele>5.334</ele>
        <time>1970-01-01T01:00:00Z</time>
      </trkpt>
      <trkpt lat="41.910855" lon="12.47641833">
        <ele>5.334</ele>
        <time>1970-01-01T01:00:00Z</time>
      </trkpt>
      <trkpt lat="41.910875" lon="12.476405">
        <ele>5.334</ele>
        <time>1970-01-01T01:00:00Z</time>
      </trkpt>
      <trkpt lat="41.91089667" lon="12.47639333">
        <ele>5.334</ele>
        <time>1970-01-01T01:00:00Z</time>
      </trkpt>
      <trkpt lat="41.91091667" lon="12.47638167">
        <ele>5.334</ele>
        <time>1970-01-01T01:00:00Z</time>
      </trkpt>
      <trkpt lat="41.91093833" lon="12.47637">
        <ele>5.334</ele>
        <time>1970-01-01T01:00:00Z</time>
      </trkpt>
      <trkpt lat="41.91095833" lon="12.47635667">
        <ele>5.334</ele>
        <time>1970-01-01T01:00:00Z</time>
      </trkpt>
      <trkpt lat="41.91098" lon="12.47634333">
        <ele>5.334</ele>
        <time>1970-01-01T01:00:00Z</time>
      </trkpt>
      <trkpt lat="41.911" lon="12.47633">
        <ele>5.334</ele>
        <time>1970-01-01T01:00:00Z</time>
      </trkpt>
      <trkpt lat="41.91101833" lon="12.47631833">
        <ele>5.334</ele>
        <time>1970-01-01T01:00:00Z</time>
      </trkpt>
      <trkpt lat="41.91103833" lon="12.476305">
        <ele>5.334</ele>
        <time>1970-01-01T01:00:00Z</time>
      </trkpt>
      <trkpt lat="41.91105667" lon="12.47629">
        <ele>5.334</ele>
        <time>1970-01-01T01:00:00Z</time>
      </trkpt>
      <trkpt lat="41.91107333" lon="12.47627333">
        <ele>5.334</ele>
        <time>1970-01-01T01:00:00Z</time>
      </trkpt>
      <trkpt lat="41.91108833" lon="12.47626">
        <ele>5.334</ele>
        <time>1970-01-01T01:00:00Z</time>
      </trkpt>
      <trkpt lat="41.911105" lon="12.47624667">
        <ele>5.334</ele>
        <time>1970-01-01T01:00:00Z</time>
      </trkpt>
      <trkpt lat="41.91112333" lon="12.47623333">
        <ele>5.334</ele>
        <time>1970-01-01T01:00:00Z</time>
      </trkpt>
      <trkpt lat="41.91114167" lon="12.47621833">
        <ele>5.334</ele>
        <time>1970-01-01T01:00:00Z</time>
      </trkpt>
      <trkpt lat="41.91116333" lon="12.47620333">
        <ele>5.334</ele>
        <time>1970-01-01T01:00:00Z</time>
      </trkpt>
      <trkpt lat="41.911185" lon="12.47619">
        <ele>5.334</ele>
        <time>1970-01-01T01:00:00Z</time>
      </trkpt>
      <trkpt lat="41.911205" lon="12.47617667">
        <ele>5.334</ele>
        <time>1970-01-01T01:00:00Z</time>
      </trkpt>
      <trkpt lat="41.911225" lon="12.47616667">
        <ele>5.334</ele>
        <time>1970-01-01T01:00:00Z</time>
      </trkpt>
      <trkpt lat="41.91124667" lon="12.47616">
        <ele>5.334</ele>
        <time>1970-01-01T01:00:00Z</time>
      </trkpt>
      <trkpt lat="41.911265" lon="12.47614833">
        <ele>5.334</ele>
        <time>1970-01-01T01:00:00Z</time>
      </trkpt>
      <trkpt lat="41.911285" lon="12.47613667">
        <ele>5.334</ele>
        <time>1970-01-01T01:00:00Z</time>
      </trkpt>
      <trkpt lat="41.91130333" lon="12.47612667">
        <ele>5.334</ele>
        <time>1970-01-01T01:00:00Z</time>
      </trkpt>
      <trkpt lat="41.91132333" lon="12.47611833">
        <ele>5.334</ele>
        <time>1970-01-01T01:00:00Z</time>
      </trkpt>
      <trkpt lat="41.91134167" lon="12.47611">
        <ele>5.334</ele>
        <time>1970-01-01T01:00:00Z</time>
      </trkpt>
      <trkpt lat="41.91136167" lon="12.47610333">
        <ele>5.334</ele>
        <time>1970-01-01T01:00:00Z</time>
      </trkpt>
      <trkpt lat="41.91138" lon="12.47609667">
        <ele>5.334</ele>
        <time>1970-01-01T01:00:00Z</time>
      </trkpt>
      <trkpt lat="41.91140167" lon="12.47608833">
        <ele>5.334</ele>
        <time>1970-01-01T01:00:00Z</time>
      </trkpt>
      <trkpt lat="41.91141833" lon="12.47608167">
        <ele>5.334</ele>
        <time>1970-01-01T01:00:00Z</time>
      </trkpt>
      <trkpt lat="41.911435" lon="12.47607667">
        <ele>5.334</ele>
        <time>1970-01-01T01:00:00Z</time>
      </trkpt>
      <trkpt lat="41.91144833" lon="12.47607">
        <ele>5.334</ele>
        <time>1970-01-01T01:00:00Z</time>
      </trkpt>
      <trkpt lat="41.91146667" lon="12.47606">
        <ele>5.334</ele>
        <time>1970-01-01T01:00:00Z</time>
      </trkpt>
      <trkpt lat="41.91148833" lon="12.47604833">
        <ele>5.334</ele>
        <time>1970-01-01T01:00:00Z</time>
      </trkpt>
      <trkpt lat="41.91150833" lon="12.47603667">
        <ele>5.334</ele>
        <time>1970-01-01T01:00:00Z</time>
      </trkpt>
      <trkpt lat="41.91153" lon="12.476025">
        <ele>5.334</ele>
        <time>1970-01-01T01:00:00Z</time>
      </trkpt>
      <trkpt lat="41.91155" lon="12.476015">
        <ele>5.334</ele>
        <time>1970-01-01T01:00:00Z</time>
      </trkpt>
      <trkpt lat="41.911665" lon="12.47594833">
        <ele>2.438</ele>
        <time>1970-01-01T01:00:00Z</time>
      </trkpt>
      <trkpt lat="41.91167667" lon="12.47593833">
        <ele>2.438</ele>
        <time>1970-01-01T01:00:00Z</time>
      </trkpt>
      <trkpt lat="41.91169167" lon="12.47593333">
        <ele>2.438</ele>
        <time>1970-01-01T01:00:00Z</time>
      </trkpt>
      <trkpt lat="41.91171" lon="12.47592833">
        <ele>2.438</ele>
        <time>1970-01-01T01:00:00Z</time>
      </trkpt>
      <trkpt lat="41.91172833" lon="12.475925">
        <ele>2.438</ele>
        <time>1970-01-01T01:00:00Z</time>
      </trkpt>
      <trkpt lat="41.91175" lon="12.47591667">
        <ele>2.438</ele>
        <time>1970-01-01T01:00:00Z</time>
      </trkpt>
      <trkpt lat="41.91176833" lon="12.47590833">
        <ele>3.353</ele>
        <time>1970-01-01T01:00:00Z</time>
      </trkpt>
      <trkpt lat="41.91179" lon="12.475895">
        <ele>3.353</ele>
        <time>1970-01-01T01:00:00Z</time>
      </trkpt>
      <trkpt lat="41.91181167" lon="12.47588333">
        <ele>3.353</ele>
        <time>1970-01-01T01:00:00Z</time>
      </trkpt>
      <trkpt lat="41.91183333" lon="12.475875">
        <ele>3.353</ele>
        <time>1970-01-01T01:00:00Z</time>
      </trkpt>
      <trkpt lat="41.91185667" lon="12.47586833">
        <ele>4.42</ele>
        <time>1970-01-01T01:00:00Z</time>
      </trkpt>
      <trkpt lat="41.91187667" lon="12.47585833">
        <ele>4.42</ele>
        <time>1970-01-01T01:00:00Z</time>
      </trkpt>
      <trkpt lat="41.91189833" lon="12.47584833">
        <ele>5.334</ele>
        <time>1970-01-01T01:00:00Z</time>
      </trkpt>
      <trkpt lat="41.91192167" lon="12.47583833">
        <ele>5.334</ele>
        <time>1970-01-01T01:00:00Z</time>
      </trkpt>
      <trkpt lat="41.91194333" lon="12.47582833">
        <ele>5.334</ele>
        <time>1970-01-01T01:00:00Z</time>
      </trkpt>
      <trkpt lat="41.91196667" lon="12.47582333">
        <ele>5.334</ele>
        <time>1970-01-01T01:00:00Z</time>
      </trkpt>
      <trkpt lat="41.91198833" lon="12.47581833">
        <ele>5.334</ele>
        <time>1970-01-01T01:00:00Z</time>
      </trkpt>
      <trkpt lat="41.91201" lon="12.47581667">
        <ele>5.334</ele>
        <time>1970-01-01T01:00:00Z</time>
      </trkpt>
      <trkpt lat="41.91203167" lon="12.47581667">
        <ele>5.334</ele>
        <time>1970-01-01T01:00:00Z</time>
      </trkpt>
      <trkpt lat="41.912055" lon="12.475815">
        <ele>5.334</ele>
        <time>1970-01-01T01:00:00Z</time>
      </trkpt>
      <trkpt lat="41.91207667" lon="12.47581167">
        <ele>5.334</ele>
        <time>1970-01-01T01:00:00Z</time>
      </trkpt>
      <trkpt lat="41.91209833" lon="12.47580833">
        <ele>5.334</ele>
        <time>1970-01-01T01:00:00Z</time>
      </trkpt>
      <trkpt lat="41.91212" lon="12.47580333">
        <ele>5.334</ele>
        <time>1970-01-01T01:00:00Z</time>
      </trkpt>
      <trkpt lat="41.91214167" lon="12.47579833">
        <ele>5.334</ele>
        <time>1970-01-01T01:00:00Z</time>
      </trkpt>
      <trkpt lat="41.91216333" lon="12.47579167">
        <ele>4.42</ele>
        <time>1970-01-01T01:00:00Z</time>
      </trkpt>
      <trkpt lat="41.91218167" lon="12.475785">
        <ele>4.42</ele>
        <time>1970-01-01T01:00:00Z</time>
      </trkpt>
      <trkpt lat="41.91220167" lon="12.47577833">
        <ele>4.42</ele>
        <time>1970-01-01T01:00:00Z</time>
      </trkpt>
      <trkpt lat="41.91222" lon="12.47577333">
        <ele>4.42</ele>
        <time>1970-01-01T01:00:00Z</time>
      </trkpt>
      <trkpt lat="41.91224" lon="12.47576667">
        <ele>4.42</ele>
        <time>1970-01-01T01:00:00Z</time>
      </trkpt>
      <trkpt lat="41.91226" lon="12.47575667">
        <ele>4.42</ele>
        <time>1970-01-01T01:00:00Z</time>
      </trkpt>
      <trkpt lat="41.91228167" lon="12.475745">
        <ele>3.353</ele>
        <time>1970-01-01T01:00:00Z</time>
      </trkpt>
      <trkpt lat="41.91230167" lon="12.47573333">
        <ele>3.353</ele>
        <time>1970-01-01T01:00:00Z</time>
      </trkpt>
      <trkpt lat="41.91232167" lon="12.47572">
        <ele>3.353</ele>
        <time>1970-01-01T01:00:00Z</time>
      </trkpt>
      <trkpt lat="41.91234167" lon="12.47570833">
        <ele>3.353</ele>
        <time>1970-01-01T01:00:00Z</time>
      </trkpt>
      <trkpt lat="41.91236167" lon="12.47569833">
        <ele>3.353</ele>
        <time>1970-01-01T01:00:00Z</time>
      </trkpt>
      <trkpt lat="41.91238" lon="12.47568667">
        <ele>3.353</ele>
        <time>1970-01-01T01:00:00Z</time>
      </trkpt>
      <trkpt lat="41.91239833" lon="12.475675">
        <ele>3.353</ele>
        <time>1970-01-01T01:00:00Z</time>
      </trkpt>
      <trkpt lat="41.91241833" lon="12.47566">
        <ele>3.353</ele>
        <time>1970-01-01T01:00:00Z</time>
      </trkpt>
      <trkpt lat="41.91244" lon="12.475645">
        <ele>3.353</ele>
        <time>1970-01-01T01:00:00Z</time>
      </trkpt>
      <trkpt lat="41.91246167" lon="12.47562333">
        <ele>3.353</ele>
        <time>1970-01-01T01:00:00Z</time>
      </trkpt>
      <trkpt lat="41.91248333" lon="12.47560333">
        <ele>3.353</ele>
        <time>1970-01-01T01:00:00Z</time>
      </trkpt>
      <trkpt lat="41.91250667" lon="12.475585">
        <ele>3.353</ele>
        <time>1970-01-01T01:00:00Z</time>
      </trkpt>
      <trkpt lat="41.91252667" lon="12.47556333">
        <ele>2.438</ele>
        <time>1970-01-01T01:00:00Z</time>
      </trkpt>
      <trkpt lat="41.91254833" lon="12.475545">
        <ele>2.438</ele>
        <time>1970-01-01T01:00:00Z</time>
      </trkpt>
      <trkpt lat="41.91256833" lon="12.47552667">
        <ele>2.438</ele>
        <time>1970-01-01T01:00:00Z</time>
      </trkpt>
      <trkpt lat="41.91258667" lon="12.47550667">
        <ele>2.438</ele>
        <time>1970-01-01T01:00:00Z</time>
      </trkpt>
      <trkpt lat="41.91260833" lon="12.47549">
        <ele>1.372</ele>
        <time>1970-01-01T01:00:00Z</time>
      </trkpt>
      <trkpt lat="41.91262833" lon="12.47547333">
        <ele>1.372</ele>
        <time>1970-01-01T01:00:00Z</time>
      </trkpt>
      <trkpt lat="41.91264833" lon="12.47545667">
        <ele>1.372</ele>
        <time>1970-01-01T01:00:00Z</time>
      </trkpt>
      <trkpt lat="41.91266667" lon="12.475445">
        <ele>1.372</ele>
        <time>1970-01-01T01:00:00Z</time>
      </trkpt>
      <trkpt lat="41.91268833" lon="12.47543333">
        <ele>1.372</ele>
        <time>1970-01-01T01:00:00Z</time>
      </trkpt>
      <trkpt lat="41.91270833" lon="12.47541833">
        <ele>1.372</ele>
        <time>1970-01-01T01:00:00Z</time>
      </trkpt>
      <trkpt lat="41.91272667" lon="12.47540667">
        <ele>1.372</ele>
        <time>1970-01-01T01:00:00Z</time>
      </trkpt>
      <trkpt lat="41.91274667" lon="12.475395">
        <ele>1.372</ele>
        <time>1970-01-01T01:00:00Z</time>
      </trkpt>
      <trkpt lat="41.91277" lon="12.475385">
        <ele>1.372</ele>
        <time>1970-01-01T01:00:00Z</time>
      </trkpt>
      <trkpt lat="41.91279167" lon="12.47537667">
        <ele>1.372</ele>
        <time>1970-01-01T01:00:00Z</time>
      </trkpt>
      <trkpt lat="41.91281167" lon="12.47537167">
        <ele>1.372</ele>
        <time>1970-01-01T01:00:00Z</time>
      </trkpt>
      <trkpt lat="41.91283333" lon="12.47536667">
        <ele>1.372</ele>
        <time>1970-01-01T01:00:00Z</time>
      </trkpt>
      <trkpt lat="41.912855" lon="12.47536333">
        <ele>0</ele>
        <time>1970-01-01T01:00:00Z</time>
      </trkpt>
      <trkpt lat="41.91287667" lon="12.475355">
        <ele>0</ele>
        <time>1970-01-01T01:00:00Z</time>
      </trkpt>
      <trkpt lat="41.91289833" lon="12.47534833">
        <ele>0</ele>
        <time>1970-01-01T01:00:00Z</time>
      </trkpt>
      <trkpt lat="41.91292" lon="12.47533833">
        <ele>0</ele>
        <time>1970-01-01T01:00:00Z</time>
      </trkpt>
      <trkpt lat="41.91294" lon="12.47532833">
        <ele>0</ele>
        <time>1970-01-01T01:00:00Z</time>
      </trkpt>
      <trkpt lat="41.91296167" lon="12.47531833">
        <ele>0</ele>
        <time>1970-01-01T01:00:00Z</time>
      </trkpt>
      <trkpt lat="41.91298333" lon="12.47531667">
        <ele>0</ele>
        <time>1970-01-01T01:00:00Z</time>
      </trkpt>
      <trkpt lat="41.913005" lon="12.47531333">
        <ele>0</ele>
        <time>1970-01-01T01:00:00Z</time>
      </trkpt>
      <trkpt lat="41.91302667" lon="12.47531333">
        <ele>0</ele>
        <time>1970-01-01T01:00:00Z</time>
      </trkpt>
      <trkpt lat="41.91304667" lon="12.47531">
        <ele>0</ele>
        <time>1970-01-01T01:00:00Z</time>
      </trkpt>
      <trkpt lat="41.91306833" lon="12.47530667">
        <ele>0</ele>
        <time>1970-01-01T01:00:00Z</time>
      </trkpt>
      <trkpt lat="41.91308833" lon="12.4753">
        <ele>0</ele>
        <time>1970-01-01T01:00:00Z</time>
      </trkpt>
      <trkpt lat="41.91311167" lon="12.475295">
        <ele>0</ele>
        <time>1970-01-01T01:00:00Z</time>
      </trkpt>
      <trkpt lat="41.91313167" lon="12.47528833">
        <ele>0</ele>
        <time>1970-01-01T01:00:00Z</time>
      </trkpt>
      <trkpt lat="41.91315333" lon="12.475285">
        <ele>0</ele>
        <time>1970-01-01T01:00:00Z</time>
      </trkpt>
      <trkpt lat="41.913175" lon="12.47528">
        <ele>0</ele>
        <time>1970-01-01T01:00:00Z</time>
      </trkpt>
      <trkpt lat="41.91319833" lon="12.475275">
        <ele>0</ele>
        <time>1970-01-01T01:00:00Z</time>
      </trkpt>
      <trkpt lat="41.91321833" lon="12.47526833">
        <ele>0</ele>
        <time>1970-01-01T01:00:00Z</time>
      </trkpt>
      <trkpt lat="41.91324" lon="12.47526667">
        <ele>0</ele>
        <time>1970-01-01T01:00:00Z</time>
      </trkpt>
      <trkpt lat="41.913265" lon="12.47526333">
        <ele>0</ele>
        <time>1970-01-01T01:00:00Z</time>
      </trkpt>
      <trkpt lat="41.91328833" lon="12.47525833">
        <ele>0</ele>
        <time>1970-01-01T01:00:00Z</time>
      </trkpt>
      <trkpt lat="41.91330833" lon="12.47525333">
        <ele>0</ele>
        <time>1970-01-01T01:00:00Z</time>
      </trkpt>
      <trkpt lat="41.91333" lon="12.47524833">
        <ele>0</ele>
        <time>1970-01-01T01:00:00Z</time>
      </trkpt>
      <trkpt lat="41.91335167" lon="12.47524">
        <ele>0</ele>
        <time>1970-01-01T01:00:00Z</time>
      </trkpt>
      <trkpt lat="41.91337167" lon="12.47522667">
        <ele>0</ele>
        <time>1970-01-01T01:00:00Z</time>
      </trkpt>
      <trkpt lat="41.91339167" lon="12.47521667">
        <ele>0</ele>
        <time>1970-01-01T01:00:00Z</time>
      </trkpt>
      <trkpt lat="41.91341167" lon="12.47520333">
        <ele>0</ele>
        <time>1970-01-01T01:00:00Z</time>
      </trkpt>
      <trkpt lat="41.91343" lon="12.47519167">
        <ele>0</ele>
        <time>1970-01-01T01:00:00Z</time>
      </trkpt>
      <trkpt lat="41.91344667" lon="12.47517667">
        <ele>0</ele>
        <time>1970-01-01T01:00:00Z</time>
      </trkpt>
      <trkpt lat="41.91346667" lon="12.47516333">
        <ele>0</ele>
        <time>1970-01-01T01:00:00Z</time>
      </trkpt>
      <trkpt lat="41.91348667" lon="12.47515">
        <ele>0</ele>
        <time>1970-01-01T01:00:00Z</time>
      </trkpt>
      <trkpt lat="41.91351" lon="12.475135">
        <ele>0</ele>
        <time>1970-01-01T01:00:00Z</time>
      </trkpt>
      <trkpt lat="41.91353167" lon="12.47512167">
        <ele>0</ele>
        <time>1970-01-01T01:00:00Z</time>
      </trkpt>
      <trkpt lat="41.91355333" lon="12.47511">
        <ele>0</ele>
        <time>1970-01-01T01:00:00Z</time>
      </trkpt>
      <trkpt lat="41.913575" lon="12.47509833">
        <ele>0</ele>
        <time>1970-01-01T01:00:00Z</time>
      </trkpt>
      <trkpt lat="41.913595" lon="12.47508667">
        <ele>0</ele>
        <time>1970-01-01T01:00:00Z</time>
      </trkpt>
      <trkpt lat="41.91361333" lon="12.47507667">
        <ele>0</ele>
        <time>1970-01-01T01:00:00Z</time>
      </trkpt>
      <trkpt lat="41.91363167" lon="12.47507">
        <ele>0</ele>
        <time>1970-01-01T01:00:00Z</time>
      </trkpt>
      <trkpt lat="41.91365167" lon="12.47506667">
        <ele>0</ele>
        <time>1970-01-01T01:00:00Z</time>
      </trkpt>
      <trkpt lat="41.91367333" lon="12.47506667">
        <ele>0</ele>
        <time>1970-01-01T01:00:00Z</time>
      </trkpt>
      <trkpt lat="41.91369833" lon="12.475065">
        <ele>0</ele>
        <time>1970-01-01T01:00:00Z</time>
      </trkpt>
      <trkpt lat="41.91372" lon="12.47505833">
        <ele>0</ele>
        <time>1970-01-01T01:00:00Z</time>
      </trkpt>
      <trkpt lat="41.91374167" lon="12.47505167">
        <ele>0</ele>
        <time>1970-01-01T01:00:00Z</time>
      </trkpt>
      <trkpt lat="41.913765" lon="12.47504833">
        <ele>0</ele>
        <time>1970-01-01T01:00:00Z</time>
      </trkpt>
      <trkpt lat="41.91378667" lon="12.475045">
        <ele>0</ele>
        <time>1970-01-01T01:00:00Z</time>
      </trkpt>
      <trkpt lat="41.91381" lon="12.47503333">
        <ele>0</ele>
        <time>1970-01-01T01:00:00Z</time>
      </trkpt>
      <trkpt lat="41.91383333" lon="12.47502167">
        <ele>0</ele>
        <time>1970-01-01T01:00:00Z</time>
      </trkpt>
      <trkpt lat="41.91385667" lon="12.47501167">
        <ele>0</ele>
        <time>1970-01-01T01:00:00Z</time>
      </trkpt>
      <trkpt lat="41.91388167" lon="12.47500333">
        <ele>0</ele>
        <time>1970-01-01T01:00:00Z</time>
      </trkpt>
      <trkpt lat="41.91390667" lon="12.474995">
        <ele>0</ele>
        <time>1970-01-01T01:00:00Z</time>
      </trkpt>
      <trkpt lat="41.91393" lon="12.47499">
        <ele>0</ele>
        <time>1970-01-01T01:00:00Z</time>
      </trkpt>
      <trkpt lat="41.91395167" lon="12.47498667">
        <ele>0</ele>
        <time>1970-01-01T01:00:00Z</time>
      </trkpt>
      <trkpt lat="41.91397333" lon="12.47498333">
        <ele>0</ele>
        <time>1970-01-01T01:00:00Z</time>
      </trkpt>
      <trkpt lat="41.913995" lon="12.47498">
        <ele>0</ele>
        <time>1970-01-01T01:00:00Z</time>
      </trkpt>
      <trkpt lat="41.914015" lon="12.47497667">
        <ele>0</ele>
        <time>1970-01-01T01:00:00Z</time>
      </trkpt>
      <trkpt lat="41.91403667" lon="12.47497333">
        <ele>0</ele>
        <time>1970-01-01T01:00:00Z</time>
      </trkpt>
      <trkpt lat="41.91405833" lon="12.47496833">
        <ele>0</ele>
        <time>1970-01-01T01:00:00Z</time>
      </trkpt>
      <trkpt lat="41.91408" lon="12.47496">
        <ele>0</ele>
        <time>1970-01-01T01:00:00Z</time>
      </trkpt>
      <trkpt lat="41.91410167" lon="12.47495167">
        <ele>0</ele>
        <time>1970-01-01T01:00:00Z</time>
      </trkpt>
      <trkpt lat="41.914125" lon="12.47494167">
        <ele>0</ele>
        <time>1970-01-01T01:00:00Z</time>
      </trkpt>
      <trkpt lat="41.91414667" lon="12.47493167">
        <ele>0</ele>
        <time>1970-01-01T01:00:00Z</time>
      </trkpt>
      <trkpt lat="41.91416833" lon="12.47492167">
        <ele>0</ele>
        <time>1970-01-01T01:00:00Z</time>
      </trkpt>
      <trkpt lat="41.91418667" lon="12.47491">
        <ele>0</ele>
        <time>1970-01-01T01:00:00Z</time>
      </trkpt>
      <trkpt lat="41.91420667" lon="12.47489833">
        <ele>0</ele>
        <time>1970-01-01T01:00:00Z</time>
      </trkpt>
      <trkpt lat="41.91422333" lon="12.47488667">
        <ele>0</ele>
        <time>1970-01-01T01:00:00Z</time>
      </trkpt>
      <trkpt lat="41.91424167" lon="12.47487333">
        <ele>0</ele>
        <time>1970-01-01T01:00:00Z</time>
      </trkpt>
      <trkpt lat="41.91426" lon="12.47486">
        <ele>0</ele>
        <time>1970-01-01T01:00:00Z</time>
      </trkpt>
      <trkpt lat="41.91427667" lon="12.474845">
        <ele>0</ele>
        <time>1970-01-01T01:00:00Z</time>
      </trkpt>
      <trkpt lat="41.914295" lon="12.47483167">
        <ele>0</ele>
        <time>1970-01-01T01:00:00Z</time>
      </trkpt>
      <trkpt lat="41.91431167" lon="12.47481667">
        <ele>0</ele>
        <time>1970-01-01T01:00:00Z</time>
      </trkpt>
      <trkpt lat="41.91433167" lon="12.47479833">
        <ele>0</ele>
        <time>1970-01-01T01:00:00Z</time>
      </trkpt>
      <trkpt lat="41.91435" lon="12.474785">
        <ele>0</ele>
        <time>1970-01-01T01:00:00Z</time>
      </trkpt>
      <trkpt lat="41.91436833" lon="12.47477167">
        <ele>0</ele>
        <time>1970-01-01T01:00:00Z</time>
      </trkpt>
      <trkpt lat="41.91438667" lon="12.47475833">
        <ele>0</ele>
        <time>1970-01-01T01:00:00Z</time>
      </trkpt>
      <trkpt lat="41.91440667" lon="12.47474667">
        <ele>0</ele>
        <time>1970-01-01T01:00:00Z</time>
      </trkpt>
      <trkpt lat="41.91442667" lon="12.47473667">
        <ele>0</ele>
        <time>1970-01-01T01:00:00Z</time>
      </trkpt>
      <trkpt lat="41.914445" lon="12.47472833">
        <ele>0</ele>
        <time>1970-01-01T01:00:00Z</time>
      </trkpt>
      <trkpt lat="41.91446167" lon="12.47472">
        <ele>0</ele>
        <time>1970-01-01T01:00:00Z</time>
      </trkpt>
      <trkpt lat="41.91447833" lon="12.474715">
        <ele>0</ele>
        <time>1970-01-01T01:00:00Z</time>
      </trkpt>
      <trkpt lat="41.91449833" lon="12.47471">
        <ele>0</ele>
        <time>1970-01-01T01:00:00Z</time>
      </trkpt>
      <trkpt lat="41.91451833" lon="12.47470333">
        <ele>0</ele>
        <time>1970-01-01T01:00:00Z</time>
      </trkpt>
      <trkpt lat="41.91453833" lon="12.474695">
        <ele>0</ele>
        <time>1970-01-01T01:00:00Z</time>
      </trkpt>
      <trkpt lat="41.91455833" lon="12.474685">
        <ele>0</ele>
        <time>1970-01-01T01:00:00Z</time>
      </trkpt>
      <trkpt lat="41.91457667" lon="12.474675">
        <ele>0</ele>
        <time>1970-01-01T01:00:00Z</time>
      </trkpt>
      <trkpt lat="41.91459333" lon="12.474665">
        <ele>0</ele>
        <time>1970-01-01T01:00:00Z</time>
      </trkpt>
      <trkpt lat="41.91461" lon="12.474655">
        <ele>0</ele>
        <time>1970-01-01T01:00:00Z</time>
      </trkpt>
      <trkpt lat="41.91463" lon="12.474645">
        <ele>0</ele>
        <time>1970-01-01T01:00:00Z</time>
      </trkpt>
      <trkpt lat="41.91465" lon="12.47463667">
        <ele>0</ele>
        <time>1970-01-01T01:00:00Z</time>
      </trkpt>
      <trkpt lat="41.91467167" lon="12.474625">
        <ele>0</ele>
        <time>1970-01-01T01:00:00Z</time>
      </trkpt>
      <trkpt lat="41.91469167" lon="12.47461333">
        <ele>0</ele>
        <time>1970-01-01T01:00:00Z</time>
      </trkpt>
      <trkpt lat="41.91471333" lon="12.47460333">
        <ele>0</ele>
        <time>1970-01-01T01:00:00Z</time>
      </trkpt>
      <trkpt lat="41.91473167" lon="12.47459333">
        <ele>0</ele>
        <time>1970-01-01T01:00:00Z</time>
      </trkpt>
      <trkpt lat="41.914755" lon="12.47458167">
        <ele>0</ele>
        <time>1970-01-01T01:00:00Z</time>
      </trkpt>
      <trkpt lat="41.91477667" lon="12.47457">
        <ele>0</ele>
        <time>1970-01-01T01:00:00Z</time>
      </trkpt>
      <trkpt lat="41.9148" lon="12.47456167">
        <ele>0</ele>
        <time>1970-01-01T01:00:00Z</time>
      </trkpt>
      <trkpt lat="41.91482333" lon="12.47456">
        <ele>0</ele>
        <time>1970-01-01T01:00:00Z</time>
      </trkpt>
      <trkpt lat="41.914845" lon="12.47456">
        <ele>0</ele>
        <time>1970-01-01T01:00:00Z</time>
      </trkpt>
      <trkpt lat="41.91486667" lon="12.47455833">
        <ele>0</ele>
        <time>1970-01-01T01:00:00Z</time>
      </trkpt>
      <trkpt lat="41.91488667" lon="12.47455667">
        <ele>0</ele>
        <time>1970-01-01T01:00:00Z</time>
      </trkpt>
      <trkpt lat="41.91491" lon="12.47455333">
        <ele>0</ele>
        <time>1970-01-01T01:00:00Z</time>
      </trkpt>
      <trkpt lat="41.91492833" lon="12.47454667">
        <ele>0</ele>
        <time>1970-01-01T01:00:00Z</time>
      </trkpt>
      <trkpt lat="41.91495" lon="12.47453833">
        <ele>0</ele>
        <time>1970-01-01T01:00:00Z</time>
      </trkpt>
      <trkpt lat="41.91497" lon="12.47453">
        <ele>0</ele>
        <time>1970-01-01T01:00:00Z</time>
      </trkpt>
      <trkpt lat="41.91499" lon="12.47452167">
        <ele>0</ele>
        <time>1970-01-01T01:00:00Z</time>
      </trkpt>
      <trkpt lat="41.91500833" lon="12.47451667">
        <ele>0</ele>
        <time>1970-01-01T01:00:00Z</time>
      </trkpt>
      <trkpt lat="41.915025" lon="12.47451">
        <ele>0</ele>
        <time>1970-01-01T01:00:00Z</time>
      </trkpt>
      <trkpt lat="41.91504167" lon="12.47450333">
        <ele>0</ele>
        <time>1970-01-01T01:00:00Z</time>
      </trkpt>
      <trkpt lat="41.91505833" lon="12.47449333">
        <ele>0</ele>
        <time>1970-01-01T01:00:00Z</time>
      </trkpt>
      <trkpt lat="41.91507667" lon="12.47447833">
        <ele>0</ele>
        <time>1970-01-01T01:00:00Z</time>
      </trkpt>
      <trkpt lat="41.915095" lon="12.47446167">
        <ele>0</ele>
        <time>1970-01-01T01:00:00Z</time>
      </trkpt>
      <trkpt lat="41.915115" lon="12.47445">
        <ele>0</ele>
        <time>1970-01-01T01:00:00Z</time>
      </trkpt>
      <trkpt lat="41.91513333" lon="12.47444167">
        <ele>0</ele>
        <time>1970-01-01T01:00:00Z</time>
      </trkpt>
      <trkpt lat="41.915155" lon="12.47444">
        <ele>0</ele>
        <time>1970-01-01T01:00:00Z</time>
      </trkpt>
      <trkpt lat="41.91517667" lon="12.47443833">
        <ele>0</ele>
        <time>1970-01-01T01:00:00Z</time>
      </trkpt>
      <trkpt lat="41.91519833" lon="12.47443333">
        <ele>0</ele>
        <time>1970-01-01T01:00:00Z</time>
      </trkpt>
      <trkpt lat="41.91522167" lon="12.47442667">
        <ele>0</ele>
        <time>1970-01-01T01:00:00Z</time>
      </trkpt>
      <trkpt lat="41.91524167" lon="12.47442">
        <ele>0</ele>
        <time>1970-01-01T01:00:00Z</time>
      </trkpt>
      <trkpt lat="41.91526333" lon="12.47442">
        <ele>0</ele>
        <time>1970-01-01T01:00:00Z</time>
      </trkpt>
      <trkpt lat="41.915285" lon="12.47441833">
        <ele>0</ele>
        <time>1970-01-01T01:00:00Z</time>
      </trkpt>
      <trkpt lat="41.915305" lon="12.474415">
        <ele>0</ele>
        <time>1970-01-01T01:00:00Z</time>
      </trkpt>
      <trkpt lat="41.91532667" lon="12.47441">
        <ele>0</ele>
        <time>1970-01-01T01:00:00Z</time>
      </trkpt>
      <trkpt lat="41.91535" lon="12.474405">
        <ele>0</ele>
        <time>1970-01-01T01:00:00Z</time>
      </trkpt>
      <trkpt lat="41.915375" lon="12.4744">
        <ele>0</ele>
        <time>1970-01-01T01:00:00Z</time>
      </trkpt>
      <trkpt lat="41.91540167" lon="12.47439167">
        <ele>0</ele>
        <time>1970-01-01T01:00:00Z</time>
      </trkpt>
      <trkpt lat="41.91542833" lon="12.47438333">
        <ele>0</ele>
        <time>1970-01-01T01:00:00Z</time>
      </trkpt>
      <trkpt lat="41.91545333" lon="12.47437333">
        <ele>0</ele>
        <time>1970-01-01T01:00:00Z</time>
      </trkpt>
      <trkpt lat="41.91547667" lon="12.47436167">
        <ele>0</ele>
        <time>1970-01-01T01:00:00Z</time>
      </trkpt>
      <trkpt lat="41.91549833" lon="12.47435167">
        <ele>0</ele>
        <time>1970-01-01T01:00:00Z</time>
      </trkpt>
      <trkpt lat="41.91552" lon="12.47433833">
        <ele>0</ele>
        <time>1970-01-01T01:00:00Z</time>
      </trkpt>
      <trkpt lat="41.91554167" lon="12.474325">
        <ele>0</ele>
        <time>1970-01-01T01:00:00Z</time>
      </trkpt>
      <trkpt lat="41.915565" lon="12.47431167">
        <ele>0</ele>
        <time>1970-01-01T01:00:00Z</time>
      </trkpt>
      <trkpt lat="41.91558667" lon="12.4743">
        <ele>0</ele>
        <time>1970-01-01T01:00:00Z</time>
      </trkpt>
      <trkpt lat="41.91561" lon="12.47429167">
        <ele>0</ele>
        <time>1970-01-01T01:00:00Z</time>
      </trkpt>
      <trkpt lat="41.91563167" lon="12.47428333">
        <ele>0</ele>
        <time>1970-01-01T01:00:00Z</time>
      </trkpt>
      <trkpt lat="41.915655" lon="12.474275">
        <ele>0</ele>
        <time>1970-01-01T01:00:00Z</time>
      </trkpt>
      <trkpt lat="41.91567833" lon="12.47426667">
        <ele>0</ele>
        <time>1970-01-01T01:00:00Z</time>
      </trkpt>
      <trkpt lat="41.91570333" lon="12.47425833">
        <ele>0</ele>
        <time>1970-01-01T01:00:00Z</time>
      </trkpt>
      <trkpt lat="41.91572667" lon="12.47424833">
        <ele>0</ele>
        <time>1970-01-01T01:00:00Z</time>
      </trkpt>
      <trkpt lat="41.91574833" lon="12.47424">
        <ele>0</ele>
        <time>1970-01-01T01:00:00Z</time>
      </trkpt>
      <trkpt lat="41.91577" lon="12.47423167">
        <ele>0</ele>
        <time>1970-01-01T01:00:00Z</time>
      </trkpt>
      <trkpt lat="41.915795" lon="12.474225">
        <ele>0</ele>
        <time>1970-01-01T01:00:00Z</time>
      </trkpt>
      <trkpt lat="41.91581833" lon="12.47421833">
        <ele>0</ele>
        <time>1970-01-01T01:00:00Z</time>
      </trkpt>
      <trkpt lat="41.91583833" lon="12.47421">
        <ele>0</ele>
        <time>1970-01-01T01:00:00Z</time>
      </trkpt>
      <trkpt lat="41.91586167" lon="12.4742">
        <ele>0</ele>
        <time>1970-01-01T01:00:00Z</time>
      </trkpt>
      <trkpt lat="41.91588333" lon="12.47419">
        <ele>0</ele>
        <time>1970-01-01T01:00:00Z</time>
      </trkpt>
      <trkpt lat="41.915905" lon="12.47417833">
        <ele>0</ele>
        <time>1970-01-01T01:00:00Z</time>
      </trkpt>
      <trkpt lat="41.91592667" lon="12.47416667">
        <ele>0</ele>
        <time>1970-01-01T01:00:00Z</time>
      </trkpt>
      <trkpt lat="41.91595" lon="12.47415833">
        <ele>0</ele>
        <time>1970-01-01T01:00:00Z</time>
      </trkpt>
      <trkpt lat="41.91596833" lon="12.47415167">
        <ele>0</ele>
        <time>1970-01-01T01:00:00Z</time>
      </trkpt>
      <trkpt lat="41.91598833" lon="12.474145">
        <ele>0</ele>
        <time>1970-01-01T01:00:00Z</time>
      </trkpt>
      <trkpt lat="41.91600833" lon="12.474135">
        <ele>0</ele>
        <time>1970-01-01T01:00:00Z</time>
      </trkpt>
      <trkpt lat="41.91602833" lon="12.474125">
        <ele>0</ele>
        <time>1970-01-01T01:00:00Z</time>
      </trkpt>
      <trkpt lat="41.91604833" lon="12.47411167">
        <ele>0</ele>
        <time>1970-01-01T01:00:00Z</time>
      </trkpt>
      <trkpt lat="41.91606833" lon="12.47409833">
        <ele>0</ele>
        <time>1970-01-01T01:00:00Z</time>
      </trkpt>
      <trkpt lat="41.91609" lon="12.47408667">
        <ele>0</ele>
        <time>1970-01-01T01:00:00Z</time>
      </trkpt>
      <trkpt lat="41.91611167" lon="12.47407833">
        <ele>0</ele>
        <time>1970-01-01T01:00:00Z</time>
      </trkpt>
      <trkpt lat="41.91613333" lon="12.47407167">
        <ele>0</ele>
        <time>1970-01-01T01:00:00Z</time>
      </trkpt>
      <trkpt lat="41.91615167" lon="12.47406333">
        <ele>0</ele>
        <time>1970-01-01T01:00:00Z</time>
      </trkpt>
      <trkpt lat="41.91617333" lon="12.47405333">
        <ele>0</ele>
        <time>1970-01-01T01:00:00Z</time>
      </trkpt>
      <trkpt lat="41.91619333" lon="12.47404333">
        <ele>0</ele>
        <time>1970-01-01T01:00:00Z</time>
      </trkpt>
      <trkpt lat="41.91621167" lon="12.47403333">
        <ele>0</ele>
        <time>1970-01-01T01:00:00Z</time>
      </trkpt>
      <trkpt lat="41.91623167" lon="12.474025">
        <ele>0</ele>
        <time>1970-01-01T01:00:00Z</time>
      </trkpt>
      <trkpt lat="41.91625167" lon="12.47401833">
        <ele>0</ele>
        <time>1970-01-01T01:00:00Z</time>
      </trkpt>
      <trkpt lat="41.91627333" lon="12.47401333">
        <ele>0</ele>
        <time>1970-01-01T01:00:00Z</time>
      </trkpt>
      <trkpt lat="41.91629333" lon="12.474005">
        <ele>0</ele>
        <time>1970-01-01T01:00:00Z</time>
      </trkpt>
      <trkpt lat="41.916315" lon="12.474">
        <ele>0</ele>
        <time>1970-01-01T01:00:00Z</time>
      </trkpt>
      <trkpt lat="41.916335" lon="12.47399667">
        <ele>0</ele>
        <time>1970-01-01T01:00:00Z</time>
      </trkpt>
      <trkpt lat="41.91635833" lon="12.47399333">
        <ele>0</ele>
        <time>1970-01-01T01:00:00Z</time>
      </trkpt>
      <trkpt lat="41.91637833" lon="12.47399">
        <ele>0</ele>
        <time>1970-01-01T01:00:00Z</time>
      </trkpt>
      <trkpt lat="41.9164" lon="12.473985">
        <ele>0</ele>
        <time>1970-01-01T01:00:00Z</time>
      </trkpt>
      <trkpt lat="41.91642" lon="12.47398167">
        <ele>0</ele>
        <time>1970-01-01T01:00:00Z</time>
      </trkpt>
      <trkpt lat="41.91644" lon="12.47398167">
        <ele>0</ele>
        <time>1970-01-01T01:00:00Z</time>
      </trkpt>
      <trkpt lat="41.91646167" lon="12.47397833">
        <ele>0</ele>
        <time>1970-01-01T01:00:00Z</time>
      </trkpt>
      <trkpt lat="41.91648167" lon="12.47397333">
        <ele>0</ele>
        <time>1970-01-01T01:00:00Z</time>
      </trkpt>
      <trkpt lat="41.91650333" lon="12.473965">
        <ele>0</ele>
        <time>1970-01-01T01:00:00Z</time>
      </trkpt>
      <trkpt lat="41.916525" lon="12.473955">
        <ele>0</ele>
        <time>1970-01-01T01:00:00Z</time>
      </trkpt>
      <trkpt lat="41.91654667" lon="12.47394333">
        <ele>0</ele>
        <time>1970-01-01T01:00:00Z</time>
      </trkpt>
      <trkpt lat="41.916565" lon="12.473935">
        <ele>0</ele>
        <time>1970-01-01T01:00:00Z</time>
      </trkpt>
      <trkpt lat="41.91658667" lon="12.473925">
        <ele>0</ele>
        <time>1970-01-01T01:00:00Z</time>
      </trkpt>
      <trkpt lat="41.91660833" lon="12.473915">
        <ele>0</ele>
        <time>1970-01-01T01:00:00Z</time>
      </trkpt>
      <trkpt lat="41.91662667" lon="12.47390333">
        <ele>0</ele>
        <time>1970-01-01T01:00:00Z</time>
      </trkpt>
      <trkpt lat="41.91665" lon="12.47389167">
        <ele>0</ele>
        <time>1970-01-01T01:00:00Z</time>
      </trkpt>
      <trkpt lat="41.91667" lon="12.47387833">
        <ele>0</ele>
        <time>1970-01-01T01:00:00Z</time>
      </trkpt>
      <trkpt lat="41.91668667" lon="12.47386667">
        <ele>0</ele>
        <time>1970-01-01T01:00:00Z</time>
      </trkpt>
      <trkpt lat="41.9167" lon="12.47385333">
        <ele>0</ele>
        <time>1970-01-01T01:00:00Z</time>
      </trkpt>
      <trkpt lat="41.91671" lon="12.47384167">
        <ele>0</ele>
        <time>1970-01-01T01:00:00Z</time>
      </trkpt>
      <trkpt lat="41.91671167" lon="12.47382667">
        <ele>0</ele>
        <time>1970-01-01T01:00:00Z</time>
      </trkpt>
      <trkpt lat="41.91670833" lon="12.47380833">
        <ele>0</ele>
        <time>1970-01-01T01:00:00Z</time>
      </trkpt>
      <trkpt lat="41.91670667" lon="12.47378833">
        <ele>0</ele>
        <time>1970-01-01T01:00:00Z</time>
      </trkpt>
      <trkpt lat="41.916705" lon="12.47376833">
        <ele>0</ele>
        <time>1970-01-01T01:00:00Z</time>
      </trkpt>
      <trkpt lat="41.916705" lon="12.47375">
        <ele>0</ele>
        <time>1970-01-01T01:00:00Z</time>
      </trkpt>
      <trkpt lat="41.91670833" lon="12.47373167">
        <ele>0</ele>
        <time>1970-01-01T01:00:00Z</time>
      </trkpt>
      <trkpt lat="41.91671333" lon="12.47371667">
        <ele>0</ele>
        <time>1970-01-01T01:00:00Z</time>
      </trkpt>
      <trkpt lat="41.91672" lon="12.47370167">
        <ele>0</ele>
        <time>1970-01-01T01:00:00Z</time>
      </trkpt>
      <trkpt lat="41.91672833" lon="12.473685">
        <ele>0</ele>
        <time>1970-01-01T01:00:00Z</time>
      </trkpt>
      <trkpt lat="41.91674" lon="12.47367167">
        <ele>0</ele>
        <time>1970-01-01T01:00:00Z</time>
      </trkpt>
      <trkpt lat="41.916755" lon="12.47366167">
        <ele>0</ele>
        <time>1970-01-01T01:00:00Z</time>
      </trkpt>
      <trkpt lat="41.91677167" lon="12.473655">
        <ele>0</ele>
        <time>1970-01-01T01:00:00Z</time>
      </trkpt>
      <trkpt lat="41.916785" lon="12.47365">
        <ele>0</ele>
        <time>1970-01-01T01:00:00Z</time>
      </trkpt>
      <trkpt lat="41.91680667" lon="12.473645">
        <ele>0</ele>
        <time>1970-01-01T01:00:00Z</time>
      </trkpt>
      <trkpt lat="41.91683" lon="12.47364">
        <ele>0</ele>
        <time>1970-01-01T01:00:00Z</time>
      </trkpt>
      <trkpt lat="41.91685" lon="12.473635">
        <ele>0</ele>
        <time>1970-01-01T01:00:00Z</time>
      </trkpt>
      <trkpt lat="41.91687333" lon="12.47363167">
        <ele>0</ele>
        <time>1970-01-01T01:00:00Z</time>
      </trkpt>
      <trkpt lat="41.91689667" lon="12.47363167">
        <ele>0</ele>
        <time>1970-01-01T01:00:00Z</time>
      </trkpt>
      <trkpt lat="41.91692" lon="12.47363667">
        <ele>0</ele>
        <time>1970-01-01T01:00:00Z</time>
      </trkpt>
      <trkpt lat="41.91694167" lon="12.47364167">
        <ele>0</ele>
        <time>1970-01-01T01:00:00Z</time>
      </trkpt>
      <trkpt lat="41.91696" lon="12.47364333">
        <ele>0</ele>
        <time>1970-01-01T01:00:00Z</time>
      </trkpt>
      <trkpt lat="41.91698" lon="12.47364167">
        <ele>0</ele>
        <time>1970-01-01T01:00:00Z</time>
      </trkpt>
      <trkpt lat="41.91699833" lon="12.47364">
        <ele>0</ele>
        <time>1970-01-01T01:00:00Z</time>
      </trkpt>
      <trkpt lat="41.91702" lon="12.47364">
        <ele>0</ele>
        <time>1970-01-01T01:00:00Z</time>
      </trkpt>
      <trkpt lat="41.91704" lon="12.47363833">
        <ele>0</ele>
        <time>1970-01-01T01:00:00Z</time>
      </trkpt>
      <trkpt lat="41.91706167" lon="12.47363333">
        <ele>0</ele>
        <time>1970-01-01T01:00:00Z</time>
      </trkpt>
      <trkpt lat="41.91708167" lon="12.47363">
        <ele>0</ele>
        <time>1970-01-01T01:00:00Z</time>
      </trkpt>
      <trkpt lat="41.917105" lon="12.47362833">
        <ele>0</ele>
        <time>1970-01-01T01:00:00Z</time>
      </trkpt>
      <trkpt lat="41.917125" lon="12.473625">
        <ele>0</ele>
        <time>1970-01-01T01:00:00Z</time>
      </trkpt>
      <trkpt lat="41.91714667" lon="12.47362">
        <ele>0</ele>
        <time>1970-01-01T01:00:00Z</time>
      </trkpt>
      <trkpt lat="41.91716667" lon="12.47361667">
        <ele>0</ele>
        <time>1970-01-01T01:00:00Z</time>
      </trkpt>
      <trkpt lat="41.91718833" lon="12.47361">
        <ele>0</ele>
        <time>1970-01-01T01:00:00Z</time>
      </trkpt>
      <trkpt lat="41.91721" lon="12.47360333">
        <ele>0</ele>
        <time>1970-01-01T01:00:00Z</time>
      </trkpt>
      <trkpt lat="41.91723333" lon="12.47358833">
        <ele>0</ele>
        <time>1970-01-01T01:00:00Z</time>
      </trkpt>
      <trkpt lat="41.917255" lon="12.47357333">
        <ele>0</ele>
        <time>1970-01-01T01:00:00Z</time>
      </trkpt>
      <trkpt lat="41.91728" lon="12.47355667">
        <ele>0</ele>
        <time>1970-01-01T01:00:00Z</time>
      </trkpt>
      <trkpt lat="41.917305" lon="12.47354667">
        <ele>0</ele>
        <time>1970-01-01T01:00:00Z</time>
      </trkpt>
      <trkpt lat="41.91732833" lon="12.47354167">
        <ele>0</ele>
        <time>1970-01-01T01:00:00Z</time>
      </trkpt>
      <trkpt lat="41.91734833" lon="12.47353667">
        <ele>0</ele>
        <time>1970-01-01T01:00:00Z</time>
      </trkpt>
      <trkpt lat="41.91737167" lon="12.473535">
        <ele>0</ele>
        <time>1970-01-01T01:00:00Z</time>
      </trkpt>
      <trkpt lat="41.91738833" lon="12.47353">
        <ele>0</ele>
        <time>1970-01-01T01:00:00Z</time>
      </trkpt>
      <trkpt lat="41.91741" lon="12.473525">
        <ele>0</ele>
        <time>1970-01-01T01:00:00Z</time>
      </trkpt>
      <trkpt lat="41.91742833" lon="12.47351833">
        <ele>0</ele>
        <time>1970-01-01T01:00:00Z</time>
      </trkpt>
      <trkpt lat="41.91745" lon="12.47351167">
        <ele>0</ele>
        <time>1970-01-01T01:00:00Z</time>
      </trkpt>
      <trkpt lat="41.91747" lon="12.47350667">
        <ele>0</ele>
        <time>1970-01-01T01:00:00Z</time>
      </trkpt>
      <trkpt lat="41.91749" lon="12.47349833">
        <ele>0</ele>
        <time>1970-01-01T01:00:00Z</time>
      </trkpt>
      <trkpt lat="41.91751" lon="12.473495">
        <ele>0</ele>
        <time>1970-01-01T01:00:00Z</time>
      </trkpt>
      <trkpt lat="41.91753167" lon="12.47348833">
        <ele>0</ele>
        <time>1970-01-01T01:00:00Z</time>
      </trkpt>
      <trkpt lat="41.917555" lon="12.47348">
        <ele>0</ele>
        <time>1970-01-01T01:00:00Z</time>
      </trkpt>
      <trkpt lat="41.91757833" lon="12.47347333">
        <ele>0</ele>
        <time>1970-01-01T01:00:00Z</time>
      </trkpt>
      <trkpt lat="41.91760333" lon="12.47346333">
        <ele>0</ele>
        <time>1970-01-01T01:00:00Z</time>
      </trkpt>
      <trkpt lat="41.91762833" lon="12.47345167">
        <ele>0</ele>
        <time>1970-01-01T01:00:00Z</time>
      </trkpt>
      <trkpt lat="41.91765333" lon="12.47344167">
        <ele>0</ele>
        <time>1970-01-01T01:00:00Z</time>
      </trkpt>
      <trkpt lat="41.91767833" lon="12.47343333">
        <ele>0</ele>
        <time>1970-01-01T01:00:00Z</time>
      </trkpt>
      <trkpt lat="41.91770167" lon="12.473425">
        <ele>0</ele>
        <time>1970-01-01T01:00:00Z</time>
      </trkpt>
      <trkpt lat="41.91772667" lon="12.47341833">
        <ele>0</ele>
        <time>1970-01-01T01:00:00Z</time>
      </trkpt>
      <trkpt lat="41.91774833" lon="12.47341333">
        <ele>0</ele>
        <time>1970-01-01T01:00:00Z</time>
      </trkpt>
      <trkpt lat="41.91777333" lon="12.47340833">
        <ele>0</ele>
        <time>1970-01-01T01:00:00Z</time>
      </trkpt>
      <trkpt lat="41.917795" lon="12.4734">
        <ele>0</ele>
        <time>1970-01-01T01:00:00Z</time>
      </trkpt>
      <trkpt lat="41.917815" lon="12.47339333">
        <ele>0</ele>
        <time>1970-01-01T01:00:00Z</time>
      </trkpt>
      <trkpt lat="41.91783333" lon="12.47338833">
        <ele>0</ele>
        <time>1970-01-01T01:00:00Z</time>
      </trkpt>
      <trkpt lat="41.91785167" lon="12.47338333">
        <ele>0</ele>
        <time>1970-01-01T01:00:00Z</time>
      </trkpt>
      <trkpt lat="41.91787" lon="12.47337833">
        <ele>0</ele>
        <time>1970-01-01T01:00:00Z</time>
      </trkpt>
      <trkpt lat="41.91788833" lon="12.473375">
        <ele>0</ele>
        <time>1970-01-01T01:00:00Z</time>
      </trkpt>
      <trkpt lat="41.91790833" lon="12.47336833">
        <ele>0</ele>
        <time>1970-01-01T01:00:00Z</time>
      </trkpt>
      <trkpt lat="41.91792833" lon="12.47336167">
        <ele>0</ele>
        <time>1970-01-01T01:00:00Z</time>
      </trkpt>
      <trkpt lat="41.91794833" lon="12.47335333">
        <ele>0</ele>
        <time>1970-01-01T01:00:00Z</time>
      </trkpt>
      <trkpt lat="41.91796833" lon="12.473345">
        <ele>0</ele>
        <time>1970-01-01T01:00:00Z</time>
      </trkpt>
      <trkpt lat="41.91799167" lon="12.47333667">
        <ele>0</ele>
        <time>1970-01-01T01:00:00Z</time>
      </trkpt>
      <trkpt lat="41.918015" lon="12.47332333">
        <ele>0</ele>
        <time>1970-01-01T01:00:00Z</time>
      </trkpt>
      <trkpt lat="41.91803833" lon="12.47330833">
        <ele>0</ele>
        <time>1970-01-01T01:00:00Z</time>
      </trkpt>
      <trkpt lat="41.91806167" lon="12.473295">
        <ele>0</ele>
        <time>1970-01-01T01:00:00Z</time>
      </trkpt>
      <trkpt lat="41.91808667" lon="12.47327833">
        <ele>0</ele>
        <time>1970-01-01T01:00:00Z</time>
      </trkpt>
      <trkpt lat="41.91811333" lon="12.47326333">
        <ele>0</ele>
        <time>1970-01-01T01:00:00Z</time>
      </trkpt>
      <trkpt lat="41.91813667" lon="12.47324667">
        <ele>0</ele>
        <time>1970-01-01T01:00:00Z</time>
      </trkpt>
      <trkpt lat="41.91816167" lon="12.47323">
        <ele>0</ele>
        <time>1970-01-01T01:00:00Z</time>
      </trkpt>
      <trkpt lat="41.91818333" lon="12.47321167">
        <ele>0</ele>
        <time>1970-01-01T01:00:00Z</time>
      </trkpt>
      <trkpt lat="41.918205" lon="12.473195">
        <ele>0</ele>
        <time>1970-01-01T01:00:00Z</time>
      </trkpt>
      <trkpt lat="41.918225" lon="12.473175">
        <ele>0</ele>
        <time>1970-01-01T01:00:00Z</time>
      </trkpt>
      <trkpt lat="41.91824667" lon="12.47315833">
        <ele>0</ele>
        <time>1970-01-01T01:00:00Z</time>
      </trkpt>
      <trkpt lat="41.91826833" lon="12.47314667">
        <ele>0</ele>
        <time>1970-01-01T01:00:00Z</time>
      </trkpt>
      <trkpt lat="41.91829" lon="12.47313167">
        <ele>0</ele>
        <time>1970-01-01T01:00:00Z</time>
      </trkpt>
      <trkpt lat="41.91831167" lon="12.47312">
        <ele>0</ele>
        <time>1970-01-01T01:00:00Z</time>
      </trkpt>
      <trkpt lat="41.91833" lon="12.473105">
        <ele>0</ele>
        <time>1970-01-01T01:00:00Z</time>
      </trkpt>
      <trkpt lat="41.91835" lon="12.47309">
        <ele>0</ele>
        <time>1970-01-01T01:00:00Z</time>
      </trkpt>
      <trkpt lat="41.91836833" lon="12.473075">
        <ele>0</ele>
        <time>1970-01-01T01:00:00Z</time>
      </trkpt>
      <trkpt lat="41.91839167" lon="12.47305833">
        <ele>0</ele>
        <time>1970-01-01T01:00:00Z</time>
      </trkpt>
      <trkpt lat="41.918415" lon="12.47304333">
        <ele>0</ele>
        <time>1970-01-01T01:00:00Z</time>
      </trkpt>
      <trkpt lat="41.91843667" lon="12.47302833">
        <ele>0</ele>
        <time>1970-01-01T01:00:00Z</time>
      </trkpt>
      <trkpt lat="41.91845833" lon="12.47301667">
        <ele>0</ele>
        <time>1970-01-01T01:00:00Z</time>
      </trkpt>
      <trkpt lat="41.918475" lon="12.47300667">
        <ele>0</ele>
        <time>1970-01-01T01:00:00Z</time>
      </trkpt>
      <trkpt lat="41.91856167" lon="12.47296167">
        <ele>0</ele>
        <time>1970-01-01T01:00:00Z</time>
      </trkpt>
      <trkpt lat="41.91857667" lon="12.47295167">
        <ele>0</ele>
        <time>1970-01-01T01:00:00Z</time>
      </trkpt>
      <trkpt lat="41.91859333" lon="12.47294167">
        <ele>0</ele>
        <time>1970-01-01T01:00:00Z</time>
      </trkpt>
      <trkpt lat="41.91861167" lon="12.47293">
        <ele>0</ele>
        <time>1970-01-01T01:00:00Z</time>
      </trkpt>
      <trkpt lat="41.91863" lon="12.47292">
        <ele>0</ele>
        <time>1970-01-01T01:00:00Z</time>
      </trkpt>
      <trkpt lat="41.91865167" lon="12.47290833">
        <ele>0</ele>
        <time>1970-01-01T01:00:00Z</time>
      </trkpt>
      <trkpt lat="41.91867333" lon="12.47289833">
        <ele>0</ele>
        <time>1970-01-01T01:00:00Z</time>
      </trkpt>
      <trkpt lat="41.91869667" lon="12.47288833">
        <ele>0</ele>
        <time>1970-01-01T01:00:00Z</time>
      </trkpt>
      <trkpt lat="41.91872333" lon="12.47288">
        <ele>0</ele>
        <time>1970-01-01T01:00:00Z</time>
      </trkpt>
      <trkpt lat="41.91874667" lon="12.47287167">
        <ele>0</ele>
        <time>1970-01-01T01:00:00Z</time>
      </trkpt>
      <trkpt lat="41.91876667" lon="12.47286333">
        <ele>0</ele>
        <time>1970-01-01T01:00:00Z</time>
      </trkpt>
      <trkpt lat="41.91878333" lon="12.47285667">
        <ele>0</ele>
        <time>1970-01-01T01:00:00Z</time>
      </trkpt>
      <trkpt lat="41.91879667" lon="12.47285167">
        <ele>0</ele>
        <time>1970-01-01T01:00:00Z</time>
      </trkpt>
      <trkpt lat="41.918805" lon="12.47285">
        <ele>0</ele>
        <time>1970-01-01T01:00:00Z</time>
      </trkpt>
      <trkpt lat="41.91881" lon="12.47284833">
        <ele>0</ele>
        <time>1970-01-01T01:00:00Z</time>
      </trkpt>
      <trkpt lat="41.91881167" lon="12.472845">
        <ele>0</ele>
        <time>1970-01-01T01:00:00Z</time>
      </trkpt>
      <trkpt lat="41.91881333" lon="12.47284333">
        <ele>0</ele>
        <time>1970-01-01T01:00:00Z</time>
      </trkpt>
      <trkpt lat="41.918815" lon="12.47284167">
        <ele>0</ele>
        <time>1970-01-01T01:00:00Z</time>
      </trkpt>
      <trkpt lat="41.91881667" lon="12.47284167">
        <ele>0</ele>
        <time>1970-01-01T01:00:00Z</time>
      </trkpt>
      <trkpt lat="41.91881667" lon="12.47284">
        <ele>0</ele>
        <time>1970-01-01T01:00:00Z</time>
      </trkpt>
      <trkpt lat="41.91881833" lon="12.47284">
        <ele>0</ele>
        <time>1970-01-01T01:00:00Z</time>
      </trkpt>
      <trkpt lat="41.91881833" lon="12.47283833">
        <ele>0</ele>
        <time>1970-01-01T01:00:00Z</time>
      </trkpt>
      <trkpt lat="41.91889" lon="12.47243667">
        <ele>0</ele>
        <time>1970-01-01T01:00:00Z</time>
      </trkpt>
      <trkpt lat="41.91889" lon="12.47240667">
        <ele>0</ele>
        <time>1970-01-01T01:00:00Z</time>
      </trkpt>
      <trkpt lat="41.91889167" lon="12.47237667">
        <ele>0</ele>
        <time>1970-01-01T01:00:00Z</time>
      </trkpt>
      <trkpt lat="41.91889167" lon="12.47234833">
        <ele>0</ele>
        <time>1970-01-01T01:00:00Z</time>
      </trkpt>
      <trkpt lat="41.91889" lon="12.47232">
        <ele>0</ele>
        <time>1970-01-01T01:00:00Z</time>
      </trkpt>
      <trkpt lat="41.91888" lon="12.472295">
        <ele>0</ele>
        <time>1970-01-01T01:00:00Z</time>
      </trkpt>
      <trkpt lat="41.91886333" lon="12.47227">
        <ele>0</ele>
        <time>1970-01-01T01:00:00Z</time>
      </trkpt>
      <trkpt lat="41.91884333" lon="12.47224333">
        <ele>0</ele>
        <time>1970-01-01T01:00:00Z</time>
      </trkpt>
      <trkpt lat="41.91882167" lon="12.472215">
        <ele>0</ele>
        <time>1970-01-01T01:00:00Z</time>
      </trkpt>
      <trkpt lat="41.9188" lon="12.472185">
        <ele>0</ele>
        <time>1970-01-01T01:00:00Z</time>
      </trkpt>
      <trkpt lat="41.91878167" lon="12.47215333">
        <ele>0</ele>
        <time>1970-01-01T01:00:00Z</time>
      </trkpt>
      <trkpt lat="41.91876667" lon="12.47211833">
        <ele>0</ele>
        <time>1970-01-01T01:00:00Z</time>
      </trkpt>
      <trkpt lat="41.91875333" lon="12.47208333">
        <ele>0</ele>
        <time>1970-01-01T01:00:00Z</time>
      </trkpt>
      <trkpt lat="41.91874333" lon="12.47204667">
        <ele>0</ele>
        <time>1970-01-01T01:00:00Z</time>
      </trkpt>
      <trkpt lat="41.91873833" lon="12.47201">
        <ele>0</ele>
        <time>1970-01-01T01:00:00Z</time>
      </trkpt>
      <trkpt lat="41.91873667" lon="12.47197167">
        <ele>0</ele>
        <time>1970-01-01T01:00:00Z</time>
      </trkpt>
      <trkpt lat="41.91873833" lon="12.471935">
        <ele>0</ele>
        <time>1970-01-01T01:00:00Z</time>
      </trkpt>
      <trkpt lat="41.91873667" lon="12.47190167">
        <ele>0</ele>
        <time>1970-01-01T01:00:00Z</time>
      </trkpt>
      <trkpt lat="41.918735" lon="12.47187667">
        <ele>0.457</ele>
        <time>1970-01-01T01:00:00Z</time>
      </trkpt>
      <trkpt lat="41.91873333" lon="12.471875">
        <ele>0.457</ele>
        <time>1970-01-01T01:00:00Z</time>
      </trkpt>
      <trkpt lat="41.91873" lon="12.47187167">
        <ele>0.457</ele>
        <time>1970-01-01T01:00:00Z</time>
      </trkpt>
      <trkpt lat="41.91872833" lon="12.47187">
        <ele>0.457</ele>
        <time>1970-01-01T01:00:00Z</time>
      </trkpt>
      <trkpt lat="41.918725" lon="12.47187">
        <ele>1.372</ele>
        <time>1970-01-01T01:00:00Z</time>
      </trkpt>
      <trkpt lat="41.91872167" lon="12.47186333">
        <ele>1.372</ele>
        <time>1970-01-01T01:00:00Z</time>
      </trkpt>
      <trkpt lat="41.91871667" lon="12.47185">
        <ele>1.372</ele>
        <time>1970-01-01T01:00:00Z</time>
      </trkpt>
      <trkpt lat="41.91871333" lon="12.47182833">
        <ele>1.372</ele>
        <time>1970-01-01T01:00:00Z</time>
      </trkpt>
      <trkpt lat="41.91870833" lon="12.47180333">
        <ele>1.372</ele>
        <time>1970-01-01T01:00:00Z</time>
      </trkpt>
      <trkpt lat="41.91870333" lon="12.47178">
        <ele>1.372</ele>
        <time>1970-01-01T01:00:00Z</time>
      </trkpt>
      <trkpt lat="41.91869833" lon="12.47176167">
        <ele>1.372</ele>
        <time>1970-01-01T01:00:00Z</time>
      </trkpt>
      <trkpt lat="41.91869333" lon="12.47174333">
        <ele>1.372</ele>
        <time>1970-01-01T01:00:00Z</time>
      </trkpt>
      <trkpt lat="41.91869" lon="12.47172167">
        <ele>1.372</ele>
        <time>1970-01-01T01:00:00Z</time>
      </trkpt>
      <trkpt lat="41.91868333" lon="12.47169667">
        <ele>1.372</ele>
        <time>1970-01-01T01:00:00Z</time>
      </trkpt>
      <trkpt lat="41.91868" lon="12.47167">
        <ele>1.372</ele>
        <time>1970-01-01T01:00:00Z</time>
      </trkpt>
      <trkpt lat="41.91868" lon="12.47164">
        <ele>1.372</ele>
        <time>1970-01-01T01:00:00Z</time>
      </trkpt>
      <trkpt lat="41.91868333" lon="12.47160667">
        <ele>1.372</ele>
        <time>1970-01-01T01:00:00Z</time>
      </trkpt>
      <trkpt lat="41.91868167" lon="12.47157333">
        <ele>1.372</ele>
        <time>1970-01-01T01:00:00Z</time>
      </trkpt>
      <trkpt lat="41.91868" lon="12.47154167">
        <ele>1.372</ele>
        <time>1970-01-01T01:00:00Z</time>
      </trkpt>
      <trkpt lat="41.91867667" lon="12.47150833">
        <ele>1.372</ele>
        <time>1970-01-01T01:00:00Z</time>
      </trkpt>
      <trkpt lat="41.918675" lon="12.471475">
        <ele>1.372</ele>
        <time>1970-01-01T01:00:00Z</time>
      </trkpt>
      <trkpt lat="41.918675" lon="12.471445">
        <ele>1.372</ele>
        <time>1970-01-01T01:00:00Z</time>
      </trkpt>
      <trkpt lat="41.91867333" lon="12.47142167">
        <ele>1.372</ele>
        <time>1970-01-01T01:00:00Z</time>
      </trkpt>
      <trkpt lat="41.918675" lon="12.47140333">
        <ele>1.372</ele>
        <time>1970-01-01T01:00:00Z</time>
      </trkpt>
      <trkpt lat="41.918675" lon="12.47138833">
        <ele>1.372</ele>
        <time>1970-01-01T01:00:00Z</time>
      </trkpt>
      <trkpt lat="41.91867667" lon="12.47138167">
        <ele>1.372</ele>
        <time>1970-01-01T01:00:00Z</time>
      </trkpt>
      <trkpt lat="41.91867833" lon="12.47138">
        <ele>1.372</ele>
        <time>1970-01-01T01:00:00Z</time>
      </trkpt>
      <trkpt lat="41.91867667" lon="12.471375">
        <ele>1.372</ele>
        <time>1970-01-01T01:00:00Z</time>
      </trkpt>
      <trkpt lat="41.91867667" lon="12.47136333">
        <ele>1.372</ele>
        <time>1970-01-01T01:00:00Z</time>
      </trkpt>
      <trkpt lat="41.918675" lon="12.47134833">
        <ele>1.372</ele>
        <time>1970-01-01T01:00:00Z</time>
      </trkpt>
      <trkpt lat="41.918675" lon="12.47133333">
        <ele>1.372</ele>
        <time>1970-01-01T01:00:00Z</time>
      </trkpt>
      <trkpt lat="41.91867167" lon="12.47131833">
        <ele>1.372</ele>
        <time>1970-01-01T01:00:00Z</time>
      </trkpt>
      <trkpt lat="41.91867" lon="12.471305">
        <ele>0.457</ele>
        <time>1970-01-01T01:00:00Z</time>
      </trkpt>
      <trkpt lat="41.91866833" lon="12.47129">
        <ele>0.457</ele>
        <time>1970-01-01T01:00:00Z</time>
      </trkpt>
      <trkpt lat="41.91866833" lon="12.471275">
        <ele>0.457</ele>
        <time>1970-01-01T01:00:00Z</time>
      </trkpt>
      <trkpt lat="41.91866833" lon="12.47125833">
        <ele>0.457</ele>
        <time>1970-01-01T01:00:00Z</time>
      </trkpt>
      <trkpt lat="41.91866667" lon="12.47124">
        <ele>0</ele>
        <time>1970-01-01T01:00:00Z</time>
      </trkpt>
      <trkpt lat="41.918665" lon="12.47122333">
        <ele>0</ele>
        <time>1970-01-01T01:00:00Z</time>
      </trkpt>
      <trkpt lat="41.918665" lon="12.47120333">
        <ele>0</ele>
        <time>1970-01-01T01:00:00Z</time>
      </trkpt>
      <trkpt lat="41.91866333" lon="12.471185">
        <ele>0</ele>
        <time>1970-01-01T01:00:00Z</time>
      </trkpt>
      <trkpt lat="41.91866" lon="12.47116">
        <ele>0</ele>
        <time>1970-01-01T01:00:00Z</time>
      </trkpt>
      <trkpt lat="41.91865833" lon="12.47113833">
        <ele>0</ele>
        <time>1970-01-01T01:00:00Z</time>
      </trkpt>
      <trkpt lat="41.91863167" lon="12.47078167">
        <ele>0.457</ele>
        <time>1970-01-01T01:00:00Z</time>
      </trkpt>
      <trkpt lat="41.91863" lon="12.47075167">
        <ele>0.457</ele>
        <time>1970-01-01T01:00:00Z</time>
      </trkpt>
      <trkpt lat="41.918625" lon="12.47072167">
        <ele>0.457</ele>
        <time>1970-01-01T01:00:00Z</time>
      </trkpt>
      <trkpt lat="41.91862" lon="12.47069">
        <ele>0</ele>
        <time>1970-01-01T01:00:00Z</time>
      </trkpt>
      <trkpt lat="41.91861833" lon="12.47065667">
        <ele>0</ele>
        <time>1970-01-01T01:00:00Z</time>
      </trkpt>
      <trkpt lat="41.918615" lon="12.47062333">
        <ele>0</ele>
        <time>1970-01-01T01:00:00Z</time>
      </trkpt>
      <trkpt lat="41.91861" lon="12.47059167">
        <ele>0</ele>
        <time>1970-01-01T01:00:00Z</time>
      </trkpt>
      <trkpt lat="41.91860667" lon="12.47056167">
        <ele>0</ele>
        <time>1970-01-01T01:00:00Z</time>
      </trkpt>
      <trkpt lat="41.918605" lon="12.47053167">
        <ele>0</ele>
        <time>1970-01-01T01:00:00Z</time>
      </trkpt>
      <trkpt lat="41.91860167" lon="12.47050167">
        <ele>0</ele>
        <time>1970-01-01T01:00:00Z</time>
      </trkpt>
      <trkpt lat="41.91859833" lon="12.47047167">
        <ele>0</ele>
        <time>1970-01-01T01:00:00Z</time>
      </trkpt>
      <trkpt lat="41.91859333" lon="12.47044">
        <ele>0</ele>
        <time>1970-01-01T01:00:00Z</time>
      </trkpt>
      <trkpt lat="41.91859" lon="12.47041">
        <ele>0</ele>
        <time>1970-01-01T01:00:00Z</time>
      </trkpt>
      <trkpt lat="41.91858667" lon="12.47038">
        <ele>0</ele>
        <time>1970-01-01T01:00:00Z</time>
      </trkpt>
      <trkpt lat="41.918585" lon="12.47035">
        <ele>0</ele>
        <time>1970-01-01T01:00:00Z</time>
      </trkpt>
      <trkpt lat="41.91858" lon="12.47032167">
        <ele>0</ele>
        <time>1970-01-01T01:00:00Z</time>
      </trkpt>
      <trkpt lat="41.91857667" lon="12.47029">
        <ele>0</ele>
        <time>1970-01-01T01:00:00Z</time>
      </trkpt>
      <trkpt lat="41.91857333" lon="12.47026">
        <ele>0</ele>
        <time>1970-01-01T01:00:00Z</time>
      </trkpt>
      <trkpt lat="41.91857" lon="12.47023">
        <ele>0</ele>
        <time>1970-01-01T01:00:00Z</time>
      </trkpt>
      <trkpt lat="41.91856667" lon="12.47020167">
        <ele>0</ele>
        <time>1970-01-01T01:00:00Z</time>
      </trkpt>
      <trkpt lat="41.91856167" lon="12.47017167">
        <ele>0</ele>
        <time>1970-01-01T01:00:00Z</time>
      </trkpt>
      <trkpt lat="41.91856" lon="12.47013667">
        <ele>0</ele>
        <time>1970-01-01T01:00:00Z</time>
      </trkpt>
      <trkpt lat="41.91855667" lon="12.47010667">
        <ele>0</ele>
        <time>1970-01-01T01:00:00Z</time>
      </trkpt>
      <trkpt lat="41.91855167" lon="12.47008">
        <ele>0</ele>
        <time>1970-01-01T01:00:00Z</time>
      </trkpt>
      <trkpt lat="41.918545" lon="12.47005333">
        <ele>0</ele>
        <time>1970-01-01T01:00:00Z</time>
      </trkpt>
      <trkpt lat="41.91853667" lon="12.47002833">
        <ele>0</ele>
        <time>1970-01-01T01:00:00Z</time>
      </trkpt>
      <trkpt lat="41.91852667" lon="12.470005">
        <ele>0</ele>
        <time>1970-01-01T01:00:00Z</time>
      </trkpt>
      <trkpt lat="41.918515" lon="12.46998333">
        <ele>0</ele>
        <time>1970-01-01T01:00:00Z</time>
      </trkpt>
      <trkpt lat="41.91850167" lon="12.469965">
        <ele>0</ele>
        <time>1970-01-01T01:00:00Z</time>
      </trkpt>
      <trkpt lat="41.918485" lon="12.46995">
        <ele>0</ele>
        <time>1970-01-01T01:00:00Z</time>
      </trkpt>
      <trkpt lat="41.91847" lon="12.46994167">
        <ele>0</ele>
        <time>1970-01-01T01:00:00Z</time>
      </trkpt>
      <trkpt lat="41.91845167" lon="12.469935">
        <ele>0</ele>
        <time>1970-01-01T01:00:00Z</time>
      </trkpt>
      <trkpt lat="41.91843667" lon="12.46993167">
        <ele>0</ele>
        <time>1970-01-01T01:00:00Z</time>
      </trkpt>
      <trkpt lat="41.91842333" lon="12.46992833">
        <ele>0</ele>
        <time>1970-01-01T01:00:00Z</time>
      </trkpt>
      <trkpt lat="41.91266667" lon="12.47053833">
        <ele>0</ele>
        <time>1970-01-01T01:00:00Z</time>
      </trkpt>
      <trkpt lat="41.91264333" lon="12.470545">
        <ele>0</ele>
        <time>1970-01-01T01:00:00Z</time>
      </trkpt>
      <trkpt lat="41.91262167" lon="12.47055333">
        <ele>0</ele>
        <time>1970-01-01T01:00:00Z</time>
      </trkpt>
      <trkpt lat="41.91259833" lon="12.47056333">
        <ele>0</ele>
        <time>1970-01-01T01:00:00Z</time>
      </trkpt>
      <trkpt lat="41.912575" lon="12.47057333">
        <ele>0</ele>
        <time>1970-01-01T01:00:00Z</time>
      </trkpt>
      <trkpt lat="41.91255167" lon="12.47058167">
        <ele>0</ele>
        <time>1970-01-01T01:00:00Z</time>
      </trkpt>
      <trkpt lat="41.91253" lon="12.47059">
        <ele>0</ele>
        <time>1970-01-01T01:00:00Z</time>
      </trkpt>
      <trkpt lat="41.912505" lon="12.47059667">
        <ele>0</ele>
        <time>1970-01-01T01:00:00Z</time>
      </trkpt>
      <trkpt lat="41.91248333" lon="12.47060667">
        <ele>0</ele>
        <time>1970-01-01T01:00:00Z</time>
      </trkpt>
      <trkpt lat="41.91246" lon="12.470615">
        <ele>0</ele>
        <time>1970-01-01T01:00:00Z</time>
      </trkpt>
      <trkpt lat="41.91243833" lon="12.47062333">
        <ele>0</ele>
        <time>1970-01-01T01:00:00Z</time>
      </trkpt>
      <trkpt lat="41.912415" lon="12.47062833">
        <ele>0</ele>
        <time>1970-01-01T01:00:00Z</time>
      </trkpt>
      <trkpt lat="41.91239333" lon="12.470635">
        <ele>0</ele>
        <time>1970-01-01T01:00:00Z</time>
      </trkpt>
      <trkpt lat="41.91236833" lon="12.470645">
        <ele>0</ele>
        <time>1970-01-01T01:00:00Z</time>
      </trkpt>
      <trkpt lat="41.91234333" lon="12.470655">
        <ele>0</ele>
        <time>1970-01-01T01:00:00Z</time>
      </trkpt>
      <trkpt lat="41.91232" lon="12.470665">
        <ele>0</ele>
        <time>1970-01-01T01:00:00Z</time>
      </trkpt>
      <trkpt lat="41.91229667" lon="12.47067167">
        <ele>0</ele>
        <time>1970-01-01T01:00:00Z</time>
      </trkpt>
      <trkpt lat="41.912275" lon="12.47068167">
        <ele>0</ele>
        <time>1970-01-01T01:00:00Z</time>
      </trkpt>
      <trkpt lat="41.91225167" lon="12.47068833">
        <ele>0</ele>
        <time>1970-01-01T01:00:00Z</time>
      </trkpt>
      <trkpt lat="41.91223" lon="12.47069667">
        <ele>0</ele>
        <time>1970-01-01T01:00:00Z</time>
      </trkpt>
      <trkpt lat="41.91220667" lon="12.47070333">
        <ele>0</ele>
        <time>1970-01-01T01:00:00Z</time>
      </trkpt>
      <trkpt lat="41.91218333" lon="12.47071167">
        <ele>0</ele>
        <time>1970-01-01T01:00:00Z</time>
      </trkpt>
      <trkpt lat="41.91216333" lon="12.47072167">
        <ele>0</ele>
        <time>1970-01-01T01:00:00Z</time>
      </trkpt>
      <trkpt lat="41.91214333" lon="12.47073167">
        <ele>0</ele>
        <time>1970-01-01T01:00:00Z</time>
      </trkpt>
      <trkpt lat="41.912125" lon="12.47074167">
        <ele>0</ele>
        <time>1970-01-01T01:00:00Z</time>
      </trkpt>
      <trkpt lat="41.91211167" lon="12.470755">
        <ele>0</ele>
        <time>1970-01-01T01:00:00Z</time>
      </trkpt>
      <trkpt lat="41.912095" lon="12.470765">
        <ele>0</ele>
        <time>1970-01-01T01:00:00Z</time>
      </trkpt>
      <trkpt lat="41.91207833" lon="12.470775">
        <ele>0</ele>
        <time>1970-01-01T01:00:00Z</time>
      </trkpt>
      <trkpt lat="41.91206167" lon="12.47078667">
        <ele>0</ele>
        <time>1970-01-01T01:00:00Z</time>
      </trkpt>
      <trkpt lat="41.91204167" lon="12.47079667">
        <ele>0</ele>
        <time>1970-01-01T01:00:00Z</time>
      </trkpt>
      <trkpt lat="41.91202167" lon="12.470805">
        <ele>0</ele>
        <time>1970-01-01T01:00:00Z</time>
      </trkpt>
      <trkpt lat="41.912" lon="12.47081667">
        <ele>0</ele>
        <time>1970-01-01T01:00:00Z</time>
      </trkpt>
      <trkpt lat="41.911975" lon="12.47083">
        <ele>0</ele>
        <time>1970-01-01T01:00:00Z</time>
      </trkpt>
      <trkpt lat="41.91195" lon="12.47084667">
        <ele>0</ele>
        <time>1970-01-01T01:00:00Z</time>
      </trkpt>
      <trkpt lat="41.911925" lon="12.470865">
        <ele>0</ele>
        <time>1970-01-01T01:00:00Z</time>
      </trkpt>
      <trkpt lat="41.9119" lon="12.47088667">
        <ele>0</ele>
        <time>1970-01-01T01:00:00Z</time>
      </trkpt>
      <trkpt lat="41.911875" lon="12.47090667">
        <ele>0</ele>
        <time>1970-01-01T01:00:00Z</time>
      </trkpt>
      <trkpt lat="41.91185" lon="12.47092333">
        <ele>0</ele>
        <time>1970-01-01T01:00:00Z</time>
      </trkpt>
      <trkpt lat="41.91182333" lon="12.470935">
        <ele>0</ele>
        <time>1970-01-01T01:00:00Z</time>
      </trkpt>
      <trkpt lat="41.91179833" lon="12.47094333">
        <ele>0</ele>
        <time>1970-01-01T01:00:00Z</time>
      </trkpt>
      <trkpt lat="41.911775" lon="12.47095">
        <ele>0</ele>
        <time>1970-01-01T01:00:00Z</time>
      </trkpt>
      <trkpt lat="41.91175" lon="12.47095667">
        <ele>0</ele>
        <time>1970-01-01T01:00:00Z</time>
      </trkpt>
      <trkpt lat="41.91172833" lon="12.47096333">
        <ele>0</ele>
        <time>1970-01-01T01:00:00Z</time>
      </trkpt>
      <trkpt lat="41.91170833" lon="12.47097">
        <ele>0</ele>
        <time>1970-01-01T01:00:00Z</time>
      </trkpt>
      <trkpt lat="41.91168667" lon="12.47097833">
        <ele>0</ele>
        <time>1970-01-01T01:00:00Z</time>
      </trkpt>
      <trkpt lat="41.91166667" lon="12.47098333">
        <ele>0</ele>
        <time>1970-01-01T01:00:00Z</time>
      </trkpt>
      <trkpt lat="41.91165" lon="12.47098833">
        <ele>0</ele>
        <time>1970-01-01T01:00:00Z</time>
      </trkpt>
      <trkpt lat="41.91163" lon="12.470995">
        <ele>0</ele>
        <time>1970-01-01T01:00:00Z</time>
      </trkpt>
      <trkpt lat="41.91160667" lon="12.47099833">
        <ele>0</ele>
        <time>1970-01-01T01:00:00Z</time>
      </trkpt>
      <trkpt lat="41.91158333" lon="12.471005">
        <ele>0</ele>
        <time>1970-01-01T01:00:00Z</time>
      </trkpt>
      <trkpt lat="41.91155833" lon="12.471015">
        <ele>0</ele>
        <time>1970-01-01T01:00:00Z</time>
      </trkpt>
      <trkpt lat="41.91153667" lon="12.471025">
        <ele>0</ele>
        <time>1970-01-01T01:00:00Z</time>
      </trkpt>
      <trkpt lat="41.91151167" lon="12.47103333">
        <ele>0</ele>
        <time>1970-01-01T01:00:00Z</time>
      </trkpt>
      <trkpt lat="41.91149" lon="12.47104167">
        <ele>0</ele>
        <time>1970-01-01T01:00:00Z</time>
      </trkpt>
      <trkpt lat="41.91146333" lon="12.47104833">
        <ele>0</ele>
        <time>1970-01-01T01:00:00Z</time>
      </trkpt>
      <trkpt lat="41.91143667" lon="12.47105833">
        <ele>0</ele>
        <time>1970-01-01T01:00:00Z</time>
      </trkpt>
      <trkpt lat="41.91141" lon="12.47106667">
        <ele>0</ele>
        <time>1970-01-01T01:00:00Z</time>
      </trkpt>
      <trkpt lat="41.911385" lon="12.471075">
        <ele>0</ele>
        <time>1970-01-01T01:00:00Z</time>
      </trkpt>
      <trkpt lat="41.91136167" lon="12.47108167">
        <ele>0</ele>
        <time>1970-01-01T01:00:00Z</time>
      </trkpt>
      <trkpt lat="41.91134" lon="12.47109">
        <ele>0</ele>
        <time>1970-01-01T01:00:00Z</time>
      </trkpt>
      <trkpt lat="41.91131667" lon="12.47109667">
        <ele>0</ele>
        <time>1970-01-01T01:00:00Z</time>
      </trkpt>
      <trkpt lat="41.91129333" lon="12.471105">
        <ele>0</ele>
        <time>1970-01-01T01:00:00Z</time>
      </trkpt>
      <trkpt lat="41.91127333" lon="12.47111333">
        <ele>0</ele>
        <time>1970-01-01T01:00:00Z</time>
      </trkpt>
      <trkpt lat="41.91125" lon="12.47112">
        <ele>0</ele>
        <time>1970-01-01T01:00:00Z</time>
      </trkpt>
      <trkpt lat="41.91123" lon="12.47112833">
        <ele>0</ele>
        <time>1970-01-01T01:00:00Z</time>
      </trkpt>
      <trkpt lat="41.91120833" lon="12.471135">
        <ele>0</ele>
        <time>1970-01-01T01:00:00Z</time>
      </trkpt>
      <trkpt lat="41.91118833" lon="12.47114">
        <ele>0</ele>
        <time>1970-01-01T01:00:00Z</time>
      </trkpt>
      <trkpt lat="41.91116833" lon="12.47114167">
        <ele>0</ele>
        <time>1970-01-01T01:00:00Z</time>
      </trkpt>
      <trkpt lat="41.91114833" lon="12.47114667">
        <ele>0</ele>
        <time>1970-01-01T01:00:00Z</time>
      </trkpt>
      <trkpt lat="41.911125" lon="12.47115167">
        <ele>0</ele>
        <time>1970-01-01T01:00:00Z</time>
      </trkpt>
      <trkpt lat="41.9111" lon="12.47115667">
        <ele>0</ele>
        <time>1970-01-01T01:00:00Z</time>
      </trkpt>
      <trkpt lat="41.911075" lon="12.47116333">
        <ele>0</ele>
        <time>1970-01-01T01:00:00Z</time>
      </trkpt>
      <trkpt lat="41.91105333" lon="12.47117333">
        <ele>0</ele>
        <time>1970-01-01T01:00:00Z</time>
      </trkpt>
      <trkpt lat="41.91103167" lon="12.47118167">
        <ele>0</ele>
        <time>1970-01-01T01:00:00Z</time>
      </trkpt>
      <trkpt lat="41.91101" lon="12.47119">
        <ele>0</ele>
        <time>1970-01-01T01:00:00Z</time>
      </trkpt>
      <trkpt lat="41.91098833" lon="12.4712">
        <ele>0</ele>
        <time>1970-01-01T01:00:00Z</time>
      </trkpt>
      <trkpt lat="41.91096667" lon="12.47121167">
        <ele>0</ele>
        <time>1970-01-01T01:00:00Z</time>
      </trkpt>
      <trkpt lat="41.910945" lon="12.47122167">
        <ele>0</ele>
        <time>1970-01-01T01:00:00Z</time>
      </trkpt>
      <trkpt lat="41.910925" lon="12.47123333">
        <ele>0</ele>
        <time>1970-01-01T01:00:00Z</time>
      </trkpt>
      <trkpt lat="41.91090333" lon="12.471245">
        <ele>0</ele>
        <time>1970-01-01T01:00:00Z</time>
      </trkpt>
      <trkpt lat="41.91087833" lon="12.47125333">
        <ele>0</ele>
        <time>1970-01-01T01:00:00Z</time>
      </trkpt>
      <trkpt lat="41.910855" lon="12.47126333">
        <ele>0</ele>
        <time>1970-01-01T01:00:00Z</time>
      </trkpt>
      <trkpt lat="41.91083167" lon="12.47127167">
        <ele>0</ele>
        <time>1970-01-01T01:00:00Z</time>
      </trkpt>
      <trkpt lat="41.91081" lon="12.47128333">
        <ele>0</ele>
        <time>1970-01-01T01:00:00Z</time>
      </trkpt>
      <trkpt lat="41.91078833" lon="12.47129667">
        <ele>0</ele>
        <time>1970-01-01T01:00:00Z</time>
      </trkpt>
      <trkpt lat="41.91076833" lon="12.47130667">
        <ele>0</ele>
        <time>1970-01-01T01:00:00Z</time>
      </trkpt>
      <trkpt lat="41.91074667" lon="12.47132">
        <ele>0</ele>
        <time>1970-01-01T01:00:00Z</time>
      </trkpt>
      <trkpt lat="41.91072667" lon="12.47133167">
        <ele>0</ele>
        <time>1970-01-01T01:00:00Z</time>
      </trkpt>
      <trkpt lat="41.910705" lon="12.471345">
        <ele>0</ele>
        <time>1970-01-01T01:00:00Z</time>
      </trkpt>
      <trkpt lat="41.910685" lon="12.47135667">
        <ele>0</ele>
        <time>1970-01-01T01:00:00Z</time>
      </trkpt>
      <trkpt lat="41.91066333" lon="12.47136833">
        <ele>0</ele>
        <time>1970-01-01T01:00:00Z</time>
      </trkpt>
      <trkpt lat="41.91064167" lon="12.47137833">
        <ele>0</ele>
        <time>1970-01-01T01:00:00Z</time>
      </trkpt>
      <trkpt lat="41.91062" lon="12.47138833">
        <ele>0</ele>
        <time>1970-01-01T01:00:00Z</time>
      </trkpt>
      <trkpt lat="41.91059833" lon="12.47139667">
        <ele>0</ele>
        <time>1970-01-01T01:00:00Z</time>
      </trkpt>
      <trkpt lat="41.91057833" lon="12.47141">
        <ele>0</ele>
        <time>1970-01-01T01:00:00Z</time>
      </trkpt>
      <trkpt lat="41.910555" lon="12.47142">
        <ele>0</ele>
        <time>1970-01-01T01:00:00Z</time>
      </trkpt>
      <trkpt lat="41.91053" lon="12.47143167">
        <ele>0</ele>
        <time>1970-01-01T01:00:00Z</time>
      </trkpt>
      <trkpt lat="41.91050833" lon="12.47144167">
        <ele>0</ele>
        <time>1970-01-01T01:00:00Z</time>
      </trkpt>
      <trkpt lat="41.91048667" lon="12.47145333">
        <ele>0</ele>
        <time>1970-01-01T01:00:00Z</time>
      </trkpt>
      <trkpt lat="41.91046667" lon="12.47146333">
        <ele>0</ele>
        <time>1970-01-01T01:00:00Z</time>
      </trkpt>
      <trkpt lat="41.91044333" lon="12.47147">
        <ele>0</ele>
        <time>1970-01-01T01:00:00Z</time>
      </trkpt>
      <trkpt lat="41.91042333" lon="12.47148">
        <ele>0</ele>
        <time>1970-01-01T01:00:00Z</time>
      </trkpt>
      <trkpt lat="41.91040167" lon="12.47148833">
        <ele>0</ele>
        <time>1970-01-01T01:00:00Z</time>
      </trkpt>
      <trkpt lat="41.91038167" lon="12.47149667">
        <ele>0</ele>
        <time>1970-01-01T01:00:00Z</time>
      </trkpt>
      <trkpt lat="41.91036333" lon="12.47150333">
        <ele>0</ele>
        <time>1970-01-01T01:00:00Z</time>
      </trkpt>
      <trkpt lat="41.910345" lon="12.47151167">
        <ele>0</ele>
        <time>1970-01-01T01:00:00Z</time>
      </trkpt>
      <trkpt lat="41.91032667" lon="12.47152167">
        <ele>0</ele>
        <time>1970-01-01T01:00:00Z</time>
      </trkpt>
      <trkpt lat="41.91030667" lon="12.47153">
        <ele>0</ele>
        <time>1970-01-01T01:00:00Z</time>
      </trkpt>
      <trkpt lat="41.91028833" lon="12.47153833">
        <ele>0</ele>
        <time>1970-01-01T01:00:00Z</time>
      </trkpt>
      <trkpt lat="41.91027" lon="12.471545">
        <ele>0</ele>
        <time>1970-01-01T01:00:00Z</time>
      </trkpt>
      <trkpt lat="41.91025167" lon="12.47155167">
        <ele>0</ele>
        <time>1970-01-01T01:00:00Z</time>
      </trkpt>
      <trkpt lat="41.91023333" lon="12.471555">
        <ele>0</ele>
        <time>1970-01-01T01:00:00Z</time>
      </trkpt>
      <trkpt lat="41.91021667" lon="12.47155833">
        <ele>0</ele>
        <time>1970-01-01T01:00:00Z</time>
      </trkpt>
      <trkpt lat="41.91019833" lon="12.471565">
        <ele>0</ele>
        <time>1970-01-01T01:00:00Z</time>
      </trkpt>
      <trkpt lat="41.91017833" lon="12.47157667">
        <ele>0</ele>
        <time>1970-01-01T01:00:00Z</time>
      </trkpt>
      <trkpt lat="41.91016" lon="12.47159167">
        <ele>0</ele>
        <time>1970-01-01T01:00:00Z</time>
      </trkpt>
      <trkpt lat="41.91013833" lon="12.471605">
        <ele>0</ele>
        <time>1970-01-01T01:00:00Z</time>
      </trkpt>
      <trkpt lat="41.91011667" lon="12.47162333">
        <ele>0</ele>
        <time>1970-01-01T01:00:00Z</time>
      </trkpt>
      <trkpt lat="41.910095" lon="12.47164">
        <ele>0</ele>
        <time>1970-01-01T01:00:00Z</time>
      </trkpt>
      <trkpt lat="41.91007333" lon="12.47165667">
        <ele>0</ele>
        <time>1970-01-01T01:00:00Z</time>
      </trkpt>
      <trkpt lat="41.91005333" lon="12.47166833">
        <ele>0</ele>
        <time>1970-01-01T01:00:00Z</time>
      </trkpt>
      <trkpt lat="41.91003167" lon="12.47168167">
        <ele>0</ele>
        <time>1970-01-01T01:00:00Z</time>
      </trkpt>
      <trkpt lat="41.91001" lon="12.47169333">
        <ele>0</ele>
        <time>1970-01-01T01:00:00Z</time>
      </trkpt>
      <trkpt lat="41.90998667" lon="12.471705">
        <ele>0</ele>
        <time>1970-01-01T01:00:00Z</time>
      </trkpt>
      <trkpt lat="41.909965" lon="12.471715">
        <ele>0</ele>
        <time>1970-01-01T01:00:00Z</time>
      </trkpt>
      <trkpt lat="41.90994333" lon="12.471725">
        <ele>0</ele>
        <time>1970-01-01T01:00:00Z</time>
      </trkpt>
      <trkpt lat="41.90992333" lon="12.47173667">
        <ele>0</ele>
        <time>1970-01-01T01:00:00Z</time>
      </trkpt>
      <trkpt lat="41.90990333" lon="12.471745">
        <ele>0</ele>
        <time>1970-01-01T01:00:00Z</time>
      </trkpt>
      <trkpt lat="41.909885" lon="12.47175333">
        <ele>0</ele>
        <time>1970-01-01T01:00:00Z</time>
      </trkpt>
      <trkpt lat="41.90986667" lon="12.47176167">
        <ele>0</ele>
        <time>1970-01-01T01:00:00Z</time>
      </trkpt>
      <trkpt lat="41.90984833" lon="12.47177">
        <ele>0</ele>
        <time>1970-01-01T01:00:00Z</time>
      </trkpt>
      <trkpt lat="41.90983" lon="12.47178167">
        <ele>0</ele>
        <time>1970-01-01T01:00:00Z</time>
      </trkpt>
      <trkpt lat="41.90981" lon="12.471795">
        <ele>0</ele>
        <time>1970-01-01T01:00:00Z</time>
      </trkpt>
      <trkpt lat="41.90979333" lon="12.47180833">
        <ele>0</ele>
        <time>1970-01-01T01:00:00Z</time>
      </trkpt>
      <trkpt lat="41.909775" lon="12.47181833">
        <ele>0</ele>
        <time>1970-01-01T01:00:00Z</time>
      </trkpt>
      <trkpt lat="41.90975667" lon="12.47183167">
        <ele>0</ele>
        <time>1970-01-01T01:00:00Z</time>
      </trkpt>
      <trkpt lat="41.90973833" lon="12.47184333">
        <ele>0</ele>
        <time>1970-01-01T01:00:00Z</time>
      </trkpt>
      <trkpt lat="41.90972" lon="12.471855">
        <ele>0</ele>
        <time>1970-01-01T01:00:00Z</time>
      </trkpt>
      <trkpt lat="41.9097" lon="12.47186833">
        <ele>0</ele>
        <time>1970-01-01T01:00:00Z</time>
      </trkpt>
      <trkpt lat="41.90967833" lon="12.47188333">
        <ele>0</ele>
        <time>1970-01-01T01:00:00Z</time>
      </trkpt>
      <trkpt lat="41.909655" lon="12.47189667">
        <ele>0</ele>
        <time>1970-01-01T01:00:00Z</time>
      </trkpt>
      <trkpt lat="41.909635" lon="12.47190833">
        <ele>0</ele>
        <time>1970-01-01T01:00:00Z</time>
      </trkpt>
      <trkpt lat="41.90961167" lon="12.47192167">
        <ele>0</ele>
        <time>1970-01-01T01:00:00Z</time>
      </trkpt>
      <trkpt lat="41.90958833" lon="12.47193667">
        <ele>0</ele>
        <time>1970-01-01T01:00:00Z</time>
      </trkpt>
      <trkpt lat="41.90956667" lon="12.47194833">
        <ele>0</ele>
        <time>1970-01-01T01:00:00Z</time>
      </trkpt>
      <trkpt lat="41.90954167" lon="12.47195667">
        <ele>0</ele>
        <time>1970-01-01T01:00:00Z</time>
      </trkpt>
      <trkpt lat="41.90951333" lon="12.47196333">
        <ele>0</ele>
        <time>1970-01-01T01:00:00Z</time>
      </trkpt>
      <trkpt lat="41.90948333" lon="12.471975">
        <ele>0</ele>
        <time>1970-01-01T01:00:00Z</time>
      </trkpt>
      <trkpt lat="41.90945667" lon="12.47198667">
        <ele>0</ele>
        <time>1970-01-01T01:00:00Z</time>
      </trkpt>
      <trkpt lat="41.90943" lon="12.47199833">
        <ele>0</ele>
        <time>1970-01-01T01:00:00Z</time>
      </trkpt>
      <trkpt lat="41.90940333" lon="12.47201">
        <ele>0</ele>
        <time>1970-01-01T01:00:00Z</time>
      </trkpt>
      <trkpt lat="41.90937833" lon="12.47202167">
        <ele>0</ele>
        <time>1970-01-01T01:00:00Z</time>
      </trkpt>
      <trkpt lat="41.90935333" lon="12.47203333">
        <ele>0</ele>
        <time>1970-01-01T01:00:00Z</time>
      </trkpt>
      <trkpt lat="41.90933" lon="12.47204333">
        <ele>0</ele>
        <time>1970-01-01T01:00:00Z</time>
      </trkpt>
      <trkpt lat="41.90930667" lon="12.47205333">
        <ele>0</ele>
        <time>1970-01-01T01:00:00Z</time>
      </trkpt>
      <trkpt lat="41.90928167" lon="12.47206">
        <ele>0</ele>
        <time>1970-01-01T01:00:00Z</time>
      </trkpt>
      <trkpt lat="41.90925833" lon="12.47206833">
        <ele>0</ele>
        <time>1970-01-01T01:00:00Z</time>
      </trkpt>
      <trkpt lat="41.90923833" lon="12.47207667">
        <ele>0</ele>
        <time>1970-01-01T01:00:00Z</time>
      </trkpt>
      <trkpt lat="41.90922" lon="12.472085">
        <ele>0</ele>
        <time>1970-01-01T01:00:00Z</time>
      </trkpt>
      <trkpt lat="41.9092" lon="12.472095">
        <ele>0</ele>
        <time>1970-01-01T01:00:00Z</time>
      </trkpt>
      <trkpt lat="41.90918167" lon="12.47210833">
        <ele>0</ele>
        <time>1970-01-01T01:00:00Z</time>
      </trkpt>
      <trkpt lat="41.90916333" lon="12.47212167">
        <ele>0</ele>
        <time>1970-01-01T01:00:00Z</time>
      </trkpt>
      <trkpt lat="41.90914667" lon="12.472135">
        <ele>0</ele>
        <time>1970-01-01T01:00:00Z</time>
      </trkpt>
      <trkpt lat="41.90912833" lon="12.47214833">
        <ele>0</ele>
        <time>1970-01-01T01:00:00Z</time>
      </trkpt>
      <trkpt lat="41.90911167" lon="12.47216167">
        <ele>0</ele>
        <time>1970-01-01T01:00:00Z</time>
      </trkpt>
      <trkpt lat="41.909095" lon="12.47217333">
        <ele>0</ele>
        <time>1970-01-01T01:00:00Z</time>
      </trkpt>
      <trkpt lat="41.90907833" lon="12.47218833">
        <ele>0</ele>
        <time>1970-01-01T01:00:00Z</time>
      </trkpt>
      <trkpt lat="41.90906" lon="12.47220167">
        <ele>0</ele>
        <time>1970-01-01T01:00:00Z</time>
      </trkpt>
      <trkpt lat="41.90904333" lon="12.472215">
        <ele>0</ele>
        <time>1970-01-01T01:00:00Z</time>
      </trkpt>
      <trkpt lat="41.909025" lon="12.47222833">
        <ele>0</ele>
        <time>1970-01-01T01:00:00Z</time>
      </trkpt>
      <trkpt lat="41.909005" lon="12.47224667">
        <ele>0</ele>
        <time>1970-01-01T01:00:00Z</time>
      </trkpt>
      <trkpt lat="41.908985" lon="12.47226333">
        <ele>0</ele>
        <time>1970-01-01T01:00:00Z</time>
      </trkpt>
      <trkpt lat="41.908965" lon="12.47227833">
        <ele>0</ele>
        <time>1970-01-01T01:00:00Z</time>
      </trkpt>
      <trkpt lat="41.908945" lon="12.47229333">
        <ele>0</ele>
        <time>1970-01-01T01:00:00Z</time>
      </trkpt>
      <trkpt lat="41.908925" lon="12.47230833">
        <ele>0</ele>
        <time>1970-01-01T01:00:00Z</time>
      </trkpt>
      <trkpt lat="41.90890333" lon="12.47232333">
        <ele>0</ele>
        <time>1970-01-01T01:00:00Z</time>
      </trkpt>
      <trkpt lat="41.90888167" lon="12.47234">
        <ele>0</ele>
        <time>1970-01-01T01:00:00Z</time>
      </trkpt>
      <trkpt lat="41.90886167" lon="12.472355">
        <ele>0</ele>
        <time>1970-01-01T01:00:00Z</time>
      </trkpt>
      <trkpt lat="41.90883833" lon="12.47237167">
        <ele>0</ele>
        <time>1970-01-01T01:00:00Z</time>
      </trkpt>
      <trkpt lat="41.90881667" lon="12.47238833">
        <ele>0</ele>
        <time>1970-01-01T01:00:00Z</time>
      </trkpt>
      <trkpt lat="41.908795" lon="12.47240167">
        <ele>0</ele>
        <time>1970-01-01T01:00:00Z</time>
      </trkpt>
      <trkpt lat="41.90877333" lon="12.47241667">
        <ele>0</ele>
        <time>1970-01-01T01:00:00Z</time>
      </trkpt>
      <trkpt lat="41.90875167" lon="12.47243167">
        <ele>0</ele>
        <time>1970-01-01T01:00:00Z</time>
      </trkpt>
      <trkpt lat="41.90873" lon="12.47244667">
        <ele>0</ele>
        <time>1970-01-01T01:00:00Z</time>
      </trkpt>
      <trkpt lat="41.90871167" lon="12.47245833">
        <ele>0</ele>
        <time>1970-01-01T01:00:00Z</time>
      </trkpt>
      <trkpt lat="41.90869167" lon="12.47247167">
        <ele>0</ele>
        <time>1970-01-01T01:00:00Z</time>
      </trkpt>
      <trkpt lat="41.90867167" lon="12.47248333">
        <ele>0</ele>
        <time>1970-01-01T01:00:00Z</time>
      </trkpt>
      <trkpt lat="41.90865333" lon="12.47249333">
        <ele>0</ele>
        <time>1970-01-01T01:00:00Z</time>
      </trkpt>
      <trkpt lat="41.90863667" lon="12.47251">
        <ele>0</ele>
        <time>1970-01-01T01:00:00Z</time>
      </trkpt>
      <trkpt lat="41.908615" lon="12.47252833">
        <ele>0</ele>
        <time>1970-01-01T01:00:00Z</time>
      </trkpt>
      <trkpt lat="41.908595" lon="12.47254667">
        <ele>0</ele>
        <time>1970-01-01T01:00:00Z</time>
      </trkpt>
      <trkpt lat="41.90857333" lon="12.47256667">
        <ele>0</ele>
        <time>1970-01-01T01:00:00Z</time>
      </trkpt>
      <trkpt lat="41.90855333" lon="12.472585">
        <ele>0</ele>
        <time>1970-01-01T01:00:00Z</time>
      </trkpt>
      <trkpt lat="41.90853333" lon="12.472605">
        <ele>0</ele>
        <time>1970-01-01T01:00:00Z</time>
      </trkpt>
      <trkpt lat="41.90851167" lon="12.47262167">
        <ele>0</ele>
        <time>1970-01-01T01:00:00Z</time>
      </trkpt>
      <trkpt lat="41.90849167" lon="12.47264167">
        <ele>0</ele>
        <time>1970-01-01T01:00:00Z</time>
      </trkpt>
      <trkpt lat="41.90847167" lon="12.47265833">
        <ele>0</ele>
        <time>1970-01-01T01:00:00Z</time>
      </trkpt>
      <trkpt lat="41.908455" lon="12.472675">
        <ele>0</ele>
        <time>1970-01-01T01:00:00Z</time>
      </trkpt>
      <trkpt lat="41.908435" lon="12.47269167">
        <ele>0</ele>
        <time>1970-01-01T01:00:00Z</time>
      </trkpt>
      <trkpt lat="41.908415" lon="12.47270833">
        <ele>0</ele>
        <time>1970-01-01T01:00:00Z</time>
      </trkpt>
      <trkpt lat="41.90839667" lon="12.47272333">
        <ele>0</ele>
        <time>1970-01-01T01:00:00Z</time>
      </trkpt>
      <trkpt lat="41.90837833" lon="12.47273833">
        <ele>0</ele>
        <time>1970-01-01T01:00:00Z</time>
      </trkpt>
      <trkpt lat="41.90835667" lon="12.47275333">
        <ele>0</ele>
        <time>1970-01-01T01:00:00Z</time>
      </trkpt>
      <trkpt lat="41.90833667" lon="12.47277">
        <ele>0</ele>
        <time>1970-01-01T01:00:00Z</time>
      </trkpt>
      <trkpt lat="41.90831833" lon="12.47278333">
        <ele>0</ele>
        <time>1970-01-01T01:00:00Z</time>
      </trkpt>
      <trkpt lat="41.9083" lon="12.47279833">
        <ele>0</ele>
        <time>1970-01-01T01:00:00Z</time>
      </trkpt>
      <trkpt lat="41.90828167" lon="12.47281333">
        <ele>0</ele>
        <time>1970-01-01T01:00:00Z</time>
      </trkpt>
      <trkpt lat="41.908265" lon="12.47282833">
        <ele>0</ele>
        <time>1970-01-01T01:00:00Z</time>
      </trkpt>
      <trkpt lat="41.90824667" lon="12.47284">
        <ele>0</ele>
        <time>1970-01-01T01:00:00Z</time>
      </trkpt>
      <trkpt lat="41.90822833" lon="12.47285333">
        <ele>0</ele>
        <time>1970-01-01T01:00:00Z</time>
      </trkpt>
      <trkpt lat="41.90820833" lon="12.47287">
        <ele>0</ele>
        <time>1970-01-01T01:00:00Z</time>
      </trkpt>
      <trkpt lat="41.90819" lon="12.472885">
        <ele>0</ele>
        <time>1970-01-01T01:00:00Z</time>
      </trkpt>
      <trkpt lat="41.90817167" lon="12.4729">
        <ele>0</ele>
        <time>1970-01-01T01:00:00Z</time>
      </trkpt>
      <trkpt lat="41.90815" lon="12.472915">
        <ele>0</ele>
        <time>1970-01-01T01:00:00Z</time>
      </trkpt>
      <trkpt lat="41.90813" lon="12.47293167">
        <ele>0</ele>
        <time>1970-01-01T01:00:00Z</time>
      </trkpt>
      <trkpt lat="41.90810833" lon="12.47294667">
        <ele>0</ele>
        <time>1970-01-01T01:00:00Z</time>
      </trkpt>
      <trkpt lat="41.90808833" lon="12.47296">
        <ele>0</ele>
        <time>1970-01-01T01:00:00Z</time>
      </trkpt>
      <trkpt lat="41.90806833" lon="12.472975">
        <ele>0</ele>
        <time>1970-01-01T01:00:00Z</time>
      </trkpt>
      <trkpt lat="41.90805" lon="12.47298833">
        <ele>0</ele>
        <time>1970-01-01T01:00:00Z</time>
      </trkpt>
      <trkpt lat="41.90803" lon="12.47300333">
        <ele>0</ele>
        <time>1970-01-01T01:00:00Z</time>
      </trkpt>
      <trkpt lat="41.90801167" lon="12.47302">
        <ele>0</ele>
        <time>1970-01-01T01:00:00Z</time>
      </trkpt>
      <trkpt lat="41.90799167" lon="12.473035">
        <ele>0</ele>
        <time>1970-01-01T01:00:00Z</time>
      </trkpt>
      <trkpt lat="41.90797" lon="12.47305">
        <ele>0</ele>
        <time>1970-01-01T01:00:00Z</time>
      </trkpt>
      <trkpt lat="41.90794833" lon="12.47306667">
        <ele>0</ele>
        <time>1970-01-01T01:00:00Z</time>
      </trkpt>
      <trkpt lat="41.90792667" lon="12.47308">
        <ele>0</ele>
        <time>1970-01-01T01:00:00Z</time>
      </trkpt>
      <trkpt lat="41.90790667" lon="12.47309">
        <ele>0</ele>
        <time>1970-01-01T01:00:00Z</time>
      </trkpt>
      <trkpt lat="41.90788667" lon="12.4731">
        <ele>0</ele>
        <time>1970-01-01T01:00:00Z</time>
      </trkpt>
      <trkpt lat="41.90786833" lon="12.47311333">
        <ele>0</ele>
        <time>1970-01-01T01:00:00Z</time>
      </trkpt>
      <trkpt lat="41.90784833" lon="12.47312833">
        <ele>0</ele>
        <time>1970-01-01T01:00:00Z</time>
      </trkpt>
      <trkpt lat="41.90782833" lon="12.47314333">
        <ele>0</ele>
        <time>1970-01-01T01:00:00Z</time>
      </trkpt>
      <trkpt lat="41.90780667" lon="12.47315833">
        <ele>0</ele>
        <time>1970-01-01T01:00:00Z</time>
      </trkpt>
      <trkpt lat="41.90778667" lon="12.47317667">
        <ele>0</ele>
        <time>1970-01-01T01:00:00Z</time>
      </trkpt>
      <trkpt lat="41.907765" lon="12.47319333">
        <ele>0</ele>
        <time>1970-01-01T01:00:00Z</time>
      </trkpt>
      <trkpt lat="41.907745" lon="12.47321167">
        <ele>0</ele>
        <time>1970-01-01T01:00:00Z</time>
      </trkpt>
      <trkpt lat="41.907725" lon="12.47322667">
        <ele>0</ele>
        <time>1970-01-01T01:00:00Z</time>
      </trkpt>
      <trkpt lat="41.907705" lon="12.47324167">
        <ele>0</ele>
        <time>1970-01-01T01:00:00Z</time>
      </trkpt>
      <trkpt lat="41.907685" lon="12.47325833">
        <ele>0</ele>
        <time>1970-01-01T01:00:00Z</time>
      </trkpt>
      <trkpt lat="41.907665" lon="12.47327333">
        <ele>0</ele>
        <time>1970-01-01T01:00:00Z</time>
      </trkpt>
      <trkpt lat="41.907645" lon="12.47328833">
        <ele>0</ele>
        <time>1970-01-01T01:00:00Z</time>
      </trkpt>
      <trkpt lat="41.90762333" lon="12.47330167">
        <ele>0</ele>
        <time>1970-01-01T01:00:00Z</time>
      </trkpt>
      <trkpt lat="41.907605" lon="12.47331333">
        <ele>0</ele>
        <time>1970-01-01T01:00:00Z</time>
      </trkpt>
      <trkpt lat="41.90758333" lon="12.47332833">
        <ele>0</ele>
        <time>1970-01-01T01:00:00Z</time>
      </trkpt>
      <trkpt lat="41.90756167" lon="12.47334167">
        <ele>0</ele>
        <time>1970-01-01T01:00:00Z</time>
      </trkpt>
      <trkpt lat="41.90754167" lon="12.47335833">
        <ele>0</ele>
        <time>1970-01-01T01:00:00Z</time>
      </trkpt>
      <trkpt lat="41.90752167" lon="12.473375">
        <ele>0</ele>
        <time>1970-01-01T01:00:00Z</time>
      </trkpt>
      <trkpt lat="41.90750167" lon="12.47339">
        <ele>0</ele>
        <time>1970-01-01T01:00:00Z</time>
      </trkpt>
      <trkpt lat="41.90748333" lon="12.47340167">
        <ele>0</ele>
        <time>1970-01-01T01:00:00Z</time>
      </trkpt>
      <trkpt lat="41.907465" lon="12.473415">
        <ele>0</ele>
        <time>1970-01-01T01:00:00Z</time>
      </trkpt>
      <trkpt lat="41.90744667" lon="12.47342833">
        <ele>0</ele>
        <time>1970-01-01T01:00:00Z</time>
      </trkpt>
      <trkpt lat="41.90742667" lon="12.47344">
        <ele>0</ele>
        <time>1970-01-01T01:00:00Z</time>
      </trkpt>
      <trkpt lat="41.90740667" lon="12.473455">
        <ele>0</ele>
        <time>1970-01-01T01:00:00Z</time>
      </trkpt>
      <trkpt lat="41.907385" lon="12.47347">
        <ele>0</ele>
        <time>1970-01-01T01:00:00Z</time>
      </trkpt>
      <trkpt lat="41.90736333" lon="12.473485">
        <ele>0</ele>
        <time>1970-01-01T01:00:00Z</time>
      </trkpt>
      <trkpt lat="41.90734333" lon="12.4735">
        <ele>0</ele>
        <time>1970-01-01T01:00:00Z</time>
      </trkpt>
      <trkpt lat="41.90732167" lon="12.47351167">
        <ele>0</ele>
        <time>1970-01-01T01:00:00Z</time>
      </trkpt>
      <trkpt lat="41.90730167" lon="12.473525">
        <ele>0</ele>
        <time>1970-01-01T01:00:00Z</time>
      </trkpt>
      <trkpt lat="41.90728" lon="12.47353833">
        <ele>0</ele>
        <time>1970-01-01T01:00:00Z</time>
      </trkpt>
      <trkpt lat="41.90725833" lon="12.47355167">
        <ele>0</ele>
        <time>1970-01-01T01:00:00Z</time>
      </trkpt>
      <trkpt lat="41.90723667" lon="12.47356167">
        <ele>0</ele>
        <time>1970-01-01T01:00:00Z</time>
      </trkpt>
      <trkpt lat="41.90721667" lon="12.47357333">
        <ele>0</ele>
        <time>1970-01-01T01:00:00Z</time>
      </trkpt>
      <trkpt lat="41.90719667" lon="12.47357833">
        <ele>0</ele>
        <time>1970-01-01T01:00:00Z</time>
      </trkpt>
      <trkpt lat="41.907175" lon="12.47358833">
        <ele>0</ele>
        <time>1970-01-01T01:00:00Z</time>
      </trkpt>
      <trkpt lat="41.90715333" lon="12.4736">
        <ele>0</ele>
        <time>1970-01-01T01:00:00Z</time>
      </trkpt>
      <trkpt lat="41.90713333" lon="12.47361167">
        <ele>0</ele>
        <time>1970-01-01T01:00:00Z</time>
      </trkpt>
      <trkpt lat="41.907115" lon="12.473625">
        <ele>0</ele>
        <time>1970-01-01T01:00:00Z</time>
      </trkpt>
      <trkpt lat="41.90709333" lon="12.473635">
        <ele>0</ele>
        <time>1970-01-01T01:00:00Z</time>
      </trkpt>
      <trkpt lat="41.907075" lon="12.47364667">
        <ele>0</ele>
        <time>1970-01-01T01:00:00Z</time>
      </trkpt>
      <trkpt lat="41.90705333" lon="12.47366">
        <ele>0</ele>
        <time>1970-01-01T01:00:00Z</time>
      </trkpt>
      <trkpt lat="41.90703333" lon="12.47367333">
        <ele>0</ele>
        <time>1970-01-01T01:00:00Z</time>
      </trkpt>
      <trkpt lat="41.90701" lon="12.473685">
        <ele>0</ele>
        <time>1970-01-01T01:00:00Z</time>
      </trkpt>
      <trkpt lat="41.90698833" lon="12.47369667">
        <ele>0</ele>
        <time>1970-01-01T01:00:00Z</time>
      </trkpt>
      <trkpt lat="41.90696667" lon="12.47370833">
        <ele>0</ele>
        <time>1970-01-01T01:00:00Z</time>
      </trkpt>
      <trkpt lat="41.90694333" lon="12.47371667">
        <ele>0</ele>
        <time>1970-01-01T01:00:00Z</time>
      </trkpt>
      <trkpt lat="41.90692167" lon="12.473725">
        <ele>0</ele>
        <time>1970-01-01T01:00:00Z</time>
      </trkpt>
      <trkpt lat="41.90689833" lon="12.47373167">
        <ele>0</ele>
        <time>1970-01-01T01:00:00Z</time>
      </trkpt>
      <trkpt lat="41.906875" lon="12.47374">
        <ele>0</ele>
        <time>1970-01-01T01:00:00Z</time>
      </trkpt>
      <trkpt lat="41.90685333" lon="12.47374667">
        <ele>0</ele>
        <time>1970-01-01T01:00:00Z</time>
      </trkpt>
      <trkpt lat="41.90683167" lon="12.47375333">
        <ele>0</ele>
        <time>1970-01-01T01:00:00Z</time>
      </trkpt>
      <trkpt lat="41.90681" lon="12.47376333">
        <ele>0</ele>
        <time>1970-01-01T01:00:00Z</time>
      </trkpt>
      <trkpt lat="41.90679" lon="12.47377333">
        <ele>0</ele>
        <time>1970-01-01T01:00:00Z</time>
      </trkpt>
      <trkpt lat="41.90676667" lon="12.47378">
        <ele>0</ele>
        <time>1970-01-01T01:00:00Z</time>
      </trkpt>
      <trkpt lat="41.906745" lon="12.47378667">
        <ele>0</ele>
        <time>1970-01-01T01:00:00Z</time>
      </trkpt>
      <trkpt lat="41.90672167" lon="12.47379167">
        <ele>0</ele>
        <time>1970-01-01T01:00:00Z</time>
      </trkpt>
      <trkpt lat="41.90669667" lon="12.473795">
        <ele>0</ele>
        <time>1970-01-01T01:00:00Z</time>
      </trkpt>
      <trkpt lat="41.90667167" lon="12.47379667">
        <ele>0</ele>
        <time>1970-01-01T01:00:00Z</time>
      </trkpt>
      <trkpt lat="41.90665" lon="12.47379667">
        <ele>0</ele>
        <time>1970-01-01T01:00:00Z</time>
      </trkpt>
      <trkpt lat="41.90663" lon="12.473795">
        <ele>0</ele>
        <time>1970-01-01T01:00:00Z</time>
      </trkpt>
      <trkpt lat="41.90660833" lon="12.47379333">
        <ele>0</ele>
        <time>1970-01-01T01:00:00Z</time>
      </trkpt>
      <trkpt lat="41.90658667" lon="12.47379333">
        <ele>0</ele>
        <time>1970-01-01T01:00:00Z</time>
      </trkpt>
      <trkpt lat="41.906565" lon="12.47379333">
        <ele>0</ele>
        <time>1970-01-01T01:00:00Z</time>
      </trkpt>
      <trkpt lat="41.90654667" lon="12.47379167">
        <ele>0</ele>
        <time>1970-01-01T01:00:00Z</time>
      </trkpt>
      <trkpt lat="41.90652833" lon="12.47379167">
        <ele>0</ele>
        <time>1970-01-01T01:00:00Z</time>
      </trkpt>
      <trkpt lat="41.90650833" lon="12.47379167">
        <ele>0</ele>
        <time>1970-01-01T01:00:00Z</time>
      </trkpt>
      <trkpt lat="41.90649" lon="12.47379">
        <ele>0</ele>
        <time>1970-01-01T01:00:00Z</time>
      </trkpt>
      <trkpt lat="41.90647" lon="12.47378667">
        <ele>0</ele>
        <time>1970-01-01T01:00:00Z</time>
      </trkpt>
      <trkpt lat="41.90645167" lon="12.47378667">
        <ele>0</ele>
        <time>1970-01-01T01:00:00Z</time>
      </trkpt>
      <trkpt lat="41.90643333" lon="12.47378333">
        <ele>0</ele>
        <time>1970-01-01T01:00:00Z</time>
      </trkpt>
      <trkpt lat="41.90641333" lon="12.47378167">
        <ele>0</ele>
        <time>1970-01-01T01:00:00Z</time>
      </trkpt>
      <trkpt lat="41.90639333" lon="12.47378">
        <ele>0</ele>
        <time>1970-01-01T01:00:00Z</time>
      </trkpt>
      <trkpt lat="41.90637333" lon="12.47377833">
        <ele>0</ele>
        <time>1970-01-01T01:00:00Z</time>
      </trkpt>
      <trkpt lat="41.906355" lon="12.473775">
        <ele>0</ele>
        <time>1970-01-01T01:00:00Z</time>
      </trkpt>
      <trkpt lat="41.90633333" lon="12.47377333">
        <ele>0</ele>
        <time>1970-01-01T01:00:00Z</time>
      </trkpt>
      <trkpt lat="41.906315" lon="12.47377333">
        <ele>0</ele>
        <time>1970-01-01T01:00:00Z</time>
      </trkpt>
      <trkpt lat="41.90629667" lon="12.473775">
        <ele>0</ele>
        <time>1970-01-01T01:00:00Z</time>
      </trkpt>
      <trkpt lat="41.90627833" lon="12.473775">
        <ele>0</ele>
        <time>1970-01-01T01:00:00Z</time>
      </trkpt>
      <trkpt lat="41.90625833" lon="12.47377167">
        <ele>0</ele>
        <time>1970-01-01T01:00:00Z</time>
      </trkpt>
      <trkpt lat="41.90623833" lon="12.47377">
        <ele>0</ele>
        <time>1970-01-01T01:00:00Z</time>
      </trkpt>
      <trkpt lat="41.90621833" lon="12.473765">
        <ele>0</ele>
        <time>1970-01-01T01:00:00Z</time>
      </trkpt>
      <trkpt lat="41.90619833" lon="12.47376167">
        <ele>0</ele>
        <time>1970-01-01T01:00:00Z</time>
      </trkpt>
      <trkpt lat="41.90617833" lon="12.47376">
        <ele>0</ele>
        <time>1970-01-01T01:00:00Z</time>
      </trkpt>
      <trkpt lat="41.90615833" lon="12.47375667">
        <ele>0</ele>
        <time>1970-01-01T01:00:00Z</time>
      </trkpt>
      <trkpt lat="41.90613833" lon="12.473755">
        <ele>0</ele>
        <time>1970-01-01T01:00:00Z</time>
      </trkpt>
      <trkpt lat="41.90611667" lon="12.47375">
        <ele>0</ele>
        <time>1970-01-01T01:00:00Z</time>
      </trkpt>
      <trkpt lat="41.906095" lon="12.47374833">
        <ele>0</ele>
        <time>1970-01-01T01:00:00Z</time>
      </trkpt>
      <trkpt lat="41.906075" lon="12.47374833">
        <ele>0</ele>
        <time>1970-01-01T01:00:00Z</time>
      </trkpt>
      <trkpt lat="41.90605667" lon="12.47374667">
        <ele>0</ele>
        <time>1970-01-01T01:00:00Z</time>
      </trkpt>
      <trkpt lat="41.90603833" lon="12.47374667">
        <ele>0</ele>
        <time>1970-01-01T01:00:00Z</time>
      </trkpt>
      <trkpt lat="41.906015" lon="12.47374667">
        <ele>0</ele>
        <time>1970-01-01T01:00:00Z</time>
      </trkpt>
      <trkpt lat="41.90599333" lon="12.47374667">
        <ele>0</ele>
        <time>1970-01-01T01:00:00Z</time>
      </trkpt>
      <trkpt lat="41.90597167" lon="12.47374833">
        <ele>0</ele>
        <time>1970-01-01T01:00:00Z</time>
      </trkpt>
      <trkpt lat="41.90594833" lon="12.47375333">
        <ele>0</ele>
        <time>1970-01-01T01:00:00Z</time>
      </trkpt>
      <trkpt lat="41.905925" lon="12.47375667">
        <ele>0</ele>
        <time>1970-01-01T01:00:00Z</time>
      </trkpt>
      <trkpt lat="41.9059" lon="12.47376">
        <ele>0</ele>
        <time>1970-01-01T01:00:00Z</time>
      </trkpt>
      <trkpt lat="41.905875" lon="12.473765">
        <ele>0</ele>
        <time>1970-01-01T01:00:00Z</time>
      </trkpt>
      <trkpt lat="41.90585" lon="12.47377">
        <ele>0</ele>
        <time>1970-01-01T01:00:00Z</time>
      </trkpt>
      <trkpt lat="41.90582833" lon="12.47377333">
        <ele>0</ele>
        <time>1970-01-01T01:00:00Z</time>
      </trkpt>
      <trkpt lat="41.90580667" lon="12.473775">
        <ele>0</ele>
        <time>1970-01-01T01:00:00Z</time>
      </trkpt>
      <trkpt lat="41.90578333" lon="12.47377833">
        <ele>0</ele>
        <time>1970-01-01T01:00:00Z</time>
      </trkpt>
      <trkpt lat="41.90575667" lon="12.473785">
        <ele>0</ele>
        <time>1970-01-01T01:00:00Z</time>
      </trkpt>
      <trkpt lat="41.90573167" lon="12.47378667">
        <ele>0</ele>
        <time>1970-01-01T01:00:00Z</time>
      </trkpt>
      <trkpt lat="41.905705" lon="12.47379">
        <ele>0</ele>
        <time>1970-01-01T01:00:00Z</time>
      </trkpt>
      <trkpt lat="41.90568" lon="12.47379167">
        <ele>0</ele>
        <time>1970-01-01T01:00:00Z</time>
      </trkpt>
      <trkpt lat="41.905655" lon="12.47379">
        <ele>0</ele>
        <time>1970-01-01T01:00:00Z</time>
      </trkpt>
      <trkpt lat="41.90563" lon="12.47378667">
        <ele>0</ele>
        <time>1970-01-01T01:00:00Z</time>
      </trkpt>
      <trkpt lat="41.90560667" lon="12.47378">
        <ele>0</ele>
        <time>1970-01-01T01:00:00Z</time>
      </trkpt>
      <trkpt lat="41.90558167" lon="12.47377667">
        <ele>0</ele>
        <time>1970-01-01T01:00:00Z</time>
      </trkpt>
      <trkpt lat="41.90555833" lon="12.47377167">
        <ele>0</ele>
        <time>1970-01-01T01:00:00Z</time>
      </trkpt>
      <trkpt lat="41.90553333" lon="12.47376667">
        <ele>0</ele>
        <time>1970-01-01T01:00:00Z</time>
      </trkpt>
      <trkpt lat="41.90551" lon="12.47376333">
        <ele>0</ele>
        <time>1970-01-01T01:00:00Z</time>
      </trkpt>
      <trkpt lat="41.90548667" lon="12.47376167">
        <ele>0</ele>
        <time>1970-01-01T01:00:00Z</time>
      </trkpt>
      <trkpt lat="41.90546333" lon="12.47375667">
        <ele>0</ele>
        <time>1970-01-01T01:00:00Z</time>
      </trkpt>
      <trkpt lat="41.90544" lon="12.47375333">
        <ele>0</ele>
        <time>1970-01-01T01:00:00Z</time>
      </trkpt>
      <trkpt lat="41.905415" lon="12.47375">
        <ele>0</ele>
        <time>1970-01-01T01:00:00Z</time>
      </trkpt>
      <trkpt lat="41.90539167" lon="12.47374833">
        <ele>0</ele>
        <time>1970-01-01T01:00:00Z</time>
      </trkpt>
      <trkpt lat="41.905365" lon="12.47374667">
        <ele>0</ele>
        <time>1970-01-01T01:00:00Z</time>
      </trkpt>
      <trkpt lat="41.90534167" lon="12.47374667">
        <ele>0</ele>
        <time>1970-01-01T01:00:00Z</time>
      </trkpt>
      <trkpt lat="41.90531667" lon="12.473745">
        <ele>0</ele>
        <time>1970-01-01T01:00:00Z</time>
      </trkpt>
      <trkpt lat="41.90528833" lon="12.47375">
        <ele>0</ele>
        <time>1970-01-01T01:00:00Z</time>
      </trkpt>
      <trkpt lat="41.90526333" lon="12.47375667">
        <ele>0</ele>
        <time>1970-01-01T01:00:00Z</time>
      </trkpt>
      <trkpt lat="41.90524" lon="12.47375833">
        <ele>0</ele>
        <time>1970-01-01T01:00:00Z</time>
      </trkpt>
      <trkpt lat="41.90522" lon="12.47376167">
        <ele>0</ele>
        <time>1970-01-01T01:00:00Z</time>
      </trkpt>
      <trkpt lat="41.9052" lon="12.47376167">
        <ele>0</ele>
        <time>1970-01-01T01:00:00Z</time>
      </trkpt>
      <trkpt lat="41.90518167" lon="12.47376">
        <ele>0</ele>
        <time>1970-01-01T01:00:00Z</time>
      </trkpt>
      <trkpt lat="41.905165" lon="12.47375833">
        <ele>0</ele>
        <time>1970-01-01T01:00:00Z</time>
      </trkpt>
      <trkpt lat="41.90515333" lon="12.47375833">
        <ele>0</ele>
        <time>1970-01-01T01:00:00Z</time>
      </trkpt>
      <trkpt lat="41.90515" lon="12.47376">
        <ele>0</ele>
        <time>1970-01-01T01:00:00Z</time>
      </trkpt>
      <trkpt lat="41.90515" lon="12.47376333">
        <ele>0</ele>
        <time>1970-01-01T01:00:00Z</time>
      </trkpt>
      <trkpt lat="41.90515167" lon="12.47376667">
        <ele>0</ele>
        <time>1970-01-01T01:00:00Z</time>
      </trkpt>
      <trkpt lat="41.90515667" lon="12.47376667">
        <ele>0</ele>
        <time>1970-01-01T01:00:00Z</time>
      </trkpt>
      <trkpt lat="41.90516" lon="12.47376833">
        <ele>0</ele>
        <time>1970-01-01T01:00:00Z</time>
      </trkpt>
      <trkpt lat="41.90516333" lon="12.47377167">
        <ele>0</ele>
        <time>1970-01-01T01:00:00Z</time>
      </trkpt>
      <trkpt lat="41.90516667" lon="12.473775">
        <ele>0</ele>
        <time>1970-01-01T01:00:00Z</time>
      </trkpt>
      <trkpt lat="41.90517" lon="12.47378">
        <ele>0</ele>
        <time>1970-01-01T01:00:00Z</time>
      </trkpt>
      <trkpt lat="41.90517333" lon="12.473785">
        <ele>0</ele>
        <time>1970-01-01T01:00:00Z</time>
      </trkpt>
      <trkpt lat="41.905175" lon="12.47379">
        <ele>0</ele>
        <time>1970-01-01T01:00:00Z</time>
      </trkpt>
      <trkpt lat="41.90517833" lon="12.47379167">
        <ele>0</ele>
        <time>1970-01-01T01:00:00Z</time>
      </trkpt>
      <trkpt lat="41.90518333" lon="12.47379667">
        <ele>0</ele>
        <time>1970-01-01T01:00:00Z</time>
      </trkpt>
      <trkpt lat="41.90519" lon="12.4738">
        <ele>0</ele>
        <time>1970-01-01T01:00:00Z</time>
      </trkpt>
      <trkpt lat="41.90519667" lon="12.47380333">
        <ele>0</ele>
        <time>1970-01-01T01:00:00Z</time>
      </trkpt>
      <trkpt lat="41.90520333" lon="12.47381">
        <ele>0</ele>
        <time>1970-01-01T01:00:00Z</time>
      </trkpt>
      <trkpt lat="41.90521" lon="12.47381333">
        <ele>0</ele>
        <time>1970-01-01T01:00:00Z</time>
      </trkpt>
      <trkpt lat="41.90521333" lon="12.473815">
        <ele>0</ele>
        <time>1970-01-01T01:00:00Z</time>
      </trkpt>
      <trkpt lat="41.90522" lon="12.47382">
        <ele>0</ele>
        <time>1970-01-01T01:00:00Z</time>
      </trkpt>
      <trkpt lat="41.90522167" lon="12.47382667">
        <ele>0</ele>
        <time>1970-01-01T01:00:00Z</time>
      </trkpt>
      <trkpt lat="41.90522667" lon="12.47383167">
        <ele>0</ele>
        <time>1970-01-01T01:00:00Z</time>
      </trkpt>
      <trkpt lat="41.90523" lon="12.47383333">
        <ele>0</ele>
        <time>1970-01-01T01:00:00Z</time>
      </trkpt>
      <trkpt lat="41.905235" lon="12.47383333">
        <ele>0</ele>
        <time>1970-01-01T01:00:00Z</time>
      </trkpt>
      <trkpt lat="41.905245" lon="12.47383167">
        <ele>0</ele>
        <time>1970-01-01T01:00:00Z</time>
      </trkpt>
      <trkpt lat="41.90525333" lon="12.47382667">
        <ele>0</ele>
        <time>1970-01-01T01:00:00Z</time>
      </trkpt>
      <trkpt lat="41.90526167" lon="12.473825">
        <ele>0</ele>
        <time>1970-01-01T01:00:00Z</time>
      </trkpt>
      <trkpt lat="41.90527" lon="12.473825">
        <ele>0</ele>
        <time>1970-01-01T01:00:00Z</time>
      </trkpt>
      <trkpt lat="41.90528167" lon="12.47382333">
        <ele>0</ele>
        <time>1970-01-01T01:00:00Z</time>
      </trkpt>
      <trkpt lat="41.90529333" lon="12.473825">
        <ele>0</ele>
        <time>1970-01-01T01:00:00Z</time>
      </trkpt>
      <trkpt lat="41.90530167" lon="12.473825">
        <ele>0</ele>
        <time>1970-01-01T01:00:00Z</time>
      </trkpt>
      <trkpt lat="41.90531" lon="12.47382167">
        <ele>0</ele>
        <time>1970-01-01T01:00:00Z</time>
      </trkpt>
      <trkpt lat="41.90532" lon="12.47382">
        <ele>0</ele>
        <time>1970-01-01T01:00:00Z</time>
      </trkpt>
      <trkpt lat="41.90532833" lon="12.47382">
        <ele>0</ele>
        <time>1970-01-01T01:00:00Z</time>
      </trkpt>
      <trkpt lat="41.905335" lon="12.47381833">
        <ele>0</ele>
        <time>1970-01-01T01:00:00Z</time>
      </trkpt>
      <trkpt lat="41.90534167" lon="12.47381667">
        <ele>0</ele>
        <time>1970-01-01T01:00:00Z</time>
      </trkpt>
      <trkpt lat="41.90534667" lon="12.473815">
        <ele>0</ele>
        <time>1970-01-01T01:00:00Z</time>
      </trkpt>
      <trkpt lat="41.90535333" lon="12.47380833">
        <ele>0</ele>
        <time>1970-01-01T01:00:00Z</time>
      </trkpt>
      <trkpt lat="41.90536" lon="12.47380333">
        <ele>0</ele>
        <time>1970-01-01T01:00:00Z</time>
      </trkpt>
      <trkpt lat="41.90536667" lon="12.47379833">
        <ele>0</ele>
        <time>1970-01-01T01:00:00Z</time>
      </trkpt>
      <trkpt lat="41.90537167" lon="12.47379333">
        <ele>0</ele>
        <time>1970-01-01T01:00:00Z</time>
      </trkpt>
      <trkpt lat="41.90537667" lon="12.47378667">
        <ele>0</ele>
        <time>1970-01-01T01:00:00Z</time>
      </trkpt>
      <trkpt lat="41.905385" lon="12.47378">
        <ele>0</ele>
        <time>1970-01-01T01:00:00Z</time>
      </trkpt>
      <trkpt lat="41.90539333" lon="12.47377167">
        <ele>0</ele>
        <time>1970-01-01T01:00:00Z</time>
      </trkpt>
      <trkpt lat="41.90539833" lon="12.47376167">
        <ele>0</ele>
        <time>1970-01-01T01:00:00Z</time>
      </trkpt>
      <trkpt lat="41.90540333" lon="12.47375167">
        <ele>0</ele>
        <time>1970-01-01T01:00:00Z</time>
      </trkpt>
      <trkpt lat="41.90540333" lon="12.47374167">
        <ele>0</ele>
        <time>1970-01-01T01:00:00Z</time>
      </trkpt>
      <trkpt lat="41.90540167" lon="12.47373333">
        <ele>0</ele>
        <time>1970-01-01T01:00:00Z</time>
      </trkpt>
      <trkpt lat="41.9054" lon="12.473725">
        <ele>0</ele>
        <time>1970-01-01T01:00:00Z</time>
      </trkpt>
      <trkpt lat="41.905395" lon="12.47371833">
        <ele>0</ele>
        <time>1970-01-01T01:00:00Z</time>
      </trkpt>
      <trkpt lat="41.90538667" lon="12.47371">
        <ele>0</ele>
        <time>1970-01-01T01:00:00Z</time>
      </trkpt>
      <trkpt lat="41.905375" lon="12.4737">
        <ele>0</ele>
        <time>1970-01-01T01:00:00Z</time>
      </trkpt>
      <trkpt lat="41.90536667" lon="12.473695">
        <ele>0</ele>
        <time>1970-01-01T01:00:00Z</time>
      </trkpt>
      <trkpt lat="41.90535667" lon="12.47369">
        <ele>0</ele>
        <time>1970-01-01T01:00:00Z</time>
      </trkpt>
      <trkpt lat="41.90534667" lon="12.47368667">
        <ele>0</ele>
        <time>1970-01-01T01:00:00Z</time>
      </trkpt>
      <trkpt lat="41.90533833" lon="12.473685">
        <ele>0</ele>
        <time>1970-01-01T01:00:00Z</time>
      </trkpt>
      <trkpt lat="41.90532667" lon="12.47368333">
        <ele>0</ele>
        <time>1970-01-01T01:00:00Z</time>
      </trkpt>
      <trkpt lat="41.905315" lon="12.47368333">
        <ele>0</ele>
        <time>1970-01-01T01:00:00Z</time>
      </trkpt>
      <trkpt lat="41.905305" lon="12.473685">
        <ele>0</ele>
        <time>1970-01-01T01:00:00Z</time>
      </trkpt>
      <trkpt lat="41.90529667" lon="12.473685">
        <ele>0</ele>
        <time>1970-01-01T01:00:00Z</time>
      </trkpt>
      <trkpt lat="41.90529" lon="12.47368167">
        <ele>0</ele>
        <time>1970-01-01T01:00:00Z</time>
      </trkpt>
      <trkpt lat="41.90528167" lon="12.47367667">
        <ele>0</ele>
        <time>1970-01-01T01:00:00Z</time>
      </trkpt>
      <trkpt lat="41.905275" lon="12.47367167">
        <ele>0</ele>
        <time>1970-01-01T01:00:00Z</time>
      </trkpt>
      <trkpt lat="41.905265" lon="12.47366667">
        <ele>0</ele>
        <time>1970-01-01T01:00:00Z</time>
      </trkpt>
      <trkpt lat="41.90525667" lon="12.47366167">
        <ele>0</ele>
        <time>1970-01-01T01:00:00Z</time>
      </trkpt>
      <trkpt lat="41.905245" lon="12.47365667">
        <ele>0</ele>
        <time>1970-01-01T01:00:00Z</time>
      </trkpt>
      <trkpt lat="41.905235" lon="12.47365167">
        <ele>0</ele>
        <time>1970-01-01T01:00:00Z</time>
      </trkpt>
      <trkpt lat="41.905225" lon="12.47364833">
        <ele>0</ele>
        <time>1970-01-01T01:00:00Z</time>
      </trkpt>
      <trkpt lat="41.90521333" lon="12.473645">
        <ele>0</ele>
        <time>1970-01-01T01:00:00Z</time>
      </trkpt>
      <trkpt lat="41.905205" lon="12.47364">
        <ele>0</ele>
        <time>1970-01-01T01:00:00Z</time>
      </trkpt>
      <trkpt lat="41.905195" lon="12.47363833">
        <ele>0</ele>
        <time>1970-01-01T01:00:00Z</time>
      </trkpt>
      <trkpt lat="41.90518833" lon="12.473635">
        <ele>0</ele>
        <time>1970-01-01T01:00:00Z</time>
      </trkpt>
      <trkpt lat="41.90518" lon="12.47363">
        <ele>0</ele>
        <time>1970-01-01T01:00:00Z</time>
      </trkpt>
      <trkpt lat="41.90517333" lon="12.47362833">
        <ele>0</ele>
        <time>1970-01-01T01:00:00Z</time>
      </trkpt>
      <trkpt lat="41.905165" lon="12.47362667">
        <ele>0</ele>
        <time>1970-01-01T01:00:00Z</time>
      </trkpt>
      <trkpt lat="41.90515667" lon="12.47362667">
        <ele>0</ele>
        <time>1970-01-01T01:00:00Z</time>
      </trkpt>
      <trkpt lat="41.90514667" lon="12.473625">
        <ele>0</ele>
        <time>1970-01-01T01:00:00Z</time>
      </trkpt>
      <trkpt lat="41.90513667" lon="12.47362333">
        <ele>0</ele>
        <time>1970-01-01T01:00:00Z</time>
      </trkpt>
      <trkpt lat="41.90512667" lon="12.47362167">
        <ele>0</ele>
        <time>1970-01-01T01:00:00Z</time>
      </trkpt>
      <trkpt lat="41.905115" lon="12.47363">
        <ele>0</ele>
        <time>1970-01-01T01:00:00Z</time>
      </trkpt>
      <trkpt lat="41.90510833" lon="12.47363833">
        <ele>0</ele>
        <time>1970-01-01T01:00:00Z</time>
      </trkpt>
      <trkpt lat="41.90510333" lon="12.47365">
        <ele>0</ele>
        <time>1970-01-01T01:00:00Z</time>
      </trkpt>
      <trkpt lat="41.9051" lon="12.473665">
        <ele>0</ele>
        <time>1970-01-01T01:00:00Z</time>
      </trkpt>
      <trkpt lat="41.90509667" lon="12.473685">
        <ele>0</ele>
        <time>1970-01-01T01:00:00Z</time>
      </trkpt>
      <trkpt lat="41.90509333" lon="12.47371">
        <ele>0</ele>
        <time>1970-01-01T01:00:00Z</time>
      </trkpt>
      <trkpt lat="41.90509167" lon="12.47373833">
        <ele>0</ele>
        <time>1970-01-01T01:00:00Z</time>
      </trkpt>
      <trkpt lat="41.90508833" lon="12.473765">
        <ele>0</ele>
        <time>1970-01-01T01:00:00Z</time>
      </trkpt>
      <trkpt lat="41.905085" lon="12.47379">
        <ele>0</ele>
        <time>1970-01-01T01:00:00Z</time>
      </trkpt>
      <trkpt lat="41.90508333" lon="12.473815">
        <ele>0</ele>
        <time>1970-01-01T01:00:00Z</time>
      </trkpt>
      <trkpt lat="41.90508167" lon="12.47384167">
        <ele>0</ele>
        <time>1970-01-01T01:00:00Z</time>
      </trkpt>
      <trkpt lat="41.90508" lon="12.47387167">
        <ele>0</ele>
        <time>1970-01-01T01:00:00Z</time>
      </trkpt>
      <trkpt lat="41.90507667" lon="12.4739">
        <ele>0</ele>
        <time>1970-01-01T01:00:00Z</time>
      </trkpt>
      <trkpt lat="41.905075" lon="12.47393">
        <ele>0</ele>
        <time>1970-01-01T01:00:00Z</time>
      </trkpt>
      <trkpt lat="41.90507333" lon="12.47396">
        <ele>0</ele>
        <time>1970-01-01T01:00:00Z</time>
      </trkpt>
      <trkpt lat="41.90507167" lon="12.47399667">
        <ele>0</ele>
        <time>1970-01-01T01:00:00Z</time>
      </trkpt>
      <trkpt lat="41.90507" lon="12.47402833">
        <ele>0</ele>
        <time>1970-01-01T01:00:00Z</time>
      </trkpt>
      <trkpt lat="41.90506667" lon="12.47406">
        <ele>0</ele>
        <time>1970-01-01T01:00:00Z</time>
      </trkpt>
      <trkpt lat="41.90506333" lon="12.47409">
        <ele>0</ele>
        <time>1970-01-01T01:00:00Z</time>
      </trkpt>
      <trkpt lat="41.90506333" lon="12.47412167">
        <ele>0</ele>
        <time>1970-01-01T01:00:00Z</time>
      </trkpt>
      <trkpt lat="41.90506167" lon="12.47415167">
        <ele>0</ele>
        <time>1970-01-01T01:00:00Z</time>
      </trkpt>
      <trkpt lat="41.90506" lon="12.47418333">
        <ele>0</ele>
        <time>1970-01-01T01:00:00Z</time>
      </trkpt>
      <trkpt lat="41.90505667" lon="12.474215">
        <ele>0</ele>
        <time>1970-01-01T01:00:00Z</time>
      </trkpt>
      <trkpt lat="41.905055" lon="12.474245">
        <ele>0</ele>
        <time>1970-01-01T01:00:00Z</time>
      </trkpt>
      <trkpt lat="41.90505333" lon="12.47427833">
        <ele>0</ele>
        <time>1970-01-01T01:00:00Z</time>
      </trkpt>
      <trkpt lat="41.90505167" lon="12.47430833">
        <ele>0</ele>
        <time>1970-01-01T01:00:00Z</time>
      </trkpt>
      <trkpt lat="41.90504833" lon="12.47434">
        <ele>0</ele>
        <time>1970-01-01T01:00:00Z</time>
      </trkpt>
      <trkpt lat="41.90504667" lon="12.47437">
        <ele>0</ele>
        <time>1970-01-01T01:00:00Z</time>
      </trkpt>
      <trkpt lat="41.90504333" lon="12.47440333">
        <ele>0</ele>
        <time>1970-01-01T01:00:00Z</time>
      </trkpt>
      <trkpt lat="41.90504" lon="12.47443333">
        <ele>0</ele>
        <time>1970-01-01T01:00:00Z</time>
      </trkpt>
      <trkpt lat="41.90503667" lon="12.474465">
        <ele>0</ele>
        <time>1970-01-01T01:00:00Z</time>
      </trkpt>
      <trkpt lat="41.905035" lon="12.474495">
        <ele>0</ele>
        <time>1970-01-01T01:00:00Z</time>
      </trkpt>
      <trkpt lat="41.90503167" lon="12.47452667">
        <ele>0</ele>
        <time>1970-01-01T01:00:00Z</time>
      </trkpt>
      <trkpt lat="41.90503" lon="12.47455833">
        <ele>0</ele>
        <time>1970-01-01T01:00:00Z</time>
      </trkpt>
      <trkpt lat="41.90502833" lon="12.47459167">
        <ele>0</ele>
        <time>1970-01-01T01:00:00Z</time>
      </trkpt>
      <trkpt lat="41.90502667" lon="12.474625">
        <ele>0</ele>
        <time>1970-01-01T01:00:00Z</time>
      </trkpt>
      <trkpt lat="41.90502333" lon="12.47465833">
        <ele>0</ele>
        <time>1970-01-01T01:00:00Z</time>
      </trkpt>
      <trkpt lat="41.90502333" lon="12.47468667">
        <ele>0</ele>
        <time>1970-01-01T01:00:00Z</time>
      </trkpt>
      <trkpt lat="41.90502333" lon="12.474715">
        <ele>0</ele>
        <time>1970-01-01T01:00:00Z</time>
      </trkpt>
      <trkpt lat="41.90502167" lon="12.474745">
        <ele>0</ele>
        <time>1970-01-01T01:00:00Z</time>
      </trkpt>
      <trkpt lat="41.90502" lon="12.474775">
        <ele>0</ele>
        <time>1970-01-01T01:00:00Z</time>
      </trkpt>
      <trkpt lat="41.90502" lon="12.47480333">
        <ele>0</ele>
        <time>1970-01-01T01:00:00Z</time>
      </trkpt>
      <trkpt lat="41.90501833" lon="12.47483167">
        <ele>0</ele>
        <time>1970-01-01T01:00:00Z</time>
      </trkpt>
      <trkpt lat="41.905015" lon="12.47486333">
        <ele>0</ele>
        <time>1970-01-01T01:00:00Z</time>
      </trkpt>
      <trkpt lat="41.90501333" lon="12.47489">
        <ele>0</ele>
        <time>1970-01-01T01:00:00Z</time>
      </trkpt>
      <trkpt lat="41.90501" lon="12.47491833">
        <ele>0</ele>
        <time>1970-01-01T01:00:00Z</time>
      </trkpt>
      <trkpt lat="41.90500833" lon="12.47494">
        <ele>0</ele>
        <time>1970-01-01T01:00:00Z</time>
      </trkpt>
      <trkpt lat="41.90500833" lon="12.474955">
        <ele>0</ele>
        <time>1970-01-01T01:00:00Z</time>
      </trkpt>
      <trkpt lat="41.90501" lon="12.47496333">
        <ele>0</ele>
        <time>1970-01-01T01:00:00Z</time>
      </trkpt>
      <trkpt lat="41.90501167" lon="12.47499167">
        <ele>0</ele>
        <time>1970-01-01T01:00:00Z</time>
      </trkpt>
      <trkpt lat="41.90501167" lon="12.475005">
        <ele>0</ele>
        <time>1970-01-01T01:00:00Z</time>
      </trkpt>
      <trkpt lat="41.905005" lon="12.47503333">
        <ele>0</ele>
        <time>1970-01-01T01:00:00Z</time>
      </trkpt>
      <trkpt lat="41.90500333" lon="12.47506">
        <ele>0</ele>
        <time>1970-01-01T01:00:00Z</time>
      </trkpt>
      <trkpt lat="41.90500333" lon="12.47509167">
        <ele>0</ele>
        <time>1970-01-01T01:00:00Z</time>
      </trkpt>
      <trkpt lat="41.90500167" lon="12.47512333">
        <ele>0</ele>
        <time>1970-01-01T01:00:00Z</time>
      </trkpt>
      <trkpt lat="41.90500167" lon="12.47515333">
        <ele>0</ele>
        <time>1970-01-01T01:00:00Z</time>
      </trkpt>
      <trkpt lat="41.905" lon="12.47518833">
        <ele>0</ele>
        <time>1970-01-01T01:00:00Z</time>
      </trkpt>
      <trkpt lat="41.905" lon="12.47521833">
        <ele>0</ele>
        <time>1970-01-01T01:00:00Z</time>
      </trkpt>
      <trkpt lat="41.905" lon="12.47525167">
        <ele>0</ele>
        <time>1970-01-01T01:00:00Z</time>
      </trkpt>
      <trkpt lat="41.905" lon="12.47528">
        <ele>0</ele>
        <time>1970-01-01T01:00:00Z</time>
      </trkpt>
      <trkpt lat="41.905" lon="12.47530833">
        <ele>0</ele>
        <time>1970-01-01T01:00:00Z</time>
      </trkpt>
      <trkpt lat="41.90499833" lon="12.47533833">
        <ele>0</ele>
        <time>1970-01-01T01:00:00Z</time>
      </trkpt>
      <trkpt lat="41.90499667" lon="12.47537">
        <ele>0</ele>
        <time>1970-01-01T01:00:00Z</time>
      </trkpt>
      <trkpt lat="41.904995" lon="12.47539833">
        <ele>0</ele>
        <time>1970-01-01T01:00:00Z</time>
      </trkpt>
      <trkpt lat="41.90499333" lon="12.475425">
        <ele>0</ele>
        <time>1970-01-01T01:00:00Z</time>
      </trkpt>
      <trkpt lat="41.90499" lon="12.47544667">
        <ele>0</ele>
        <time>1970-01-01T01:00:00Z</time>
      </trkpt>
      <trkpt lat="41.90498333" lon="12.47546833">
        <ele>0</ele>
        <time>1970-01-01T01:00:00Z</time>
      </trkpt>
      <trkpt lat="41.90497667" lon="12.47548833">
        <ele>0</ele>
        <time>1970-01-01T01:00:00Z</time>
      </trkpt>
      <trkpt lat="41.90496667" lon="12.47550667">
        <ele>0</ele>
        <time>1970-01-01T01:00:00Z</time>
      </trkpt>
      <trkpt lat="41.90495833" lon="12.47552667">
        <ele>0</ele>
        <time>1970-01-01T01:00:00Z</time>
      </trkpt>
      <trkpt lat="41.90495" lon="12.47555">
        <ele>0</ele>
        <time>1970-01-01T01:00:00Z</time>
      </trkpt>
      <trkpt lat="41.904945" lon="12.47557">
        <ele>0</ele>
        <time>1970-01-01T01:00:00Z</time>
      </trkpt>
      <trkpt lat="41.90494" lon="12.47559667">
        <ele>0</ele>
        <time>1970-01-01T01:00:00Z</time>
      </trkpt>
      <trkpt lat="41.90493667" lon="12.47562167">
        <ele>0</ele>
        <time>1970-01-01T01:00:00Z</time>
      </trkpt>
      <trkpt lat="41.90493167" lon="12.47564833">
        <ele>0</ele>
        <time>1970-01-01T01:00:00Z</time>
      </trkpt>
      <trkpt lat="41.90492667" lon="12.475675">
        <ele>0</ele>
        <time>1970-01-01T01:00:00Z</time>
      </trkpt>
      <trkpt lat="41.90492167" lon="12.47570333">
        <ele>0</ele>
        <time>1970-01-01T01:00:00Z</time>
      </trkpt>
      <trkpt lat="41.904915" lon="12.47573167">
        <ele>0</ele>
        <time>1970-01-01T01:00:00Z</time>
      </trkpt>
      <trkpt lat="41.90491" lon="12.47576167">
        <ele>0</ele>
        <time>1970-01-01T01:00:00Z</time>
      </trkpt>
      <trkpt lat="41.90490833" lon="12.47579">
        <ele>0</ele>
        <time>1970-01-01T01:00:00Z</time>
      </trkpt>
      <trkpt lat="41.90490833" lon="12.475815">
        <ele>0</ele>
        <time>1970-01-01T01:00:00Z</time>
      </trkpt>
      <trkpt lat="41.90490667" lon="12.47584167">
        <ele>0</ele>
        <time>1970-01-01T01:00:00Z</time>
      </trkpt>
      <trkpt lat="41.90490167" lon="12.47587">
        <ele>0</ele>
        <time>1970-01-01T01:00:00Z</time>
      </trkpt>
      <trkpt lat="41.904895" lon="12.47590167">
        <ele>0</ele>
        <time>1970-01-01T01:00:00Z</time>
      </trkpt>
      <trkpt lat="41.904885" lon="12.47593833">
        <ele>0</ele>
        <time>1970-01-01T01:00:00Z</time>
      </trkpt>
      <trkpt lat="41.90487833" lon="12.47596833">
        <ele>0</ele>
        <time>1970-01-01T01:00:00Z</time>
      </trkpt>
      <trkpt lat="41.90487167" lon="12.47600333">
        <ele>0</ele>
        <time>1970-01-01T01:00:00Z</time>
      </trkpt>
      <trkpt lat="41.904865" lon="12.47603667">
        <ele>0</ele>
        <time>1970-01-01T01:00:00Z</time>
      </trkpt>
      <trkpt lat="41.90485667" lon="12.47606833">
        <ele>0</ele>
        <time>1970-01-01T01:00:00Z</time>
      </trkpt>
      <trkpt lat="41.90485167" lon="12.4761">
        <ele>0</ele>
        <time>1970-01-01T01:00:00Z</time>
      </trkpt>
      <trkpt lat="41.904845" lon="12.47613">
        <ele>0</ele>
        <time>1970-01-01T01:00:00Z</time>
      </trkpt>
      <trkpt lat="41.90483667" lon="12.47616">
        <ele>0</ele>
        <time>1970-01-01T01:00:00Z</time>
      </trkpt>
      <trkpt lat="41.90483" lon="12.47619">
        <ele>0</ele>
        <time>1970-01-01T01:00:00Z</time>
      </trkpt>
      <trkpt lat="41.90482167" lon="12.47622">
        <ele>0</ele>
        <time>1970-01-01T01:00:00Z</time>
      </trkpt>
      <trkpt lat="41.90481667" lon="12.47624333">
        <ele>0</ele>
        <time>1970-01-01T01:00:00Z</time>
      </trkpt>
      <trkpt lat="41.90481" lon="12.476265">
        <ele>0</ele>
        <time>1970-01-01T01:00:00Z</time>
      </trkpt>
      <trkpt lat="41.904805" lon="12.47628833">
        <ele>0</ele>
        <time>1970-01-01T01:00:00Z</time>
      </trkpt>
      <trkpt lat="41.90480167" lon="12.47630833">
        <ele>0</ele>
        <time>1970-01-01T01:00:00Z</time>
      </trkpt>
      <trkpt lat="41.90479833" lon="12.47633167">
        <ele>0</ele>
        <time>1970-01-01T01:00:00Z</time>
      </trkpt>
      <trkpt lat="41.90479833" lon="12.476355">
        <ele>0</ele>
        <time>1970-01-01T01:00:00Z</time>
      </trkpt>
      <trkpt lat="41.904795" lon="12.47638">
        <ele>0</ele>
        <time>1970-01-01T01:00:00Z</time>
      </trkpt>
      <trkpt lat="41.90479167" lon="12.476405">
        <ele>0</ele>
        <time>1970-01-01T01:00:00Z</time>
      </trkpt>
      <trkpt lat="41.90478667" lon="12.47643333">
        <ele>0</ele>
        <time>1970-01-01T01:00:00Z</time>
      </trkpt>
      <trkpt lat="41.90478333" lon="12.47646167">
        <ele>0</ele>
        <time>1970-01-01T01:00:00Z</time>
      </trkpt>
      <trkpt lat="41.90477833" lon="12.476495">
        <ele>0</ele>
        <time>1970-01-01T01:00:00Z</time>
      </trkpt>
      <trkpt lat="41.90477333" lon="12.47652833">
        <ele>0</ele>
        <time>1970-01-01T01:00:00Z</time>
      </trkpt>
      <trkpt lat="41.90476667" lon="12.476565">
        <ele>0</ele>
        <time>1970-01-01T01:00:00Z</time>
      </trkpt>
      <trkpt lat="41.90476" lon="12.4766">
        <ele>0</ele>
        <time>1970-01-01T01:00:00Z</time>
      </trkpt>
      <trkpt lat="41.904755" lon="12.47663333">
        <ele>0</ele>
        <time>1970-01-01T01:00:00Z</time>
      </trkpt>
      <trkpt lat="41.90474833" lon="12.47666667">
        <ele>0</ele>
        <time>1970-01-01T01:00:00Z</time>
      </trkpt>
      <trkpt lat="41.90474667" lon="12.47669833">
        <ele>0</ele>
        <time>1970-01-01T01:00:00Z</time>
      </trkpt>
      <trkpt lat="41.90474" lon="12.476735">
        <ele>0</ele>
        <time>1970-01-01T01:00:00Z</time>
      </trkpt>
      <trkpt lat="41.90474" lon="12.47676833">
        <ele>0</ele>
        <time>1970-01-01T01:00:00Z</time>
      </trkpt>
      <trkpt lat="41.90474167" lon="12.47680167">
        <ele>0</ele>
        <time>1970-01-01T01:00:00Z</time>
      </trkpt>
      <trkpt lat="41.904745" lon="12.47683667">
        <ele>0</ele>
        <time>1970-01-01T01:00:00Z</time>
      </trkpt>
      <trkpt lat="41.90475" lon="12.47686667">
        <ele>0</ele>
        <time>1970-01-01T01:00:00Z</time>
      </trkpt>
      <trkpt lat="41.90475333" lon="12.47689333">
        <ele>0</ele>
        <time>1970-01-01T01:00:00Z</time>
      </trkpt>
      <trkpt lat="41.904755" lon="12.47691667">
        <ele>0</ele>
        <time>1970-01-01T01:00:00Z</time>
      </trkpt>
      <trkpt lat="41.90475333" lon="12.47694167">
        <ele>0</ele>
        <time>1970-01-01T01:00:00Z</time>
      </trkpt>
      <trkpt lat="41.90475167" lon="12.476965">
        <ele>0</ele>
        <time>1970-01-01T01:00:00Z</time>
      </trkpt>
      <trkpt lat="41.90474833" lon="12.476985">
        <ele>0</ele>
        <time>1970-01-01T01:00:00Z</time>
      </trkpt>
      <trkpt lat="41.90474667" lon="12.47700167">
        <ele>0</ele>
        <time>1970-01-01T01:00:00Z</time>
      </trkpt>
      <trkpt lat="41.90474667" lon="12.477015">
        <ele>0</ele>
        <time>1970-01-01T01:00:00Z</time>
      </trkpt>
      <trkpt lat="41.90474333" lon="12.47703167">
        <ele>0</ele>
        <time>1970-01-01T01:00:00Z</time>
      </trkpt>
      <trkpt lat="41.90474167" lon="12.47705">
        <ele>0</ele>
        <time>1970-01-01T01:00:00Z</time>
      </trkpt>
      <trkpt lat="41.90474167" lon="12.47707">
        <ele>0</ele>
        <time>1970-01-01T01:00:00Z</time>
      </trkpt>
      <trkpt lat="41.90474" lon="12.47709333">
        <ele>0</ele>
        <time>1970-01-01T01:00:00Z</time>
      </trkpt>
      <trkpt lat="41.90474" lon="12.47711333">
        <ele>0</ele>
        <time>1970-01-01T01:00:00Z</time>
      </trkpt>
      <trkpt lat="41.90473833" lon="12.47713167">
        <ele>0</ele>
        <time>1970-01-01T01:00:00Z</time>
      </trkpt>
      <trkpt lat="41.90474" lon="12.47715167">
        <ele>0</ele>
        <time>1970-01-01T01:00:00Z</time>
      </trkpt>
      <trkpt lat="41.90473833" lon="12.47717833">
        <ele>0</ele>
        <time>1970-01-01T01:00:00Z</time>
      </trkpt>
      <trkpt lat="41.90474" lon="12.47720167">
        <ele>0</ele>
        <time>1970-01-01T01:00:00Z</time>
      </trkpt>
      <trkpt lat="41.90473667" lon="12.47722667">
        <ele>0</ele>
        <time>1970-01-01T01:00:00Z</time>
      </trkpt>
      <trkpt lat="41.90473167" lon="12.47725667">
        <ele>0</ele>
        <time>1970-01-01T01:00:00Z</time>
      </trkpt>
      <trkpt lat="41.90472667" lon="12.47728833">
        <ele>0</ele>
        <time>1970-01-01T01:00:00Z</time>
      </trkpt>
      <trkpt lat="41.90472167" lon="12.47732167">
        <ele>0</ele>
        <time>1970-01-01T01:00:00Z</time>
      </trkpt>
      <trkpt lat="41.90471667" lon="12.47736167">
        <ele>0</ele>
        <time>1970-01-01T01:00:00Z</time>
      </trkpt>
      <trkpt lat="41.90471167" lon="12.47739833">
        <ele>0</ele>
        <time>1970-01-01T01:00:00Z</time>
      </trkpt>
      <trkpt lat="41.904705" lon="12.47743833">
        <ele>0</ele>
        <time>1970-01-01T01:00:00Z</time>
      </trkpt>
      <trkpt lat="41.90469833" lon="12.47748">
        <ele>0</ele>
        <time>1970-01-01T01:00:00Z</time>
      </trkpt>
      <trkpt lat="41.90468833" lon="12.47752333">
        <ele>0</ele>
        <time>1970-01-01T01:00:00Z</time>
      </trkpt>
      <trkpt lat="41.90467833" lon="12.47756667">
        <ele>0</ele>
        <time>1970-01-01T01:00:00Z</time>
      </trkpt>
      <trkpt lat="41.90466833" lon="12.47760667">
        <ele>0</ele>
        <time>1970-01-01T01:00:00Z</time>
      </trkpt>
      <trkpt lat="41.90465833" lon="12.47764667">
        <ele>0</ele>
        <time>1970-01-01T01:00:00Z</time>
      </trkpt>
      <trkpt lat="41.90465" lon="12.47768333">
        <ele>0</ele>
        <time>1970-01-01T01:00:00Z</time>
      </trkpt>
      <trkpt lat="41.90464333" lon="12.477715">
        <ele>0</ele>
        <time>1970-01-01T01:00:00Z</time>
      </trkpt>
      <trkpt lat="41.90464" lon="12.47774667">
        <ele>0</ele>
        <time>1970-01-01T01:00:00Z</time>
      </trkpt>
      <trkpt lat="41.90464" lon="12.477775">
        <ele>0</ele>
        <time>1970-01-01T01:00:00Z</time>
      </trkpt>
      <trkpt lat="41.90463833" lon="12.477805">
        <ele>0</ele>
        <time>1970-01-01T01:00:00Z</time>
      </trkpt>
      <trkpt lat="41.90463833" lon="12.47783333">
        <ele>0</ele>
        <time>1970-01-01T01:00:00Z</time>
      </trkpt>
      <trkpt lat="41.90464" lon="12.47786">
        <ele>0</ele>
        <time>1970-01-01T01:00:00Z</time>
      </trkpt>
      <trkpt lat="41.90464333" lon="12.47788667">
        <ele>0</ele>
        <time>1970-01-01T01:00:00Z</time>
      </trkpt>
      <trkpt lat="41.90464667" lon="12.47791167">
        <ele>0</ele>
        <time>1970-01-01T01:00:00Z</time>
      </trkpt>
      <trkpt lat="41.90464667" lon="12.47794">
        <ele>0</ele>
        <time>1970-01-01T01:00:00Z</time>
      </trkpt>
      <trkpt lat="41.90464833" lon="12.47796667">
        <ele>0</ele>
        <time>1970-01-01T01:00:00Z</time>
      </trkpt>
      <trkpt lat="41.90464833" lon="12.477995">
        <ele>0</ele>
        <time>1970-01-01T01:00:00Z</time>
      </trkpt>
      <trkpt lat="41.90464833" lon="12.47802167">
        <ele>0</ele>
        <time>1970-01-01T01:00:00Z</time>
      </trkpt>
      <trkpt lat="41.90464667" lon="12.47804667">
        <ele>0</ele>
        <time>1970-01-01T01:00:00Z</time>
      </trkpt>
      <trkpt lat="41.90464667" lon="12.47807167">
        <ele>0</ele>
        <time>1970-01-01T01:00:00Z</time>
      </trkpt>
      <trkpt lat="41.90464833" lon="12.478095">
        <ele>0</ele>
        <time>1970-01-01T01:00:00Z</time>
      </trkpt>
      <trkpt lat="41.90464833" lon="12.47812">
        <ele>0</ele>
        <time>1970-01-01T01:00:00Z</time>
      </trkpt>
      <trkpt lat="41.90464833" lon="12.47814333">
        <ele>0</ele>
        <time>1970-01-01T01:00:00Z</time>
      </trkpt>
      <trkpt lat="41.90465167" lon="12.47816833">
        <ele>0</ele>
        <time>1970-01-01T01:00:00Z</time>
      </trkpt>
      <trkpt lat="41.90465333" lon="12.47819333">
        <ele>0</ele>
        <time>1970-01-01T01:00:00Z</time>
      </trkpt>
      <trkpt lat="41.90465333" lon="12.478215">
        <ele>0</ele>
        <time>1970-01-01T01:00:00Z</time>
      </trkpt>
      <trkpt lat="41.90465333" lon="12.47823333">
        <ele>0</ele>
        <time>1970-01-01T01:00:00Z</time>
      </trkpt>
      <trkpt lat="41.904655" lon="12.47825">
        <ele>0</ele>
        <time>1970-01-01T01:00:00Z</time>
      </trkpt>
      <trkpt lat="41.904655" lon="12.47826667">
        <ele>0</ele>
        <time>1970-01-01T01:00:00Z</time>
      </trkpt>
      <trkpt lat="41.90465667" lon="12.47828667">
        <ele>0</ele>
        <time>1970-01-01T01:00:00Z</time>
      </trkpt>
      <trkpt lat="41.90465833" lon="12.47830833">
        <ele>0</ele>
        <time>1970-01-01T01:00:00Z</time>
      </trkpt>
      <trkpt lat="41.90466" lon="12.47832667">
        <ele>0</ele>
        <time>1970-01-01T01:00:00Z</time>
      </trkpt>
      <trkpt lat="41.90465667" lon="12.478345">
        <ele>0</ele>
        <time>1970-01-01T01:00:00Z</time>
      </trkpt>
      <trkpt lat="41.904655" lon="12.47836167">
        <ele>0</ele>
        <time>1970-01-01T01:00:00Z</time>
      </trkpt>
      <trkpt lat="41.90465167" lon="12.47838333">
        <ele>0</ele>
        <time>1970-01-01T01:00:00Z</time>
      </trkpt>
      <trkpt lat="41.90465" lon="12.47840667">
        <ele>0</ele>
        <time>1970-01-01T01:00:00Z</time>
      </trkpt>
      <trkpt lat="41.90464833" lon="12.47843167">
        <ele>0</ele>
        <time>1970-01-01T01:00:00Z</time>
      </trkpt>
      <trkpt lat="41.90464667" lon="12.47845833">
        <ele>0</ele>
        <time>1970-01-01T01:00:00Z</time>
      </trkpt>
      <trkpt lat="41.90464667" lon="12.47848667">
        <ele>0</ele>
        <time>1970-01-01T01:00:00Z</time>
      </trkpt>
      <trkpt lat="41.90464667" lon="12.47851333">
        <ele>0</ele>
        <time>1970-01-01T01:00:00Z</time>
      </trkpt>
      <trkpt lat="41.90458333" lon="12.47894">
        <ele>0</ele>
        <time>1970-01-01T01:00:00Z</time>
      </trkpt>
      <trkpt lat="41.90457667" lon="12.478965">
        <ele>0</ele>
        <time>1970-01-01T01:00:00Z</time>
      </trkpt>
      <trkpt lat="41.904575" lon="12.47899">
        <ele>0</ele>
        <time>1970-01-01T01:00:00Z</time>
      </trkpt>
      <trkpt lat="41.90457333" lon="12.47901167">
        <ele>0</ele>
        <time>1970-01-01T01:00:00Z</time>
      </trkpt>
      <trkpt lat="41.90457333" lon="12.47903833">
        <ele>0</ele>
        <time>1970-01-01T01:00:00Z</time>
      </trkpt>
      <trkpt lat="41.90457833" lon="12.47907">
        <ele>0</ele>
        <time>1970-01-01T01:00:00Z</time>
      </trkpt>
      <trkpt lat="41.90459" lon="12.47910833">
        <ele>0</ele>
        <time>1970-01-01T01:00:00Z</time>
      </trkpt>
      <trkpt lat="41.90460667" lon="12.47914833">
        <ele>0</ele>
        <time>1970-01-01T01:00:00Z</time>
      </trkpt>
      <trkpt lat="41.904625" lon="12.47918833">
        <ele>0</ele>
        <time>1970-01-01T01:00:00Z</time>
      </trkpt>
      <trkpt lat="41.90464667" lon="12.47923">
        <ele>0</ele>
        <time>1970-01-01T01:00:00Z</time>
      </trkpt>
      <trkpt lat="41.90466667" lon="12.47927167">
        <ele>0</ele>
        <time>1970-01-01T01:00:00Z</time>
      </trkpt>
      <trkpt lat="41.90468667" lon="12.47931333">
        <ele>0</ele>
        <time>1970-01-01T01:00:00Z</time>
      </trkpt>
      <trkpt lat="41.90470167" lon="12.47935167">
        <ele>0</ele>
        <time>1970-01-01T01:00:00Z</time>
      </trkpt>
      <trkpt lat="41.90472" lon="12.479385">
        <ele>0</ele>
        <time>1970-01-01T01:00:00Z</time>
      </trkpt>
      <trkpt lat="41.904735" lon="12.47941833">
        <ele>0</ele>
        <time>1970-01-01T01:00:00Z</time>
      </trkpt>
      <trkpt lat="41.90475" lon="12.47944833">
        <ele>0</ele>
        <time>1970-01-01T01:00:00Z</time>
      </trkpt>
      <trkpt lat="41.904765" lon="12.47947833">
        <ele>0</ele>
        <time>1970-01-01T01:00:00Z</time>
      </trkpt>
      <trkpt lat="41.90477667" lon="12.47951">
        <ele>0</ele>
        <time>1970-01-01T01:00:00Z</time>
      </trkpt>
      <trkpt lat="41.90478667" lon="12.47954">
        <ele>0</ele>
        <time>1970-01-01T01:00:00Z</time>
      </trkpt>
      <trkpt lat="41.90479833" lon="12.47957167">
        <ele>0</ele>
        <time>1970-01-01T01:00:00Z</time>
      </trkpt>
      <trkpt lat="41.90481" lon="12.47960333">
        <ele>0</ele>
        <time>1970-01-01T01:00:00Z</time>
      </trkpt>
      <trkpt lat="41.90482333" lon="12.47963333">
        <ele>0</ele>
        <time>1970-01-01T01:00:00Z</time>
      </trkpt>
      <trkpt lat="41.90483667" lon="12.47965833">
        <ele>0</ele>
        <time>1970-01-01T01:00:00Z</time>
      </trkpt>
      <trkpt lat="41.90485333" lon="12.47968167">
        <ele>0</ele>
        <time>1970-01-01T01:00:00Z</time>
      </trkpt>
      <trkpt lat="41.90486833" lon="12.479705">
        <ele>0</ele>
        <time>1970-01-01T01:00:00Z</time>
      </trkpt>
      <trkpt lat="41.904885" lon="12.47972667">
        <ele>0</ele>
        <time>1970-01-01T01:00:00Z</time>
      </trkpt>
      <trkpt lat="41.90490167" lon="12.47974667">
        <ele>0</ele>
        <time>1970-01-01T01:00:00Z</time>
      </trkpt>
      <trkpt lat="41.90491667" lon="12.47976667">
        <ele>0</ele>
        <time>1970-01-01T01:00:00Z</time>
      </trkpt>
      <trkpt lat="41.904935" lon="12.47978833">
        <ele>0</ele>
        <time>1970-01-01T01:00:00Z</time>
      </trkpt>
      <trkpt lat="41.90495" lon="12.47981333">
        <ele>0</ele>
        <time>1970-01-01T01:00:00Z</time>
      </trkpt>
      <trkpt lat="41.90496167" lon="12.47983833">
        <ele>0</ele>
        <time>1970-01-01T01:00:00Z</time>
      </trkpt>
      <trkpt lat="41.90497667" lon="12.47986">
        <ele>0</ele>
        <time>1970-01-01T01:00:00Z</time>
      </trkpt>
      <trkpt lat="41.90499" lon="12.47988167">
        <ele>0</ele>
        <time>1970-01-01T01:00:00Z</time>
      </trkpt>
      <trkpt lat="41.90500167" lon="12.47990667">
        <ele>0</ele>
        <time>1970-01-01T01:00:00Z</time>
      </trkpt>
      <trkpt lat="41.905015" lon="12.47993">
        <ele>0</ele>
        <time>1970-01-01T01:00:00Z</time>
      </trkpt>
      <trkpt lat="41.90502667" lon="12.47995333">
        <ele>0</ele>
        <time>1970-01-01T01:00:00Z</time>
      </trkpt>
      <trkpt lat="41.90503667" lon="12.47997667">
        <ele>0</ele>
        <time>1970-01-01T01:00:00Z</time>
      </trkpt>
      <trkpt lat="41.90504667" lon="12.48000333">
        <ele>0</ele>
        <time>1970-01-01T01:00:00Z</time>
      </trkpt>
      <trkpt lat="41.905055" lon="12.48002833">
        <ele>0</ele>
        <time>1970-01-01T01:00:00Z</time>
      </trkpt>
      <trkpt lat="41.905065" lon="12.48005167">
        <ele>0</ele>
        <time>1970-01-01T01:00:00Z</time>
      </trkpt>
      <trkpt lat="41.90507333" lon="12.480075">
        <ele>0</ele>
        <time>1970-01-01T01:00:00Z</time>
      </trkpt>
      <trkpt lat="41.90508167" lon="12.48009667">
        <ele>0</ele>
        <time>1970-01-01T01:00:00Z</time>
      </trkpt>
      <trkpt lat="41.90508833" lon="12.48012">
        <ele>0</ele>
        <time>1970-01-01T01:00:00Z</time>
      </trkpt>
      <trkpt lat="41.90509333" lon="12.480145">
        <ele>0</ele>
        <time>1970-01-01T01:00:00Z</time>
      </trkpt>
      <trkpt lat="41.9051" lon="12.48017167">
        <ele>0</ele>
        <time>1970-01-01T01:00:00Z</time>
      </trkpt>
      <trkpt lat="41.905105" lon="12.48019833">
        <ele>0</ele>
        <time>1970-01-01T01:00:00Z</time>
      </trkpt>
      <trkpt lat="41.90511" lon="12.48022833">
        <ele>0</ele>
        <time>1970-01-01T01:00:00Z</time>
      </trkpt>
      <trkpt lat="41.90511667" lon="12.48025833">
        <ele>0</ele>
        <time>1970-01-01T01:00:00Z</time>
      </trkpt>
      <trkpt lat="41.90512333" lon="12.480285">
        <ele>0</ele>
        <time>1970-01-01T01:00:00Z</time>
      </trkpt>
      <trkpt lat="41.90512833" lon="12.48031167">
        <ele>0</ele>
        <time>1970-01-01T01:00:00Z</time>
      </trkpt>
      <trkpt lat="41.90513333" lon="12.48034">
        <ele>0</ele>
        <time>1970-01-01T01:00:00Z</time>
      </trkpt>
      <trkpt lat="41.90513833" lon="12.48036833">
        <ele>0</ele>
        <time>1970-01-01T01:00:00Z</time>
      </trkpt>
      <trkpt lat="41.90514667" lon="12.480395">
        <ele>0</ele>
        <time>1970-01-01T01:00:00Z</time>
      </trkpt>
      <trkpt lat="41.90515333" lon="12.48042">
        <ele>0</ele>
        <time>1970-01-01T01:00:00Z</time>
      </trkpt>
      <trkpt lat="41.90516333" lon="12.48044667">
        <ele>0</ele>
        <time>1970-01-01T01:00:00Z</time>
      </trkpt>
      <trkpt lat="41.90517333" lon="12.48047333">
        <ele>0</ele>
        <time>1970-01-01T01:00:00Z</time>
      </trkpt>
      <trkpt lat="41.905185" lon="12.48050167">
        <ele>0</ele>
        <time>1970-01-01T01:00:00Z</time>
      </trkpt>
      <trkpt lat="41.90519667" lon="12.48052667">
        <ele>0</ele>
        <time>1970-01-01T01:00:00Z</time>
      </trkpt>
      <trkpt lat="41.90520833" lon="12.48055167">
        <ele>0</ele>
        <time>1970-01-01T01:00:00Z</time>
      </trkpt>
      <trkpt lat="41.90522" lon="12.48058">
        <ele>0</ele>
        <time>1970-01-01T01:00:00Z</time>
      </trkpt>
      <trkpt lat="41.90523" lon="12.48061">
        <ele>0</ele>
        <time>1970-01-01T01:00:00Z</time>
      </trkpt>
      <trkpt lat="41.90523833" lon="12.48063667">
        <ele>0</ele>
        <time>1970-01-01T01:00:00Z</time>
      </trkpt>
      <trkpt lat="41.90524833" lon="12.48066667">
        <ele>0</ele>
        <time>1970-01-01T01:00:00Z</time>
      </trkpt>
      <trkpt lat="41.90525667" lon="12.48069333">
        <ele>0</ele>
        <time>1970-01-01T01:00:00Z</time>
      </trkpt>
      <trkpt lat="41.905265" lon="12.48072333">
        <ele>0</ele>
        <time>1970-01-01T01:00:00Z</time>
      </trkpt>
      <trkpt lat="41.905275" lon="12.48075167">
        <ele>0</ele>
        <time>1970-01-01T01:00:00Z</time>
      </trkpt>
      <trkpt lat="41.90528833" lon="12.48077667">
        <ele>0</ele>
        <time>1970-01-01T01:00:00Z</time>
      </trkpt>
      <trkpt lat="41.90530167" lon="12.48080167">
        <ele>0</ele>
        <time>1970-01-01T01:00:00Z</time>
      </trkpt>
      <trkpt lat="41.90531167" lon="12.48083">
        <ele>0</ele>
        <time>1970-01-01T01:00:00Z</time>
      </trkpt>
      <trkpt lat="41.90532167" lon="12.48085833">
        <ele>0</ele>
        <time>1970-01-01T01:00:00Z</time>
      </trkpt>
      <trkpt lat="41.90533167" lon="12.48088667">
        <ele>0</ele>
        <time>1970-01-01T01:00:00Z</time>
      </trkpt>
      <trkpt lat="41.90533833" lon="12.48091333">
        <ele>0</ele>
        <time>1970-01-01T01:00:00Z</time>
      </trkpt>
      <trkpt lat="41.90534667" lon="12.48094167">
        <ele>0</ele>
        <time>1970-01-01T01:00:00Z</time>
      </trkpt>
      <trkpt lat="41.90535" lon="12.48097167">
        <ele>0</ele>
        <time>1970-01-01T01:00:00Z</time>
      </trkpt>
      <trkpt lat="41.90535167" lon="12.48100167">
        <ele>0</ele>
        <time>1970-01-01T01:00:00Z</time>
      </trkpt>
      <trkpt lat="41.90535667" lon="12.48103">
        <ele>0</ele>
        <time>1970-01-01T01:00:00Z</time>
      </trkpt>
      <trkpt lat="41.90536" lon="12.48105667">
        <ele>0</ele>
        <time>1970-01-01T01:00:00Z</time>
      </trkpt>
      <trkpt lat="41.90536667" lon="12.48108333">
        <ele>0</ele>
        <time>1970-01-01T01:00:00Z</time>
      </trkpt>
      <trkpt lat="41.90537167" lon="12.48111167">
        <ele>0</ele>
        <time>1970-01-01T01:00:00Z</time>
      </trkpt>
      <trkpt lat="41.90538" lon="12.48113667">
        <ele>0</ele>
        <time>1970-01-01T01:00:00Z</time>
      </trkpt>
      <trkpt lat="41.90538833" lon="12.48116167">
        <ele>0</ele>
        <time>1970-01-01T01:00:00Z</time>
      </trkpt>
      <trkpt lat="41.90539667" lon="12.481185">
        <ele>0</ele>
        <time>1970-01-01T01:00:00Z</time>
      </trkpt>
      <trkpt lat="41.905405" lon="12.48121167">
        <ele>0</ele>
        <time>1970-01-01T01:00:00Z</time>
      </trkpt>
      <trkpt lat="41.905415" lon="12.481235">
        <ele>0</ele>
        <time>1970-01-01T01:00:00Z</time>
      </trkpt>
      <trkpt lat="41.90542333" lon="12.481255">
        <ele>0</ele>
        <time>1970-01-01T01:00:00Z</time>
      </trkpt>
      <trkpt lat="41.90543167" lon="12.48127333">
        <ele>0</ele>
        <time>1970-01-01T01:00:00Z</time>
      </trkpt>
      <trkpt lat="41.90543833" lon="12.48128833">
        <ele>0</ele>
        <time>1970-01-01T01:00:00Z</time>
      </trkpt>
      <trkpt lat="41.905445" lon="12.4813">
        <ele>0</ele>
        <time>1970-01-01T01:00:00Z</time>
      </trkpt>
      <trkpt lat="41.90545167" lon="12.48131333">
        <ele>0</ele>
        <time>1970-01-01T01:00:00Z</time>
      </trkpt>
      <trkpt lat="41.90546167" lon="12.481325">
        <ele>0</ele>
        <time>1970-01-01T01:00:00Z</time>
      </trkpt>
      <trkpt lat="41.90547333" lon="12.48134">
        <ele>0</ele>
        <time>1970-01-01T01:00:00Z</time>
      </trkpt>
      <trkpt lat="41.90548667" lon="12.48135833">
        <ele>0</ele>
        <time>1970-01-01T01:00:00Z</time>
      </trkpt>
      <trkpt lat="41.90549833" lon="12.48138167">
        <ele>0</ele>
        <time>1970-01-01T01:00:00Z</time>
      </trkpt>
      <trkpt lat="41.90551167" lon="12.48140333">
        <ele>0</ele>
        <time>1970-01-01T01:00:00Z</time>
      </trkpt>
      <trkpt lat="41.90552667" lon="12.48142667">
        <ele>0</ele>
        <time>1970-01-01T01:00:00Z</time>
      </trkpt>
      <trkpt lat="41.90554" lon="12.48145">
        <ele>0</ele>
        <time>1970-01-01T01:00:00Z</time>
      </trkpt>
      <trkpt lat="41.90555333" lon="12.481475">
        <ele>0</ele>
        <time>1970-01-01T01:00:00Z</time>
      </trkpt>
      <trkpt lat="41.90556667" lon="12.48150167">
        <ele>0</ele>
        <time>1970-01-01T01:00:00Z</time>
      </trkpt>
      <trkpt lat="41.90558" lon="12.48152667">
        <ele>0</ele>
        <time>1970-01-01T01:00:00Z</time>
      </trkpt>
      <trkpt lat="41.90559167" lon="12.48155333">
        <ele>0</ele>
        <time>1970-01-01T01:00:00Z</time>
      </trkpt>
      <trkpt lat="41.90560667" lon="12.48158">
        <ele>0</ele>
        <time>1970-01-01T01:00:00Z</time>
      </trkpt>
      <trkpt lat="41.90562" lon="12.48160667">
        <ele>0</ele>
        <time>1970-01-01T01:00:00Z</time>
      </trkpt>
      <trkpt lat="41.90563" lon="12.48163333">
        <ele>0</ele>
        <time>1970-01-01T01:00:00Z</time>
      </trkpt>
      <trkpt lat="41.90564" lon="12.48165833">
        <ele>0</ele>
        <time>1970-01-01T01:00:00Z</time>
      </trkpt>
      <trkpt lat="41.90564833" lon="12.48168667">
        <ele>0</ele>
        <time>1970-01-01T01:00:00Z</time>
      </trkpt>
      <trkpt lat="41.90565667" lon="12.48171167">
        <ele>0</ele>
        <time>1970-01-01T01:00:00Z</time>
      </trkpt>
      <trkpt lat="41.90566833" lon="12.48174">
        <ele>0</ele>
        <time>1970-01-01T01:00:00Z</time>
      </trkpt>
      <trkpt lat="41.90567833" lon="12.481765">
        <ele>0</ele>
        <time>1970-01-01T01:00:00Z</time>
      </trkpt>
      <trkpt lat="41.90569" lon="12.48179">
        <ele>0</ele>
        <time>1970-01-01T01:00:00Z</time>
      </trkpt>
      <trkpt lat="41.9057" lon="12.48181333">
        <ele>0</ele>
        <time>1970-01-01T01:00:00Z</time>
      </trkpt>
      <trkpt lat="41.90571167" lon="12.481835">
        <ele>0</ele>
        <time>1970-01-01T01:00:00Z</time>
      </trkpt>
      <trkpt lat="41.90572667" lon="12.48185333">
        <ele>0</ele>
        <time>1970-01-01T01:00:00Z</time>
      </trkpt>
      <trkpt lat="41.90574167" lon="12.48187667">
        <ele>0</ele>
        <time>1970-01-01T01:00:00Z</time>
      </trkpt>
      <trkpt lat="41.90576167" lon="12.4819">
        <ele>0</ele>
        <time>1970-01-01T01:00:00Z</time>
      </trkpt>
      <trkpt lat="41.90578167" lon="12.481925">
        <ele>0</ele>
        <time>1970-01-01T01:00:00Z</time>
      </trkpt>
      <trkpt lat="41.90579833" lon="12.48194667">
        <ele>0</ele>
        <time>1970-01-01T01:00:00Z</time>
      </trkpt>
      <trkpt lat="41.905815" lon="12.48197">
        <ele>0</ele>
        <time>1970-01-01T01:00:00Z</time>
      </trkpt>
      <trkpt lat="41.90583167" lon="12.48199333">
        <ele>0</ele>
        <time>1970-01-01T01:00:00Z</time>
      </trkpt>
      <trkpt lat="41.90584667" lon="12.48201833">
        <ele>0</ele>
        <time>1970-01-01T01:00:00Z</time>
      </trkpt>
      <trkpt lat="41.90585833" lon="12.48204">
        <ele>0</ele>
        <time>1970-01-01T01:00:00Z</time>
      </trkpt>
      <trkpt lat="41.90586833" lon="12.482065">
        <ele>0</ele>
        <time>1970-01-01T01:00:00Z</time>
      </trkpt>
      <trkpt lat="41.90586667" lon="12.48208667">
        <ele>0</ele>
        <time>1970-01-01T01:00:00Z</time>
      </trkpt>
      <trkpt lat="41.90586167" lon="12.48211167">
        <ele>0</ele>
        <time>1970-01-01T01:00:00Z</time>
      </trkpt>
      <trkpt lat="41.90585833" lon="12.48214">
        <ele>0</ele>
        <time>1970-01-01T01:00:00Z</time>
      </trkpt>
      <trkpt lat="41.905855" lon="12.48216667">
        <ele>0</ele>
        <time>1970-01-01T01:00:00Z</time>
      </trkpt>
      <trkpt lat="41.90585333" lon="12.48219667">
        <ele>0</ele>
        <time>1970-01-01T01:00:00Z</time>
      </trkpt>
      <trkpt lat="41.90585167" lon="12.482225">
        <ele>0</ele>
        <time>1970-01-01T01:00:00Z</time>
      </trkpt>
      <trkpt lat="41.90584667" lon="12.482255">
        <ele>0</ele>
        <time>1970-01-01T01:00:00Z</time>
      </trkpt>
      <trkpt lat="41.90584333" lon="12.482285">
        <ele>0</ele>
        <time>1970-01-01T01:00:00Z</time>
      </trkpt>
      <trkpt lat="41.90584" lon="12.48231">
        <ele>0</ele>
        <time>1970-01-01T01:00:00Z</time>
      </trkpt>
      <trkpt lat="41.90583833" lon="12.48233833">
        <ele>0</ele>
        <time>1970-01-01T01:00:00Z</time>
      </trkpt>
      <trkpt lat="41.90583667" lon="12.48236333">
        <ele>0</ele>
        <time>1970-01-01T01:00:00Z</time>
      </trkpt>
      <trkpt lat="41.905835" lon="12.48238833">
        <ele>0</ele>
        <time>1970-01-01T01:00:00Z</time>
      </trkpt>
      <trkpt lat="41.905835" lon="12.48240833">
        <ele>0</ele>
        <time>1970-01-01T01:00:00Z</time>
      </trkpt>
      <trkpt lat="41.90583667" lon="12.48242667">
        <ele>0</ele>
        <time>1970-01-01T01:00:00Z</time>
      </trkpt>
      <trkpt lat="41.90584" lon="12.48244333">
        <ele>0</ele>
        <time>1970-01-01T01:00:00Z</time>
      </trkpt>
      <trkpt lat="41.905845" lon="12.482455">
        <ele>0</ele>
        <time>1970-01-01T01:00:00Z</time>
      </trkpt>
      <trkpt lat="41.90584667" lon="12.48246667">
        <ele>0</ele>
        <time>1970-01-01T01:00:00Z</time>
      </trkpt>
      <trkpt lat="41.90585" lon="12.48247333">
        <ele>0</ele>
        <time>1970-01-01T01:00:00Z</time>
      </trkpt>
      <trkpt lat="41.90585333" lon="12.48248333">
        <ele>0</ele>
        <time>1970-01-01T01:00:00Z</time>
      </trkpt>
      <trkpt lat="41.90585667" lon="12.48249667">
        <ele>0</ele>
        <time>1970-01-01T01:00:00Z</time>
      </trkpt>
      <trkpt lat="41.90586167" lon="12.48250667">
        <ele>0</ele>
        <time>1970-01-01T01:00:00Z</time>
      </trkpt>
      <trkpt lat="41.90586167" lon="12.482515">
        <ele>0</ele>
        <time>1970-01-01T01:00:00Z</time>
      </trkpt>
      <trkpt lat="41.90586333" lon="12.48252833">
        <ele>0</ele>
        <time>1970-01-01T01:00:00Z</time>
      </trkpt>
      <trkpt lat="41.90586667" lon="12.48254167">
        <ele>0</ele>
        <time>1970-01-01T01:00:00Z</time>
      </trkpt>
      <trkpt lat="41.90587" lon="12.48255667">
        <ele>0</ele>
        <time>1970-01-01T01:00:00Z</time>
      </trkpt>
      <trkpt lat="41.905875" lon="12.48257333">
        <ele>0</ele>
        <time>1970-01-01T01:00:00Z</time>
      </trkpt>
      <trkpt lat="41.90587667" lon="12.48258667">
        <ele>0</ele>
        <time>1970-01-01T01:00:00Z</time>
      </trkpt>
      <trkpt lat="41.90587833" lon="12.48259667">
        <ele>0</ele>
        <time>1970-01-01T01:00:00Z</time>
      </trkpt>
      <trkpt lat="41.90588167" lon="12.48260667">
        <ele>0</ele>
        <time>1970-01-01T01:00:00Z</time>
      </trkpt>
      <trkpt lat="41.90588167" lon="12.48262">
        <ele>0</ele>
        <time>1970-01-01T01:00:00Z</time>
      </trkpt>
      <trkpt lat="41.90588" lon="12.48263333">
        <ele>0</ele>
        <time>1970-01-01T01:00:00Z</time>
      </trkpt>
      <trkpt lat="41.90587667" lon="12.48264833">
        <ele>0</ele>
        <time>1970-01-01T01:00:00Z</time>
      </trkpt>
      <trkpt lat="41.90587167" lon="12.48266167">
        <ele>0</ele>
        <time>1970-01-01T01:00:00Z</time>
      </trkpt>
      <trkpt lat="41.90586833" lon="12.48267333">
        <ele>0</ele>
        <time>1970-01-01T01:00:00Z</time>
      </trkpt>
      <trkpt lat="41.905865" lon="12.48268667">
        <ele>0</ele>
        <time>1970-01-01T01:00:00Z</time>
      </trkpt>
      <trkpt lat="41.90586333" lon="12.48270333">
        <ele>0</ele>
        <time>1970-01-01T01:00:00Z</time>
      </trkpt>
      <trkpt lat="41.90585833" lon="12.48271833">
        <ele>0</ele>
        <time>1970-01-01T01:00:00Z</time>
      </trkpt>
      <trkpt lat="41.90585167" lon="12.48273333">
        <ele>0</ele>
        <time>1970-01-01T01:00:00Z</time>
      </trkpt>
      <trkpt lat="41.90584833" lon="12.48274833">
        <ele>0</ele>
        <time>1970-01-01T01:00:00Z</time>
      </trkpt>
      <trkpt lat="41.905845" lon="12.48276167">
        <ele>0</ele>
        <time>1970-01-01T01:00:00Z</time>
      </trkpt>
      <trkpt lat="41.90584333" lon="12.48277667">
        <ele>0</ele>
        <time>1970-01-01T01:00:00Z</time>
      </trkpt>
      <trkpt lat="41.90584167" lon="12.48279167">
        <ele>0</ele>
        <time>1970-01-01T01:00:00Z</time>
      </trkpt>
      <trkpt lat="41.90584" lon="12.482805">
        <ele>0</ele>
        <time>1970-01-01T01:00:00Z</time>
      </trkpt>
      <trkpt lat="41.90583667" lon="12.48281667">
        <ele>0</ele>
        <time>1970-01-01T01:00:00Z</time>
      </trkpt>
      <trkpt lat="41.90583667" lon="12.48282667">
        <ele>0</ele>
        <time>1970-01-01T01:00:00Z</time>
      </trkpt>
      <trkpt lat="41.90583833" lon="12.48283667">
        <ele>0</ele>
        <time>1970-01-01T01:00:00Z</time>
      </trkpt>
      <trkpt lat="41.905845" lon="12.48284833">
        <ele>0.457</ele>
        <time>1970-01-01T01:00:00Z</time>
      </trkpt>
      <trkpt lat="41.90585333" lon="12.48286">
        <ele>0.457</ele>
        <time>1970-01-01T01:00:00Z</time>
      </trkpt>
      <trkpt lat="41.90586167" lon="12.48287167">
        <ele>0.457</ele>
        <time>1970-01-01T01:00:00Z</time>
      </trkpt>
      <trkpt lat="41.90587167" lon="12.48288667">
        <ele>0.457</ele>
        <time>1970-01-01T01:00:00Z</time>
      </trkpt>
      <trkpt lat="41.90588167" lon="12.48289833">
        <ele>0.457</ele>
        <time>1970-01-01T01:00:00Z</time>
      </trkpt>
      <trkpt lat="41.90589333" lon="12.48291">
        <ele>0.457</ele>
        <time>1970-01-01T01:00:00Z</time>
      </trkpt>
      <trkpt lat="41.905905" lon="12.48292">
        <ele>0.457</ele>
        <time>1970-01-01T01:00:00Z</time>
      </trkpt>
      <trkpt lat="41.90591833" lon="12.48293167">
        <ele>0.457</ele>
        <time>1970-01-01T01:00:00Z</time>
      </trkpt>
      <trkpt lat="41.90593167" lon="12.482945">
        <ele>0.457</ele>
        <time>1970-01-01T01:00:00Z</time>
      </trkpt>
      <trkpt lat="41.90594333" lon="12.48295667">
        <ele>0.457</ele>
        <time>1970-01-01T01:00:00Z</time>
      </trkpt>
      <trkpt lat="41.90595333" lon="12.48296667">
        <ele>1.372</ele>
        <time>1970-01-01T01:00:00Z</time>
      </trkpt>
      <trkpt lat="41.90596167" lon="12.48297833">
        <ele>1.372</ele>
        <time>1970-01-01T01:00:00Z</time>
      </trkpt>
      <trkpt lat="41.90597" lon="12.48299167">
        <ele>2.438</ele>
        <time>1970-01-01T01:00:00Z</time>
      </trkpt>
      <trkpt lat="41.90598" lon="12.483005">
        <ele>2.438</ele>
        <time>1970-01-01T01:00:00Z</time>
      </trkpt>
      <trkpt lat="41.90599" lon="12.48301667">
        <ele>2.438</ele>
        <time>1970-01-01T01:00:00Z</time>
      </trkpt>
      <trkpt lat="41.906" lon="12.48302667">
        <ele>2.438</ele>
        <time>1970-01-01T01:00:00Z</time>
      </trkpt>
      <trkpt lat="41.90601" lon="12.483035">
        <ele>3.353</ele>
        <time>1970-01-01T01:00:00Z</time>
      </trkpt>
      <trkpt lat="41.90601833" lon="12.483045">
        <ele>3.353</ele>
        <time>1970-01-01T01:00:00Z</time>
      </trkpt>
      <trkpt lat="41.906025" lon="12.48305833">
        <ele>3.353</ele>
        <time>1970-01-01T01:00:00Z</time>
      </trkpt>
      <trkpt lat="41.90602833" lon="12.48307">
        <ele>3.353</ele>
        <time>1970-01-01T01:00:00Z</time>
      </trkpt>
      <trkpt lat="41.90603" lon="12.48308167">
        <ele>4.42</ele>
        <time>1970-01-01T01:00:00Z</time>
      </trkpt>
      <trkpt lat="41.90602833" lon="12.48309167">
        <ele>4.42</ele>
        <time>1970-01-01T01:00:00Z</time>
      </trkpt>
      <trkpt lat="41.90602667" lon="12.483105">
        <ele>4.42</ele>
        <time>1970-01-01T01:00:00Z</time>
      </trkpt>
      <trkpt lat="41.90602667" lon="12.48312167">
        <ele>4.42</ele>
        <time>1970-01-01T01:00:00Z</time>
      </trkpt>
      <trkpt lat="41.90602333" lon="12.48313667">
        <ele>4.42</ele>
        <time>1970-01-01T01:00:00Z</time>
      </trkpt>
      <trkpt lat="41.906015" lon="12.48315">
        <ele>4.42</ele>
        <time>1970-01-01T01:00:00Z</time>
      </trkpt>
      <trkpt lat="41.906005" lon="12.48315833">
        <ele>4.42</ele>
        <time>1970-01-01T01:00:00Z</time>
      </trkpt>
      <trkpt lat="41.905995" lon="12.48317">
        <ele>4.42</ele>
        <time>1970-01-01T01:00:00Z</time>
      </trkpt>
      <trkpt lat="41.90598667" lon="12.48318167">
        <ele>7.468</ele>
        <time>1970-01-01T01:00:00Z</time>
      </trkpt>
      <trkpt lat="41.90598" lon="12.48319333">
        <ele>7.468</ele>
        <time>1970-01-01T01:00:00Z</time>
      </trkpt>
      <trkpt lat="41.90597667" lon="12.48320667">
        <ele>8.382</ele>
        <time>1970-01-01T01:00:00Z</time>
      </trkpt>
      <trkpt lat="41.90597167" lon="12.48321667">
        <ele>8.382</ele>
        <time>1970-01-01T01:00:00Z</time>
      </trkpt>
      <trkpt lat="41.90596667" lon="12.483225">
        <ele>8.382</ele>
        <time>1970-01-01T01:00:00Z</time>
      </trkpt>
      <trkpt lat="41.90596167" lon="12.483235">
        <ele>8.382</ele>
        <time>1970-01-01T01:00:00Z</time>
      </trkpt>
      <trkpt lat="41.90595833" lon="12.48324333">
        <ele>8.382</ele>
        <time>1970-01-01T01:00:00Z</time>
      </trkpt>
      <trkpt lat="41.905955" lon="12.48325167">
        <ele>8.382</ele>
        <time>1970-01-01T01:00:00Z</time>
      </trkpt>
      <trkpt lat="41.90595167" lon="12.48326">
        <ele>8.382</ele>
        <time>1970-01-01T01:00:00Z</time>
      </trkpt>
      <trkpt lat="41.90594833" lon="12.48326667">
        <ele>8.382</ele>
        <time>1970-01-01T01:00:00Z</time>
      </trkpt>
      <trkpt lat="41.905945" lon="12.483275">
        <ele>8.382</ele>
        <time>1970-01-01T01:00:00Z</time>
      </trkpt>
      <trkpt lat="41.90594333" lon="12.48328333">
        <ele>8.382</ele>
        <time>1970-01-01T01:00:00Z</time>
      </trkpt>
      <trkpt lat="41.90594" lon="12.48328833">
        <ele>10.363</ele>
        <time>1970-01-01T01:00:00Z</time>
      </trkpt>
      <trkpt lat="41.90594167" lon="12.483295">
        <ele>10.363</ele>
        <time>1970-01-01T01:00:00Z</time>
      </trkpt>
      <trkpt lat="41.90594167" lon="12.48330167">
        <ele>10.363</ele>
        <time>1970-01-01T01:00:00Z</time>
      </trkpt>
      <trkpt lat="41.90594167" lon="12.48331">
        <ele>10.363</ele>
        <time>1970-01-01T01:00:00Z</time>
      </trkpt>
      <trkpt lat="41.90594" lon="12.48332">
        <ele>11.43</ele>
        <time>1970-01-01T01:00:00Z</time>
      </trkpt>
      <trkpt lat="41.90594167" lon="12.48333333">
        <ele>11.43</ele>
        <time>1970-01-01T01:00:00Z</time>
      </trkpt>
      <trkpt lat="41.90594333" lon="12.48335">
        <ele>11.43</ele>
        <time>1970-01-01T01:00:00Z</time>
      </trkpt>
      <trkpt lat="41.905945" lon="12.48336833">
        <ele>11.43</ele>
        <time>1970-01-01T01:00:00Z</time>
      </trkpt>
      <trkpt lat="41.90594333" lon="12.48338667">
        <ele>11.43</ele>
        <time>1970-01-01T01:00:00Z</time>
      </trkpt>
      <trkpt lat="41.90594" lon="12.483405">
        <ele>11.43</ele>
        <time>1970-01-01T01:00:00Z</time>
      </trkpt>
      <trkpt lat="41.905935" lon="12.483425">
        <ele>12.345</ele>
        <time>1970-01-01T01:00:00Z</time>
      </trkpt>
      <trkpt lat="41.90592833" lon="12.48344167">
        <ele>12.345</ele>
        <time>1970-01-01T01:00:00Z</time>
      </trkpt>
      <trkpt lat="41.90592167" lon="12.48345667">
        <ele>12.345</ele>
        <time>1970-01-01T01:00:00Z</time>
      </trkpt>
      <trkpt lat="41.90591333" lon="12.48347">
        <ele>12.345</ele>
        <time>1970-01-01T01:00:00Z</time>
      </trkpt>
      <trkpt lat="41.90590333" lon="12.483485">
        <ele>12.345</ele>
        <time>1970-01-01T01:00:00Z</time>
      </trkpt>
      <trkpt lat="41.90589667" lon="12.48350333">
        <ele>12.345</ele>
        <time>1970-01-01T01:00:00Z</time>
      </trkpt>
      <trkpt lat="41.90588833" lon="12.48352">
        <ele>12.345</ele>
        <time>1970-01-01T01:00:00Z</time>
      </trkpt>
      <trkpt lat="41.90588167" lon="12.48353667">
        <ele>12.345</ele>
        <time>1970-01-01T01:00:00Z</time>
      </trkpt>
      <trkpt lat="41.905875" lon="12.48355333">
        <ele>12.345</ele>
        <time>1970-01-01T01:00:00Z</time>
      </trkpt>
      <trkpt lat="41.90587" lon="12.48357167">
        <ele>12.345</ele>
        <time>1970-01-01T01:00:00Z</time>
      </trkpt>
      <trkpt lat="41.905865" lon="12.48358833">
        <ele>12.345</ele>
        <time>1970-01-01T01:00:00Z</time>
      </trkpt>
      <trkpt lat="41.90586" lon="12.48360167">
        <ele>12.345</ele>
        <time>1970-01-01T01:00:00Z</time>
      </trkpt>
      <trkpt lat="41.905855" lon="12.483615">
        <ele>12.345</ele>
        <time>1970-01-01T01:00:00Z</time>
      </trkpt>
      <trkpt lat="41.90585167" lon="12.48363">
        <ele>12.345</ele>
        <time>1970-01-01T01:00:00Z</time>
      </trkpt>
      <trkpt lat="41.90584833" lon="12.48365">
        <ele>12.345</ele>
        <time>1970-01-01T01:00:00Z</time>
      </trkpt>
      <trkpt lat="41.90584333" lon="12.48366833">
        <ele>12.345</ele>
        <time>1970-01-01T01:00:00Z</time>
      </trkpt>
      <trkpt lat="41.90584167" lon="12.483685">
        <ele>12.345</ele>
        <time>1970-01-01T01:00:00Z</time>
      </trkpt>
      <trkpt lat="41.90583833" lon="12.48370667">
        <ele>12.345</ele>
        <time>1970-01-01T01:00:00Z</time>
      </trkpt>
      <trkpt lat="41.90583667" lon="12.48372167">
        <ele>11.43</ele>
        <time>1970-01-01T01:00:00Z</time>
      </trkpt>
      <trkpt lat="41.90583333" lon="12.48373833">
        <ele>11.43</ele>
        <time>1970-01-01T01:00:00Z</time>
      </trkpt>
      <trkpt lat="41.90582833" lon="12.48375833">
        <ele>11.43</ele>
        <time>1970-01-01T01:00:00Z</time>
      </trkpt>
      <trkpt lat="41.905825" lon="12.48377667">
        <ele>11.43</ele>
        <time>1970-01-01T01:00:00Z</time>
      </trkpt>
      <trkpt lat="41.90582167" lon="12.483795">
        <ele>11.43</ele>
        <time>1970-01-01T01:00:00Z</time>
      </trkpt>
      <trkpt lat="41.90581667" lon="12.48381">
        <ele>11.43</ele>
        <time>1970-01-01T01:00:00Z</time>
      </trkpt>
      <trkpt lat="41.90581167" lon="12.483825">
        <ele>11.43</ele>
        <time>1970-01-01T01:00:00Z</time>
      </trkpt>
      <trkpt lat="41.90580833" lon="12.48383667">
        <ele>11.43</ele>
        <time>1970-01-01T01:00:00Z</time>
      </trkpt>
      <trkpt lat="41.90580167" lon="12.48385">
        <ele>11.43</ele>
        <time>1970-01-01T01:00:00Z</time>
      </trkpt>
      <trkpt lat="41.90579667" lon="12.483865">
        <ele>11.43</ele>
        <time>1970-01-01T01:00:00Z</time>
      </trkpt>
      <trkpt lat="41.905795" lon="12.48388">
        <ele>10.363</ele>
        <time>1970-01-01T01:00:00Z</time>
      </trkpt>
      <trkpt lat="41.90579" lon="12.4839">
        <ele>10.363</ele>
        <time>1970-01-01T01:00:00Z</time>
      </trkpt>
      <trkpt lat="41.905785" lon="12.48392">
        <ele>10.363</ele>
        <time>1970-01-01T01:00:00Z</time>
      </trkpt>
      <trkpt lat="41.90577667" lon="12.48394333">
        <ele>10.363</ele>
        <time>1970-01-01T01:00:00Z</time>
      </trkpt>
      <trkpt lat="41.90576833" lon="12.48396833">
        <ele>10.363</ele>
        <time>1970-01-01T01:00:00Z</time>
      </trkpt>
      <trkpt lat="41.90575833" lon="12.48399333">
        <ele>10.363</ele>
        <time>1970-01-01T01:00:00Z</time>
      </trkpt>
      <trkpt lat="41.90574833" lon="12.48401833">
        <ele>10.363</ele>
        <time>1970-01-01T01:00:00Z</time>
      </trkpt>
      <trkpt lat="41.90573667" lon="12.48404167">
        <ele>10.363</ele>
        <time>1970-01-01T01:00:00Z</time>
      </trkpt>
      <trkpt lat="41.90572667" lon="12.48406333">
        <ele>10.363</ele>
        <time>1970-01-01T01:00:00Z</time>
      </trkpt>
      <trkpt lat="41.90571667" lon="12.48408333">
        <ele>10.363</ele>
        <time>1970-01-01T01:00:00Z</time>
      </trkpt>
      <trkpt lat="41.90570333" lon="12.484105">
        <ele>11.43</ele>
        <time>1970-01-01T01:00:00Z</time>
      </trkpt>
      <trkpt lat="41.90569" lon="12.48412667">
        <ele>11.43</ele>
        <time>1970-01-01T01:00:00Z</time>
      </trkpt>
      <trkpt lat="41.90568" lon="12.48415167">
        <ele>11.43</ele>
        <time>1970-01-01T01:00:00Z</time>
      </trkpt>
      <trkpt lat="41.90566833" lon="12.48417833">
        <ele>11.43</ele>
        <time>1970-01-01T01:00:00Z</time>
      </trkpt>
      <trkpt lat="41.905655" lon="12.48420167">
        <ele>11.43</ele>
        <time>1970-01-01T01:00:00Z</time>
      </trkpt>
      <trkpt lat="41.90564333" lon="12.48422833">
        <ele>11.43</ele>
        <time>1970-01-01T01:00:00Z</time>
      </trkpt>
      <trkpt lat="41.90563167" lon="12.48425333">
        <ele>11.43</ele>
        <time>1970-01-01T01:00:00Z</time>
      </trkpt>
      <trkpt lat="41.90561833" lon="12.48428">
        <ele>11.43</ele>
        <time>1970-01-01T01:00:00Z</time>
      </trkpt>
      <trkpt lat="41.905605" lon="12.484305">
        <ele>11.43</ele>
        <time>1970-01-01T01:00:00Z</time>
      </trkpt>
      <trkpt lat="41.90559167" lon="12.48432667">
        <ele>11.43</ele>
        <time>1970-01-01T01:00:00Z</time>
      </trkpt>
      <trkpt lat="41.90557833" lon="12.48434667">
        <ele>11.43</ele>
        <time>1970-01-01T01:00:00Z</time>
      </trkpt>
      <trkpt lat="41.90556667" lon="12.48437">
        <ele>11.43</ele>
        <time>1970-01-01T01:00:00Z</time>
      </trkpt>
      <trkpt lat="41.90555167" lon="12.48439167">
        <ele>12.345</ele>
        <time>1970-01-01T01:00:00Z</time>
      </trkpt>
      <trkpt lat="41.90554167" lon="12.484415">
        <ele>12.345</ele>
        <time>1970-01-01T01:00:00Z</time>
      </trkpt>
      <trkpt lat="41.90553333" lon="12.48443833">
        <ele>12.345</ele>
        <time>1970-01-01T01:00:00Z</time>
      </trkpt>
      <trkpt lat="41.905525" lon="12.48445833">
        <ele>12.345</ele>
        <time>1970-01-01T01:00:00Z</time>
      </trkpt>
      <trkpt lat="41.905515" lon="12.48447667">
        <ele>11.43</ele>
        <time>1970-01-01T01:00:00Z</time>
      </trkpt>
      <trkpt lat="41.90550333" lon="12.48449833">
        <ele>11.43</ele>
        <time>1970-01-01T01:00:00Z</time>
      </trkpt>
      <trkpt lat="41.90549167" lon="12.48452167">
        <ele>11.43</ele>
        <time>1970-01-01T01:00:00Z</time>
      </trkpt>
      <trkpt lat="41.905475" lon="12.48454833">
        <ele>11.43</ele>
        <time>1970-01-01T01:00:00Z</time>
      </trkpt>
      <trkpt lat="41.90546" lon="12.48457833">
        <ele>12.345</ele>
        <time>1970-01-01T01:00:00Z</time>
      </trkpt>
      <trkpt lat="41.90544167" lon="12.48460667">
        <ele>12.345</ele>
        <time>1970-01-01T01:00:00Z</time>
      </trkpt>
      <trkpt lat="41.905425" lon="12.48463833">
        <ele>12.345</ele>
        <time>1970-01-01T01:00:00Z</time>
      </trkpt>
      <trkpt lat="41.90541" lon="12.48466667">
        <ele>12.345</ele>
        <time>1970-01-01T01:00:00Z</time>
      </trkpt>
      <trkpt lat="41.90539167" lon="12.48469333">
        <ele>12.345</ele>
        <time>1970-01-01T01:00:00Z</time>
      </trkpt>
      <trkpt lat="41.905375" lon="12.48472">
        <ele>12.345</ele>
        <time>1970-01-01T01:00:00Z</time>
      </trkpt>
      <trkpt lat="41.90536167" lon="12.48474667">
        <ele>11.43</ele>
        <time>1970-01-01T01:00:00Z</time>
      </trkpt>
      <trkpt lat="41.90534667" lon="12.48477167">
        <ele>11.43</ele>
        <time>1970-01-01T01:00:00Z</time>
      </trkpt>
      <trkpt lat="41.90533167" lon="12.484795">
        <ele>11.43</ele>
        <time>1970-01-01T01:00:00Z</time>
      </trkpt>
      <trkpt lat="41.90531833" lon="12.48482">
        <ele>11.43</ele>
        <time>1970-01-01T01:00:00Z</time>
      </trkpt>
      <trkpt lat="41.905305" lon="12.484845">
        <ele>11.43</ele>
        <time>1970-01-01T01:00:00Z</time>
      </trkpt>
      <trkpt lat="41.90529" lon="12.48487167">
        <ele>11.43</ele>
        <time>1970-01-01T01:00:00Z</time>
      </trkpt>
      <trkpt lat="41.90527333" lon="12.4849">
        <ele>11.43</ele>
        <time>1970-01-01T01:00:00Z</time>
      </trkpt>
      <trkpt lat="41.90525833" lon="12.484925">
        <ele>11.43</ele>
        <time>1970-01-01T01:00:00Z</time>
      </trkpt>
      <trkpt lat="41.90524333" lon="12.48495">
        <ele>11.43</ele>
        <time>1970-01-01T01:00:00Z</time>
      </trkpt>
      <trkpt lat="41.90522833" lon="12.48497333">
        <ele>11.43</ele>
        <time>1970-01-01T01:00:00Z</time>
      </trkpt>
      <trkpt lat="41.90521333" lon="12.48499833">
        <ele>10.363</ele>
        <time>1970-01-01T01:00:00Z</time>
      </trkpt>
      <trkpt lat="41.90519833" lon="12.48502167">
        <ele>10.363</ele>
        <time>1970-01-01T01:00:00Z</time>
      </trkpt>
      <trkpt lat="41.90518333" lon="12.48504667">
        <ele>10.363</ele>
        <time>1970-01-01T01:00:00Z</time>
      </trkpt>
      <trkpt lat="41.905165" lon="12.48507167">
        <ele>10.363</ele>
        <time>1970-01-01T01:00:00Z</time>
      </trkpt>
      <trkpt lat="41.905145" lon="12.48509333">
        <ele>10.363</ele>
        <time>1970-01-01T01:00:00Z</time>
      </trkpt>
      <trkpt lat="41.90512667" lon="12.48511667">
        <ele>10.363</ele>
        <time>1970-01-01T01:00:00Z</time>
      </trkpt>
      <trkpt lat="41.90510833" lon="12.48514167">
        <ele>10.363</ele>
        <time>1970-01-01T01:00:00Z</time>
      </trkpt>
      <trkpt lat="41.90509167" lon="12.48516333">
        <ele>10.363</ele>
        <time>1970-01-01T01:00:00Z</time>
      </trkpt>
      <trkpt lat="41.90507667" lon="12.485185">
        <ele>10.363</ele>
        <time>1970-01-01T01:00:00Z</time>
      </trkpt>
      <trkpt lat="41.90505833" lon="12.48521">
        <ele>10.363</ele>
        <time>1970-01-01T01:00:00Z</time>
      </trkpt>
      <trkpt lat="41.90504167" lon="12.48523333">
        <ele>10.363</ele>
        <time>1970-01-01T01:00:00Z</time>
      </trkpt>
      <trkpt lat="41.905025" lon="12.48525667">
        <ele>10.363</ele>
        <time>1970-01-01T01:00:00Z</time>
      </trkpt>
      <trkpt lat="41.90500667" lon="12.48528167">
        <ele>10.363</ele>
        <time>1970-01-01T01:00:00Z</time>
      </trkpt>
      <trkpt lat="41.90499" lon="12.48530667">
        <ele>10.363</ele>
        <time>1970-01-01T01:00:00Z</time>
      </trkpt>
      <trkpt lat="41.904975" lon="12.48532833">
        <ele>10.363</ele>
        <time>1970-01-01T01:00:00Z</time>
      </trkpt>
      <trkpt lat="41.90496" lon="12.48534833">
        <ele>10.363</ele>
        <time>1970-01-01T01:00:00Z</time>
      </trkpt>
      <trkpt lat="41.90494667" lon="12.48537167">
        <ele>10.363</ele>
        <time>1970-01-01T01:00:00Z</time>
      </trkpt>
      <trkpt lat="41.90493333" lon="12.48539667">
        <ele>10.363</ele>
        <time>1970-01-01T01:00:00Z</time>
      </trkpt>
      <trkpt lat="41.90491667" lon="12.48542">
        <ele>10.363</ele>
        <time>1970-01-01T01:00:00Z</time>
      </trkpt>
      <trkpt lat="41.90490167" lon="12.485445">
        <ele>10.363</ele>
        <time>1970-01-01T01:00:00Z</time>
      </trkpt>
      <trkpt lat="41.90488667" lon="12.485465">
        <ele>9.449</ele>
        <time>1970-01-01T01:00:00Z</time>
      </trkpt>
      <trkpt lat="41.90487" lon="12.48549">
        <ele>9.449</ele>
        <time>1970-01-01T01:00:00Z</time>
      </trkpt>
      <trkpt lat="41.904855" lon="12.48551333">
        <ele>9.449</ele>
        <time>1970-01-01T01:00:00Z</time>
      </trkpt>
      <trkpt lat="41.90484167" lon="12.48553833">
        <ele>9.449</ele>
        <time>1970-01-01T01:00:00Z</time>
      </trkpt>
      <trkpt lat="41.90482667" lon="12.48556333">
        <ele>9.449</ele>
        <time>1970-01-01T01:00:00Z</time>
      </trkpt>
      <trkpt lat="41.90481167" lon="12.48558667">
        <ele>9.449</ele>
        <time>1970-01-01T01:00:00Z</time>
      </trkpt>
      <trkpt lat="41.90479333" lon="12.48561">
        <ele>9.449</ele>
        <time>1970-01-01T01:00:00Z</time>
      </trkpt>
      <trkpt lat="41.90477667" lon="12.48563167">
        <ele>9.449</ele>
        <time>1970-01-01T01:00:00Z</time>
      </trkpt>
      <trkpt lat="41.90476167" lon="12.48565333">
        <ele>9.449</ele>
        <time>1970-01-01T01:00:00Z</time>
      </trkpt>
      <trkpt lat="41.90475" lon="12.485675">
        <ele>9.449</ele>
        <time>1970-01-01T01:00:00Z</time>
      </trkpt>
      <trkpt lat="41.90474" lon="12.48569833">
        <ele>8.382</ele>
        <time>1970-01-01T01:00:00Z</time>
      </trkpt>
      <trkpt lat="41.90473" lon="12.48572">
        <ele>8.382</ele>
        <time>1970-01-01T01:00:00Z</time>
      </trkpt>
      <trkpt lat="41.90472167" lon="12.48573833">
        <ele>8.382</ele>
        <time>1970-01-01T01:00:00Z</time>
      </trkpt>
      <trkpt lat="41.904715" lon="12.48575833">
        <ele>8.382</ele>
        <time>1970-01-01T01:00:00Z</time>
      </trkpt>
      <trkpt lat="41.90470833" lon="12.485775">
        <ele>8.382</ele>
        <time>1970-01-01T01:00:00Z</time>
      </trkpt>
      <trkpt lat="41.9047" lon="12.48579333">
        <ele>8.382</ele>
        <time>1970-01-01T01:00:00Z</time>
      </trkpt>
      <trkpt lat="41.90469167" lon="12.48581">
        <ele>8.382</ele>
        <time>1970-01-01T01:00:00Z</time>
      </trkpt>
      <trkpt lat="41.90468167" lon="12.48582667">
        <ele>8.382</ele>
        <time>1970-01-01T01:00:00Z</time>
      </trkpt>
      <trkpt lat="41.90467333" lon="12.48584167">
        <ele>9.449</ele>
        <time>1970-01-01T01:00:00Z</time>
      </trkpt>
      <trkpt lat="41.904665" lon="12.48586">
        <ele>9.449</ele>
        <time>1970-01-01T01:00:00Z</time>
      </trkpt>
      <trkpt lat="41.904655" lon="12.48587667">
        <ele>9.449</ele>
        <time>1970-01-01T01:00:00Z</time>
      </trkpt>
      <trkpt lat="41.90464333" lon="12.48589667">
        <ele>9.449</ele>
        <time>1970-01-01T01:00:00Z</time>
      </trkpt>
      <trkpt lat="41.90463167" lon="12.48591833">
        <ele>9.449</ele>
        <time>1970-01-01T01:00:00Z</time>
      </trkpt>
      <trkpt lat="41.90461833" lon="12.48594333">
        <ele>9.449</ele>
        <time>1970-01-01T01:00:00Z</time>
      </trkpt>
      <trkpt lat="41.90460667" lon="12.48596667">
        <ele>9.449</ele>
        <time>1970-01-01T01:00:00Z</time>
      </trkpt>
      <trkpt lat="41.90459333" lon="12.48599167">
        <ele>9.449</ele>
        <time>1970-01-01T01:00:00Z</time>
      </trkpt>
      <trkpt lat="41.90458167" lon="12.48601833">
        <ele>9.449</ele>
        <time>1970-01-01T01:00:00Z</time>
      </trkpt>
      <trkpt lat="41.90457167" lon="12.486045">
        <ele>9.449</ele>
        <time>1970-01-01T01:00:00Z</time>
      </trkpt>
      <trkpt lat="41.90456" lon="12.48607">
        <ele>9.449</ele>
        <time>1970-01-01T01:00:00Z</time>
      </trkpt>
      <trkpt lat="41.90454833" lon="12.486095">
        <ele>9.449</ele>
        <time>1970-01-01T01:00:00Z</time>
      </trkpt>
      <trkpt lat="41.90453667" lon="12.48612167">
        <ele>9.449</ele>
        <time>1970-01-01T01:00:00Z</time>
      </trkpt>
      <trkpt lat="41.90452333" lon="12.48614667">
        <ele>9.449</ele>
        <time>1970-01-01T01:00:00Z</time>
      </trkpt>
      <trkpt lat="41.90451333" lon="12.48617167">
        <ele>9.449</ele>
        <time>1970-01-01T01:00:00Z</time>
      </trkpt>
      <trkpt lat="41.90450333" lon="12.486195">
        <ele>9.449</ele>
        <time>1970-01-01T01:00:00Z</time>
      </trkpt>
      <trkpt lat="41.90449167" lon="12.48622">
        <ele>9.449</ele>
        <time>1970-01-01T01:00:00Z</time>
      </trkpt>
      <trkpt lat="41.90448" lon="12.48624667">
        <ele>9.449</ele>
        <time>1970-01-01T01:00:00Z</time>
      </trkpt>
      <trkpt lat="41.90446667" lon="12.48627167">
        <ele>9.449</ele>
        <time>1970-01-01T01:00:00Z</time>
      </trkpt>
      <trkpt lat="41.90445167" lon="12.48629333">
        <ele>9.449</ele>
        <time>1970-01-01T01:00:00Z</time>
      </trkpt>
      <trkpt lat="41.90444" lon="12.48631833">
        <ele>9.449</ele>
        <time>1970-01-01T01:00:00Z</time>
      </trkpt>
      <trkpt lat="41.90442833" lon="12.48634333">
        <ele>9.449</ele>
        <time>1970-01-01T01:00:00Z</time>
      </trkpt>
      <trkpt lat="41.90441833" lon="12.48636333">
        <ele>9.449</ele>
        <time>1970-01-01T01:00:00Z</time>
      </trkpt>
      <trkpt lat="41.90440667" lon="12.48638333">
        <ele>9.449</ele>
        <time>1970-01-01T01:00:00Z</time>
      </trkpt>
      <trkpt lat="41.90439333" lon="12.48640167">
        <ele>9.449</ele>
        <time>1970-01-01T01:00:00Z</time>
      </trkpt>
      <trkpt lat="41.904375" lon="12.48642167">
        <ele>9.449</ele>
        <time>1970-01-01T01:00:00Z</time>
      </trkpt>
      <trkpt lat="41.90435833" lon="12.48644">
        <ele>9.449</ele>
        <time>1970-01-01T01:00:00Z</time>
      </trkpt>
      <trkpt lat="41.90434167" lon="12.48645833">
        <ele>9.449</ele>
        <time>1970-01-01T01:00:00Z</time>
      </trkpt>
      <trkpt lat="41.90432667" lon="12.48648">
        <ele>9.449</ele>
        <time>1970-01-01T01:00:00Z</time>
      </trkpt>
      <trkpt lat="41.90431333" lon="12.48650167">
        <ele>9.449</ele>
        <time>1970-01-01T01:00:00Z</time>
      </trkpt>
      <trkpt lat="41.90429833" lon="12.48652833">
        <ele>9.449</ele>
        <time>1970-01-01T01:00:00Z</time>
      </trkpt>
      <trkpt lat="41.904285" lon="12.486555">
        <ele>9.449</ele>
        <time>1970-01-01T01:00:00Z</time>
      </trkpt>
      <trkpt lat="41.90427333" lon="12.48658">
        <ele>9.449</ele>
        <time>1970-01-01T01:00:00Z</time>
      </trkpt>
      <trkpt lat="41.90426333" lon="12.486605">
        <ele>9.449</ele>
        <time>1970-01-01T01:00:00Z</time>
      </trkpt>
      <trkpt lat="41.90425333" lon="12.48663167">
        <ele>8.382</ele>
        <time>1970-01-01T01:00:00Z</time>
      </trkpt>
      <trkpt lat="41.90424167" lon="12.48666">
        <ele>8.382</ele>
        <time>1970-01-01T01:00:00Z</time>
      </trkpt>
      <trkpt lat="41.90423167" lon="12.48669">
        <ele>8.382</ele>
        <time>1970-01-01T01:00:00Z</time>
      </trkpt>
      <trkpt lat="41.90422" lon="12.48671833">
        <ele>8.382</ele>
        <time>1970-01-01T01:00:00Z</time>
      </trkpt>
      <trkpt lat="41.90421" lon="12.486745">
        <ele>8.382</ele>
        <time>1970-01-01T01:00:00Z</time>
      </trkpt>
      <trkpt lat="41.9042" lon="12.48677">
        <ele>8.382</ele>
        <time>1970-01-01T01:00:00Z</time>
      </trkpt>
      <trkpt lat="41.90418667" lon="12.48679333">
        <ele>8.382</ele>
        <time>1970-01-01T01:00:00Z</time>
      </trkpt>
      <trkpt lat="41.90417" lon="12.48681667">
        <ele>8.382</ele>
        <time>1970-01-01T01:00:00Z</time>
      </trkpt>
      <trkpt lat="41.904155" lon="12.48684">
        <ele>8.382</ele>
        <time>1970-01-01T01:00:00Z</time>
      </trkpt>
      <trkpt lat="41.90413833" lon="12.48686333">
        <ele>8.382</ele>
        <time>1970-01-01T01:00:00Z</time>
      </trkpt>
      <trkpt lat="41.90412" lon="12.48688667">
        <ele>8.382</ele>
        <time>1970-01-01T01:00:00Z</time>
      </trkpt>
      <trkpt lat="41.904105" lon="12.48690833">
        <ele>8.382</ele>
        <time>1970-01-01T01:00:00Z</time>
      </trkpt>
      <trkpt lat="41.90408833" lon="12.48693167">
        <ele>8.382</ele>
        <time>1970-01-01T01:00:00Z</time>
      </trkpt>
      <trkpt lat="41.90407167" lon="12.486955">
        <ele>8.382</ele>
        <time>1970-01-01T01:00:00Z</time>
      </trkpt>
      <trkpt lat="41.90405667" lon="12.48697833">
        <ele>8.382</ele>
        <time>1970-01-01T01:00:00Z</time>
      </trkpt>
      <trkpt lat="41.90404333" lon="12.48700333">
        <ele>8.382</ele>
        <time>1970-01-01T01:00:00Z</time>
      </trkpt>
      <trkpt lat="41.90402833" lon="12.48702667">
        <ele>8.382</ele>
        <time>1970-01-01T01:00:00Z</time>
      </trkpt>
      <trkpt lat="41.904015" lon="12.48705">
        <ele>8.382</ele>
        <time>1970-01-01T01:00:00Z</time>
      </trkpt>
      <trkpt lat="41.904" lon="12.48707">
        <ele>8.382</ele>
        <time>1970-01-01T01:00:00Z</time>
      </trkpt>
      <trkpt lat="41.90398333" lon="12.48709">
        <ele>8.382</ele>
        <time>1970-01-01T01:00:00Z</time>
      </trkpt>
      <trkpt lat="41.90396833" lon="12.48711333">
        <ele>8.382</ele>
        <time>1970-01-01T01:00:00Z</time>
      </trkpt>
      <trkpt lat="41.90395167" lon="12.48713167">
        <ele>8.382</ele>
        <time>1970-01-01T01:00:00Z</time>
      </trkpt>
      <trkpt lat="41.90393667" lon="12.48715167">
        <ele>8.382</ele>
        <time>1970-01-01T01:00:00Z</time>
      </trkpt>
      <trkpt lat="41.90392333" lon="12.48717333">
        <ele>8.382</ele>
        <time>1970-01-01T01:00:00Z</time>
      </trkpt>
      <trkpt lat="41.90391167" lon="12.48719333">
        <ele>8.382</ele>
        <time>1970-01-01T01:00:00Z</time>
      </trkpt>
      <trkpt lat="41.90389667" lon="12.48721333">
        <ele>8.382</ele>
        <time>1970-01-01T01:00:00Z</time>
      </trkpt>
      <trkpt lat="41.90388667" lon="12.48723333">
        <ele>8.382</ele>
        <time>1970-01-01T01:00:00Z</time>
      </trkpt>
      <trkpt lat="41.90387333" lon="12.48724833">
        <ele>8.382</ele>
        <time>1970-01-01T01:00:00Z</time>
      </trkpt>
      <trkpt lat="41.90386167" lon="12.48726333">
        <ele>8.382</ele>
        <time>1970-01-01T01:00:00Z</time>
      </trkpt>
      <trkpt lat="41.90384833" lon="12.48728">
        <ele>8.382</ele>
        <time>1970-01-01T01:00:00Z</time>
      </trkpt>
      <trkpt lat="41.90383167" lon="12.48729833">
        <ele>8.382</ele>
        <time>1970-01-01T01:00:00Z</time>
      </trkpt>
      <trkpt lat="41.903815" lon="12.48732167">
        <ele>8.382</ele>
        <time>1970-01-01T01:00:00Z</time>
      </trkpt>
      <trkpt lat="41.90379833" lon="12.487345">
        <ele>8.382</ele>
        <time>1970-01-01T01:00:00Z</time>
      </trkpt>
      <trkpt lat="41.90378333" lon="12.487365">
        <ele>8.382</ele>
        <time>1970-01-01T01:00:00Z</time>
      </trkpt>
      <trkpt lat="41.90376667" lon="12.48738667">
        <ele>7.468</ele>
        <time>1970-01-01T01:00:00Z</time>
      </trkpt>
      <trkpt lat="41.90375167" lon="12.48741167">
        <ele>7.468</ele>
        <time>1970-01-01T01:00:00Z</time>
      </trkpt>
      <trkpt lat="41.90373833" lon="12.48743667">
        <ele>7.468</ele>
        <time>1970-01-01T01:00:00Z</time>
      </trkpt>
      <trkpt lat="41.90372667" lon="12.48746">
        <ele>7.468</ele>
        <time>1970-01-01T01:00:00Z</time>
      </trkpt>
      <trkpt lat="41.903715" lon="12.48748333">
        <ele>6.401</ele>
        <time>1970-01-01T01:00:00Z</time>
      </trkpt>
      <trkpt lat="41.90370333" lon="12.48750667">
        <ele>6.401</ele>
        <time>1970-01-01T01:00:00Z</time>
      </trkpt>
      <trkpt lat="41.903695" lon="12.48752833">
        <ele>6.401</ele>
        <time>1970-01-01T01:00:00Z</time>
      </trkpt>
      <trkpt lat="41.903685" lon="12.48755">
        <ele>6.401</ele>
        <time>1970-01-01T01:00:00Z</time>
      </trkpt>
      <trkpt lat="41.903675" lon="12.48757167">
        <ele>6.401</ele>
        <time>1970-01-01T01:00:00Z</time>
      </trkpt>
      <trkpt lat="41.903665" lon="12.487595">
        <ele>6.401</ele>
        <time>1970-01-01T01:00:00Z</time>
      </trkpt>
      <trkpt lat="41.903655" lon="12.48762">
        <ele>6.401</ele>
        <time>1970-01-01T01:00:00Z</time>
      </trkpt>
      <trkpt lat="41.903645" lon="12.487645">
        <ele>6.401</ele>
        <time>1970-01-01T01:00:00Z</time>
      </trkpt>
      <trkpt lat="41.90363333" lon="12.48767">
        <ele>6.401</ele>
        <time>1970-01-01T01:00:00Z</time>
      </trkpt>
      <trkpt lat="41.90362167" lon="12.48769167">
        <ele>6.401</ele>
        <time>1970-01-01T01:00:00Z</time>
      </trkpt>
      <trkpt lat="41.90361" lon="12.48771333">
        <ele>6.401</ele>
        <time>1970-01-01T01:00:00Z</time>
      </trkpt>
      <trkpt lat="41.9036" lon="12.48773667">
        <ele>6.401</ele>
        <time>1970-01-01T01:00:00Z</time>
      </trkpt>
      <trkpt lat="41.90358833" lon="12.48775833">
        <ele>6.401</ele>
        <time>1970-01-01T01:00:00Z</time>
      </trkpt>
      <trkpt lat="41.90357833" lon="12.48778167">
        <ele>6.401</ele>
        <time>1970-01-01T01:00:00Z</time>
      </trkpt>
      <trkpt lat="41.90357167" lon="12.48780167">
        <ele>6.401</ele>
        <time>1970-01-01T01:00:00Z</time>
      </trkpt>
      <trkpt lat="41.903565" lon="12.48782167">
        <ele>6.401</ele>
        <time>1970-01-01T01:00:00Z</time>
      </trkpt>
      <trkpt lat="41.90356" lon="12.48783333">
        <ele>6.401</ele>
        <time>1970-01-01T01:00:00Z</time>
      </trkpt>
      <trkpt lat="41.903525" lon="12.48791167">
        <ele>4.42</ele>
        <time>1970-01-01T01:00:00Z</time>
      </trkpt>
      <trkpt lat="41.90351333" lon="12.48792833">
        <ele>4.42</ele>
        <time>1970-01-01T01:00:00Z</time>
      </trkpt>
      <trkpt lat="41.903505" lon="12.48794833">
        <ele>5.334</ele>
        <time>1970-01-01T01:00:00Z</time>
      </trkpt>
      <trkpt lat="41.903495" lon="12.487975">
        <ele>5.334</ele>
        <time>1970-01-01T01:00:00Z</time>
      </trkpt>
      <trkpt lat="41.903485" lon="12.48800833">
        <ele>5.334</ele>
        <time>1970-01-01T01:00:00Z</time>
      </trkpt>
      <trkpt lat="41.90347333" lon="12.48803833">
        <ele>5.334</ele>
        <time>1970-01-01T01:00:00Z</time>
      </trkpt>
      <trkpt lat="41.903465" lon="12.48807167">
        <ele>6.401</ele>
        <time>1970-01-01T01:00:00Z</time>
      </trkpt>
      <trkpt lat="41.90345667" lon="12.48809833">
        <ele>6.401</ele>
        <time>1970-01-01T01:00:00Z</time>
      </trkpt>
      <trkpt lat="41.90344833" lon="12.488125">
        <ele>6.401</ele>
        <time>1970-01-01T01:00:00Z</time>
      </trkpt>
      <trkpt lat="41.903435" lon="12.48815333">
        <ele>6.401</ele>
        <time>1970-01-01T01:00:00Z</time>
      </trkpt>
      <trkpt lat="41.90342333" lon="12.48817833">
        <ele>6.401</ele>
        <time>1970-01-01T01:00:00Z</time>
      </trkpt>
      <trkpt lat="41.90341" lon="12.488205">
        <ele>6.401</ele>
        <time>1970-01-01T01:00:00Z</time>
      </trkpt>
      <trkpt lat="41.903395" lon="12.48823">
        <ele>9.449</ele>
        <time>1970-01-01T01:00:00Z</time>
      </trkpt>
      <trkpt lat="41.90338" lon="12.48825167">
        <ele>9.449</ele>
        <time>1970-01-01T01:00:00Z</time>
      </trkpt>
      <trkpt lat="41.903365" lon="12.48827167">
        <ele>10.363</ele>
        <time>1970-01-01T01:00:00Z</time>
      </trkpt>
      <trkpt lat="41.90335" lon="12.48828833">
        <ele>10.363</ele>
        <time>1970-01-01T01:00:00Z</time>
      </trkpt>
      <trkpt lat="41.903335" lon="12.488305">
        <ele>10.363</ele>
        <time>1970-01-01T01:00:00Z</time>
      </trkpt>
      <trkpt lat="41.90332" lon="12.48832333">
        <ele>10.363</ele>
        <time>1970-01-01T01:00:00Z</time>
      </trkpt>
      <trkpt lat="41.90330833" lon="12.48834167">
        <ele>11.43</ele>
        <time>1970-01-01T01:00:00Z</time>
      </trkpt>
      <trkpt lat="41.903295" lon="12.48836">
        <ele>11.43</ele>
        <time>1970-01-01T01:00:00Z</time>
      </trkpt>
      <trkpt lat="41.90328333" lon="12.488385">
        <ele>12.345</ele>
        <time>1970-01-01T01:00:00Z</time>
      </trkpt>
      <trkpt lat="41.903275" lon="12.48840833">
        <ele>12.345</ele>
        <time>1970-01-01T01:00:00Z</time>
      </trkpt>
      <trkpt lat="41.90326333" lon="12.48843">
        <ele>12.345</ele>
        <time>1970-01-01T01:00:00Z</time>
      </trkpt>
      <trkpt lat="41.90325167" lon="12.48845833">
        <ele>12.345</ele>
        <time>1970-01-01T01:00:00Z</time>
      </trkpt>
      <trkpt lat="41.90324167" lon="12.48848333">
        <ele>12.345</ele>
        <time>1970-01-01T01:00:00Z</time>
      </trkpt>
      <trkpt lat="41.90323" lon="12.48850833">
        <ele>12.345</ele>
        <time>1970-01-01T01:00:00Z</time>
      </trkpt>
      <trkpt lat="41.90321667" lon="12.488535">
        <ele>13.411</ele>
        <time>1970-01-01T01:00:00Z</time>
      </trkpt>
      <trkpt lat="41.903205" lon="12.48856167">
        <ele>13.411</ele>
        <time>1970-01-01T01:00:00Z</time>
      </trkpt>
      <trkpt lat="41.90319167" lon="12.48858667">
        <ele>14.326</ele>
        <time>1970-01-01T01:00:00Z</time>
      </trkpt>
      <trkpt lat="41.90318" lon="12.48861333">
        <ele>14.326</ele>
        <time>1970-01-01T01:00:00Z</time>
      </trkpt>
      <trkpt lat="41.90316833" lon="12.488635">
        <ele>14.326</ele>
        <time>1970-01-01T01:00:00Z</time>
      </trkpt>
      <trkpt lat="41.90315833" lon="12.48865833">
        <ele>14.326</ele>
        <time>1970-01-01T01:00:00Z</time>
      </trkpt>
      <trkpt lat="41.90314833" lon="12.48868">
        <ele>14.326</ele>
        <time>1970-01-01T01:00:00Z</time>
      </trkpt>
      <trkpt lat="41.90313833" lon="12.48870167">
        <ele>14.326</ele>
        <time>1970-01-01T01:00:00Z</time>
      </trkpt>
      <trkpt lat="41.90313167" lon="12.488725">
        <ele>15.393</ele>
        <time>1970-01-01T01:00:00Z</time>
      </trkpt>
      <trkpt lat="41.903125" lon="12.48875167">
        <ele>15.393</ele>
        <time>1970-01-01T01:00:00Z</time>
      </trkpt>
      <trkpt lat="41.90311833" lon="12.48877833">
        <ele>16.459</ele>
        <time>1970-01-01T01:00:00Z</time>
      </trkpt>
      <trkpt lat="41.90311167" lon="12.48880333">
        <ele>16.459</ele>
        <time>1970-01-01T01:00:00Z</time>
      </trkpt>
      <trkpt lat="41.903105" lon="12.48882833">
        <ele>16.459</ele>
        <time>1970-01-01T01:00:00Z</time>
      </trkpt>
      <trkpt lat="41.90309833" lon="12.48885333">
        <ele>16.459</ele>
        <time>1970-01-01T01:00:00Z</time>
      </trkpt>
      <trkpt lat="41.90309333" lon="12.48888167">
        <ele>16.459</ele>
        <time>1970-01-01T01:00:00Z</time>
      </trkpt>
      <trkpt lat="41.903085" lon="12.48890833">
        <ele>16.459</ele>
        <time>1970-01-01T01:00:00Z</time>
      </trkpt>
      <trkpt lat="41.903075" lon="12.488935">
        <ele>16.459</ele>
        <time>1970-01-01T01:00:00Z</time>
      </trkpt>
      <trkpt lat="41.903065" lon="12.48895833">
        <ele>16.459</ele>
        <time>1970-01-01T01:00:00Z</time>
      </trkpt>
      <trkpt lat="41.903055" lon="12.48898167">
        <ele>16.459</ele>
        <time>1970-01-01T01:00:00Z</time>
      </trkpt>
      <trkpt lat="41.903045" lon="12.48900667">
        <ele>16.459</ele>
        <time>1970-01-01T01:00:00Z</time>
      </trkpt>
      <trkpt lat="41.90303333" lon="12.48903167">
        <ele>16.459</ele>
        <time>1970-01-01T01:00:00Z</time>
      </trkpt>
      <trkpt lat="41.90302333" lon="12.48905667">
        <ele>16.459</ele>
        <time>1970-01-01T01:00:00Z</time>
      </trkpt>
      <trkpt lat="41.90301333" lon="12.48908167">
        <ele>18.441</ele>
        <time>1970-01-01T01:00:00Z</time>
      </trkpt>
      <trkpt lat="41.90300167" lon="12.489105">
        <ele>18.441</ele>
        <time>1970-01-01T01:00:00Z</time>
      </trkpt>
      <trkpt lat="41.90298833" lon="12.48912667">
        <ele>18.441</ele>
        <time>1970-01-01T01:00:00Z</time>
      </trkpt>
      <trkpt lat="41.902975" lon="12.48914833">
        <ele>18.441</ele>
        <time>1970-01-01T01:00:00Z</time>
      </trkpt>
      <trkpt lat="41.90296333" lon="12.48917">
        <ele>18.441</ele>
        <time>1970-01-01T01:00:00Z</time>
      </trkpt>
      <trkpt lat="41.90295167" lon="12.48919">
        <ele>18.441</ele>
        <time>1970-01-01T01:00:00Z</time>
      </trkpt>
      <trkpt lat="41.90294" lon="12.48921">
        <ele>19.355</ele>
        <time>1970-01-01T01:00:00Z</time>
      </trkpt>
      <trkpt lat="41.90293" lon="12.48922833">
        <ele>19.355</ele>
        <time>1970-01-01T01:00:00Z</time>
      </trkpt>
      <trkpt lat="41.90291667" lon="12.489245">
        <ele>19.355</ele>
        <time>1970-01-01T01:00:00Z</time>
      </trkpt>
      <trkpt lat="41.90290333" lon="12.48926">
        <ele>19.355</ele>
        <time>1970-01-01T01:00:00Z</time>
      </trkpt>
      <trkpt lat="41.90289" lon="12.48928">
        <ele>19.355</ele>
        <time>1970-01-01T01:00:00Z</time>
      </trkpt>
      <trkpt lat="41.90287667" lon="12.4893">
        <ele>19.355</ele>
        <time>1970-01-01T01:00:00Z</time>
      </trkpt>
      <trkpt lat="41.90286333" lon="12.48932">
        <ele>19.355</ele>
        <time>1970-01-01T01:00:00Z</time>
      </trkpt>
      <trkpt lat="41.90285" lon="12.48933833">
        <ele>19.355</ele>
        <time>1970-01-01T01:00:00Z</time>
      </trkpt>
      <trkpt lat="41.90283833" lon="12.48935667">
        <ele>19.355</ele>
        <time>1970-01-01T01:00:00Z</time>
      </trkpt>
      <trkpt lat="41.90282667" lon="12.48937167">
        <ele>19.355</ele>
        <time>1970-01-01T01:00:00Z</time>
      </trkpt>
      <trkpt lat="41.902815" lon="12.48939167">
        <ele>19.355</ele>
        <time>1970-01-01T01:00:00Z</time>
      </trkpt>
      <trkpt lat="41.902805" lon="12.48941">
        <ele>19.355</ele>
        <time>1970-01-01T01:00:00Z</time>
      </trkpt>
      <trkpt lat="41.90279667" lon="12.48943">
        <ele>19.355</ele>
        <time>1970-01-01T01:00:00Z</time>
      </trkpt>
      <trkpt lat="41.90278667" lon="12.48944833">
        <ele>19.355</ele>
        <time>1970-01-01T01:00:00Z</time>
      </trkpt>
      <trkpt lat="41.90277667" lon="12.48946667">
        <ele>20.422</ele>
        <time>1970-01-01T01:00:00Z</time>
      </trkpt>
      <trkpt lat="41.90276667" lon="12.48948667">
        <ele>20.422</ele>
        <time>1970-01-01T01:00:00Z</time>
      </trkpt>
      <trkpt lat="41.90275167" lon="12.48950333">
        <ele>20.422</ele>
        <time>1970-01-01T01:00:00Z</time>
      </trkpt>
      <trkpt lat="41.90274" lon="12.48952">
        <ele>20.422</ele>
        <time>1970-01-01T01:00:00Z</time>
      </trkpt>
      <trkpt lat="41.902725" lon="12.48953833">
        <ele>20.422</ele>
        <time>1970-01-01T01:00:00Z</time>
      </trkpt>
      <trkpt lat="41.90271" lon="12.48956">
        <ele>20.422</ele>
        <time>1970-01-01T01:00:00Z</time>
      </trkpt>
      <trkpt lat="41.90269667" lon="12.48957833">
        <ele>20.422</ele>
        <time>1970-01-01T01:00:00Z</time>
      </trkpt>
      <trkpt lat="41.90268333" lon="12.48959667">
        <ele>20.422</ele>
        <time>1970-01-01T01:00:00Z</time>
      </trkpt>
      <trkpt lat="41.90266833" lon="12.48961333">
        <ele>20.422</ele>
        <time>1970-01-01T01:00:00Z</time>
      </trkpt>
      <trkpt lat="41.902655" lon="12.489635">
        <ele>20.422</ele>
        <time>1970-01-01T01:00:00Z</time>
      </trkpt>
      <trkpt lat="41.90264167" lon="12.48965333">
        <ele>20.422</ele>
        <time>1970-01-01T01:00:00Z</time>
      </trkpt>
      <trkpt lat="41.90262667" lon="12.48967333">
        <ele>20.422</ele>
        <time>1970-01-01T01:00:00Z</time>
      </trkpt>
      <trkpt lat="41.90261167" lon="12.48969333">
        <ele>20.422</ele>
        <time>1970-01-01T01:00:00Z</time>
      </trkpt>
      <trkpt lat="41.90259667" lon="12.48971167">
        <ele>20.422</ele>
        <time>1970-01-01T01:00:00Z</time>
      </trkpt>
      <trkpt lat="41.90258167" lon="12.48973167">
        <ele>20.422</ele>
        <time>1970-01-01T01:00:00Z</time>
      </trkpt>
      <trkpt lat="41.90256667" lon="12.48975">
        <ele>20.422</ele>
        <time>1970-01-01T01:00:00Z</time>
      </trkpt>
      <trkpt lat="41.90255333" lon="12.48976667">
        <ele>22.403</ele>
        <time>1970-01-01T01:00:00Z</time>
      </trkpt>
      <trkpt lat="41.90254" lon="12.48978333">
        <ele>22.403</ele>
        <time>1970-01-01T01:00:00Z</time>
      </trkpt>
      <trkpt lat="41.90253" lon="12.4898">
        <ele>23.47</ele>
        <time>1970-01-01T01:00:00Z</time>
      </trkpt>
      <trkpt lat="41.90251833" lon="12.48981833">
        <ele>23.47</ele>
        <time>1970-01-01T01:00:00Z</time>
      </trkpt>
      <trkpt lat="41.90250833" lon="12.48983333">
        <ele>23.47</ele>
        <time>1970-01-01T01:00:00Z</time>
      </trkpt>
      <trkpt lat="41.90249833" lon="12.48985167">
        <ele>23.47</ele>
        <time>1970-01-01T01:00:00Z</time>
      </trkpt>
      <trkpt lat="41.90248833" lon="12.48987333">
        <ele>23.47</ele>
        <time>1970-01-01T01:00:00Z</time>
      </trkpt>
      <trkpt lat="41.90247833" lon="12.48989667">
        <ele>23.47</ele>
        <time>1970-01-01T01:00:00Z</time>
      </trkpt>
      <trkpt lat="41.90246667" lon="12.48991833">
        <ele>23.47</ele>
        <time>1970-01-01T01:00:00Z</time>
      </trkpt>
      <trkpt lat="41.902455" lon="12.48994">
        <ele>23.47</ele>
        <time>1970-01-01T01:00:00Z</time>
      </trkpt>
      <trkpt lat="41.902445" lon="12.489965">
        <ele>24.384</ele>
        <time>1970-01-01T01:00:00Z</time>
      </trkpt>
      <trkpt lat="41.90243667" lon="12.48998833">
        <ele>24.384</ele>
        <time>1970-01-01T01:00:00Z</time>
      </trkpt>
      <trkpt lat="41.902425" lon="12.49001333">
        <ele>24.384</ele>
        <time>1970-01-01T01:00:00Z</time>
      </trkpt>
      <trkpt lat="41.902415" lon="12.49003667">
        <ele>24.384</ele>
        <time>1970-01-01T01:00:00Z</time>
      </trkpt>
      <trkpt lat="41.902405" lon="12.49006">
        <ele>24.384</ele>
        <time>1970-01-01T01:00:00Z</time>
      </trkpt>
      <trkpt lat="41.902395" lon="12.49008167">
        <ele>24.384</ele>
        <time>1970-01-01T01:00:00Z</time>
      </trkpt>
      <trkpt lat="41.902385" lon="12.49010167">
        <ele>26.366</ele>
        <time>1970-01-01T01:00:00Z</time>
      </trkpt>
      <trkpt lat="41.902375" lon="12.49012333">
        <ele>26.366</ele>
        <time>1970-01-01T01:00:00Z</time>
      </trkpt>
      <trkpt lat="41.90236333" lon="12.49014667">
        <ele>26.366</ele>
        <time>1970-01-01T01:00:00Z</time>
      </trkpt>
      <trkpt lat="41.90235333" lon="12.49017">
        <ele>26.366</ele>
        <time>1970-01-01T01:00:00Z</time>
      </trkpt>
      <trkpt lat="41.90234333" lon="12.49019167">
        <ele>26.366</ele>
        <time>1970-01-01T01:00:00Z</time>
      </trkpt>
      <trkpt lat="41.90233333" lon="12.49021333">
        <ele>26.366</ele>
        <time>1970-01-01T01:00:00Z</time>
      </trkpt>
      <trkpt lat="41.90232333" lon="12.49024">
        <ele>26.366</ele>
        <time>1970-01-01T01:00:00Z</time>
      </trkpt>
      <trkpt lat="41.90231167" lon="12.490265">
        <ele>26.366</ele>
        <time>1970-01-01T01:00:00Z</time>
      </trkpt>
      <trkpt lat="41.90230333" lon="12.49028833">
        <ele>26.366</ele>
        <time>1970-01-01T01:00:00Z</time>
      </trkpt>
      <trkpt lat="41.90229333" lon="12.49030667">
        <ele>26.366</ele>
        <time>1970-01-01T01:00:00Z</time>
      </trkpt>
      <trkpt lat="41.90228333" lon="12.49032667">
        <ele>26.366</ele>
        <time>1970-01-01T01:00:00Z</time>
      </trkpt>
      <trkpt lat="41.90227667" lon="12.49034833">
        <ele>26.366</ele>
        <time>1970-01-01T01:00:00Z</time>
      </trkpt>
      <trkpt lat="41.90226833" lon="12.49037">
        <ele>28.347</ele>
        <time>1970-01-01T01:00:00Z</time>
      </trkpt>
      <trkpt lat="41.90226" lon="12.49039333">
        <ele>28.347</ele>
        <time>1970-01-01T01:00:00Z</time>
      </trkpt>
      <trkpt lat="41.90224833" lon="12.49041833">
        <ele>29.414</ele>
        <time>1970-01-01T01:00:00Z</time>
      </trkpt>
      <trkpt lat="41.90223833" lon="12.490445">
        <ele>29.414</ele>
        <time>1970-01-01T01:00:00Z</time>
      </trkpt>
      <trkpt lat="41.90223" lon="12.49046833">
        <ele>29.414</ele>
        <time>1970-01-01T01:00:00Z</time>
      </trkpt>
      <trkpt lat="41.90222167" lon="12.49048667">
        <ele>29.414</ele>
        <time>1970-01-01T01:00:00Z</time>
      </trkpt>
      <trkpt lat="41.90221" lon="12.49050667">
        <ele>29.414</ele>
        <time>1970-01-01T01:00:00Z</time>
      </trkpt>
      <trkpt lat="41.90220167" lon="12.49052667">
        <ele>29.414</ele>
        <time>1970-01-01T01:00:00Z</time>
      </trkpt>
      <trkpt lat="41.90219" lon="12.49054667">
        <ele>30.328</ele>
        <time>1970-01-01T01:00:00Z</time>
      </trkpt>
      <trkpt lat="41.90217833" lon="12.490565">
        <ele>30.328</ele>
        <time>1970-01-01T01:00:00Z</time>
      </trkpt>
      <trkpt lat="41.90216667" lon="12.49058">
        <ele>30.328</ele>
        <time>1970-01-01T01:00:00Z</time>
      </trkpt>
      <trkpt lat="41.90215667" lon="12.49060167">
        <ele>30.328</ele>
        <time>1970-01-01T01:00:00Z</time>
      </trkpt>
      <trkpt lat="41.90214333" lon="12.49062167">
        <ele>31.395</ele>
        <time>1970-01-01T01:00:00Z</time>
      </trkpt>
      <trkpt lat="41.90213" lon="12.49063667">
        <ele>31.395</ele>
        <time>1970-01-01T01:00:00Z</time>
      </trkpt>
      <trkpt lat="41.90212" lon="12.49064833">
        <ele>31.395</ele>
        <time>1970-01-01T01:00:00Z</time>
      </trkpt>
      <trkpt lat="41.90210833" lon="12.49066167">
        <ele>31.395</ele>
        <time>1970-01-01T01:00:00Z</time>
      </trkpt>
      <trkpt lat="41.902095" lon="12.490675">
        <ele>32.462</ele>
        <time>1970-01-01T01:00:00Z</time>
      </trkpt>
      <trkpt lat="41.90208167" lon="12.490685">
        <ele>32.462</ele>
        <time>1970-01-01T01:00:00Z</time>
      </trkpt>
      <trkpt lat="41.90207" lon="12.49069">
        <ele>32.462</ele>
        <time>1970-01-01T01:00:00Z</time>
      </trkpt>
      <trkpt lat="41.90205833" lon="12.490695">
        <ele>32.462</ele>
        <time>1970-01-01T01:00:00Z</time>
      </trkpt>
      <trkpt lat="41.90204833" lon="12.49069833">
        <ele>32.462</ele>
        <time>1970-01-01T01:00:00Z</time>
      </trkpt>
      <trkpt lat="41.90203833" lon="12.4907">
        <ele>32.462</ele>
        <time>1970-01-01T01:00:00Z</time>
      </trkpt>
      <trkpt lat="41.90202833" lon="12.49070333">
        <ele>32.462</ele>
        <time>1970-01-01T01:00:00Z</time>
      </trkpt>
      <trkpt lat="41.90202" lon="12.49070667">
        <ele>32.462</ele>
        <time>1970-01-01T01:00:00Z</time>
      </trkpt>
      <trkpt lat="41.90201167" lon="12.49070833">
        <ele>32.462</ele>
        <time>1970-01-01T01:00:00Z</time>
      </trkpt>
      <trkpt lat="41.902" lon="12.49071333">
        <ele>32.462</ele>
        <time>1970-01-01T01:00:00Z</time>
      </trkpt>
      <trkpt lat="41.90198667" lon="12.49072167">
        <ele>32.462</ele>
        <time>1970-01-01T01:00:00Z</time>
      </trkpt>
      <trkpt lat="41.901975" lon="12.49073">
        <ele>32.462</ele>
        <time>1970-01-01T01:00:00Z</time>
      </trkpt>
      <trkpt lat="41.901965" lon="12.49073833">
        <ele>32.462</ele>
        <time>1970-01-01T01:00:00Z</time>
      </trkpt>
      <trkpt lat="41.90195667" lon="12.490745">
        <ele>32.462</ele>
        <time>1970-01-01T01:00:00Z</time>
      </trkpt>
      <trkpt lat="41.90194833" lon="12.49075333">
        <ele>32.462</ele>
        <time>1970-01-01T01:00:00Z</time>
      </trkpt>
      <trkpt lat="41.90194" lon="12.49075833">
        <ele>32.462</ele>
        <time>1970-01-01T01:00:00Z</time>
      </trkpt>
      <trkpt lat="41.90193667" lon="12.49075833">
        <ele>32.462</ele>
        <time>1970-01-01T01:00:00Z</time>
      </trkpt>
      <trkpt lat="41.901935" lon="12.49075833">
        <ele>32.462</ele>
        <time>1970-01-01T01:00:00Z</time>
      </trkpt>
      <trkpt lat="41.90193333" lon="12.49075667">
        <ele>31.395</ele>
        <time>1970-01-01T01:00:00Z</time>
      </trkpt>
      <trkpt lat="41.90193333" lon="12.49075667">
        <ele>31.395</ele>
        <time>1970-01-01T01:00:00Z</time>
      </trkpt>
      <trkpt lat="41.90193333" lon="12.490755">
        <ele>30.328</ele>
        <time>1970-01-01T01:00:00Z</time>
      </trkpt>
      <trkpt lat="41.90193167" lon="12.49075333">
        <ele>30.328</ele>
        <time>1970-01-01T01:00:00Z</time>
      </trkpt>
      <trkpt lat="41.90193167" lon="12.49075333">
        <ele>30.328</ele>
        <time>1970-01-01T01:00:00Z</time>
      </trkpt>
      <trkpt lat="41.90193" lon="12.49075167">
        <ele>30.328</ele>
        <time>1970-01-01T01:00:00Z</time>
      </trkpt>
      <trkpt lat="41.90193" lon="12.49075167">
        <ele>30.328</ele>
        <time>1970-01-01T01:00:00Z</time>
      </trkpt>
      <trkpt lat="41.90193" lon="12.49075">
        <ele>30.328</ele>
        <time>1970-01-01T01:00:00Z</time>
      </trkpt>
      <trkpt lat="41.90192667" lon="12.49075333">
        <ele>30.328</ele>
        <time>1970-01-01T01:00:00Z</time>
      </trkpt>
      <trkpt lat="41.901925" lon="12.490755">
        <ele>30.328</ele>
        <time>1970-01-01T01:00:00Z</time>
      </trkpt>
      <trkpt lat="41.901925" lon="12.49076">
        <ele>29.414</ele>
        <time>1970-01-01T01:00:00Z</time>
      </trkpt>
      <trkpt lat="41.90191833" lon="12.49076667">
        <ele>29.414</ele>
        <time>1970-01-01T01:00:00Z</time>
      </trkpt>
      <trkpt lat="41.90191333" lon="12.49077667">
        <ele>29.414</ele>
        <time>1970-01-01T01:00:00Z</time>
      </trkpt>
      <trkpt lat="41.90190667" lon="12.49078833">
        <ele>29.414</ele>
        <time>1970-01-01T01:00:00Z</time>
      </trkpt>
      <trkpt lat="41.901895" lon="12.49080667">
        <ele>28.347</ele>
        <time>1970-01-01T01:00:00Z</time>
      </trkpt>
      <trkpt lat="41.90188333" lon="12.49083">
        <ele>28.347</ele>
        <time>1970-01-01T01:00:00Z</time>
      </trkpt>
      <trkpt lat="41.90187167" lon="12.490855">
        <ele>28.347</ele>
        <time>1970-01-01T01:00:00Z</time>
      </trkpt>
      <trkpt lat="41.90186" lon="12.49088333">
        <ele>28.347</ele>
        <time>1970-01-01T01:00:00Z</time>
      </trkpt>
      <trkpt lat="41.90184833" lon="12.49091">
        <ele>28.347</ele>
        <time>1970-01-01T01:00:00Z</time>
      </trkpt>
      <trkpt lat="41.90183667" lon="12.49093667">
        <ele>28.347</ele>
        <time>1970-01-01T01:00:00Z</time>
      </trkpt>
      <trkpt lat="41.90182833" lon="12.49096833">
        <ele>28.347</ele>
        <time>1970-01-01T01:00:00Z</time>
      </trkpt>
      <trkpt lat="41.90181833" lon="12.49099667">
        <ele>28.347</ele>
        <time>1970-01-01T01:00:00Z</time>
      </trkpt>
      <trkpt lat="41.90181" lon="12.49102167">
        <ele>28.347</ele>
        <time>1970-01-01T01:00:00Z</time>
      </trkpt>
      <trkpt lat="41.9018" lon="12.49104667">
        <ele>28.347</ele>
        <time>1970-01-01T01:00:00Z</time>
      </trkpt>
      <trkpt lat="41.90179" lon="12.49107167">
        <ele>28.347</ele>
        <time>1970-01-01T01:00:00Z</time>
      </trkpt>
      <trkpt lat="41.90178" lon="12.491095">
        <ele>28.347</ele>
        <time>1970-01-01T01:00:00Z</time>
      </trkpt>
      <trkpt lat="41.90177" lon="12.49112">
        <ele>28.347</ele>
        <time>1970-01-01T01:00:00Z</time>
      </trkpt>
      <trkpt lat="41.90176" lon="12.49114167">
        <ele>28.347</ele>
        <time>1970-01-01T01:00:00Z</time>
      </trkpt>
      <trkpt lat="41.90175" lon="12.491165">
        <ele>27.432</ele>
        <time>1970-01-01T01:00:00Z</time>
      </trkpt>
      <trkpt lat="41.90174167" lon="12.49118667">
        <ele>27.432</ele>
        <time>1970-01-01T01:00:00Z</time>
      </trkpt>
      <trkpt lat="41.90173167" lon="12.49120833">
        <ele>27.432</ele>
        <time>1970-01-01T01:00:00Z</time>
      </trkpt>
      <trkpt lat="41.90172167" lon="12.49123333">
        <ele>27.432</ele>
        <time>1970-01-01T01:00:00Z</time>
      </trkpt>
      <trkpt lat="41.90171167" lon="12.49126">
        <ele>27.432</ele>
        <time>1970-01-01T01:00:00Z</time>
      </trkpt>
      <trkpt lat="41.90170333" lon="12.49128333">
        <ele>27.432</ele>
        <time>1970-01-01T01:00:00Z</time>
      </trkpt>
      <trkpt lat="41.901695" lon="12.49131">
        <ele>27.432</ele>
        <time>1970-01-01T01:00:00Z</time>
      </trkpt>
      <trkpt lat="41.90168667" lon="12.491335">
        <ele>27.432</ele>
        <time>1970-01-01T01:00:00Z</time>
      </trkpt>
      <trkpt lat="41.90167667" lon="12.49135833">
        <ele>27.432</ele>
        <time>1970-01-01T01:00:00Z</time>
      </trkpt>
      <trkpt lat="41.90166667" lon="12.49138333">
        <ele>27.432</ele>
        <time>1970-01-01T01:00:00Z</time>
      </trkpt>
      <trkpt lat="41.90165667" lon="12.49140667">
        <ele>27.432</ele>
        <time>1970-01-01T01:00:00Z</time>
      </trkpt>
      <trkpt lat="41.90164667" lon="12.49143167">
        <ele>27.432</ele>
        <time>1970-01-01T01:00:00Z</time>
      </trkpt>
      <trkpt lat="41.90163667" lon="12.49145333">
        <ele>27.432</ele>
        <time>1970-01-01T01:00:00Z</time>
      </trkpt>
      <trkpt lat="41.90162667" lon="12.491475">
        <ele>27.432</ele>
        <time>1970-01-01T01:00:00Z</time>
      </trkpt>
      <trkpt lat="41.90161333" lon="12.49149833">
        <ele>27.432</ele>
        <time>1970-01-01T01:00:00Z</time>
      </trkpt>
      <trkpt lat="41.9016" lon="12.49152167">
        <ele>27.432</ele>
        <time>1970-01-01T01:00:00Z</time>
      </trkpt>
      <trkpt lat="41.90158667" lon="12.49154667">
        <ele>28.347</ele>
        <time>1970-01-01T01:00:00Z</time>
      </trkpt>
      <trkpt lat="41.90157167" lon="12.49156833">
        <ele>28.347</ele>
        <time>1970-01-01T01:00:00Z</time>
      </trkpt>
      <trkpt lat="41.90155667" lon="12.49158833">
        <ele>28.347</ele>
        <time>1970-01-01T01:00:00Z</time>
      </trkpt>
      <trkpt lat="41.90154333" lon="12.49160833">
        <ele>28.347</ele>
        <time>1970-01-01T01:00:00Z</time>
      </trkpt>
      <trkpt lat="41.90152833" lon="12.49163167">
        <ele>28.347</ele>
        <time>1970-01-01T01:00:00Z</time>
      </trkpt>
      <trkpt lat="41.901515" lon="12.491655">
        <ele>28.347</ele>
        <time>1970-01-01T01:00:00Z</time>
      </trkpt>
      <trkpt lat="41.90150167" lon="12.491675">
        <ele>28.347</ele>
        <time>1970-01-01T01:00:00Z</time>
      </trkpt>
      <trkpt lat="41.90148667" lon="12.49169333">
        <ele>28.347</ele>
        <time>1970-01-01T01:00:00Z</time>
      </trkpt>
      <trkpt lat="41.90147167" lon="12.491715">
        <ele>28.347</ele>
        <time>1970-01-01T01:00:00Z</time>
      </trkpt>
      <trkpt lat="41.90145667" lon="12.49173667">
        <ele>28.347</ele>
        <time>1970-01-01T01:00:00Z</time>
      </trkpt>
      <trkpt lat="41.90144" lon="12.49175833">
        <ele>28.347</ele>
        <time>1970-01-01T01:00:00Z</time>
      </trkpt>
      <trkpt lat="41.901425" lon="12.49177833">
        <ele>28.347</ele>
        <time>1970-01-01T01:00:00Z</time>
      </trkpt>
      <trkpt lat="41.90141" lon="12.4918">
        <ele>28.347</ele>
        <time>1970-01-01T01:00:00Z</time>
      </trkpt>
      <trkpt lat="41.90139667" lon="12.49182333">
        <ele>28.347</ele>
        <time>1970-01-01T01:00:00Z</time>
      </trkpt>
      <trkpt lat="41.90138167" lon="12.49184667">
        <ele>29.414</ele>
        <time>1970-01-01T01:00:00Z</time>
      </trkpt>
      <trkpt lat="41.90136833" lon="12.49186667">
        <ele>29.414</ele>
        <time>1970-01-01T01:00:00Z</time>
      </trkpt>
      <trkpt lat="41.90135333" lon="12.49188833">
        <ele>29.414</ele>
        <time>1970-01-01T01:00:00Z</time>
      </trkpt>
      <trkpt lat="41.90134167" lon="12.49191167">
        <ele>29.414</ele>
        <time>1970-01-01T01:00:00Z</time>
      </trkpt>
      <trkpt lat="41.90133" lon="12.49193167">
        <ele>29.414</ele>
        <time>1970-01-01T01:00:00Z</time>
      </trkpt>
      <trkpt lat="41.90131833" lon="12.49194833">
        <ele>29.414</ele>
        <time>1970-01-01T01:00:00Z</time>
      </trkpt>
      <trkpt lat="41.90130333" lon="12.491965">
        <ele>29.414</ele>
        <time>1970-01-01T01:00:00Z</time>
      </trkpt>
      <trkpt lat="41.90128833" lon="12.49198333">
        <ele>29.414</ele>
        <time>1970-01-01T01:00:00Z</time>
      </trkpt>
      <trkpt lat="41.90127333" lon="12.49200167">
        <ele>29.414</ele>
        <time>1970-01-01T01:00:00Z</time>
      </trkpt>
      <trkpt lat="41.90125833" lon="12.49202333">
        <ele>29.414</ele>
        <time>1970-01-01T01:00:00Z</time>
      </trkpt>
      <trkpt lat="41.901245" lon="12.49204333">
        <ele>29.414</ele>
        <time>1970-01-01T01:00:00Z</time>
      </trkpt>
      <trkpt lat="41.90123333" lon="12.492065">
        <ele>29.414</ele>
        <time>1970-01-01T01:00:00Z</time>
      </trkpt>
      <trkpt lat="41.90122333" lon="12.49208833">
        <ele>28.347</ele>
        <time>1970-01-01T01:00:00Z</time>
      </trkpt>
      <trkpt lat="41.90121167" lon="12.49211167">
        <ele>28.347</ele>
        <time>1970-01-01T01:00:00Z</time>
      </trkpt>
      <trkpt lat="41.9012" lon="12.492135">
        <ele>28.347</ele>
        <time>1970-01-01T01:00:00Z</time>
      </trkpt>
      <trkpt lat="41.90118667" lon="12.49215667">
        <ele>28.347</ele>
        <time>1970-01-01T01:00:00Z</time>
      </trkpt>
      <trkpt lat="41.90117333" lon="12.49218">
        <ele>28.347</ele>
        <time>1970-01-01T01:00:00Z</time>
      </trkpt>
      <trkpt lat="41.90116" lon="12.49220333">
        <ele>28.347</ele>
        <time>1970-01-01T01:00:00Z</time>
      </trkpt>
      <trkpt lat="41.90114833" lon="12.49222667">
        <ele>28.347</ele>
        <time>1970-01-01T01:00:00Z</time>
      </trkpt>
      <trkpt lat="41.901135" lon="12.49224667">
        <ele>28.347</ele>
        <time>1970-01-01T01:00:00Z</time>
      </trkpt>
      <trkpt lat="41.901125" lon="12.49226833">
        <ele>27.432</ele>
        <time>1970-01-01T01:00:00Z</time>
      </trkpt>
      <trkpt lat="41.90111167" lon="12.49228833">
        <ele>27.432</ele>
        <time>1970-01-01T01:00:00Z</time>
      </trkpt>
      <trkpt lat="41.90109667" lon="12.49231">
        <ele>27.432</ele>
        <time>1970-01-01T01:00:00Z</time>
      </trkpt>
      <trkpt lat="41.901085" lon="12.49233">
        <ele>27.432</ele>
        <time>1970-01-01T01:00:00Z</time>
      </trkpt>
      <trkpt lat="41.90107167" lon="12.49235167">
        <ele>27.432</ele>
        <time>1970-01-01T01:00:00Z</time>
      </trkpt>
      <trkpt lat="41.90106167" lon="12.49237167">
        <ele>27.432</ele>
        <time>1970-01-01T01:00:00Z</time>
      </trkpt>
      <trkpt lat="41.90105" lon="12.49239167">
        <ele>27.432</ele>
        <time>1970-01-01T01:00:00Z</time>
      </trkpt>
      <trkpt lat="41.90104" lon="12.49241">
        <ele>27.432</ele>
        <time>1970-01-01T01:00:00Z</time>
      </trkpt>
      <trkpt lat="41.90103" lon="12.49243167">
        <ele>27.432</ele>
        <time>1970-01-01T01:00:00Z</time>
      </trkpt>
      <trkpt lat="41.90102333" lon="12.49244833">
        <ele>27.432</ele>
        <time>1970-01-01T01:00:00Z</time>
      </trkpt>
      <trkpt lat="41.90101333" lon="12.49246833">
        <ele>27.432</ele>
        <time>1970-01-01T01:00:00Z</time>
      </trkpt>
      <trkpt lat="41.90100333" lon="12.49249167">
        <ele>27.432</ele>
        <time>1970-01-01T01:00:00Z</time>
      </trkpt>
      <trkpt lat="41.90099167" lon="12.49251667">
        <ele>27.432</ele>
        <time>1970-01-01T01:00:00Z</time>
      </trkpt>
      <trkpt lat="41.90098" lon="12.49254">
        <ele>27.432</ele>
        <time>1970-01-01T01:00:00Z</time>
      </trkpt>
      <trkpt lat="41.90097167" lon="12.49256167">
        <ele>27.432</ele>
        <time>1970-01-01T01:00:00Z</time>
      </trkpt>
      <trkpt lat="41.90096" lon="12.49258667">
        <ele>27.432</ele>
        <time>1970-01-01T01:00:00Z</time>
      </trkpt>
      <trkpt lat="41.90095167" lon="12.49261333">
        <ele>27.432</ele>
        <time>1970-01-01T01:00:00Z</time>
      </trkpt>
      <trkpt lat="41.90094167" lon="12.49264333">
        <ele>27.432</ele>
        <time>1970-01-01T01:00:00Z</time>
      </trkpt>
      <trkpt lat="41.90093167" lon="12.49267167">
        <ele>27.432</ele>
        <time>1970-01-01T01:00:00Z</time>
      </trkpt>
      <trkpt lat="41.90092333" lon="12.4927">
        <ele>27.432</ele>
        <time>1970-01-01T01:00:00Z</time>
      </trkpt>
      <trkpt lat="41.90091667" lon="12.49273">
        <ele>27.432</ele>
        <time>1970-01-01T01:00:00Z</time>
      </trkpt>
      <trkpt lat="41.90090667" lon="12.49275833">
        <ele>27.432</ele>
        <time>1970-01-01T01:00:00Z</time>
      </trkpt>
      <trkpt lat="41.900895" lon="12.49278833">
        <ele>27.432</ele>
        <time>1970-01-01T01:00:00Z</time>
      </trkpt>
      <trkpt lat="41.90088667" lon="12.492815">
        <ele>27.432</ele>
        <time>1970-01-01T01:00:00Z</time>
      </trkpt>
      <trkpt lat="41.900875" lon="12.49284167">
        <ele>27.432</ele>
        <time>1970-01-01T01:00:00Z</time>
      </trkpt>
      <trkpt lat="41.90086333" lon="12.49286667">
        <ele>27.432</ele>
        <time>1970-01-01T01:00:00Z</time>
      </trkpt>
      <trkpt lat="41.90085" lon="12.49289">
        <ele>27.432</ele>
        <time>1970-01-01T01:00:00Z</time>
      </trkpt>
      <trkpt lat="41.90083833" lon="12.49291333">
        <ele>27.432</ele>
        <time>1970-01-01T01:00:00Z</time>
      </trkpt>
      <trkpt lat="41.90082667" lon="12.492935">
        <ele>27.432</ele>
        <time>1970-01-01T01:00:00Z</time>
      </trkpt>
      <trkpt lat="41.900815" lon="12.49295667">
        <ele>27.432</ele>
        <time>1970-01-01T01:00:00Z</time>
      </trkpt>
      <trkpt lat="41.90080667" lon="12.492975">
        <ele>27.432</ele>
        <time>1970-01-01T01:00:00Z</time>
      </trkpt>
      <trkpt lat="41.90079667" lon="12.492995">
        <ele>27.432</ele>
        <time>1970-01-01T01:00:00Z</time>
      </trkpt>
      <trkpt lat="41.90078667" lon="12.49301333">
        <ele>27.432</ele>
        <time>1970-01-01T01:00:00Z</time>
      </trkpt>
      <trkpt lat="41.90077667" lon="12.49302667">
        <ele>27.432</ele>
        <time>1970-01-01T01:00:00Z</time>
      </trkpt>
      <trkpt lat="41.90136333" lon="12.49402833">
        <ele>30.328</ele>
        <time>1970-01-01T01:00:00Z</time>
      </trkpt>
      <trkpt lat="41.90137667" lon="12.49404833">
        <ele>30.328</ele>
        <time>1970-01-01T01:00:00Z</time>
      </trkpt>
      <trkpt lat="41.90139" lon="12.49406667">
        <ele>29.414</ele>
        <time>1970-01-01T01:00:00Z</time>
      </trkpt>
      <trkpt lat="41.90140333" lon="12.49409">
        <ele>29.414</ele>
        <time>1970-01-01T01:00:00Z</time>
      </trkpt>
      <trkpt lat="41.90141833" lon="12.49411">
        <ele>29.414</ele>
        <time>1970-01-01T01:00:00Z</time>
      </trkpt>
      <trkpt lat="41.90143167" lon="12.49413333">
        <ele>29.414</ele>
        <time>1970-01-01T01:00:00Z</time>
      </trkpt>
      <trkpt lat="41.901445" lon="12.494155">
        <ele>29.414</ele>
        <time>1970-01-01T01:00:00Z</time>
      </trkpt>
      <trkpt lat="41.90145833" lon="12.49417833">
        <ele>29.414</ele>
        <time>1970-01-01T01:00:00Z</time>
      </trkpt>
      <trkpt lat="41.90147333" lon="12.49420333">
        <ele>30.328</ele>
        <time>1970-01-01T01:00:00Z</time>
      </trkpt>
      <trkpt lat="41.901485" lon="12.49422333">
        <ele>30.328</ele>
        <time>1970-01-01T01:00:00Z</time>
      </trkpt>
      <trkpt lat="41.90149833" lon="12.49424167">
        <ele>30.328</ele>
        <time>1970-01-01T01:00:00Z</time>
      </trkpt>
      <trkpt lat="41.90151" lon="12.49426">
        <ele>30.328</ele>
        <time>1970-01-01T01:00:00Z</time>
      </trkpt>
      <trkpt lat="41.90152333" lon="12.49428">
        <ele>30.328</ele>
        <time>1970-01-01T01:00:00Z</time>
      </trkpt>
      <trkpt lat="41.901535" lon="12.49429667">
        <ele>30.328</ele>
        <time>1970-01-01T01:00:00Z</time>
      </trkpt>
      <trkpt lat="41.90154833" lon="12.49431333">
        <ele>30.328</ele>
        <time>1970-01-01T01:00:00Z</time>
      </trkpt>
      <trkpt lat="41.901565" lon="12.49433167">
        <ele>30.328</ele>
        <time>1970-01-01T01:00:00Z</time>
      </trkpt>
      <trkpt lat="41.90158167" lon="12.49435167">
        <ele>30.328</ele>
        <time>1970-01-01T01:00:00Z</time>
      </trkpt>
      <trkpt lat="41.90159667" lon="12.49437167">
        <ele>30.328</ele>
        <time>1970-01-01T01:00:00Z</time>
      </trkpt>
      <trkpt lat="41.90161" lon="12.49439167">
        <ele>29.414</ele>
        <time>1970-01-01T01:00:00Z</time>
      </trkpt>
      <trkpt lat="41.90162167" lon="12.494415">
        <ele>29.414</ele>
        <time>1970-01-01T01:00:00Z</time>
      </trkpt>
      <trkpt lat="41.90163667" lon="12.49444167">
        <ele>29.414</ele>
        <time>1970-01-01T01:00:00Z</time>
      </trkpt>
      <trkpt lat="41.90165167" lon="12.49447167">
        <ele>29.414</ele>
        <time>1970-01-01T01:00:00Z</time>
      </trkpt>
      <trkpt lat="41.90167167" lon="12.49450167">
        <ele>29.414</ele>
        <time>1970-01-01T01:00:00Z</time>
      </trkpt>
      <trkpt lat="41.90168833" lon="12.49453167">
        <ele>29.414</ele>
        <time>1970-01-01T01:00:00Z</time>
      </trkpt>
      <trkpt lat="41.901705" lon="12.49455667">
        <ele>29.414</ele>
        <time>1970-01-01T01:00:00Z</time>
      </trkpt>
      <trkpt lat="41.90172" lon="12.49458333">
        <ele>29.414</ele>
        <time>1970-01-01T01:00:00Z</time>
      </trkpt>
      <trkpt lat="41.901735" lon="12.49461">
        <ele>28.347</ele>
        <time>1970-01-01T01:00:00Z</time>
      </trkpt>
      <trkpt lat="41.90175" lon="12.494635">
        <ele>28.347</ele>
        <time>1970-01-01T01:00:00Z</time>
      </trkpt>
      <trkpt lat="41.90176" lon="12.49465833">
        <ele>28.347</ele>
        <time>1970-01-01T01:00:00Z</time>
      </trkpt>
      <trkpt lat="41.90177" lon="12.49468333">
        <ele>28.347</ele>
        <time>1970-01-01T01:00:00Z</time>
      </trkpt>
      <trkpt lat="41.90178" lon="12.49471">
        <ele>28.347</ele>
        <time>1970-01-01T01:00:00Z</time>
      </trkpt>
      <trkpt lat="41.90178833" lon="12.494735">
        <ele>28.347</ele>
        <time>1970-01-01T01:00:00Z</time>
      </trkpt>
      <trkpt lat="41.90179667" lon="12.49475833">
        <ele>28.347</ele>
        <time>1970-01-01T01:00:00Z</time>
      </trkpt>
      <trkpt lat="41.90180667" lon="12.49478333">
        <ele>28.347</ele>
        <time>1970-01-01T01:00:00Z</time>
      </trkpt>
      <trkpt lat="41.901815" lon="12.49480667">
        <ele>28.347</ele>
        <time>1970-01-01T01:00:00Z</time>
      </trkpt>
      <trkpt lat="41.901825" lon="12.49483">
        <ele>28.347</ele>
        <time>1970-01-01T01:00:00Z</time>
      </trkpt>
      <trkpt lat="41.901835" lon="12.49485333">
        <ele>28.347</ele>
        <time>1970-01-01T01:00:00Z</time>
      </trkpt>
      <trkpt lat="41.901845" lon="12.49488">
        <ele>28.347</ele>
        <time>1970-01-01T01:00:00Z</time>
      </trkpt>
      <trkpt lat="41.90185167" lon="12.49490667">
        <ele>28.347</ele>
        <time>1970-01-01T01:00:00Z</time>
      </trkpt>
      <trkpt lat="41.90186" lon="12.49493333">
        <ele>28.347</ele>
        <time>1970-01-01T01:00:00Z</time>
      </trkpt>
      <trkpt lat="41.90186833" lon="12.49495833">
        <ele>28.347</ele>
        <time>1970-01-01T01:00:00Z</time>
      </trkpt>
      <trkpt lat="41.90187667" lon="12.494985">
        <ele>28.347</ele>
        <time>1970-01-01T01:00:00Z</time>
      </trkpt>
      <trkpt lat="41.90188833" lon="12.49501">
        <ele>29.414</ele>
        <time>1970-01-01T01:00:00Z</time>
      </trkpt>
      <trkpt lat="41.9019" lon="12.49503667">
        <ele>29.414</ele>
        <time>1970-01-01T01:00:00Z</time>
      </trkpt>
      <trkpt lat="41.90191333" lon="12.495065">
        <ele>29.414</ele>
        <time>1970-01-01T01:00:00Z</time>
      </trkpt>
      <trkpt lat="41.90192667" lon="12.495095">
        <ele>29.414</ele>
        <time>1970-01-01T01:00:00Z</time>
      </trkpt>
      <trkpt lat="41.90193667" lon="12.49512167">
        <ele>30.328</ele>
        <time>1970-01-01T01:00:00Z</time>
      </trkpt>
      <trkpt lat="41.90194833" lon="12.49515167">
        <ele>30.328</ele>
        <time>1970-01-01T01:00:00Z</time>
      </trkpt>
      <trkpt lat="41.90196" lon="12.49518">
        <ele>30.328</ele>
        <time>1970-01-01T01:00:00Z</time>
      </trkpt>
      <trkpt lat="41.90197333" lon="12.49520667">
        <ele>30.328</ele>
        <time>1970-01-01T01:00:00Z</time>
      </trkpt>
      <trkpt lat="41.90198667" lon="12.49522833">
        <ele>30.328</ele>
        <time>1970-01-01T01:00:00Z</time>
      </trkpt>
      <trkpt lat="41.90200667" lon="12.49524667">
        <ele>30.328</ele>
        <time>1970-01-01T01:00:00Z</time>
      </trkpt>
      <trkpt lat="41.90202667" lon="12.49526167">
        <ele>30.328</ele>
        <time>1970-01-01T01:00:00Z</time>
      </trkpt>
      <trkpt lat="41.90204833" lon="12.49527333">
        <ele>30.328</ele>
        <time>1970-01-01T01:00:00Z</time>
      </trkpt>
      <trkpt lat="41.90207" lon="12.49528667">
        <ele>31.395</ele>
        <time>1970-01-01T01:00:00Z</time>
      </trkpt>
      <trkpt lat="41.90209167" lon="12.495305">
        <ele>31.395</ele>
        <time>1970-01-01T01:00:00Z</time>
      </trkpt>
      <trkpt lat="41.90210833" lon="12.495325">
        <ele>31.395</ele>
        <time>1970-01-01T01:00:00Z</time>
      </trkpt>
      <trkpt lat="41.902125" lon="12.49534333">
        <ele>31.395</ele>
        <time>1970-01-01T01:00:00Z</time>
      </trkpt>
      <trkpt lat="41.90214167" lon="12.49536667">
        <ele>31.395</ele>
        <time>1970-01-01T01:00:00Z</time>
      </trkpt>
      <trkpt lat="41.90215667" lon="12.49538667">
        <ele>31.395</ele>
        <time>1970-01-01T01:00:00Z</time>
      </trkpt>
      <trkpt lat="41.90217" lon="12.49540667">
        <ele>31.395</ele>
        <time>1970-01-01T01:00:00Z</time>
      </trkpt>
      <trkpt lat="41.90218333" lon="12.49542833">
        <ele>31.395</ele>
        <time>1970-01-01T01:00:00Z</time>
      </trkpt>
      <trkpt lat="41.90219833" lon="12.49545">
        <ele>31.395</ele>
        <time>1970-01-01T01:00:00Z</time>
      </trkpt>
      <trkpt lat="41.90221333" lon="12.49547167">
        <ele>31.395</ele>
        <time>1970-01-01T01:00:00Z</time>
      </trkpt>
      <trkpt lat="41.902225" lon="12.49549333">
        <ele>31.395</ele>
        <time>1970-01-01T01:00:00Z</time>
      </trkpt>
      <trkpt lat="41.90224" lon="12.49551667">
        <ele>31.395</ele>
        <time>1970-01-01T01:00:00Z</time>
      </trkpt>
      <trkpt lat="41.90225167" lon="12.49553833">
        <ele>32.462</ele>
        <time>1970-01-01T01:00:00Z</time>
      </trkpt>
      <trkpt lat="41.90226167" lon="12.495555">
        <ele>32.462</ele>
        <time>1970-01-01T01:00:00Z</time>
      </trkpt>
      <trkpt lat="41.90227" lon="12.49557167">
        <ele>32.462</ele>
        <time>1970-01-01T01:00:00Z</time>
      </trkpt>
      <trkpt lat="41.90227667" lon="12.49558167">
        <ele>32.462</ele>
        <time>1970-01-01T01:00:00Z</time>
      </trkpt>
      <trkpt lat="41.90228667" lon="12.49559">
        <ele>32.462</ele>
        <time>1970-01-01T01:00:00Z</time>
      </trkpt>
      <trkpt lat="41.90229833" lon="12.495595">
        <ele>32.462</ele>
        <time>1970-01-01T01:00:00Z</time>
      </trkpt>
      <trkpt lat="41.90231" lon="12.49560167">
        <ele>31.395</ele>
        <time>1970-01-01T01:00:00Z</time>
      </trkpt>
      <trkpt lat="41.90232333" lon="12.495605">
        <ele>31.395</ele>
        <time>1970-01-01T01:00:00Z</time>
      </trkpt>
      <trkpt lat="41.90233667" lon="12.49560333">
        <ele>31.395</ele>
        <time>1970-01-01T01:00:00Z</time>
      </trkpt>
      <trkpt lat="41.90235" lon="12.49560667">
        <ele>31.395</ele>
        <time>1970-01-01T01:00:00Z</time>
      </trkpt>
      <trkpt lat="41.90236" lon="12.49560833">
        <ele>31.395</ele>
        <time>1970-01-01T01:00:00Z</time>
      </trkpt>
      <trkpt lat="41.90237" lon="12.49561167">
        <ele>31.395</ele>
        <time>1970-01-01T01:00:00Z</time>
      </trkpt>
      <trkpt lat="41.90237833" lon="12.49561667">
        <ele>31.395</ele>
        <time>1970-01-01T01:00:00Z</time>
      </trkpt>
      <trkpt lat="41.90238667" lon="12.49562333">
        <ele>31.395</ele>
        <time>1970-01-01T01:00:00Z</time>
      </trkpt>
      <trkpt lat="41.90239833" lon="12.49562833">
        <ele>30.328</ele>
        <time>1970-01-01T01:00:00Z</time>
      </trkpt>
      <trkpt lat="41.90241167" lon="12.49563">
        <ele>30.328</ele>
        <time>1970-01-01T01:00:00Z</time>
      </trkpt>
      <trkpt lat="41.90242333" lon="12.49562833">
        <ele>30.328</ele>
        <time>1970-01-01T01:00:00Z</time>
      </trkpt>
      <trkpt lat="41.902435" lon="12.49562667">
        <ele>30.328</ele>
        <time>1970-01-01T01:00:00Z</time>
      </trkpt>
      <trkpt lat="41.90244833" lon="12.49562333">
        <ele>30.328</ele>
        <time>1970-01-01T01:00:00Z</time>
      </trkpt>
      <trkpt lat="41.902465" lon="12.49562">
        <ele>30.328</ele>
        <time>1970-01-01T01:00:00Z</time>
      </trkpt>
      <trkpt lat="41.90248333" lon="12.49561333">
        <ele>31.395</ele>
        <time>1970-01-01T01:00:00Z</time>
      </trkpt>
      <trkpt lat="41.902505" lon="12.49560833">
        <ele>31.395</ele>
        <time>1970-01-01T01:00:00Z</time>
      </trkpt>
      <trkpt lat="41.90253" lon="12.49560333">
        <ele>31.395</ele>
        <time>1970-01-01T01:00:00Z</time>
      </trkpt>
      <trkpt lat="41.90255333" lon="12.49560333">
        <ele>31.395</ele>
        <time>1970-01-01T01:00:00Z</time>
      </trkpt>
      <trkpt lat="41.90257833" lon="12.495605">
        <ele>31.395</ele>
        <time>1970-01-01T01:00:00Z</time>
      </trkpt>
      <trkpt lat="41.90260167" lon="12.49560833">
        <ele>31.395</ele>
        <time>1970-01-01T01:00:00Z</time>
      </trkpt>
      <trkpt lat="41.90262667" lon="12.49561333">
        <ele>31.395</ele>
        <time>1970-01-01T01:00:00Z</time>
      </trkpt>
      <trkpt lat="41.90265167" lon="12.49561833">
        <ele>31.395</ele>
        <time>1970-01-01T01:00:00Z</time>
      </trkpt>
      <trkpt lat="41.90267667" lon="12.49562167">
        <ele>32.462</ele>
        <time>1970-01-01T01:00:00Z</time>
      </trkpt>
      <trkpt lat="41.90270167" lon="12.49562667">
        <ele>32.462</ele>
        <time>1970-01-01T01:00:00Z</time>
      </trkpt>
      <trkpt lat="41.902725" lon="12.49563333">
        <ele>32.462</ele>
        <time>1970-01-01T01:00:00Z</time>
      </trkpt>
      <trkpt lat="41.90275" lon="12.49564">
        <ele>32.462</ele>
        <time>1970-01-01T01:00:00Z</time>
      </trkpt>
      <trkpt lat="41.90277333" lon="12.49564667">
        <ele>33.376</ele>
        <time>1970-01-01T01:00:00Z</time>
      </trkpt>
      <trkpt lat="41.90279833" lon="12.49565667">
        <ele>33.376</ele>
        <time>1970-01-01T01:00:00Z</time>
      </trkpt>
      <trkpt lat="41.90282" lon="12.49566333">
        <ele>33.376</ele>
        <time>1970-01-01T01:00:00Z</time>
      </trkpt>
      <trkpt lat="41.90284333" lon="12.49567167">
        <ele>33.376</ele>
        <time>1970-01-01T01:00:00Z</time>
      </trkpt>
      <trkpt lat="41.90286833" lon="12.49567833">
        <ele>34.443</ele>
        <time>1970-01-01T01:00:00Z</time>
      </trkpt>
      <trkpt lat="41.90289167" lon="12.495685">
        <ele>34.443</ele>
        <time>1970-01-01T01:00:00Z</time>
      </trkpt>
      <trkpt lat="41.902915" lon="12.49569167">
        <ele>34.443</ele>
        <time>1970-01-01T01:00:00Z</time>
      </trkpt>
      <trkpt lat="41.90293667" lon="12.4957">
        <ele>34.443</ele>
        <time>1970-01-01T01:00:00Z</time>
      </trkpt>
      <trkpt lat="41.90295667" lon="12.49570667">
        <ele>34.443</ele>
        <time>1970-01-01T01:00:00Z</time>
      </trkpt>
      <trkpt lat="41.90297333" lon="12.49571667">
        <ele>34.443</ele>
        <time>1970-01-01T01:00:00Z</time>
      </trkpt>
      <trkpt lat="41.90299167" lon="12.495725">
        <ele>34.443</ele>
        <time>1970-01-01T01:00:00Z</time>
      </trkpt>
      <trkpt lat="41.90301" lon="12.49573333">
        <ele>34.443</ele>
        <time>1970-01-01T01:00:00Z</time>
      </trkpt>
      <trkpt lat="41.90302833" lon="12.49573833">
        <ele>34.443</ele>
        <time>1970-01-01T01:00:00Z</time>
      </trkpt>
      <trkpt lat="41.90305" lon="12.49574333">
        <ele>34.443</ele>
        <time>1970-01-01T01:00:00Z</time>
      </trkpt>
      <trkpt lat="41.90307167" lon="12.49575667">
        <ele>35.357</ele>
        <time>1970-01-01T01:00:00Z</time>
      </trkpt>
      <trkpt lat="41.90309333" lon="12.495775">
        <ele>35.357</ele>
        <time>1970-01-01T01:00:00Z</time>
      </trkpt>
      <trkpt lat="41.90311333" lon="12.49579167">
        <ele>35.357</ele>
        <time>1970-01-01T01:00:00Z</time>
      </trkpt>
      <trkpt lat="41.90313667" lon="12.49580667">
        <ele>35.357</ele>
        <time>1970-01-01T01:00:00Z</time>
      </trkpt>
      <trkpt lat="41.90315667" lon="12.49582833">
        <ele>35.357</ele>
        <time>1970-01-01T01:00:00Z</time>
      </trkpt>
      <trkpt lat="41.90317333" lon="12.49584833">
        <ele>35.357</ele>
        <time>1970-01-01T01:00:00Z</time>
      </trkpt>
      <trkpt lat="41.90319" lon="12.49586667">
        <ele>36.424</ele>
        <time>1970-01-01T01:00:00Z</time>
      </trkpt>
      <trkpt lat="41.903205" lon="12.49588167">
        <ele>36.424</ele>
        <time>1970-01-01T01:00:00Z</time>
      </trkpt>
      <trkpt lat="41.90321833" lon="12.49589833">
        <ele>36.424</ele>
        <time>1970-01-01T01:00:00Z</time>
      </trkpt>
      <trkpt lat="41.90323167" lon="12.49591667">
        <ele>36.424</ele>
        <time>1970-01-01T01:00:00Z</time>
      </trkpt>
      <trkpt lat="41.903245" lon="12.495935">
        <ele>36.424</ele>
        <time>1970-01-01T01:00:00Z</time>
      </trkpt>
      <trkpt lat="41.90326" lon="12.495955">
        <ele>36.424</ele>
        <time>1970-01-01T01:00:00Z</time>
      </trkpt>
      <trkpt lat="41.90327333" lon="12.49598">
        <ele>36.424</ele>
        <time>1970-01-01T01:00:00Z</time>
      </trkpt>
      <trkpt lat="41.903285" lon="12.49600667">
        <ele>36.424</ele>
        <time>1970-01-01T01:00:00Z</time>
      </trkpt>
      <trkpt lat="41.903295" lon="12.49603333">
        <ele>36.424</ele>
        <time>1970-01-01T01:00:00Z</time>
      </trkpt>
      <trkpt lat="41.903305" lon="12.49606">
        <ele>36.424</ele>
        <time>1970-01-01T01:00:00Z</time>
      </trkpt>
      <trkpt lat="41.90331667" lon="12.496085">
        <ele>36.424</ele>
        <time>1970-01-01T01:00:00Z</time>
      </trkpt>
      <trkpt lat="41.903325" lon="12.49611333">
        <ele>36.424</ele>
        <time>1970-01-01T01:00:00Z</time>
      </trkpt>
      <trkpt lat="41.90333" lon="12.49614333">
        <ele>36.424</ele>
        <time>1970-01-01T01:00:00Z</time>
      </trkpt>
      <trkpt lat="41.90333333" lon="12.49617333">
        <ele>36.424</ele>
        <time>1970-01-01T01:00:00Z</time>
      </trkpt>
      <trkpt lat="41.903335" lon="12.4962">
        <ele>36.424</ele>
        <time>1970-01-01T01:00:00Z</time>
      </trkpt>
      <trkpt lat="41.90333667" lon="12.49622333">
        <ele>36.424</ele>
        <time>1970-01-01T01:00:00Z</time>
      </trkpt>
      <trkpt lat="41.90333667" lon="12.496245">
        <ele>36.424</ele>
        <time>1970-01-01T01:00:00Z</time>
      </trkpt>
      <trkpt lat="41.903335" lon="12.49626667">
        <ele>36.424</ele>
        <time>1970-01-01T01:00:00Z</time>
      </trkpt>
      <trkpt lat="41.90333167" lon="12.496285">
        <ele>36.424</ele>
        <time>1970-01-01T01:00:00Z</time>
      </trkpt>
      <trkpt lat="41.90332833" lon="12.49630167">
        <ele>36.424</ele>
        <time>1970-01-01T01:00:00Z</time>
      </trkpt>
      <trkpt lat="41.90332" lon="12.49632">
        <ele>36.424</ele>
        <time>1970-01-01T01:00:00Z</time>
      </trkpt>
      <trkpt lat="41.90330833" lon="12.49633667">
        <ele>36.424</ele>
        <time>1970-01-01T01:00:00Z</time>
      </trkpt>
      <trkpt lat="41.90329" lon="12.49634833">
        <ele>36.424</ele>
        <time>1970-01-01T01:00:00Z</time>
      </trkpt>
      <trkpt lat="41.90327167" lon="12.49635833">
        <ele>36.424</ele>
        <time>1970-01-01T01:00:00Z</time>
      </trkpt>
      <trkpt lat="41.90325167" lon="12.49636667">
        <ele>36.424</ele>
        <time>1970-01-01T01:00:00Z</time>
      </trkpt>
      <trkpt lat="41.90323167" lon="12.496375">
        <ele>36.424</ele>
        <time>1970-01-01T01:00:00Z</time>
      </trkpt>
      <trkpt lat="41.90321167" lon="12.49638667">
        <ele>36.424</ele>
        <time>1970-01-01T01:00:00Z</time>
      </trkpt>
      <trkpt lat="41.90319333" lon="12.4964">
        <ele>36.424</ele>
        <time>1970-01-01T01:00:00Z</time>
      </trkpt>
      <trkpt lat="41.903175" lon="12.496415">
        <ele>36.424</ele>
        <time>1970-01-01T01:00:00Z</time>
      </trkpt>
      <trkpt lat="41.90315833" lon="12.496435">
        <ele>36.424</ele>
        <time>1970-01-01T01:00:00Z</time>
      </trkpt>
      <trkpt lat="41.90314167" lon="12.49645833">
        <ele>36.424</ele>
        <time>1970-01-01T01:00:00Z</time>
      </trkpt>
      <trkpt lat="41.90312167" lon="12.49648167">
        <ele>36.424</ele>
        <time>1970-01-01T01:00:00Z</time>
      </trkpt>
      <trkpt lat="41.90310333" lon="12.49650667">
        <ele>36.424</ele>
        <time>1970-01-01T01:00:00Z</time>
      </trkpt>
      <trkpt lat="41.90308333" lon="12.49653167">
        <ele>36.424</ele>
        <time>1970-01-01T01:00:00Z</time>
      </trkpt>
      <trkpt lat="41.903065" lon="12.496555">
        <ele>35.357</ele>
        <time>1970-01-01T01:00:00Z</time>
      </trkpt>
      <trkpt lat="41.90305" lon="12.49658167">
        <ele>35.357</ele>
        <time>1970-01-01T01:00:00Z</time>
      </trkpt>
      <trkpt lat="41.90303167" lon="12.49660833">
        <ele>35.357</ele>
        <time>1970-01-01T01:00:00Z</time>
      </trkpt>
      <trkpt lat="41.90301667" lon="12.49663333">
        <ele>35.357</ele>
        <time>1970-01-01T01:00:00Z</time>
      </trkpt>
      <trkpt lat="41.90300167" lon="12.496655">
        <ele>35.357</ele>
        <time>1970-01-01T01:00:00Z</time>
      </trkpt>
      <trkpt lat="41.902985" lon="12.49667833">
        <ele>35.357</ele>
        <time>1970-01-01T01:00:00Z</time>
      </trkpt>
      <trkpt lat="41.90296667" lon="12.49670333">
        <ele>35.357</ele>
        <time>1970-01-01T01:00:00Z</time>
      </trkpt>
      <trkpt lat="41.90295" lon="12.496725">
        <ele>35.357</ele>
        <time>1970-01-01T01:00:00Z</time>
      </trkpt>
      <trkpt lat="41.90293167" lon="12.49674667">
        <ele>35.357</ele>
        <time>1970-01-01T01:00:00Z</time>
      </trkpt>
      <trkpt lat="41.902915" lon="12.49676833">
        <ele>35.357</ele>
        <time>1970-01-01T01:00:00Z</time>
      </trkpt>
      <trkpt lat="41.9029" lon="12.49679167">
        <ele>35.357</ele>
        <time>1970-01-01T01:00:00Z</time>
      </trkpt>
      <trkpt lat="41.902885" lon="12.496815">
        <ele>35.357</ele>
        <time>1970-01-01T01:00:00Z</time>
      </trkpt>
      <trkpt lat="41.90287167" lon="12.49683667">
        <ele>35.357</ele>
        <time>1970-01-01T01:00:00Z</time>
      </trkpt>
      <trkpt lat="41.90286" lon="12.49686167">
        <ele>35.357</ele>
        <time>1970-01-01T01:00:00Z</time>
      </trkpt>
      <trkpt lat="41.90285" lon="12.49688833">
        <ele>35.357</ele>
        <time>1970-01-01T01:00:00Z</time>
      </trkpt>
      <trkpt lat="41.90283667" lon="12.49691667">
        <ele>35.357</ele>
        <time>1970-01-01T01:00:00Z</time>
      </trkpt>
      <trkpt lat="41.90282333" lon="12.49693833">
        <ele>35.357</ele>
        <time>1970-01-01T01:00:00Z</time>
      </trkpt>
      <trkpt lat="41.90280667" lon="12.49696">
        <ele>35.357</ele>
        <time>1970-01-01T01:00:00Z</time>
      </trkpt>
      <trkpt lat="41.90279" lon="12.49698">
        <ele>35.357</ele>
        <time>1970-01-01T01:00:00Z</time>
      </trkpt>
      <trkpt lat="41.90277333" lon="12.49699667">
        <ele>35.357</ele>
        <time>1970-01-01T01:00:00Z</time>
      </trkpt>
      <trkpt lat="41.902755" lon="12.49701167">
        <ele>35.357</ele>
        <time>1970-01-01T01:00:00Z</time>
      </trkpt>
      <trkpt lat="41.90273333" lon="12.49702">
        <ele>35.357</ele>
        <time>1970-01-01T01:00:00Z</time>
      </trkpt>
      <trkpt lat="41.90271167" lon="12.49702333">
        <ele>35.357</ele>
        <time>1970-01-01T01:00:00Z</time>
      </trkpt>
      <trkpt lat="41.90269167" lon="12.49702667">
        <ele>35.357</ele>
        <time>1970-01-01T01:00:00Z</time>
      </trkpt>
      <trkpt lat="41.90267167" lon="12.49702833">
        <ele>35.357</ele>
        <time>1970-01-01T01:00:00Z</time>
      </trkpt>
      <trkpt lat="41.902655" lon="12.497035">
        <ele>35.357</ele>
        <time>1970-01-01T01:00:00Z</time>
      </trkpt>
      <trkpt lat="41.902645" lon="12.49705">
        <ele>35.357</ele>
        <time>1970-01-01T01:00:00Z</time>
      </trkpt>
      <trkpt lat="41.90263667" lon="12.49707167">
        <ele>35.357</ele>
        <time>1970-01-01T01:00:00Z</time>
      </trkpt>
      <trkpt lat="41.90262833" lon="12.49709333">
        <ele>35.357</ele>
        <time>1970-01-01T01:00:00Z</time>
      </trkpt>
      <trkpt lat="41.90262167" lon="12.497115">
        <ele>35.357</ele>
        <time>1970-01-01T01:00:00Z</time>
      </trkpt>
      <trkpt lat="41.90261667" lon="12.497135">
        <ele>35.357</ele>
        <time>1970-01-01T01:00:00Z</time>
      </trkpt>
      <trkpt lat="41.90261167" lon="12.49715333">
        <ele>35.357</ele>
        <time>1970-01-01T01:00:00Z</time>
      </trkpt>
      <trkpt lat="41.90260667" lon="12.49717">
        <ele>35.357</ele>
        <time>1970-01-01T01:00:00Z</time>
      </trkpt>
      <trkpt lat="41.902605" lon="12.49718667">
        <ele>35.357</ele>
        <time>1970-01-01T01:00:00Z</time>
      </trkpt>
      <trkpt lat="41.90260167" lon="12.49720167">
        <ele>35.357</ele>
        <time>1970-01-01T01:00:00Z</time>
      </trkpt>
      <trkpt lat="41.90259667" lon="12.49721833">
        <ele>35.357</ele>
        <time>1970-01-01T01:00:00Z</time>
      </trkpt>
      <trkpt lat="41.90259" lon="12.497235">
        <ele>35.357</ele>
        <time>1970-01-01T01:00:00Z</time>
      </trkpt>
      <trkpt lat="41.902585" lon="12.49725167">
        <ele>35.357</ele>
        <time>1970-01-01T01:00:00Z</time>
      </trkpt>
      <trkpt lat="41.90257833" lon="12.49727167">
        <ele>35.357</ele>
        <time>1970-01-01T01:00:00Z</time>
      </trkpt>
      <trkpt lat="41.902575" lon="12.49729333">
        <ele>35.357</ele>
        <time>1970-01-01T01:00:00Z</time>
      </trkpt>
      <trkpt lat="41.90257167" lon="12.49731333">
        <ele>35.357</ele>
        <time>1970-01-01T01:00:00Z</time>
      </trkpt>
      <trkpt lat="41.90256667" lon="12.497335">
        <ele>35.357</ele>
        <time>1970-01-01T01:00:00Z</time>
      </trkpt>
      <trkpt lat="41.90256333" lon="12.49735667">
        <ele>35.357</ele>
        <time>1970-01-01T01:00:00Z</time>
      </trkpt>
      <trkpt lat="41.90255833" lon="12.49737833">
        <ele>35.357</ele>
        <time>1970-01-01T01:00:00Z</time>
      </trkpt>
      <trkpt lat="41.90255333" lon="12.49739667">
        <ele>35.357</ele>
        <time>1970-01-01T01:00:00Z</time>
      </trkpt>
      <trkpt lat="41.90255" lon="12.49742">
        <ele>35.357</ele>
        <time>1970-01-01T01:00:00Z</time>
      </trkpt>
      <trkpt lat="41.90254333" lon="12.49744167">
        <ele>35.357</ele>
        <time>1970-01-01T01:00:00Z</time>
      </trkpt>
      <trkpt lat="41.90254" lon="12.49746167">
        <ele>35.357</ele>
        <time>1970-01-01T01:00:00Z</time>
      </trkpt>
      <trkpt lat="41.902535" lon="12.497485">
        <ele>35.357</ele>
        <time>1970-01-01T01:00:00Z</time>
      </trkpt>
      <trkpt lat="41.90252833" lon="12.49751167">
        <ele>35.357</ele>
        <time>1970-01-01T01:00:00Z</time>
      </trkpt>
      <trkpt lat="41.90252333" lon="12.49754">
        <ele>35.357</ele>
        <time>1970-01-01T01:00:00Z</time>
      </trkpt>
      <trkpt lat="41.90251833" lon="12.49757">
        <ele>35.357</ele>
        <time>1970-01-01T01:00:00Z</time>
      </trkpt>
      <trkpt lat="41.902515" lon="12.497595">
        <ele>35.357</ele>
        <time>1970-01-01T01:00:00Z</time>
      </trkpt>
      <trkpt lat="41.90251333" lon="12.49762">
        <ele>35.357</ele>
        <time>1970-01-01T01:00:00Z</time>
      </trkpt>
      <trkpt lat="41.90251" lon="12.497645">
        <ele>35.357</ele>
        <time>1970-01-01T01:00:00Z</time>
      </trkpt>
      <trkpt lat="41.90250667" lon="12.49767">
        <ele>35.357</ele>
        <time>1970-01-01T01:00:00Z</time>
      </trkpt>
      <trkpt lat="41.9025" lon="12.49769667">
        <ele>35.357</ele>
        <time>1970-01-01T01:00:00Z</time>
      </trkpt>
      <trkpt lat="41.902495" lon="12.49772333">
        <ele>35.357</ele>
        <time>1970-01-01T01:00:00Z</time>
      </trkpt>
      <trkpt lat="41.90248833" lon="12.49774833">
        <ele>36.424</ele>
        <time>1970-01-01T01:00:00Z</time>
      </trkpt>
      <trkpt lat="41.90248333" lon="12.49777333">
        <ele>36.424</ele>
        <time>1970-01-01T01:00:00Z</time>
      </trkpt>
      <trkpt lat="41.90247667" lon="12.49780333">
        <ele>36.424</ele>
        <time>1970-01-01T01:00:00Z</time>
      </trkpt>
      <trkpt lat="41.90247" lon="12.49782833">
        <ele>36.424</ele>
        <time>1970-01-01T01:00:00Z</time>
      </trkpt>
      <trkpt lat="41.90246333" lon="12.49785">
        <ele>37.338</ele>
        <time>1970-01-01T01:00:00Z</time>
      </trkpt>
      <trkpt lat="41.90245667" lon="12.49787333">
        <ele>37.338</ele>
        <time>1970-01-01T01:00:00Z</time>
      </trkpt>
      <trkpt lat="41.90245167" lon="12.4979">
        <ele>37.338</ele>
        <time>1970-01-01T01:00:00Z</time>
      </trkpt>
      <trkpt lat="41.902445" lon="12.497925">
        <ele>37.338</ele>
        <time>1970-01-01T01:00:00Z</time>
      </trkpt>
      <trkpt lat="41.90243833" lon="12.49795167">
        <ele>37.338</ele>
        <time>1970-01-01T01:00:00Z</time>
      </trkpt>
      <trkpt lat="41.90243167" lon="12.49797833">
        <ele>37.338</ele>
        <time>1970-01-01T01:00:00Z</time>
      </trkpt>
      <trkpt lat="41.90242667" lon="12.49800333">
        <ele>37.338</ele>
        <time>1970-01-01T01:00:00Z</time>
      </trkpt>
      <trkpt lat="41.90242" lon="12.49803">
        <ele>37.338</ele>
        <time>1970-01-01T01:00:00Z</time>
      </trkpt>
      <trkpt lat="41.90241333" lon="12.49805833">
        <ele>37.338</ele>
        <time>1970-01-01T01:00:00Z</time>
      </trkpt>
      <trkpt lat="41.90240667" lon="12.49808833">
        <ele>37.338</ele>
        <time>1970-01-01T01:00:00Z</time>
      </trkpt>
      <trkpt lat="41.9024" lon="12.49811833">
        <ele>37.338</ele>
        <time>1970-01-01T01:00:00Z</time>
      </trkpt>
      <trkpt lat="41.90239333" lon="12.49815">
        <ele>37.338</ele>
        <time>1970-01-01T01:00:00Z</time>
      </trkpt>
      <trkpt lat="41.902385" lon="12.49817833">
        <ele>37.338</ele>
        <time>1970-01-01T01:00:00Z</time>
      </trkpt>
      <trkpt lat="41.902375" lon="12.49820667">
        <ele>37.338</ele>
        <time>1970-01-01T01:00:00Z</time>
      </trkpt>
      <trkpt lat="41.90236667" lon="12.498235">
        <ele>37.338</ele>
        <time>1970-01-01T01:00:00Z</time>
      </trkpt>
      <trkpt lat="41.90235667" lon="12.49826167">
        <ele>37.338</ele>
        <time>1970-01-01T01:00:00Z</time>
      </trkpt>
      <trkpt lat="41.90234833" lon="12.498285">
        <ele>38.405</ele>
        <time>1970-01-01T01:00:00Z</time>
      </trkpt>
      <trkpt lat="41.90234" lon="12.49830833">
        <ele>38.405</ele>
        <time>1970-01-01T01:00:00Z</time>
      </trkpt>
      <trkpt lat="41.90233333" lon="12.49833667">
        <ele>38.405</ele>
        <time>1970-01-01T01:00:00Z</time>
      </trkpt>
      <trkpt lat="41.90233" lon="12.49836167">
        <ele>38.405</ele>
        <time>1970-01-01T01:00:00Z</time>
      </trkpt>
      <trkpt lat="41.90232833" lon="12.49838833">
        <ele>38.405</ele>
        <time>1970-01-01T01:00:00Z</time>
      </trkpt>
      <trkpt lat="41.90232667" lon="12.49841333">
        <ele>38.405</ele>
        <time>1970-01-01T01:00:00Z</time>
      </trkpt>
      <trkpt lat="41.902325" lon="12.49843667">
        <ele>38.405</ele>
        <time>1970-01-01T01:00:00Z</time>
      </trkpt>
      <trkpt lat="41.90232333" lon="12.49845833">
        <ele>38.405</ele>
        <time>1970-01-01T01:00:00Z</time>
      </trkpt>
      <trkpt lat="41.90232167" lon="12.49847833">
        <ele>38.405</ele>
        <time>1970-01-01T01:00:00Z</time>
      </trkpt>
      <trkpt lat="41.90232333" lon="12.49850167">
        <ele>38.405</ele>
        <time>1970-01-01T01:00:00Z</time>
      </trkpt>
      <trkpt lat="41.902325" lon="12.49852333">
        <ele>38.405</ele>
        <time>1970-01-01T01:00:00Z</time>
      </trkpt>
      <trkpt lat="41.90232833" lon="12.49854833">
        <ele>38.405</ele>
        <time>1970-01-01T01:00:00Z</time>
      </trkpt>
      <trkpt lat="41.902335" lon="12.498575">
        <ele>38.405</ele>
        <time>1970-01-01T01:00:00Z</time>
      </trkpt>
      <trkpt lat="41.90234333" lon="12.49860167">
        <ele>38.405</ele>
        <time>1970-01-01T01:00:00Z</time>
      </trkpt>
      <trkpt lat="41.90235" lon="12.49863167">
        <ele>38.405</ele>
        <time>1970-01-01T01:00:00Z</time>
      </trkpt>
      <trkpt lat="41.90236" lon="12.49865833">
        <ele>38.405</ele>
        <time>1970-01-01T01:00:00Z</time>
      </trkpt>
      <trkpt lat="41.90237167" lon="12.49868333">
        <ele>40.386</ele>
        <time>1970-01-01T01:00:00Z</time>
      </trkpt>
      <trkpt lat="41.90238" lon="12.49870333">
        <ele>40.386</ele>
        <time>1970-01-01T01:00:00Z</time>
      </trkpt>
      <trkpt lat="41.90238667" lon="12.49871167">
        <ele>40.386</ele>
        <time>1970-01-01T01:00:00Z</time>
      </trkpt>
      <trkpt lat="41.90238833" lon="12.49871667">
        <ele>40.386</ele>
        <time>1970-01-01T01:00:00Z</time>
      </trkpt>
      <trkpt lat="41.90239" lon="12.49871833">
        <ele>41.453</ele>
        <time>1970-01-01T01:00:00Z</time>
      </trkpt>
      <trkpt lat="41.90239" lon="12.49871833">
        <ele>41.453</ele>
        <time>1970-01-01T01:00:00Z</time>
      </trkpt>
      <trkpt lat="41.90239" lon="12.49872">
        <ele>41.453</ele>
        <time>1970-01-01T01:00:00Z</time>
      </trkpt>
      <trkpt lat="41.90239167" lon="12.49872167">
        <ele>41.453</ele>
        <time>1970-01-01T01:00:00Z</time>
      </trkpt>
      <trkpt lat="41.90239" lon="12.49872">
        <ele>42.368</ele>
        <time>1970-01-01T01:00:00Z</time>
      </trkpt>
      <trkpt lat="41.90239" lon="12.49872167">
        <ele>42.368</ele>
        <time>1970-01-01T01:00:00Z</time>
      </trkpt>
      <trkpt lat="41.90239" lon="12.49872167">
        <ele>42.368</ele>
        <time>1970-01-01T01:00:00Z</time>
      </trkpt>
      <trkpt lat="41.90239" lon="12.49872333">
        <ele>42.368</ele>
        <time>1970-01-01T01:00:00Z</time>
      </trkpt>
      <trkpt lat="41.90239" lon="12.498725">
        <ele>42.368</ele>
        <time>1970-01-01T01:00:00Z</time>
      </trkpt>
      <trkpt lat="41.90239333" lon="12.49873">
        <ele>42.368</ele>
        <time>1970-01-01T01:00:00Z</time>
      </trkpt>
      <trkpt lat="41.902395" lon="12.49873667">
        <ele>42.368</ele>
        <time>1970-01-01T01:00:00Z</time>
      </trkpt>
      <trkpt lat="41.90239667" lon="12.49874167">
        <ele>42.368</ele>
        <time>1970-01-01T01:00:00Z</time>
      </trkpt>
      <trkpt lat="41.90239833" lon="12.49874333">
        <ele>42.368</ele>
        <time>1970-01-01T01:00:00Z</time>
      </trkpt>
      <trkpt lat="41.90239667" lon="12.49874667">
        <ele>42.368</ele>
        <time>1970-01-01T01:00:00Z</time>
      </trkpt>
      <trkpt lat="41.90239333" lon="12.49875333">
        <ele>42.368</ele>
        <time>1970-01-01T01:00:00Z</time>
      </trkpt>
      <trkpt lat="41.90239167" lon="12.49876333">
        <ele>42.368</ele>
        <time>1970-01-01T01:00:00Z</time>
      </trkpt>
      <trkpt lat="41.90239333" lon="12.49877833">
        <ele>42.368</ele>
        <time>1970-01-01T01:00:00Z</time>
      </trkpt>
      <trkpt lat="41.90240167" lon="12.49879833">
        <ele>42.368</ele>
        <time>1970-01-01T01:00:00Z</time>
      </trkpt>
      <trkpt lat="41.902415" lon="12.49882167">
        <ele>42.368</ele>
        <time>1970-01-01T01:00:00Z</time>
      </trkpt>
      <trkpt lat="41.90243" lon="12.49884167">
        <ele>42.368</ele>
        <time>1970-01-01T01:00:00Z</time>
      </trkpt>
      <trkpt lat="41.902445" lon="12.49886333">
        <ele>42.368</ele>
        <time>1970-01-01T01:00:00Z</time>
      </trkpt>
      <trkpt lat="41.90246" lon="12.49888833">
        <ele>42.368</ele>
        <time>1970-01-01T01:00:00Z</time>
      </trkpt>
      <trkpt lat="41.902475" lon="12.49891">
        <ele>42.368</ele>
        <time>1970-01-01T01:00:00Z</time>
      </trkpt>
      <trkpt lat="41.90249" lon="12.49893333">
        <ele>42.368</ele>
        <time>1970-01-01T01:00:00Z</time>
      </trkpt>
      <trkpt lat="41.902505" lon="12.49895667">
        <ele>44.349</ele>
        <time>1970-01-01T01:00:00Z</time>
      </trkpt>
      <trkpt lat="41.90252" lon="12.49898167">
        <ele>44.349</ele>
        <time>1970-01-01T01:00:00Z</time>
      </trkpt>
      <trkpt lat="41.902535" lon="12.499005">
        <ele>44.349</ele>
        <time>1970-01-01T01:00:00Z</time>
      </trkpt>
      <trkpt lat="41.90255" lon="12.49903167">
        <ele>44.349</ele>
        <time>1970-01-01T01:00:00Z</time>
      </trkpt>
      <trkpt lat="41.90256667" lon="12.499055">
        <ele>44.349</ele>
        <time>1970-01-01T01:00:00Z</time>
      </trkpt>
      <trkpt lat="41.90258333" lon="12.49907667">
        <ele>44.349</ele>
        <time>1970-01-01T01:00:00Z</time>
      </trkpt>
      <trkpt lat="41.90259667" lon="12.49910167">
        <ele>44.349</ele>
        <time>1970-01-01T01:00:00Z</time>
      </trkpt>
      <trkpt lat="41.90261" lon="12.49912167">
        <ele>44.349</ele>
        <time>1970-01-01T01:00:00Z</time>
      </trkpt>
      <trkpt lat="41.90262333" lon="12.49914333">
        <ele>45.416</ele>
        <time>1970-01-01T01:00:00Z</time>
      </trkpt>
      <trkpt lat="41.90263667" lon="12.499165">
        <ele>45.416</ele>
        <time>1970-01-01T01:00:00Z</time>
      </trkpt>
      <trkpt lat="41.90265333" lon="12.49918667">
        <ele>45.416</ele>
        <time>1970-01-01T01:00:00Z</time>
      </trkpt>
      <trkpt lat="41.90266833" lon="12.49921">
        <ele>45.416</ele>
        <time>1970-01-01T01:00:00Z</time>
      </trkpt>
      <trkpt lat="41.90268333" lon="12.499235">
        <ele>45.416</ele>
        <time>1970-01-01T01:00:00Z</time>
      </trkpt>
      <trkpt lat="41.90269833" lon="12.49925833">
        <ele>45.416</ele>
        <time>1970-01-01T01:00:00Z</time>
      </trkpt>
      <trkpt lat="41.90271333" lon="12.49928">
        <ele>45.416</ele>
        <time>1970-01-01T01:00:00Z</time>
      </trkpt>
      <trkpt lat="41.90273" lon="12.49930333">
        <ele>45.416</ele>
        <time>1970-01-01T01:00:00Z</time>
      </trkpt>
      <trkpt lat="41.90274833" lon="12.49932667">
        <ele>45.416</ele>
        <time>1970-01-01T01:00:00Z</time>
      </trkpt>
      <trkpt lat="41.90276833" lon="12.49935167">
        <ele>45.416</ele>
        <time>1970-01-01T01:00:00Z</time>
      </trkpt>
      <trkpt lat="41.90278833" lon="12.49937333">
        <ele>45.416</ele>
        <time>1970-01-01T01:00:00Z</time>
      </trkpt>
      <trkpt lat="41.902805" lon="12.499395">
        <ele>45.416</ele>
        <time>1970-01-01T01:00:00Z</time>
      </trkpt>
      <trkpt lat="41.90282" lon="12.49942">
        <ele>45.416</ele>
        <time>1970-01-01T01:00:00Z</time>
      </trkpt>
      <trkpt lat="41.90283667" lon="12.49944833">
        <ele>45.416</ele>
        <time>1970-01-01T01:00:00Z</time>
      </trkpt>
      <trkpt lat="41.90285333" lon="12.49947333">
        <ele>45.416</ele>
        <time>1970-01-01T01:00:00Z</time>
      </trkpt>
      <trkpt lat="41.90287" lon="12.49949667">
        <ele>45.416</ele>
        <time>1970-01-01T01:00:00Z</time>
      </trkpt>
      <trkpt lat="41.90288667" lon="12.49952167">
        <ele>45.416</ele>
        <time>1970-01-01T01:00:00Z</time>
      </trkpt>
      <trkpt lat="41.90290167" lon="12.499545">
        <ele>45.416</ele>
        <time>1970-01-01T01:00:00Z</time>
      </trkpt>
      <trkpt lat="41.90291667" lon="12.49956667">
        <ele>45.416</ele>
        <time>1970-01-01T01:00:00Z</time>
      </trkpt>
      <trkpt lat="41.90293167" lon="12.49958833">
        <ele>45.416</ele>
        <time>1970-01-01T01:00:00Z</time>
      </trkpt>
      <trkpt lat="41.90295" lon="12.49961167">
        <ele>45.416</ele>
        <time>1970-01-01T01:00:00Z</time>
      </trkpt>
      <trkpt lat="41.902965" lon="12.49963667">
        <ele>45.416</ele>
        <time>1970-01-01T01:00:00Z</time>
      </trkpt>
      <trkpt lat="41.90298333" lon="12.49966333">
        <ele>45.416</ele>
        <time>1970-01-01T01:00:00Z</time>
      </trkpt>
      <trkpt lat="41.903" lon="12.49968833">
        <ele>45.416</ele>
        <time>1970-01-01T01:00:00Z</time>
      </trkpt>
      <trkpt lat="41.903015" lon="12.499715">
        <ele>45.416</ele>
        <time>1970-01-01T01:00:00Z</time>
      </trkpt>
      <trkpt lat="41.90303" lon="12.49974167">
        <ele>45.416</ele>
        <time>1970-01-01T01:00:00Z</time>
      </trkpt>
      <trkpt lat="41.903045" lon="12.499765">
        <ele>45.416</ele>
        <time>1970-01-01T01:00:00Z</time>
      </trkpt>
      <trkpt lat="41.90305833" lon="12.49979">
        <ele>45.416</ele>
        <time>1970-01-01T01:00:00Z</time>
      </trkpt>
      <trkpt lat="41.90307" lon="12.49981167">
        <ele>45.416</ele>
        <time>1970-01-01T01:00:00Z</time>
      </trkpt>
      <trkpt lat="41.90308167" lon="12.49983167">
        <ele>45.416</ele>
        <time>1970-01-01T01:00:00Z</time>
      </trkpt>
      <trkpt lat="41.90309167" lon="12.49985333">
        <ele>45.416</ele>
        <time>1970-01-01T01:00:00Z</time>
      </trkpt>
      <trkpt lat="41.90310167" lon="12.499875">
        <ele>45.416</ele>
        <time>1970-01-01T01:00:00Z</time>
      </trkpt>
      <trkpt lat="41.90311167" lon="12.49989833">
        <ele>45.416</ele>
        <time>1970-01-01T01:00:00Z</time>
      </trkpt>
      <trkpt lat="41.90312167" lon="12.49992167">
        <ele>45.416</ele>
        <time>1970-01-01T01:00:00Z</time>
      </trkpt>
      <trkpt lat="41.903135" lon="12.49994833">
        <ele>45.416</ele>
        <time>1970-01-01T01:00:00Z</time>
      </trkpt>
      <trkpt lat="41.903145" lon="12.49997167">
        <ele>45.416</ele>
        <time>1970-01-01T01:00:00Z</time>
      </trkpt>
      <trkpt lat="41.903155" lon="12.49999667">
        <ele>45.416</ele>
        <time>1970-01-01T01:00:00Z</time>
      </trkpt>
      <trkpt lat="41.903165" lon="12.50002167">
        <ele>45.416</ele>
        <time>1970-01-01T01:00:00Z</time>
      </trkpt>
      <trkpt lat="41.90317667" lon="12.500045">
        <ele>45.416</ele>
        <time>1970-01-01T01:00:00Z</time>
      </trkpt>
      <trkpt lat="41.90319" lon="12.50006667">
        <ele>45.416</ele>
        <time>1970-01-01T01:00:00Z</time>
      </trkpt>
      <trkpt lat="41.90320333" lon="12.50009">
        <ele>45.416</ele>
        <time>1970-01-01T01:00:00Z</time>
      </trkpt>
      <trkpt lat="41.90321667" lon="12.500115">
        <ele>45.416</ele>
        <time>1970-01-01T01:00:00Z</time>
      </trkpt>
      <trkpt lat="41.90323" lon="12.50013833">
        <ele>45.416</ele>
        <time>1970-01-01T01:00:00Z</time>
      </trkpt>
      <trkpt lat="41.90324167" lon="12.50015833">
        <ele>45.416</ele>
        <time>1970-01-01T01:00:00Z</time>
      </trkpt>
      <trkpt lat="41.903255" lon="12.50018">
        <ele>45.416</ele>
        <time>1970-01-01T01:00:00Z</time>
      </trkpt>
      <trkpt lat="41.90327" lon="12.500205">
        <ele>45.416</ele>
        <time>1970-01-01T01:00:00Z</time>
      </trkpt>
      <trkpt lat="41.903285" lon="12.50023333">
        <ele>45.416</ele>
        <time>1970-01-01T01:00:00Z</time>
      </trkpt>
      <trkpt lat="41.9033" lon="12.50026">
        <ele>45.416</ele>
        <time>1970-01-01T01:00:00Z</time>
      </trkpt>
      <trkpt lat="41.90331667" lon="12.50028333">
        <ele>45.416</ele>
        <time>1970-01-01T01:00:00Z</time>
      </trkpt>
      <trkpt lat="41.903335" lon="12.50030667">
        <ele>45.416</ele>
        <time>1970-01-01T01:00:00Z</time>
      </trkpt>
      <trkpt lat="41.90335" lon="12.500325">
        <ele>45.416</ele>
        <time>1970-01-01T01:00:00Z</time>
      </trkpt>
      <trkpt lat="41.90336333" lon="12.50034667">
        <ele>45.416</ele>
        <time>1970-01-01T01:00:00Z</time>
      </trkpt>
      <trkpt lat="41.903375" lon="12.50037167">
        <ele>45.416</ele>
        <time>1970-01-01T01:00:00Z</time>
      </trkpt>
      <trkpt lat="41.903385" lon="12.5004">
        <ele>45.416</ele>
        <time>1970-01-01T01:00:00Z</time>
      </trkpt>
      <trkpt lat="41.903395" lon="12.50042833">
        <ele>45.416</ele>
        <time>1970-01-01T01:00:00Z</time>
      </trkpt>
      <trkpt lat="41.90340833" lon="12.500455">
        <ele>45.416</ele>
        <time>1970-01-01T01:00:00Z</time>
      </trkpt>
      <trkpt lat="41.90341833" lon="12.50048333">
        <ele>45.416</ele>
        <time>1970-01-01T01:00:00Z</time>
      </trkpt>
      <trkpt lat="41.90343" lon="12.50050833">
        <ele>45.416</ele>
        <time>1970-01-01T01:00:00Z</time>
      </trkpt>
      <trkpt lat="41.90344" lon="12.50053667">
        <ele>45.416</ele>
        <time>1970-01-01T01:00:00Z</time>
      </trkpt>
      <trkpt lat="41.90345" lon="12.50055833">
        <ele>45.416</ele>
        <time>1970-01-01T01:00:00Z</time>
      </trkpt>
      <trkpt lat="41.90346167" lon="12.50058667">
        <ele>45.416</ele>
        <time>1970-01-01T01:00:00Z</time>
      </trkpt>
      <trkpt lat="41.903475" lon="12.50060833">
        <ele>45.416</ele>
        <time>1970-01-01T01:00:00Z</time>
      </trkpt>
      <trkpt lat="41.90349" lon="12.50063">
        <ele>45.416</ele>
        <time>1970-01-01T01:00:00Z</time>
      </trkpt>
      <trkpt lat="41.90350833" lon="12.50065">
        <ele>45.416</ele>
        <time>1970-01-01T01:00:00Z</time>
      </trkpt>
      <trkpt lat="41.90352333" lon="12.50066667">
        <ele>45.416</ele>
        <time>1970-01-01T01:00:00Z</time>
      </trkpt>
      <trkpt lat="41.90354" lon="12.500685">
        <ele>45.416</ele>
        <time>1970-01-01T01:00:00Z</time>
      </trkpt>
      <trkpt lat="41.90355333" lon="12.50069667">
        <ele>45.416</ele>
        <time>1970-01-01T01:00:00Z</time>
      </trkpt>
      <trkpt lat="41.90356667" lon="12.50070667">
        <ele>45.416</ele>
        <time>1970-01-01T01:00:00Z</time>
      </trkpt>
      <trkpt lat="41.903575" lon="12.50071333">
        <ele>45.416</ele>
        <time>1970-01-01T01:00:00Z</time>
      </trkpt>
      <trkpt lat="41.90357833" lon="12.50071667">
        <ele>45.416</ele>
        <time>1970-01-01T01:00:00Z</time>
      </trkpt>
      <trkpt lat="41.90358" lon="12.50071833">
        <ele>45.416</ele>
        <time>1970-01-01T01:00:00Z</time>
      </trkpt>
      <trkpt lat="41.90358333" lon="12.50071833">
        <ele>45.416</ele>
        <time>1970-01-01T01:00:00Z</time>
      </trkpt>
      <trkpt lat="41.903585" lon="12.50072">
        <ele>45.416</ele>
        <time>1970-01-01T01:00:00Z</time>
      </trkpt>
      <trkpt lat="41.90358667" lon="12.50072">
        <ele>45.416</ele>
        <time>1970-01-01T01:00:00Z</time>
      </trkpt>
      <trkpt lat="41.90359" lon="12.50072167">
        <ele>45.416</ele>
        <time>1970-01-01T01:00:00Z</time>
      </trkpt>
      <trkpt lat="41.90359" lon="12.50072167">
        <ele>45.416</ele>
        <time>1970-01-01T01:00:00Z</time>
      </trkpt>
      <trkpt lat="41.90359" lon="12.50072">
        <ele>45.416</ele>
        <time>1970-01-01T01:00:00Z</time>
      </trkpt>
      <trkpt lat="41.90359333" lon="12.50072333">
        <ele>45.416</ele>
        <time>1970-01-01T01:00:00Z</time>
      </trkpt>
      <trkpt lat="41.903595" lon="12.500725">
        <ele>45.416</ele>
        <time>1970-01-01T01:00:00Z</time>
      </trkpt>
      <trkpt lat="41.90359333" lon="12.500725">
        <ele>45.416</ele>
        <time>1970-01-01T01:00:00Z</time>
      </trkpt>
      <trkpt lat="41.90359333" lon="12.50072667">
        <ele>47.397</ele>
        <time>1970-01-01T01:00:00Z</time>
      </trkpt>
      <trkpt lat="41.903595" lon="12.50072667">
        <ele>47.397</ele>
        <time>1970-01-01T01:00:00Z</time>
      </trkpt>
      <trkpt lat="41.903595" lon="12.500735">
        <ele>47.397</ele>
        <time>1970-01-01T01:00:00Z</time>
      </trkpt>
      <trkpt lat="41.90359667" lon="12.50074833">
        <ele>47.397</ele>
        <time>1970-01-01T01:00:00Z</time>
      </trkpt>
      <trkpt lat="41.90359667" lon="12.50076667">
        <ele>47.397</ele>
        <time>1970-01-01T01:00:00Z</time>
      </trkpt>
      <trkpt lat="41.90359667" lon="12.50078667">
        <ele>47.397</ele>
        <time>1970-01-01T01:00:00Z</time>
      </trkpt>
      <trkpt lat="41.90359333" lon="12.50081167">
        <ele>47.397</ele>
        <time>1970-01-01T01:00:00Z</time>
      </trkpt>
      <trkpt lat="41.90359" lon="12.500835">
        <ele>47.397</ele>
        <time>1970-01-01T01:00:00Z</time>
      </trkpt>
      <trkpt lat="41.90359" lon="12.50086167">
        <ele>47.397</ele>
        <time>1970-01-01T01:00:00Z</time>
      </trkpt>
      <trkpt lat="41.90359" lon="12.500885">
        <ele>47.397</ele>
        <time>1970-01-01T01:00:00Z</time>
      </trkpt>
      <trkpt lat="41.90359167" lon="12.50090167">
        <ele>47.397</ele>
        <time>1970-01-01T01:00:00Z</time>
      </trkpt>
      <trkpt lat="41.903595" lon="12.50091833">
        <ele>47.397</ele>
        <time>1970-01-01T01:00:00Z</time>
      </trkpt>
      <trkpt lat="41.90359667" lon="12.50093">
        <ele>47.397</ele>
        <time>1970-01-01T01:00:00Z</time>
      </trkpt>
      <trkpt lat="41.903595" lon="12.500935">
        <ele>47.397</ele>
        <time>1970-01-01T01:00:00Z</time>
      </trkpt>
      <trkpt lat="41.90359333" lon="12.50094">
        <ele>47.397</ele>
        <time>1970-01-01T01:00:00Z</time>
      </trkpt>
      <trkpt lat="41.90359333" lon="12.50094167">
        <ele>47.397</ele>
        <time>1970-01-01T01:00:00Z</time>
      </trkpt>
      <trkpt lat="41.90359333" lon="12.50094333">
        <ele>47.397</ele>
        <time>1970-01-01T01:00:00Z</time>
      </trkpt>
      <trkpt lat="41.90359333" lon="12.500945">
        <ele>47.397</ele>
        <time>1970-01-01T01:00:00Z</time>
      </trkpt>
      <trkpt lat="41.90359333" lon="12.50094667">
        <ele>47.397</ele>
        <time>1970-01-01T01:00:00Z</time>
      </trkpt>
      <trkpt lat="41.90359333" lon="12.50094667">
        <ele>47.397</ele>
        <time>1970-01-01T01:00:00Z</time>
      </trkpt>
      <trkpt lat="41.903595" lon="12.50094667">
        <ele>47.397</ele>
        <time>1970-01-01T01:00:00Z</time>
      </trkpt>
      <trkpt lat="41.903595" lon="12.50094833">
        <ele>46.33</ele>
        <time>1970-01-01T01:00:00Z</time>
      </trkpt>
      <trkpt lat="41.903595" lon="12.50095">
        <ele>46.33</ele>
        <time>1970-01-01T01:00:00Z</time>
      </trkpt>
      <trkpt lat="41.90359333" lon="12.50095333">
        <ele>46.33</ele>
        <time>1970-01-01T01:00:00Z</time>
      </trkpt>
      <trkpt lat="41.90359333" lon="12.500955">
        <ele>46.33</ele>
        <time>1970-01-01T01:00:00Z</time>
      </trkpt>
      <trkpt lat="41.90359167" lon="12.50095667">
        <ele>46.33</ele>
        <time>1970-01-01T01:00:00Z</time>
      </trkpt>
      <trkpt lat="41.90359167" lon="12.50095667">
        <ele>46.33</ele>
        <time>1970-01-01T01:00:00Z</time>
      </trkpt>
      <trkpt lat="41.90359167" lon="12.50095667">
        <ele>46.33</ele>
        <time>1970-01-01T01:00:00Z</time>
      </trkpt>
      <trkpt lat="41.90359167" lon="12.50095667">
        <ele>46.33</ele>
        <time>1970-01-01T01:00:00Z</time>
      </trkpt>
      <trkpt lat="41.90358833" lon="12.50096167">
        <ele>45.416</ele>
        <time>1970-01-01T01:00:00Z</time>
      </trkpt>
      <trkpt lat="41.903585" lon="12.50096667">
        <ele>45.416</ele>
        <time>1970-01-01T01:00:00Z</time>
      </trkpt>
      <trkpt lat="41.903585" lon="12.50097167">
        <ele>44.349</ele>
        <time>1970-01-01T01:00:00Z</time>
      </trkpt>
      <trkpt lat="41.903585" lon="12.50097667">
        <ele>44.349</ele>
        <time>1970-01-01T01:00:00Z</time>
      </trkpt>
      <trkpt lat="41.90358333" lon="12.50098">
        <ele>44.349</ele>
        <time>1970-01-01T01:00:00Z</time>
      </trkpt>
      <trkpt lat="41.90358167" lon="12.500985">
        <ele>44.349</ele>
        <time>1970-01-01T01:00:00Z</time>
      </trkpt>
      <trkpt lat="41.90357833" lon="12.50098833">
        <ele>44.349</ele>
        <time>1970-01-01T01:00:00Z</time>
      </trkpt>
      <trkpt lat="41.90357833" lon="12.50099333">
        <ele>44.349</ele>
        <time>1970-01-01T01:00:00Z</time>
      </trkpt>
      <trkpt lat="41.903575" lon="12.50099833">
        <ele>44.349</ele>
        <time>1970-01-01T01:00:00Z</time>
      </trkpt>
      <trkpt lat="41.90357167" lon="12.501005">
        <ele>44.349</ele>
        <time>1970-01-01T01:00:00Z</time>
      </trkpt>
      <trkpt lat="41.90356833" lon="12.50101">
        <ele>44.349</ele>
        <time>1970-01-01T01:00:00Z</time>
      </trkpt>
      <trkpt lat="41.90356667" lon="12.501015">
        <ele>44.349</ele>
        <time>1970-01-01T01:00:00Z</time>
      </trkpt>
      <trkpt lat="41.90356333" lon="12.50102167">
        <ele>44.349</ele>
        <time>1970-01-01T01:00:00Z</time>
      </trkpt>
      <trkpt lat="41.90356" lon="12.50102667">
        <ele>44.349</ele>
        <time>1970-01-01T01:00:00Z</time>
      </trkpt>
      <trkpt lat="41.903555" lon="12.50103167">
        <ele>43.435</ele>
        <time>1970-01-01T01:00:00Z</time>
      </trkpt>
      <trkpt lat="41.90355333" lon="12.50103833">
        <ele>43.435</ele>
        <time>1970-01-01T01:00:00Z</time>
      </trkpt>
      <trkpt lat="41.90354833" lon="12.50104333">
        <ele>43.435</ele>
        <time>1970-01-01T01:00:00Z</time>
      </trkpt>
      <trkpt lat="41.903545" lon="12.50105">
        <ele>43.435</ele>
        <time>1970-01-01T01:00:00Z</time>
      </trkpt>
      <trkpt lat="41.90354" lon="12.50106167">
        <ele>43.435</ele>
        <time>1970-01-01T01:00:00Z</time>
      </trkpt>
      <trkpt lat="41.90353167" lon="12.50107333">
        <ele>43.435</ele>
        <time>1970-01-01T01:00:00Z</time>
      </trkpt>
      <trkpt lat="41.90352" lon="12.50108167">
        <ele>43.435</ele>
        <time>1970-01-01T01:00:00Z</time>
      </trkpt>
      <trkpt lat="41.90350667" lon="12.50109333">
        <ele>43.435</ele>
        <time>1970-01-01T01:00:00Z</time>
      </trkpt>
      <trkpt lat="41.90349333" lon="12.50110667">
        <ele>43.435</ele>
        <time>1970-01-01T01:00:00Z</time>
      </trkpt>
      <trkpt lat="41.90348167" lon="12.50112167">
        <ele>43.435</ele>
        <time>1970-01-01T01:00:00Z</time>
      </trkpt>
      <trkpt lat="41.90347333" lon="12.50114">
        <ele>43.435</ele>
        <time>1970-01-01T01:00:00Z</time>
      </trkpt>
      <trkpt lat="41.90346667" lon="12.50116">
        <ele>43.435</ele>
        <time>1970-01-01T01:00:00Z</time>
      </trkpt>
      <trkpt lat="41.903465" lon="12.50118333">
        <ele>43.435</ele>
        <time>1970-01-01T01:00:00Z</time>
      </trkpt>
      <trkpt lat="41.903465" lon="12.50120833">
        <ele>43.435</ele>
        <time>1970-01-01T01:00:00Z</time>
      </trkpt>
      <trkpt lat="41.90346667" lon="12.50123">
        <ele>43.435</ele>
        <time>1970-01-01T01:00:00Z</time>
      </trkpt>
      <trkpt lat="41.90347" lon="12.50125">
        <ele>43.435</ele>
        <time>1970-01-01T01:00:00Z</time>
      </trkpt>
      <trkpt lat="41.90347333" lon="12.50127167">
        <ele>43.435</ele>
        <time>1970-01-01T01:00:00Z</time>
      </trkpt>
      <trkpt lat="41.903475" lon="12.50129167">
        <ele>43.435</ele>
        <time>1970-01-01T01:00:00Z</time>
      </trkpt>
      <trkpt lat="41.903475" lon="12.50130833">
        <ele>44.349</ele>
        <time>1970-01-01T01:00:00Z</time>
      </trkpt>
      <trkpt lat="41.90347667" lon="12.501325">
        <ele>44.349</ele>
        <time>1970-01-01T01:00:00Z</time>
      </trkpt>
      <trkpt lat="41.90348167" lon="12.50134167">
        <ele>44.349</ele>
        <time>1970-01-01T01:00:00Z</time>
      </trkpt>
      <trkpt lat="41.90348833" lon="12.50135833">
        <ele>44.349</ele>
        <time>1970-01-01T01:00:00Z</time>
      </trkpt>
      <trkpt lat="41.90349667" lon="12.501375">
        <ele>44.349</ele>
        <time>1970-01-01T01:00:00Z</time>
      </trkpt>
      <trkpt lat="41.90350333" lon="12.50139">
        <ele>44.349</ele>
        <time>1970-01-01T01:00:00Z</time>
      </trkpt>
      <trkpt lat="41.90351" lon="12.501405">
        <ele>44.349</ele>
        <time>1970-01-01T01:00:00Z</time>
      </trkpt>
      <trkpt lat="41.90351833" lon="12.50141833">
        <ele>44.349</ele>
        <time>1970-01-01T01:00:00Z</time>
      </trkpt>
      <trkpt lat="41.90353" lon="12.501435">
        <ele>44.349</ele>
        <time>1970-01-01T01:00:00Z</time>
      </trkpt>
      <trkpt lat="41.90354" lon="12.50145333">
        <ele>44.349</ele>
        <time>1970-01-01T01:00:00Z</time>
      </trkpt>
      <trkpt lat="41.90355167" lon="12.50147333">
        <ele>44.349</ele>
        <time>1970-01-01T01:00:00Z</time>
      </trkpt>
      <trkpt lat="41.90356667" lon="12.50149167">
        <ele>44.349</ele>
        <time>1970-01-01T01:00:00Z</time>
      </trkpt>
      <trkpt lat="41.90358667" lon="12.501515">
        <ele>44.349</ele>
        <time>1970-01-01T01:00:00Z</time>
      </trkpt>
      <trkpt lat="41.90360833" lon="12.50154667">
        <ele>44.349</ele>
        <time>1970-01-01T01:00:00Z</time>
      </trkpt>
      <trkpt lat="41.90363167" lon="12.50157833">
        <ele>44.349</ele>
        <time>1970-01-01T01:00:00Z</time>
      </trkpt>
      <trkpt lat="41.90365667" lon="12.50161">
        <ele>44.349</ele>
        <time>1970-01-01T01:00:00Z</time>
      </trkpt>
      <trkpt lat="41.90368167" lon="12.50164333">
        <ele>44.349</ele>
        <time>1970-01-01T01:00:00Z</time>
      </trkpt>
      <trkpt lat="41.90370833" lon="12.50167333">
        <ele>44.349</ele>
        <time>1970-01-01T01:00:00Z</time>
      </trkpt>
      <trkpt lat="41.903735" lon="12.50170333">
        <ele>44.349</ele>
        <time>1970-01-01T01:00:00Z</time>
      </trkpt>
      <trkpt lat="41.90376333" lon="12.50173333">
        <ele>44.349</ele>
        <time>1970-01-01T01:00:00Z</time>
      </trkpt>
      <trkpt lat="41.90378833" lon="12.50176167">
        <ele>44.349</ele>
        <time>1970-01-01T01:00:00Z</time>
      </trkpt>
      <trkpt lat="41.90381" lon="12.50179333">
        <ele>44.349</ele>
        <time>1970-01-01T01:00:00Z</time>
      </trkpt>
      <trkpt lat="41.90383" lon="12.50182667">
        <ele>45.416</ele>
        <time>1970-01-01T01:00:00Z</time>
      </trkpt>
      <trkpt lat="41.90384667" lon="12.50185833">
        <ele>45.416</ele>
        <time>1970-01-01T01:00:00Z</time>
      </trkpt>
      <trkpt lat="41.90385833" lon="12.50189333">
        <ele>45.416</ele>
        <time>1970-01-01T01:00:00Z</time>
      </trkpt>
      <trkpt lat="41.90387" lon="12.50192333">
        <ele>45.416</ele>
        <time>1970-01-01T01:00:00Z</time>
      </trkpt>
      <trkpt lat="41.90387833" lon="12.50194667">
        <ele>45.416</ele>
        <time>1970-01-01T01:00:00Z</time>
      </trkpt>
      <trkpt lat="41.90388167" lon="12.50197">
        <ele>45.416</ele>
        <time>1970-01-01T01:00:00Z</time>
      </trkpt>
      <trkpt lat="41.90388667" lon="12.50199167">
        <ele>45.416</ele>
        <time>1970-01-01T01:00:00Z</time>
      </trkpt>
      <trkpt lat="41.90388667" lon="12.502015">
        <ele>45.416</ele>
        <time>1970-01-01T01:00:00Z</time>
      </trkpt>
      <trkpt lat="41.903885" lon="12.50203833">
        <ele>45.416</ele>
        <time>1970-01-01T01:00:00Z</time>
      </trkpt>
      <trkpt lat="41.90388" lon="12.50206167">
        <ele>45.416</ele>
        <time>1970-01-01T01:00:00Z</time>
      </trkpt>
      <trkpt lat="41.90387333" lon="12.50208667">
        <ele>45.416</ele>
        <time>1970-01-01T01:00:00Z</time>
      </trkpt>
      <trkpt lat="41.90386667" lon="12.50210667">
        <ele>45.416</ele>
        <time>1970-01-01T01:00:00Z</time>
      </trkpt>
      <trkpt lat="41.90385333" lon="12.502125">
        <ele>45.416</ele>
        <time>1970-01-01T01:00:00Z</time>
      </trkpt>
      <trkpt lat="41.90383833" lon="12.50214333">
        <ele>45.416</ele>
        <time>1970-01-01T01:00:00Z</time>
      </trkpt>
      <trkpt lat="41.90382167" lon="12.50216333">
        <ele>45.416</ele>
        <time>1970-01-01T01:00:00Z</time>
      </trkpt>
      <trkpt lat="41.90380333" lon="12.50218833">
        <ele>45.416</ele>
        <time>1970-01-01T01:00:00Z</time>
      </trkpt>
      <trkpt lat="41.903785" lon="12.50221333">
        <ele>45.416</ele>
        <time>1970-01-01T01:00:00Z</time>
      </trkpt>
      <trkpt lat="41.90376667" lon="12.502235">
        <ele>45.416</ele>
        <time>1970-01-01T01:00:00Z</time>
      </trkpt>
      <trkpt lat="41.90374667" lon="12.50225833">
        <ele>45.416</ele>
        <time>1970-01-01T01:00:00Z</time>
      </trkpt>
      <trkpt lat="41.903725" lon="12.502285">
        <ele>45.416</ele>
        <time>1970-01-01T01:00:00Z</time>
      </trkpt>
      <trkpt lat="41.90370167" lon="12.50231833">
        <ele>45.416</ele>
        <time>1970-01-01T01:00:00Z</time>
      </trkpt>
      <trkpt lat="41.90367833" lon="12.50235333">
        <ele>45.416</ele>
        <time>1970-01-01T01:00:00Z</time>
      </trkpt>
      <trkpt lat="41.90365667" lon="12.50239167">
        <ele>45.416</ele>
        <time>1970-01-01T01:00:00Z</time>
      </trkpt>
      <trkpt lat="41.90363833" lon="12.50242333">
        <ele>45.416</ele>
        <time>1970-01-01T01:00:00Z</time>
      </trkpt>
      <trkpt lat="41.90362333" lon="12.50244833">
        <ele>45.416</ele>
        <time>1970-01-01T01:00:00Z</time>
      </trkpt>
      <trkpt lat="41.90361" lon="12.50247167">
        <ele>45.416</ele>
        <time>1970-01-01T01:00:00Z</time>
      </trkpt>
      <trkpt lat="41.90359833" lon="12.50248667">
        <ele>45.416</ele>
        <time>1970-01-01T01:00:00Z</time>
      </trkpt>
      <trkpt lat="41.903585" lon="12.50250333">
        <ele>45.416</ele>
        <time>1970-01-01T01:00:00Z</time>
      </trkpt>
      <trkpt lat="41.90357167" lon="12.50252167">
        <ele>45.416</ele>
        <time>1970-01-01T01:00:00Z</time>
      </trkpt>
      <trkpt lat="41.903555" lon="12.50254">
        <ele>45.416</ele>
        <time>1970-01-01T01:00:00Z</time>
      </trkpt>
      <trkpt lat="41.90353667" lon="12.50256">
        <ele>45.416</ele>
        <time>1970-01-01T01:00:00Z</time>
      </trkpt>
      <trkpt lat="41.90352" lon="12.50257833">
        <ele>45.416</ele>
        <time>1970-01-01T01:00:00Z</time>
      </trkpt>
      <trkpt lat="41.9035" lon="12.502595">
        <ele>45.416</ele>
        <time>1970-01-01T01:00:00Z</time>
      </trkpt>
      <trkpt lat="41.90348167" lon="12.50260833">
        <ele>45.416</ele>
        <time>1970-01-01T01:00:00Z</time>
      </trkpt>
      <trkpt lat="41.903465" lon="12.50261667">
        <ele>45.416</ele>
        <time>1970-01-01T01:00:00Z</time>
      </trkpt>
    </trkseg>
  </trk>
</gpx>